# Wetter Temperatur Luftdruck Luftfeuchtigkeit Sichtweite Windgeschwindigkeit Windrichtung Zeit
1 Fog 6 1035 93 4000 2.6 100 09:59 29.01.2020
2 Fog 6 1035 93 4000 2.6 100 09:40 29.01.2020
3 Fog 6 1035 93 4000 2.6 100 09:21 29.01.2020
4 Fog 6 1035 87 4000 1.5 120 08:56 29.01.2020
5 Fog 6 1035 87 4000 1.5 120 08:38 29.01.2020
6 Fog 6 1035 87 4000 1.5 120 08:18 29.01.2020
7 Fog 8 1035 87 4000 1 0 07:43 29.01.2020
8 Fog 8 1035 87 4000 1 0 07:24 29.01.2020
9 Clouds 8 1036 75 10000 1 0 06:39 29.01.2020
10 Clouds 8 1036 75 10000 1 0 06:21 29.01.2020
11 Clouds 8 1037 75 10000 2.1 260 05:55 29.01.2020
12 Clouds 8 1037 75 10000 2.1 260 05:36 29.01.2020
13 Clouds 10 1037 66 10000 2.6 170 04:49 29.01.2020
14 Clouds 10 1037 66 10000 2.6 170 04:49 29.01.2020
15 Clouds 10 1037 66 10000 2.6 170 04:25 29.01.2020
16 Rain 6 1017 91 0 2.49 42 02:41 29.01.2020
17 Clouds 11 1034 62 10000 4.1 100 01:44 29.01.2020
18 Clouds 15 1033 28 10000 2.1 60 00:41 29.01.2020
19 Clouds 15 1033 28 10000 2.1 60 00:23 29.01.2020
20 Clouds 15 1033 30 10000 2.6 320 23:41 28.01.2020
21 Clouds 15 1033 30 10000 2.6 320 23:21 28.01.2020
22 Clouds 16 1033 31 10000 5.7 260 22:57 28.01.2020
23 Clouds 16 1033 31 10000 5.7 260 22:39 28.01.2020
24 Clouds 16 1033 31 10000 5.7 260 22:20 28.01.2020
25 Clouds 16 1033 31 10000 5.7 260 22:20 28.01.2020
26 Clouds 17 1034 81 10000 5.1 290 21:41 28.01.2020
27 Clouds 17 1034 81 10000 5.1 290 21:20 28.01.2020
28 Clouds 17 1034 81 10000 5.1 290 21:20 28.01.2020
29 Clouds 16 1035 31 10000 4.6 250 20:46 28.01.2020
30 Clouds 16 1035 31 10000 4.6 250 20:28 28.01.2020
31 Clouds 16 1036 31 10000 3.1 230 19:58 28.01.2020
32 Clouds 16 1036 31 10000 3.1 230 19:38 28.01.2020
33 Clouds 16 1036 31 10000 3.1 230 19:19 28.01.2020
34 Clouds 14 1037 76 10000 1 0 18:54 28.01.2020
35 Clouds 14 1037 76 10000 1 0 18:36 28.01.2020
36 Clouds 14 1037 76 10000 1 0 18:36 28.01.2020
37 Clouds 14 1037 76 10000 1 0 18:18 28.01.2020
38 Clouds 13 1038 50 10000 3.1 150 17:55 28.01.2020
39 Clouds 13 1038 50 10000 3.1 150 17:36 28.01.2020
40 Clouds 13 1038 50 10000 3.1 150 17:18 28.01.2020
41 Clouds 13 1038 54 10000 3.6 110 16:44 28.01.2020
42 Clouds 13 1038 54 10000 3.6 110 16:26 28.01.2020
43 Clouds 12 1039 54 10000 2.1 110 15:59 28.01.2020
44 Clouds 12 1039 54 10000 2.1 110 15:40 28.01.2020
45 Clouds 12 1039 54 10000 2.1 110 15:18 28.01.2020
46 Clouds 9 1039 61 6000 1 0 14:44 28.01.2020
47 Clouds 9 1039 61 6000 1 0 14:20 28.01.2020
48 Fog 7 1038 93 4000 1 0 13:43 28.01.2020
49 Fog 7 1038 93 4000 1 0 13:24 28.01.2020
50 Fog 6 1038 100 4000 1 0 12:46 28.01.2020
51 Mist 5 1038 100 1200 1 0 12:25 28.01.2020
52 Mist 5 1037 93 2000 2.1 110 11:59 28.01.2020
53 Mist 5 1037 93 2000 2.1 110 11:41 28.01.2020
54 Mist 5 1037 93 2000 2.1 110 11:22 28.01.2020
55 Fog 5 1037 93 2000 2.6 80 10:55 28.01.2020
56 Fog 5 1037 93 2000 2.6 80 10:36 28.01.2020
57 Fog 5 1037 93 2000 2.6 80 10:18 28.01.2020
58 Fog 4 1037 100 4000 1 0 09:41 28.01.2020
59 Fog 4 1037 100 4000 1 0 09:20 28.01.2020
60 Fog 4 1037 100 4000 1 0 09:20 28.01.2020
61 Fog 4 1038 86 4000 1.5 80 08:45 28.01.2020
62 Fog 4 1038 86 4000 1.5 80 08:25 28.01.2020
63 Clouds 5 1038 93 10000 1 0 07:44 28.01.2020
64 Clouds 5 1038 93 10000 1 0 07:26 28.01.2020
65 Clouds 5 1039 93 10000 1 0 06:47 28.01.2020
66 Clouds 5 1039 93 10000 1 0 06:24 28.01.2020
67 Clouds 5 1039 93 10000 2.1 80 05:37 28.01.2020
68 Clouds 5 1039 93 10000 2.1 80 05:19 28.01.2020
69 Clouds 7 1039 87 10000 2.1 30 03:46 28.01.2020
70 Clouds 6 1039 93 10000 2.6 60 02:44 28.01.2020
71 Clouds 6 1039 93 10000 2.6 60 02:24 28.01.2020
72 Clouds 7 1039 81 10000 1 0 01:52 28.01.2020
73 Clouds 9 1038 66 10000 1 0 00:58 28.01.2020
74 Clouds 9 1038 66 10000 1 0 00:39 28.01.2020
75 Clouds 9 1038 66 10000 1 0 00:19 28.01.2020
76 Clouds 10 1037 61 10000 1 0 23:42 27.01.2020
77 Clouds 10 1037 61 10000 1 0 23:18 27.01.2020
78 Clouds 10 1037 66 10000 3.1 230 22:44 27.01.2020
79 Clouds 10 1037 66 10000 3.1 230 22:20 27.01.2020
80 Clouds 10 1037 66 10000 3.1 230 22:20 27.01.2020
81 Clouds 10 1037 66 10000 3.1 230 22:20 27.01.2020
82 Clouds 7 1038 81 10000 5.7 80 21:57 27.01.2020
83 Clouds 7 1038 81 10000 5.7 80 21:57 27.01.2020
84 Clouds 7 1038 81 10000 5.7 80 21:38 27.01.2020
85 Clouds 7 1038 81 10000 5.7 80 21:38 27.01.2020
86 Clouds 7 1038 81 10000 5.7 80 21:18 27.01.2020
87 Rain 6 1039 81 6000 7.7 80 20:56 27.01.2020
88 Rain 6 1039 81 6000 7.7 80 20:37 27.01.2020
89 Rain 6 1039 81 6000 7.7 80 20:18 27.01.2020
90 Thunderstorm 6 1040 81 6000 1 0 19:42 27.01.2020
91 Thunderstorm 6 1040 81 6000 1 0 19:23 27.01.2020
92 Clouds 8 1040 70 8000 4.6 220 18:58 27.01.2020
93 Clouds 5 1040 80 6000 4.6 70 18:39 27.01.2020
94 Clouds 5 1040 80 6000 4.6 70 18:20 27.01.2020
95 Clouds 9 1039 76 6000 4.6 130 17:57 27.01.2020
96 Rain 11 1013 66 0 5.43 48 17:37 27.01.2020
97 Clouds 14 1040 54 10000 1 0 17:18 27.01.2020
98 Clouds 14 1040 54 10000 1 0 16:42 27.01.2020
99 Clouds 14 1040 54 10000 1 0 16:24 27.01.2020
100 Clouds 14 1040 54 10000 1 0 16:24 27.01.2020
101 Clouds 13 1041 62 10000 2.1 100 15:55 27.01.2020
102 Clouds 13 1041 62 10000 2.1 100 15:37 27.01.2020
103 Clouds 13 1041 62 10000 2.1 100 15:19 27.01.2020
104 Clouds 12 1040 54 8000 1 0 14:54 27.01.2020
105 Clouds 12 1040 54 8000 1 0 14:36 27.01.2020
106 Clouds 12 1040 54 8000 1 0 14:18 27.01.2020
107 Clouds 8 1040 81 6000 1 0 13:41 27.01.2020
108 Clouds 8 1040 81 6000 1 0 13:20 27.01.2020
109 Fog 4 1039 93 4000 2.1 70 12:55 27.01.2020
110 Fog 4 1039 93 4000 2.1 70 12:37 27.01.2020
111 Fog 4 1039 93 4000 2.1 70 12:18 27.01.2020
112 Fog 3 1038 93 4000 1.5 90 11:41 27.01.2020
113 Fog 3 1038 93 4000 1.5 90 11:41 27.01.2020
114 Fog 3 1038 93 4000 1.5 90 11:20 27.01.2020
115 Clouds 5 1038 80 10000 1 0 10:43 27.01.2020
116 Clouds 5 1038 80 10000 1 0 10:24 27.01.2020
117 Clouds 6 1038 75 10000 2.1 20 09:56 27.01.2020
118 Clouds 6 1038 75 10000 2.1 20 09:38 27.01.2020
119 Clouds 6 1038 75 10000 2.1 20 09:18 27.01.2020
120 Clouds 6 1038 81 10000 1 0 08:42 27.01.2020
121 Clouds 6 1038 81 10000 1 0 08:20 27.01.2020
122 Clouds 7 1039 75 10000 1 0 07:54 27.01.2020
123 Clouds 7 1039 75 10000 1 0 07:54 27.01.2020
124 Clouds 7 1039 75 10000 1 0 07:33 27.01.2020
125 Clouds 9 1040 70 10000 1 0 06:52 27.01.2020
126 Clouds 9 1040 70 10000 1 0 06:24 27.01.2020
127 Clouds 9 1040 70 10000 1 0 05:22 27.01.2020
128 Clouds 11 1041 53 10000 3.1 130 03:43 27.01.2020
129 Thunderstorm 11 1040 57 10000 5.1 180 02:32 27.01.2020
130 Clouds 13 1038 50 10000 4.1 240 01:29 27.01.2020
131 Clouds 15 1037 41 10000 4.6 110 00:43 27.01.2020
132 Clouds 15 1037 41 10000 4.6 110 00:22 27.01.2020
133 Clouds 16 1036 36 10000 5.1 110 23:59 26.01.2020
134 Clouds 16 1036 36 10000 5.1 110 23:41 26.01.2020
135 Clouds 16 1036 36 10000 5.1 110 23:18 26.01.2020
136 Clouds 18 1037 31 10000 6.2 90 22:39 26.01.2020
137 Clouds 18 1037 31 10000 6.2 90 22:20 26.01.2020
138 Clouds 18 1037 31 10000 6.2 70 21:59 26.01.2020
139 Clouds 18 1037 31 10000 6.2 70 21:40 26.01.2020
140 Clouds 18 1037 31 10000 6.2 70 21:22 26.01.2020
141 Clouds 18 1037 31 10000 6.2 70 21:22 26.01.2020
142 Rain 20 1038 24 10000 5.7 70 20:58 26.01.2020
143 Rain 20 1038 24 10000 5.7 70 20:39 26.01.2020
144 Rain 20 1038 24 10000 5.7 70 20:20 26.01.2020
145 Clouds 19 1039 25 10000 5.1 120 19:59 26.01.2020
146 Clouds 19 1039 25 10000 5.1 120 19:59 26.01.2020
147 Clouds 19 1039 25 10000 5.1 120 19:39 26.01.2020
148 Clouds 19 1039 25 10000 5.1 120 19:21 26.01.2020
149 Clouds 18 1040 20 10000 6.7 130 18:56 26.01.2020
150 Clouds 18 1040 20 10000 6.7 130 18:38 26.01.2020
151 Clouds 18 1040 20 10000 6.7 130 18:20 26.01.2020
152 Clouds 16 1040 29 10000 4.6 130 17:55 26.01.2020
153 Clouds 16 1040 29 10000 4.6 130 17:37 26.01.2020
154 Clouds 16 1040 29 10000 4.6 130 17:18 26.01.2020
155 Clouds 15 1041 44 10000 2.6 120 16:56 26.01.2020
156 Clouds 15 1041 44 10000 2.6 120 16:38 26.01.2020
157 Rain 12 1016 54 0 1.79 120 16:18 26.01.2020
158 Rain 12 1016 54 0 1.79 120 15:43 26.01.2020
159 Rain 12 1016 54 0 1.79 120 15:21 26.01.2020
160 Rain 12 1016 54 0 1.79 120 14:58 26.01.2020
161 Rain 12 1016 54 0 1.79 120 14:38 26.01.2020
162 Clouds 6 1019 75 0 0.59 63 14:19 26.01.2020
163 Clouds 6 1019 75 0 0.59 63 13:40 26.01.2020
164 Clouds 6 1019 75 0 0.59 63 13:19 26.01.2020
165 Clouds 7 1019 70 0 0.37 82 12:56 26.01.2020
166 Clouds 7 1019 70 0 0.37 82 12:36 26.01.2020
167 Clouds 7 1019 70 0 0.37 82 12:18 26.01.2020
168 Clouds 7 1019 70 0 0.37 82 11:56 26.01.2020
169 Clouds 7 1019 70 0 0.37 82 11:36 26.01.2020
170 Fog 4 1039 93 4000 2.6 70 11:18 26.01.2020
171 Fog 4 1039 93 4000 2.6 70 10:39 26.01.2020
172 Fog 4 1039 93 4000 2.6 70 10:21 26.01.2020
173 Fog 5 1038 93 4000 2.6 70 09:59 26.01.2020
174 Fog 5 1038 93 4000 2.6 70 09:41 26.01.2020
175 Fog 5 1038 93 4000 2.6 70 09:22 26.01.2020
176 Fog 7 1039 87 4000 3.6 110 08:55 26.01.2020
177 Fog 7 1039 87 4000 3.6 110 08:37 26.01.2020
178 Fog 7 1039 87 4000 3.6 110 08:18 26.01.2020
179 Clouds 7 1039 87 10000 1 0 07:45 26.01.2020
180 Clouds 7 1039 87 10000 1 0 07:45 26.01.2020
181 Clouds 7 1039 87 10000 1 0 07:22 26.01.2020
182 Clouds 5 1039 86 10000 1 0 06:32 26.01.2020
183 Clouds 5 1040 86 10000 1 0 05:37 26.01.2020
184 Clouds 8 1040 70 10000 3.1 110 04:58 26.01.2020
185 Clouds 10 1038 61 10000 4.1 80 02:59 26.01.2020
186 Clouds 10 1038 61 10000 4.1 80 02:59 26.01.2020
187 Clouds 12 1037 50 10000 6.2 60 01:59 26.01.2020
188 Clouds 12 1037 50 10000 6.2 60 01:38 26.01.2020
189 Clouds 12 1037 50 10000 6.2 60 01:19 26.01.2020
190 Clouds 14 1036 50 10000 6.2 110 00:39 26.01.2020
191 Clouds 14 1036 50 10000 6.2 110 00:20 26.01.2020
192 Clouds 14 1036 50 10000 6.2 110 00:20 26.01.2020
193 Clouds 14 1036 50 10000 6.2 110 00:20 26.01.2020
194 Clouds 7 1013 79 0 3.61 39 23:37 25.01.2020
195 Clouds 12 1010 57 0 3.65 52 23:19 25.01.2020
196 Clouds 12 1010 57 0 3.65 52 22:43 25.01.2020
197 Clouds 12 1010 57 0 3.65 52 22:20 25.01.2020
198 Clouds 12 1010 57 0 3.65 52 21:57 25.01.2020
199 Clouds 12 1010 57 0 3.65 52 21:39 25.01.2020
200 Clouds 12 1010 57 0 3.65 52 21:20 25.01.2020
201 Clouds 12 1010 57 0 3.65 52 20:45 25.01.2020
202 Clouds 12 1010 57 0 3.65 52 20:25 25.01.2020
203 Rain 12 1012 61 0 4.32 57 19:56 25.01.2020
204 Rain 12 1012 63 0 4.17 56 19:37 25.01.2020
205 Rain 12 1012 63 0 4.17 56 19:18 25.01.2020
206 Rain 12 1012 63 0 4.17 56 18:43 25.01.2020
207 Rain 12 1012 61 0 4.32 57 18:23 25.01.2020
208 Rain 12 1012 63 0 4.17 56 17:58 25.01.2020
209 Rain 12 1012 61 0 4.32 57 17:38 25.01.2020
210 Rain 11 1016 63 0 2.38 110 17:19 25.01.2020
211 Rain 11 1016 63 0 2.38 110 16:43 25.01.2020
212 Rain 11 1016 63 0 2.38 110 16:23 25.01.2020
213 Rain 11 1016 63 0 2.38 110 15:58 25.01.2020
214 Rain 11 1016 63 0 2.38 110 15:58 25.01.2020
215 Rain 11 1016 63 0 2.38 110 15:40 25.01.2020
216 Rain 11 1016 63 0 2.38 110 15:21 25.01.2020
217 Rain 11 1016 63 0 2.38 110 14:43 25.01.2020
218 Clouds 7 1019 76 0 1.66 44 14:19 25.01.2020
219 Clouds 7 1019 76 0 1.66 44 13:54 25.01.2020
220 Clouds 7 1019 76 0 1.66 44 13:36 25.01.2020
221 Clouds 7 1019 73 0 1.67 51 13:18 25.01.2020
222 Clouds 7 1019 73 0 1.67 51 12:39 25.01.2020
223 Fog 7 1038 87 4000 2.1 90 12:20 25.01.2020
224 Fog 7 1038 87 4000 2.1 90 11:40 25.01.2020
225 Fog 7 1038 87 4000 2.1 90 11:20 25.01.2020
226 Fog 6 1037 93 4000 2.1 80 10:56 25.01.2020
227 Fog 6 1037 93 4000 2.1 80 10:38 25.01.2020
228 Fog 6 1037 93 4000 2.1 80 10:18 25.01.2020
229 Fog 7 1037 87 4000 2.6 120 09:40 25.01.2020
230 Fog 7 1037 87 4000 2.6 120 09:19 25.01.2020
231 Fog 7 1037 87 4000 4.1 120 08:43 25.01.2020
232 Fog 8 1038 87 4000 3.1 90 07:58 25.01.2020
233 Fog 8 1038 87 4000 3.1 90 07:36 25.01.2020
234 Clouds 5 1017 86 0 3.2 44 06:41 25.01.2020
235 Fog 8 1038 93 4000 3.6 80 06:22 25.01.2020
236 Fog 8 1038 93 4000 3.6 80 05:43 25.01.2020
237 Fog 8 1038 100 4000 4.1 90 04:19 25.01.2020
238 Fog 8 1038 93 4000 4.1 80 03:49 25.01.2020
239 Clouds 11 1036 76 10000 4.6 100 02:37 25.01.2020
240 Clouds 11 1036 71 10000 5.7 100 01:57 25.01.2020
241 Clouds 11 1036 71 10000 5.7 100 01:23 25.01.2020
242 Clouds 13 1035 58 10000 4.6 110 00:39 25.01.2020
243 Clouds 13 1035 58 10000 4.6 110 00:18 25.01.2020
244 Clouds 16 1034 44 10000 6.2 100 23:42 24.01.2020
245 Clouds 16 1034 44 10000 6.2 100 23:23 24.01.2020
246 Clouds 18 1034 34 10000 5.7 110 22:46 24.01.2020
247 Clouds 18 1034 34 10000 5.7 110 22:46 24.01.2020
248 Clouds 18 1034 34 10000 5.7 110 22:28 24.01.2020
249 Clouds 18 1035 34 10000 4.1 120 21:58 24.01.2020
250 Clouds 18 1035 34 10000 4.1 120 21:40 24.01.2020
251 Clouds 18 1035 34 10000 4.1 120 21:18 24.01.2020
252 Clouds 18 1036 34 10000 5.1 150 20:43 24.01.2020
253 Clouds 18 1036 34 10000 5.1 150 20:22 24.01.2020
254 Clouds 17 1037 39 10000 5.1 130 19:58 24.01.2020
255 Clouds 17 1037 39 10000 5.1 130 19:40 24.01.2020
256 Clouds 17 1037 39 10000 5.1 130 19:21 24.01.2020
257 Clouds 16 1038 44 10000 4.6 110 18:44 24.01.2020
258 Clouds 16 1038 44 10000 4.6 110 18:25 24.01.2020
259 Clouds 15 1038 51 10000 4.6 120 17:59 24.01.2020
260 Clouds 15 1038 51 10000 4.6 120 17:41 24.01.2020
261 Clouds 15 1038 51 10000 4.6 120 17:20 24.01.2020
262 Clouds 13 1039 62 10000 3.1 120 16:40 24.01.2020
263 Clouds 13 1039 62 10000 3.1 120 16:21 24.01.2020
264 Clouds 11 1039 71 8000 2.6 140 15:56 24.01.2020
265 Clouds 11 1039 71 8000 2.6 140 15:38 24.01.2020
266 Clouds 11 1039 71 8000 2.6 140 15:19 24.01.2020
267 Clouds 10 1038 76 6000 2.6 150 14:41 24.01.2020
268 Clouds 10 1038 76 6000 2.6 150 14:22 24.01.2020
269 Fog 8 1038 87 4000 2.6 150 13:45 24.01.2020
270 Fog 8 1038 87 4000 2.6 150 13:24 24.01.2020
271 Fog 7 1037 93 4000 2.6 120 12:45 24.01.2020
272 Fog 7 1037 93 4000 2.6 120 12:45 24.01.2020
273 Fog 7 1037 93 4000 2.6 120 12:24 24.01.2020
274 Fog 7 1036 87 4000 2.1 150 11:59 24.01.2020
275 Fog 7 1036 87 4000 2.1 150 11:40 24.01.2020
276 Fog 7 1036 87 4000 2.1 150 11:18 24.01.2020
277 Fog 7 1036 87 4000 2.1 80 10:43 24.01.2020
278 Fog 7 1036 87 4000 2.1 80 10:21 24.01.2020
279 Fog 7 1036 87 4000 3.1 120 09:55 24.01.2020
280 Fog 7 1036 87 4000 3.1 120 09:37 24.01.2020
281 Fog 7 1036 87 4000 3.1 120 09:18 24.01.2020
282 Fog 6 1036 93 4000 2.6 100 08:39 24.01.2020
283 Fog 6 1036 93 4000 2.6 100 08:19 24.01.2020
284 Fog 5 1036 100 4000 2.1 70 07:48 24.01.2020
285 Fog 5 1036 100 4000 2.1 70 07:22 24.01.2020
286 Fog 5 1037 93 4000 2.6 60 06:45 24.01.2020
287 Clouds 6 1037 93 10000 2.6 70 06:24 24.01.2020
288 Clouds 6 1037 93 10000 2.6 70 05:33 24.01.2020
289 Clouds 8 1037 81 10000 3.1 70 03:36 24.01.2020
290 Clouds 8 1036 75 10000 2.6 70 02:40 24.01.2020
291 Clouds 8 1036 75 10000 2.6 70 02:21 24.01.2020
292 Clouds 10 1036 66 10000 3.6 100 01:39 24.01.2020
293 Clouds 12 1035 54 10000 4.1 110 00:49 24.01.2020
294 Clouds 12 1035 54 10000 4.1 110 00:19 24.01.2020
295 Clouds 14 1035 44 10000 4.6 100 23:42 23.01.2020
296 Clouds 14 1035 44 10000 4.6 100 23:22 23.01.2020
297 Clouds 15 1035 41 10000 4.6 120 22:58 23.01.2020
298 Clouds 15 1035 41 10000 4.6 120 22:37 23.01.2020
299 Clouds 15 1035 41 10000 4.6 120 22:37 23.01.2020
300 Clouds 15 1035 41 10000 4.6 120 22:18 23.01.2020
301 Clouds 16 1036 65 10000 5.1 110 21:55 23.01.2020
302 Clouds 16 1036 65 10000 5.1 110 21:37 23.01.2020
303 Clouds 16 1036 65 10000 5.1 110 21:18 23.01.2020
304 Clouds 15 1036 65 10000 4.1 100 20:41 23.01.2020
305 Clouds 15 1036 53 10000 4.1 100 20:22 23.01.2020
306 Clouds 15 1037 41 10000 4.1 130 19:57 23.01.2020
307 Clouds 15 1037 41 10000 4.1 130 19:39 23.01.2020
308 Clouds 15 1037 41 10000 4.1 130 19:39 23.01.2020
309 Clouds 15 1037 41 10000 4.1 130 19:21 23.01.2020
310 Clouds 14 1038 50 10000 3.6 130 18:56 23.01.2020
311 Clouds 14 1038 50 10000 3.6 130 18:38 23.01.2020
312 Clouds 14 1038 50 10000 3.6 130 18:19 23.01.2020
313 Clouds 14 1038 50 10000 3.6 130 18:19 23.01.2020
314 Clouds 13 1039 50 10000 3.6 150 17:44 23.01.2020
315 Clouds 13 1039 50 10000 3.6 150 17:21 23.01.2020
316 Clouds 11 1040 62 8000 1 0 16:58 23.01.2020
317 Clouds 11 1040 62 8000 1 0 16:38 23.01.2020
318 Clouds 11 1040 62 8000 1 0 16:19 23.01.2020
319 Clouds 11 1039 62 6000 3.1 100 15:57 23.01.2020
320 Clouds 11 1039 62 6000 3.1 100 15:38 23.01.2020
321 Clouds 11 1039 62 6000 3.1 100 15:18 23.01.2020
322 -273 0 0 0 0 0 15:18 23.01.2020
323 Clouds 9 1039 76 6000 2.6 60 14:56 23.01.2020
324 Clouds 9 1039 76 6000 2.6 60 14:56 23.01.2020
325 Clouds 9 1039 76 6000 2.6 60 14:38 23.01.2020
326 Clouds 9 1039 76 6000 2.6 60 14:20 23.01.2020
327 Clouds 9 1038 76 6000 2.1 80 13:45 23.01.2020
328 Clouds 9 1038 76 6000 2.1 80 13:21 23.01.2020
329 Fog 6 1038 93 4000 2.6 120 12:55 23.01.2020
330 Fog 6 1038 93 4000 2.6 120 12:37 23.01.2020
331 Fog 6 1038 93 4000 2.6 120 12:18 23.01.2020
332 Fog 6 1037 87 4000 2.6 60 11:43 23.01.2020
333 Fog 6 1037 87 4000 2.6 60 11:24 23.01.2020
334 Clouds 6 1036 75 10000 4.6 50 10:58 23.01.2020
335 Clouds 6 1036 75 10000 4.6 50 10:40 23.01.2020
336 Clouds 6 1036 75 10000 4.6 50 10:18 23.01.2020
337 Clouds 6 1037 81 10000 1.5 40 09:40 23.01.2020
338 Clouds 6 1037 81 10000 1.5 40 09:21 23.01.2020
339 Clouds 6 1037 87 10000 2.1 90 08:43 23.01.2020
340 Clouds 6 1037 87 10000 2.1 90 08:25 23.01.2020
341 Rain 5 1038 86 10000 4.6 50 07:52 23.01.2020
342 Rain 5 1038 86 10000 4.6 50 07:27 23.01.2020
343 Rain 6 1038 87 4000 6.2 50 06:55 23.01.2020
344 Rain 6 1038 87 4000 6.2 50 06:25 23.01.2020
345 Fog 8 1038 93 4000 4.6 100 05:59 23.01.2020
346 Fog 8 1038 87 4000 4.6 100 04:25 23.01.2020
347 Clouds 8 1036 87 10000 3.6 80 02:50 23.01.2020
348 Clouds 9 1035 76 10000 4.6 100 01:51 23.01.2020
349 Clouds 11 1034 62 10000 5.1 120 00:41 23.01.2020
350 Clouds 11 1034 62 10000 5.1 120 00:20 23.01.2020
351 Clouds 13 1034 62 10000 5.1 100 23:45 22.01.2020
352 Clouds 13 1034 62 10000 5.1 100 23:27 22.01.2020
353 Clouds 14 1034 54 10000 4.6 100 22:43 22.01.2020
354 Clouds 14 1034 54 10000 4.6 100 22:24 22.01.2020
355 Clouds 13 1035 66 10000 5.1 100 21:58 22.01.2020
356 Clouds 13 1035 66 10000 5.1 100 21:36 22.01.2020
357 Clouds 13 1035 66 10000 5.1 100 21:36 22.01.2020
358 Clouds 13 1035 66 10000 5.1 100 21:18 22.01.2020
359 Rain 12 1036 66 10000 2.6 70 20:41 22.01.2020
360 Rain 12 1036 66 10000 2.6 70 20:23 22.01.2020
361 Clouds 12 1037 66 10000 2.6 80 19:58 22.01.2020
362 Clouds 12 1037 66 10000 2.6 80 19:39 22.01.2020
363 Clouds 12 1037 66 10000 2.6 80 19:19 22.01.2020
364 Clouds 12 1038 66 10000 3.1 90 18:57 22.01.2020
365 Clouds 12 1038 66 10000 3.1 90 18:38 22.01.2020
366 Clouds 12 1038 66 10000 3.1 90 18:20 22.01.2020
367 Clouds 11 1038 76 6000 5.1 110 17:55 22.01.2020
368 Clouds 11 1038 76 6000 5.1 110 17:55 22.01.2020
369 Clouds 11 1038 76 6000 5.1 110 17:37 22.01.2020
370 Clouds 11 1038 76 6000 5.1 110 17:19 22.01.2020
371 Clouds 10 1038 81 6000 4.6 100 16:43 22.01.2020
372 Clouds 10 1038 81 6000 4.6 100 16:23 22.01.2020
373 Fog 8 1038 87 4000 5.1 90 15:59 22.01.2020
374 Fog 8 1038 87 4000 5.1 90 15:40 22.01.2020
375 Fog 8 1038 87 4000 5.1 90 15:22 22.01.2020
376 Rain 7 1038 93 3000 5.1 90 14:57 22.01.2020
377 Rain 7 1038 93 3000 5.1 90 14:37 22.01.2020
378 Rain 7 1038 93 3000 5.1 90 14:18 22.01.2020
379 Rain 6 1037 93 4000 7.7 80 13:54 22.01.2020
380 Rain 6 1037 93 4000 7.7 80 13:36 22.01.2020
381 Rain 6 1037 93 4000 7.7 80 13:18 22.01.2020
382 Fog 6 1037 93 1200 7.7 90 12:54 22.01.2020
383 Fog 5 1037 100 1200 7.2 100 12:36 22.01.2020
384 Fog 5 1037 100 1200 7.2 100 12:18 22.01.2020
385 Fog 5 1037 100 1200 7.2 100 12:18 22.01.2020
386 Rain 6 1037 93 4000 5.1 90 11:55 22.01.2020
387 Rain 6 1037 93 4000 5.1 90 11:55 22.01.2020
388 Rain 6 1037 93 4000 5.1 90 11:36 22.01.2020
389 Rain 6 1037 93 4000 5.1 90 11:18 22.01.2020
390 Rain 24 1009 100 6000 2.6 290 10:42 22.01.2020
391 Rain 24 1009 100 6000 2.6 290 10:19 22.01.2020
392 Clouds 7 1035 81 10000 3.1 60 09:43 22.01.2020
393 Clouds 7 1035 81 10000 3.1 60 09:24 22.01.2020
394 Thunderstorm 7 1035 87 4000 4.1 90 08:57 22.01.2020
395 Thunderstorm 7 1035 87 4000 4.1 90 08:39 22.01.2020
396 Thunderstorm 7 1035 87 4000 4.1 90 08:20 22.01.2020
397 Thunderstorm 9 1036 66 4000 2.1 50 07:46 22.01.2020
398 Thunderstorm 9 1036 66 4000 2.1 50 07:28 22.01.2020
399 Thunderstorm 8 1037 93 10000 1 0 06:38 22.01.2020
400 Thunderstorm 8 1037 93 10000 1 0 06:20 22.01.2020
401 Clouds 8 1037 93 10000 1 0 05:21 22.01.2020
402 Clouds 10 1037 81 10000 2.1 140 03:30 22.01.2020
403 Clouds 11 1036 76 10000 1.5 120 02:50 22.01.2020
404 Clouds 11 1035 76 10000 3.1 100 01:42 22.01.2020
405 Clouds 12 1034 54 10000 4.1 40 00:44 22.01.2020
406 Clouds 12 1034 54 10000 4.1 40 00:25 22.01.2020
407 Clouds 14 1033 54 10000 1.5 50 23:38 21.01.2020
408 Clouds 14 1033 54 10000 1.5 50 23:20 21.01.2020
409 Clouds 14 1033 58 10000 4.1 300 22:55 21.01.2020
410 Clouds 14 1033 58 10000 4.1 300 22:36 21.01.2020
411 Clouds 14 1033 58 10000 4.1 300 22:36 21.01.2020
412 Clouds 14 1033 58 10000 4.1 300 22:18 21.01.2020
413 Clouds 15 1034 51 10000 3.6 90 21:55 21.01.2020
414 Clouds 15 1034 51 10000 3.6 90 21:36 21.01.2020
415 Clouds 15 1034 51 10000 3.6 90 21:18 21.01.2020
416 Clouds 13 1035 62 10000 3.1 60 20:39 21.01.2020
417 Clouds 13 1035 62 10000 3.1 60 20:20 21.01.2020
418 Clouds 12 1036 71 6000 4.6 90 19:58 21.01.2020
419 Clouds 12 1036 71 6000 4.6 90 19:58 21.01.2020
420 Clouds 12 1036 71 6000 4.6 90 19:39 21.01.2020
421 Clouds 12 1036 71 6000 4.6 90 19:21 21.01.2020
422 Clouds 12 1036 71 6000 5.1 70 18:57 21.01.2020
423 Clouds 15 1037 54 10000 5.7 110 18:39 21.01.2020
424 Clouds 15 1037 54 10000 5.7 110 18:20 21.01.2020
425 Clouds 14 1038 58 10000 5.1 130 17:56 21.01.2020
426 Clouds 14 1038 58 10000 5.1 130 17:38 21.01.2020
427 Clouds 14 1038 58 10000 5.1 130 17:18 21.01.2020
428 Clouds 13 1038 58 10000 2.6 90 16:38 21.01.2020
429 Clouds 13 1038 58 10000 2.6 90 16:19 21.01.2020
430 Clouds 13 1038 58 10000 2.6 90 16:19 21.01.2020
431 Clouds 11 1038 66 10000 1 0 15:59 21.01.2020
432 Clouds 11 1038 66 10000 1 0 15:38 21.01.2020
433 Clouds 11 1038 66 10000 1 0 15:19 21.01.2020
434 Clouds 10 1038 71 10000 1 0 14:39 21.01.2020
435 Clouds 10 1038 71 10000 1 0 14:39 21.01.2020
436 Clouds 10 1038 71 10000 1 0 14:21 21.01.2020
437 Clouds 8 1038 81 10000 1 0 13:43 21.01.2020
438 Clouds 8 1038 81 10000 1 0 13:20 21.01.2020
439 Clouds 6 1037 93 10000 1 0 12:58 21.01.2020
440 Clouds 6 1037 93 10000 1 0 12:39 21.01.2020
441 Clouds 6 1037 93 10000 1 0 12:21 21.01.2020
442 Rain 7 1037 93 8000 2.1 310 11:41 21.01.2020
443 Rain 7 1037 93 8000 2.1 310 11:22 21.01.2020
444 Rain 7 1036 93 4000 3.1 260 11:00 21.01.2020
445 Rain 7 1036 93 4000 3.1 260 10:41 21.01.2020
446 Rain 7 1036 93 4000 3.1 260 10:22 21.01.2020
447 Rain 8 1036 87 4000 3.6 260 09:43 21.01.2020
448 Rain 8 1036 87 4000 3.6 260 09:23 21.01.2020
449 Clouds 8 1037 87 10000 3.6 270 08:56 21.01.2020
450 Clouds 8 1037 87 10000 3.6 270 08:38 21.01.2020
451 Clouds 8 1037 87 10000 3.6 270 08:19 21.01.2020
452 Fog 9 1037 81 4000 1 0 07:41 21.01.2020
453 Fog 9 1037 81 4000 1 0 07:22 21.01.2020
454 Clouds 8 1038 87 10000 2.1 270 06:49 21.01.2020
455 Clouds 8 1038 87 10000 2.1 270 06:30 21.01.2020
456 Clouds 9 1039 81 10000 1 0 05:43 21.01.2020
457 Clouds 8 1039 81 10000 1.5 90 04:41 21.01.2020
458 Clouds 9 1037 76 10000 3.1 80 02:57 21.01.2020
459 Clouds 10 1036 71 10000 4.1 100 01:56 21.01.2020
460 Clouds 10 1036 71 10000 4.1 100 01:26 21.01.2020
461 Clouds 12 1035 62 10000 5.1 120 00:37 21.01.2020
462 Clouds 15 1035 44 10000 4.6 110 23:59 20.01.2020
463 Clouds 15 1035 44 10000 4.6 110 23:39 20.01.2020
464 Clouds 15 1035 44 10000 4.6 110 23:39 20.01.2020
465 Clouds 15 1035 44 10000 4.6 110 23:19 20.01.2020
466 Clouds 15 1035 47 10000 4.1 140 22:56 20.01.2020
467 Clouds 15 1035 47 10000 4.1 140 22:37 20.01.2020
468 Clouds 15 1035 47 10000 4.1 140 22:19 20.01.2020
469 Clouds 14 1036 50 10000 2.6 110 21:57 20.01.2020
470 Clouds 14 1036 50 10000 2.6 110 21:37 20.01.2020
471 Clouds 14 1036 50 10000 2.6 110 21:19 20.01.2020
472 Clouds 14 1037 54 10000 4.1 80 20:55 20.01.2020
473 Clouds 14 1037 54 10000 4.1 80 20:36 20.01.2020
474 Clouds 14 1037 54 10000 4.1 80 20:18 20.01.2020
475 Clouds 14 1037 54 10000 4.1 80 20:18 20.01.2020
476 Clouds 14 1039 50 10000 2.1 150 19:56 20.01.2020
477 Clouds 14 1039 50 10000 2.1 150 19:37 20.01.2020
478 Clouds 14 1039 50 10000 2.1 150 19:18 20.01.2020
479 Rain 10 1040 71 8000 3.1 100 18:42 20.01.2020
480 Rain 10 1040 71 8000 3.1 100 18:21 20.01.2020
481 Rain 9 1041 81 8000 4.1 90 17:40 20.01.2020
482 Rain 9 1041 81 8000 4.1 90 17:19 20.01.2020
483 Clouds 8 1041 93 6000 2.6 200 16:58 20.01.2020
484 Clouds 8 1041 93 6000 2.6 200 16:37 20.01.2020
485 Clouds 8 1041 93 6000 2.6 200 16:18 20.01.2020
486 Clouds 8 1041 93 6000 2.6 200 16:18 20.01.2020
487 Clouds 8 1041 81 6000 3.6 230 15:41 20.01.2020
488 Clouds 8 1041 81 6000 3.6 230 15:22 20.01.2020
489 Clouds 8 1041 81 6000 4.1 250 15:00 20.01.2020
490 Clouds 8 1041 81 6000 4.1 250 14:41 20.01.2020
491 Clouds 8 1041 81 6000 4.1 250 14:21 20.01.2020
492 Clouds 8 1040 87 6000 2.1 280 13:57 20.01.2020
493 Clouds 8 1040 87 6000 2.1 280 13:38 20.01.2020
494 Clouds 8 1040 87 6000 2.1 280 13:20 20.01.2020
495 Fog 8 1039 87 4000 1 0 12:44 20.01.2020
496 Fog 8 1039 87 4000 1 0 12:25 20.01.2020
497 Fog 8 1039 87 4000 1 0 12:25 20.01.2020
498 Fog 8 1038 87 4000 2.1 120 11:56 20.01.2020
499 Fog 8 1038 87 4000 2.1 120 11:37 20.01.2020
500 Fog 8 1038 87 4000 2.1 120 11:19 20.01.2020
501 Fog 8 1038 87 4000 2.6 120 10:46 20.01.2020
502 Fog 8 1038 87 4000 2.6 120 10:21 20.01.2020
503 Fog 8 1038 87 4000 2.1 130 09:42 20.01.2020
504 Fog 8 1038 87 4000 2.1 130 09:24 20.01.2020
505 Fog 8 1038 87 4000 2.6 110 08:56 20.01.2020
506 Fog 8 1038 87 4000 2.6 110 08:35 20.01.2020
507 Fog 8 1038 87 4000 2.6 90 07:59 20.01.2020
508 Fog 8 1038 87 4000 2.6 90 07:41 20.01.2020
509 Fog 8 1038 87 4000 2.6 90 07:21 20.01.2020
510 Fog 8 1040 87 4000 2.1 100 06:44 20.01.2020
511 Fog 8 1040 87 4000 2.1 100 06:22 20.01.2020
512 Clouds 8 1040 87 10000 2.6 80 05:38 20.01.2020
513 Clouds 8 1040 87 10000 2.6 80 05:19 20.01.2020
514 Clouds 8 1040 87 10000 2.6 80 04:23 20.01.2020
515 Clouds 10 1038 71 10000 2.6 30 01:59 20.01.2020
516 Clouds 10 1038 71 10000 2.6 30 01:40 20.01.2020
517 Clouds 10 1038 71 10000 2.6 30 01:18 20.01.2020
518 Clouds 12 1037 62 10000 3.1 70 00:42 20.01.2020
519 Clouds 12 1037 62 10000 3.1 70 00:20 20.01.2020
520 Clouds 13 1036 58 10000 3.1 90 23:38 19.01.2020
521 Clouds 13 1036 58 10000 3.1 90 23:19 19.01.2020
522 Clouds 13 1036 58 10000 2.1 310 22:56 19.01.2020
523 Clouds 13 1036 58 10000 2.1 310 22:37 19.01.2020
524 Clouds 13 1036 58 10000 2.1 310 22:19 19.01.2020
525 Clouds 13 1037 54 10000 3.6 300 21:56 19.01.2020
526 Clouds 13 1037 54 10000 3.6 300 21:38 19.01.2020
527 Clouds 13 1037 54 10000 3.6 300 21:19 19.01.2020
528 Clouds 13 1038 54 10000 5.1 270 20:56 19.01.2020
529 Clouds 13 1038 54 10000 5.1 270 20:38 19.01.2020
530 Clouds 13 1038 54 10000 5.1 270 20:38 19.01.2020
531 Clouds 13 1038 54 10000 5.1 270 20:19 19.01.2020
532 Clouds 15 1039 47 10000 4.1 110 19:55 19.01.2020
533 Clouds 15 1039 47 10000 4.1 110 19:37 19.01.2020
534 Clouds 15 1039 47 10000 4.1 110 19:19 19.01.2020
535 Clouds 16 1040 44 10000 4.1 90 18:55 19.01.2020
536 Clouds 16 1040 44 10000 4.1 90 18:37 19.01.2020
537 Clouds 16 1040 44 10000 4.1 90 18:19 19.01.2020
538 Clouds 16 1040 44 10000 4.1 90 18:19 19.01.2020
539 Clouds 15 1040 51 10000 5.1 100 17:57 19.01.2020
540 Clouds 15 1040 51 10000 5.1 100 17:38 19.01.2020
541 Clouds 15 1040 51 10000 5.1 100 17:19 19.01.2020
542 Clouds 14 1041 54 10000 6.2 100 16:57 19.01.2020
543 Clouds 14 1041 54 10000 6.2 100 16:37 19.01.2020
544 Clouds 14 1041 54 10000 6.2 100 16:19 19.01.2020
545 Clouds 12 1041 62 10000 4.1 90 15:55 19.01.2020
546 Clouds 12 1041 62 10000 4.1 90 15:37 19.01.2020
547 Clouds 12 1041 62 10000 4.1 90 15:18 19.01.2020
548 Clouds 10 1041 71 10000 3.1 140 14:41 19.01.2020
549 Clouds 10 1041 71 10000 3.1 140 14:21 19.01.2020
550 Clouds 8 1040 75 10000 1 0 13:59 19.01.2020
551 Clouds 8 1040 75 10000 1 0 13:40 19.01.2020
552 Clouds 8 1040 75 10000 1 0 13:22 19.01.2020
553 Clouds 8 1040 75 10000 1 0 13:22 19.01.2020
554 Fog 6 1040 93 4000 1 0 12:59 19.01.2020
555 Fog 6 1040 93 4000 1 0 12:41 19.01.2020
556 Fog 6 1040 93 4000 1 0 12:21 19.01.2020
557 Fog 6 1039 87 4000 2.6 120 11:57 19.01.2020
558 Fog 6 1039 87 4000 2.6 120 11:38 19.01.2020
559 Fog 6 1039 87 4000 2.6 120 11:18 19.01.2020
560 Fog 6 1039 87 3000 3.1 110 10:41 19.01.2020
561 Fog 6 1039 87 3000 3.1 110 10:21 19.01.2020
562 Fog 5 1039 93 3000 2.6 90 09:57 19.01.2020
563 Fog 5 1039 93 3000 2.6 90 09:38 19.01.2020
564 Fog 5 1039 93 3000 2.6 90 09:20 19.01.2020
565 Fog 5 1039 93 3000 2.6 100 08:55 19.01.2020
566 Fog 5 1039 93 3000 2.6 100 08:33 19.01.2020
567 Fog 4 1039 93 3000 1 0 07:55 19.01.2020
568 Fog 4 1039 93 3000 1 0 07:29 19.01.2020
569 Fog 5 1039 93 3000 2.1 70 06:55 19.01.2020
570 Fog 5 1039 93 3000 2.1 70 06:22 19.01.2020
571 Clouds 7 1039 81 10000 4.1 70 03:58 19.01.2020
572 Clouds 9 1038 70 10000 4.6 100 02:34 19.01.2020
573 Clouds 10 1038 66 10000 3.6 100 01:42 19.01.2020
574 Clouds 10 1038 66 10000 3.6 100 01:20 19.01.2020
575 Clouds 12 1037 50 10000 2.6 70 00:44 19.01.2020
576 Clouds 14 1037 47 10000 4.1 70 00:20 19.01.2020
577 Clouds 14 1037 47 10000 4.1 70 23:47 18.01.2020
578 Clouds 14 1037 47 10000 4.1 70 23:25 18.01.2020
579 Clouds 14 1037 47 10000 4.6 80 22:58 18.01.2020
580 Clouds 14 1037 47 10000 4.6 80 22:40 18.01.2020
581 Clouds 14 1037 47 10000 4.6 80 22:21 18.01.2020
582 Clouds 15 1038 44 10000 4.6 90 21:58 18.01.2020
583 Clouds 15 1038 44 10000 4.6 90 21:38 18.01.2020
584 Clouds 15 1038 44 10000 4.6 90 21:20 18.01.2020
585 Clouds 15 1038 44 10000 4.6 90 21:20 18.01.2020
586 Clouds 16 1039 41 10000 5.1 80 20:55 18.01.2020
587 Clouds 16 1039 41 10000 5.1 80 20:36 18.01.2020
588 Clouds 16 1039 41 10000 5.1 80 20:18 18.01.2020
589 Clouds 15 1040 44 10000 4.1 70 19:42 18.01.2020
590 Clouds 15 1040 44 10000 4.1 70 19:24 18.01.2020
591 Clouds 14 1040 50 10000 6.2 70 18:43 18.01.2020
592 Clouds 14 1040 50 10000 6.2 70 18:24 18.01.2020
593 Clouds 13 1041 54 10000 5.7 90 17:57 18.01.2020
594 Clouds 13 1041 54 10000 5.7 90 17:39 18.01.2020
595 Clouds 13 1041 54 10000 5.7 90 17:19 18.01.2020
596 Clouds 13 1041 54 10000 4.1 100 16:55 18.01.2020
597 Clouds 13 1041 54 10000 4.1 100 16:36 18.01.2020
598 Clouds 13 1041 54 10000 4.1 100 16:18 18.01.2020
599 Clouds 12 1042 58 10000 3.6 110 16:18 18.01.2020
600 Clouds 12 1042 58 10000 3.6 110 15:41 18.01.2020
601 Clouds 12 1042 58 10000 3.6 110 15:23 18.01.2020
602 Clouds 10 1042 66 10000 2.1 90 14:57 18.01.2020
603 Clouds 10 1042 66 10000 2.1 90 14:39 18.01.2020
604 Clouds 10 1042 66 10000 2.1 90 14:18 18.01.2020
605 Clouds 6 1041 81 6000 1 0 13:43 18.01.2020
606 Clouds 6 1041 81 6000 1 0 13:24 18.01.2020
607 Fog 5 1041 93 4000 2.6 110 12:57 18.01.2020
608 Fog 5 1041 93 4000 2.6 110 12:38 18.01.2020
609 Fog 5 1041 93 4000 2.6 110 12:19 18.01.2020
610 Fog 4 1040 93 4000 1 0 11:44 18.01.2020
611 Fog 4 1040 93 4000 1 0 11:21 18.01.2020
612 Fog 4 1040 93 4000 1 0 10:56 18.01.2020
613 Fog 4 1040 93 4000 1 0 10:38 18.01.2020
614 Fog 4 1040 93 4000 1 0 10:18 18.01.2020
615 Fog 4 1040 93 4000 1 0 10:18 18.01.2020
616 Fog 4 1040 93 4000 1 0 09:42 18.01.2020
617 Fog 4 1040 93 4000 1 0 09:24 18.01.2020
618 Fog 4 1040 93 4000 1 0 08:55 18.01.2020
619 Clouds 4 1021 90 0 2.35 42 08:37 18.01.2020
620 Clouds 4 1041 93 10000 2.98 32 08:18 18.01.2020
621 Clouds 4 1041 93 10000 2.98 32 07:40 18.01.2020
622 Clouds 4 1041 93 10000 2.98 32 07:20 18.01.2020
623 Clouds 5 1041 93 10000 1 0 06:45 18.01.2020
624 Clouds 7 1041 65 10000 3.1 80 05:53 18.01.2020
625 Clouds 8 1042 61 10000 5.7 50 04:28 18.01.2020
626 Clouds 8 1040 65 10000 7.7 50 02:49 18.01.2020
627 Clouds 9 1040 61 10000 6.7 50 01:47 18.01.2020
628 Clouds 10 1039 57 10000 6.2 50 00:39 18.01.2020
629 Clouds 10 1039 57 10000 6.2 50 00:20 18.01.2020
630 Clouds 13 1038 50 10000 5.7 90 23:58 17.01.2020
631 Clouds 13 1038 50 10000 5.7 90 23:39 17.01.2020
632 Clouds 13 1038 50 10000 5.7 90 23:18 17.01.2020
633 Clouds 14 1038 47 10000 6.7 120 22:42 17.01.2020
634 Clouds 14 1038 47 10000 6.7 120 22:20 17.01.2020
635 Clouds 15 1039 41 10000 6.2 120 21:56 17.01.2020
636 Clouds 15 1039 41 10000 6.2 120 21:38 17.01.2020
637 Clouds 15 1039 41 10000 6.2 120 21:19 17.01.2020
638 Clouds 14 1040 44 10000 6.2 90 20:43 17.01.2020
639 Clouds 14 1040 44 10000 6.2 90 20:21 17.01.2020
640 Clouds 14 1041 50 10000 6.2 110 19:58 17.01.2020
641 Clouds 14 1041 50 10000 6.2 110 19:39 17.01.2020
642 Clouds 14 1041 50 10000 6.2 110 19:20 17.01.2020
643 Clouds 14 1041 54 10000 4.6 120 18:58 17.01.2020
644 Clouds 14 1041 54 10000 4.6 120 18:39 17.01.2020
645 Clouds 14 1041 54 10000 4.6 120 18:21 17.01.2020
646 Clouds 14 1042 54 10000 5.1 80 17:40 17.01.2020
647 Clouds 14 1042 54 10000 5.1 80 17:22 17.01.2020
648 Clouds 12 1042 58 8000 4.1 90 16:57 17.01.2020
649 Clouds 12 1042 58 8000 4.1 90 16:38 17.01.2020
650 Clouds 12 1042 58 8000 4.1 90 16:19 17.01.2020
651 Clouds 11 1042 62 8000 2.6 90 15:45 17.01.2020
652 Clouds 11 1042 62 8000 2.6 90 15:26 17.01.2020
653 Clouds 8 1042 75 6000 2.1 140 14:45 17.01.2020
654 Clouds 8 1042 75 6000 2.1 140 14:27 17.01.2020
655 Clouds 6 1042 81 6000 1.5 20 13:58 17.01.2020
656 Clouds 6 1042 81 6000 1.5 20 13:37 17.01.2020
657 Clouds 6 1042 81 6000 1.5 20 13:19 17.01.2020
658 Fog 5 1041 93 4000 4.1 90 12:42 17.01.2020
659 Fog 5 1041 93 4000 4.1 90 12:42 17.01.2020
660 Fog 5 1041 93 4000 4.1 90 12:21 17.01.2020
661 Fog 5 1040 93 4000 2.1 90 11:38 17.01.2020
662 Fog 5 1040 93 4000 2.1 90 11:18 17.01.2020
663 Fog 6 1040 87 4000 5.7 110 10:43 17.01.2020
664 Fog 6 1040 87 4000 5.7 110 10:23 17.01.2020
665 Fog 6 1040 93 4000 4.1 110 09:58 17.01.2020
666 Fog 6 1040 93 4000 4.1 110 09:38 17.01.2020
667 Fog 6 1040 93 4000 4.1 110 09:19 17.01.2020
668 Fog 6 1040 93 4000 4.1 110 08:43 17.01.2020
669 Fog 6 1040 93 4000 4.1 110 08:24 17.01.2020
670 Fog 6 1040 87 4000 3.1 70 07:53 17.01.2020
671 Fog 6 1040 87 4000 3.1 70 07:31 17.01.2020
672 Clouds 7 1041 75 10000 1 0 06:57 17.01.2020
673 Clouds 7 1041 75 10000 1 0 06:38 17.01.2020
674 Clouds 8 1041 61 10000 5.7 60 05:28 17.01.2020
675 Rain 6 1021 86 0 4.72 48 03:39 17.01.2020
676 Rain 6 1021 86 0 4.72 48 02:45 17.01.2020
677 Rain 5 1017 83 0 5.46 44 01:46 17.01.2020
678 Clouds 5 1017 83 0 5.28 43 01:27 17.01.2020
679 Clouds 5 1017 83 0 5.28 43 00:44 17.01.2020
680 Clouds 13 1037 47 10000 5.7 80 00:20 17.01.2020
681 Clouds 13 1037 47 10000 5.7 80 23:42 16.01.2020
682 Clouds 13 1037 47 10000 5.7 80 23:24 16.01.2020
683 Clouds 14 1037 44 10000 6.7 90 22:43 16.01.2020
684 Clouds 14 1037 44 10000 6.7 90 22:22 16.01.2020
685 Clouds 15 1037 44 10000 8.2 60 21:57 16.01.2020
686 Clouds 15 1037 44 10000 8.2 60 21:39 16.01.2020
687 Clouds 15 1037 44 10000 8.2 60 21:19 16.01.2020
688 Clouds 16 1039 38 10000 5.1 60 20:59 16.01.2020
689 Clouds 16 1039 38 10000 5.1 60 20:40 16.01.2020
690 Clouds 16 1039 38 10000 5.1 60 20:20 16.01.2020
691 Clouds 15 1039 47 10000 6.7 60 19:57 16.01.2020
692 Clouds 15 1039 47 10000 6.7 60 19:39 16.01.2020
693 Clouds 15 1039 47 10000 6.7 60 19:20 16.01.2020
694 Clouds 14 1039 50 10000 5.7 90 18:56 16.01.2020
695 Clouds 14 1039 50 10000 5.7 90 18:37 16.01.2020
696 Clouds 14 1039 50 10000 5.7 90 18:18 16.01.2020
697 Clouds 15 1040 51 10000 6.7 100 17:44 16.01.2020
698 Clouds 15 1040 51 10000 6.7 100 17:23 16.01.2020
699 Clouds 13 1041 62 10000 5.1 100 16:57 16.01.2020
700 Clouds 13 1041 62 10000 5.1 100 16:39 16.01.2020
701 Clouds 13 1041 62 10000 5.1 100 16:21 16.01.2020
702 Clouds 11 1041 76 10000 4.1 120 15:44 16.01.2020
703 Clouds 11 1041 76 10000 4.1 120 15:44 16.01.2020
704 Clouds 11 1041 76 10000 4.1 120 15:24 16.01.2020
705 Clouds 11 1041 76 10000 4.1 120 15:24 16.01.2020
706 Clouds 10 1041 76 6000 3.6 100 14:59 16.01.2020
707 Clouds 10 1041 76 6000 3.6 100 14:41 16.01.2020
708 Clouds 10 1041 76 6000 3.6 100 14:22 16.01.2020
709 Fog 8 1040 87 4000 3.6 100 13:45 16.01.2020
710 Fog 8 1040 87 4000 3.6 100 13:26 16.01.2020
711 Mist 7 1039 93 3000 3.6 90 12:48 16.01.2020
712 Mist 7 1039 93 3000 3.6 90 12:29 16.01.2020
713 Fog 6 1038 100 4000 3.1 90 11:59 16.01.2020
714 Fog 6 1038 100 500 3.6 100 11:41 16.01.2020
715 Fog 6 1038 100 500 3.6 100 11:41 16.01.2020
716 Fog 6 1038 100 500 3.6 100 11:23 16.01.2020
717 Fog 6 1037 100 4000 2.6 110 10:55 16.01.2020
718 Fog 6 1037 100 4000 2.6 110 10:36 16.01.2020
719 Fog 6 1037 100 4000 2.6 110 10:18 16.01.2020
720 Fog 6 1038 100 4000 2.6 90 09:42 16.01.2020
721 Fog 6 1038 100 4000 2.6 90 09:24 16.01.2020
722 Fog 6 1038 93 4000 2.1 60 08:56 16.01.2020
723 Fog 6 1038 93 4000 2.1 60 08:36 16.01.2020
724 Fog 6 1038 93 4000 2.1 60 08:18 16.01.2020
725 Fog 7 1038 93 4000 1 0 07:42 16.01.2020
726 Fog 7 1038 93 4000 1 0 07:23 16.01.2020
727 Fog 7 1038 93 3000 1 0 06:48 16.01.2020
728 Fog 7 1038 93 3000 1 0 06:28 16.01.2020
729 Fog 7 1038 93 3000 1 0 06:28 16.01.2020
730 Fog 7 1039 93 3000 2.6 100 05:46 16.01.2020
731 Fog 8 1038 93 4000 1 0 04:46 16.01.2020
732 Fog 8 1038 93 4000 1 0 04:46 16.01.2020
733 Clouds 8 1038 87 10000 2.1 60 03:29 16.01.2020
734 Clouds 8 1037 81 10000 2.1 50 02:44 16.01.2020
735 Clouds 10 1036 66 10000 1 0 01:24 16.01.2020
736 Clouds 11 1035 66 10000 3.1 260 00:25 16.01.2020
737 Clouds 12 1035 62 10000 4.1 300 23:56 15.01.2020
738 Clouds 12 1035 62 10000 4.1 300 23:38 15.01.2020
739 Clouds 12 1035 62 10000 4.1 300 23:18 15.01.2020
740 Clouds 11 1035 76 10000 5.1 300 22:42 15.01.2020
741 Clouds 11 1035 76 10000 5.1 300 22:20 15.01.2020
742 Clouds 13 1035 62 10000 4.1 320 21:59 15.01.2020
743 Clouds 13 1035 62 10000 4.1 320 21:41 15.01.2020
744 Clouds 13 1035 62 10000 4.1 320 21:23 15.01.2020
745 Clouds 14 1035 54 10000 1.5 50 20:59 15.01.2020
746 Clouds 14 1035 54 10000 1.5 50 20:41 15.01.2020
747 Clouds 14 1035 54 10000 1.5 50 20:23 15.01.2020
748 Rain 13 1036 66 8000 2.1 280 19:57 15.01.2020
749 Rain 13 1036 66 8000 2.1 280 19:39 15.01.2020
750 Rain 13 1036 66 8000 2.1 280 19:20 15.01.2020
751 Rain 10 1037 71 8000 2.1 120 18:57 15.01.2020
752 Rain 10 1037 71 8000 2.1 120 18:57 15.01.2020
753 Clouds 11 1037 66 4000 4.1 30 18:38 15.01.2020
754 Clouds 11 1037 66 4000 4.1 30 18:20 15.01.2020
755 Clouds 13 1037 66 10000 5.1 110 17:58 15.01.2020
756 Clouds 13 1037 66 10000 5.1 110 17:40 15.01.2020
757 Clouds 13 1037 66 10000 5.1 110 17:21 15.01.2020
758 Clouds 12 1038 66 10000 3.1 110 16:55 15.01.2020
759 Clouds 12 1038 66 10000 3.1 110 16:55 15.01.2020
760 Clouds 12 1038 66 10000 3.1 110 16:36 15.01.2020
761 Clouds 12 1038 66 10000 3.1 110 16:18 15.01.2020
762 Clouds 11 1038 76 8000 3.6 130 15:42 15.01.2020
763 Clouds 11 1038 76 8000 3.6 130 15:20 15.01.2020
764 Clouds 10 1038 76 6000 4.1 100 14:45 15.01.2020
765 Clouds 10 1038 76 6000 4.1 100 14:23 15.01.2020
766 Clouds 8 1038 87 6000 2.6 130 13:58 15.01.2020
767 Clouds 8 1038 87 6000 2.6 130 13:40 15.01.2020
768 Clouds 8 1038 87 6000 2.6 130 13:40 15.01.2020
769 Clouds 8 1038 87 6000 2.6 130 13:22 15.01.2020
770 Fog 7 1037 87 4000 2.1 130 12:55 15.01.2020
771 Fog 7 1037 87 4000 2.1 130 12:36 15.01.2020
772 Fog 7 1037 87 4000 2.1 130 12:18 15.01.2020
773 Fog 7 1036 87 4000 1 0 11:38 15.01.2020
774 Fog 7 1036 87 4000 1 0 11:20 15.01.2020
775 Fog 7 1036 87 4000 1 0 10:47 15.01.2020
776 Fog 7 1036 87 4000 1 0 10:28 15.01.2020
777 Fog 6 1035 93 4000 1 0 09:57 15.01.2020
778 Fog 6 1035 93 4000 1 0 09:57 15.01.2020
779 Fog 6 1035 93 4000 1 0 09:38 15.01.2020
780 Fog 6 1035 93 4000 1 0 09:19 15.01.2020
781 Fog 5 1036 100 4000 2.1 80 08:44 15.01.2020
782 Fog 5 1036 100 4000 2.1 80 08:24 15.01.2020
783 Fog 6 1036 93 4000 2.6 70 07:54 15.01.2020
784 Fog 6 1036 93 4000 2.6 70 07:33 15.01.2020
785 Fog 6 1036 93 4000 1 0 06:49 15.01.2020
786 Fog 6 1036 93 4000 1 0 06:26 15.01.2020
787 Fog 7 1037 93 4000 1 0 04:46 15.01.2020
788 Clouds 7 1035 87 10000 2.6 70 02:40 15.01.2020
789 Clouds 8 1035 81 10000 4.1 90 01:43 15.01.2020
790 Clouds 8 1035 81 10000 4.1 90 01:20 15.01.2020
791 Clouds 11 1034 76 10000 4.1 110 00:36 15.01.2020
792 Clouds 11 1034 76 10000 4.1 110 00:18 15.01.2020
793 Clouds 12 1033 71 10000 3.6 110 23:45 14.01.2020
794 Clouds 12 1033 71 10000 3.6 110 23:24 14.01.2020
795 Clouds 14 1033 58 10000 3.6 80 22:41 14.01.2020
796 Clouds 14 1033 58 10000 3.6 80 22:20 14.01.2020
797 Rain 13 1034 62 8000 1 0 21:59 14.01.2020
798 Rain 13 1034 62 8000 1 0 21:41 14.01.2020
799 Rain 13 1034 62 8000 1 0 21:23 14.01.2020
800 Clouds 11 1035 71 10000 2.6 270 21:00 14.01.2020
801 Thunderstorm 8 1036 87 8000 4.1 270 20:41 14.01.2020
802 Thunderstorm 8 1036 87 8000 4.1 270 20:21 14.01.2020
803 Thunderstorm 8 1036 87 8000 4.1 270 19:56 14.01.2020
804 Thunderstorm 8 1036 87 4000 6.2 340 19:38 14.01.2020
805 Thunderstorm 8 1036 87 4000 6.2 340 19:19 14.01.2020
806 Thunderstorm 12 1037 81 10000 5.1 130 18:56 14.01.2020
807 Rain 10 1011 75 0 3.62 50 18:37 14.01.2020
808 Rain 13 1037 62 8000 4.6 90 18:19 14.01.2020
809 Rain 13 1037 62 8000 4.6 90 17:39 14.01.2020
810 Rain 13 1037 62 8000 4.6 90 17:19 14.01.2020
811 Clouds 12 1038 66 8000 4.1 120 16:55 14.01.2020
812 Clouds 12 1038 66 8000 4.1 120 16:37 14.01.2020
813 Clouds 12 1038 66 8000 4.1 120 16:19 14.01.2020
814 Clouds 12 1038 66 8000 4.6 110 15:43 14.01.2020
815 Clouds 12 1038 66 8000 4.6 110 15:19 14.01.2020
816 Clouds 10 1038 71 6000 2.6 100 14:57 14.01.2020
817 Clouds 10 1038 71 6000 2.6 100 14:39 14.01.2020
818 Clouds 10 1038 71 6000 2.6 100 14:18 14.01.2020
819 Clouds 9 1038 81 6000 2.1 120 13:42 14.01.2020
820 Clouds 9 1038 81 6000 2.1 120 13:19 14.01.2020
821 Fog 6 1037 93 4000 2.1 130 12:43 14.01.2020
822 Fog 6 1037 93 4000 2.1 130 12:24 14.01.2020
823 Fog 6 1036 93 4000 1.5 30 11:58 14.01.2020
824 Fog 6 1036 93 4000 1.5 30 11:40 14.01.2020
825 Fog 6 1036 93 4000 1.5 30 11:22 14.01.2020
826 Fog 7 1036 87 4000 1 0 10:56 14.01.2020
827 Fog 7 1036 87 4000 1 0 10:37 14.01.2020
828 Fog 7 1036 87 4000 1 0 10:19 14.01.2020
829 Fog 7 1036 93 4000 1 0 09:43 14.01.2020
830 Fog 7 1036 93 4000 1 0 09:24 14.01.2020
831 Fog 6 1036 93 4000 1 0 08:58 14.01.2020
832 Fog 6 1036 93 4000 1 0 08:39 14.01.2020
833 Fog 6 1036 93 4000 1 0 08:20 14.01.2020
834 Fog 7 1036 93 4000 2.6 80 07:46 14.01.2020
835 Fog 7 1036 93 4000 2.6 80 07:18 14.01.2020
836 Fog 7 1036 93 4000 2.6 80 07:18 14.01.2020
837 Fog 7 1037 93 4000 1.5 80 06:42 14.01.2020
838 Clouds 7 1038 93 10000 1.5 120 05:57 14.01.2020
839 Fog 8 1038 87 4000 3.1 60 04:49 14.01.2020
840 Clouds 8 1037 87 10000 3.1 80 03:45 14.01.2020
841 Clouds 9 1037 87 10000 3.6 100 02:32 14.01.2020
842 Clouds 9 1036 87 10000 3.1 130 01:19 14.01.2020
843 Clouds 11 1035 71 10000 3.1 130 00:47 14.01.2020
844 Clouds 11 1035 71 10000 3.1 130 00:21 14.01.2020
845 Clouds 11 1035 71 10000 1 0 23:42 13.01.2020
846 Clouds 11 1035 71 10000 1 0 23:18 13.01.2020
847 Clouds 11 1035 71 10000 1 0 23:18 13.01.2020
848 Clouds 12 1034 66 10000 2.6 100 22:55 13.01.2020
849 Clouds 12 1034 66 10000 2.6 100 22:37 13.01.2020
850 Clouds 12 1034 66 10000 2.6 100 22:19 13.01.2020
851 Clouds 12 1035 71 10000 2.1 200 21:54 13.01.2020
852 Clouds 12 1035 71 10000 2.1 200 21:54 13.01.2020
853 Clouds 12 1035 71 10000 2.1 200 21:54 13.01.2020
854 Clouds 12 1035 71 10000 2.1 200 21:36 13.01.2020
855 Clouds 12 1035 71 10000 2.1 200 21:18 13.01.2020
856 Clouds 11 1036 71 10000 2.1 110 20:42 13.01.2020
857 Clouds 11 1036 71 10000 2.1 110 20:22 13.01.2020
858 Rain 10 1037 81 6000 3.6 60 19:59 13.01.2020
859 Rain 10 1037 81 6000 3.6 60 19:40 13.01.2020
860 Rain 10 1037 81 6000 3.6 60 19:20 13.01.2020
861 Clouds 10 1038 76 10000 2.1 170 18:58 13.01.2020
862 Clouds 10 1038 76 10000 2.1 170 18:37 13.01.2020
863 Clouds 10 1038 76 10000 2.1 170 18:19 13.01.2020
864 Rain 9 1039 81 8000 1 0 17:55 13.01.2020
865 Rain 9 1039 81 8000 1 0 17:36 13.01.2020
866 Rain 9 1039 81 8000 1 0 17:18 13.01.2020
867 Rain 4 1019 91 0 0.77 123 16:40 13.01.2020
868 Rain 4 1019 91 0 0.77 123 16:40 13.01.2020
869 Rain 4 1019 91 0 0.77 123 16:21 13.01.2020
870 Rain 4 1019 91 0 0.77 123 16:21 13.01.2020
871 Rain 4 1019 91 0 0.77 123 15:55 13.01.2020
872 Rain 4 1019 91 0 0.77 123 15:36 13.01.2020
873 Rain 4 1019 91 0 0.77 123 15:18 13.01.2020
874 Rain 4 1019 91 0 0.77 123 14:40 13.01.2020
875 Rain 4 1019 91 0 0.77 123 14:22 13.01.2020
876 Rain 5 1018 93 0 1.87 47 13:56 13.01.2020
877 Rain 5 1018 93 0 1.87 47 13:56 13.01.2020
878 Rain 5 1018 93 0 1.87 47 13:37 13.01.2020
879 Rain 6 1018 88 0 1.81 86 13:19 13.01.2020
880 Rain 6 1018 88 0 1.81 86 12:43 13.01.2020
881 Rain 6 1038 93 4000 2.6 250 12:23 13.01.2020
882 Rain 6 1038 93 4000 2.6 250 12:23 13.01.2020
883 Rain 6 1038 93 4000 2.6 250 11:59 13.01.2020
884 Rain 6 1038 93 4000 2.6 250 11:38 13.01.2020
885 Rain 6 1038 93 4000 2.6 250 11:38 13.01.2020
886 Rain 6 1038 93 4000 2.6 250 11:19 13.01.2020
887 Rain 7 1037 87 4000 2.6 290 10:56 13.01.2020
888 Rain 7 1037 87 4000 2.6 290 10:38 13.01.2020
889 Rain 7 1037 87 4000 2.6 290 10:19 13.01.2020
890 Rain 8 1037 87 4000 1 0 09:44 13.01.2020
891 Rain 8 1037 87 4000 1 0 09:24 13.01.2020
892 Fog 8 1037 87 4000 1 0 08:57 13.01.2020
893 Fog 8 1037 87 4000 1 0 08:37 13.01.2020
894 Fog 8 1037 87 4000 1 0 08:18 13.01.2020
895 Fog 8 1038 87 4000 1 0 07:43 13.01.2020
896 Fog 8 1038 87 4000 1 0 07:24 13.01.2020
897 Fog 8 1038 93 4000 1 0 06:37 13.01.2020
898 Rain 9 1039 87 4000 1 0 05:37 13.01.2020
899 Rain 9 1039 87 4000 1 0 05:37 13.01.2020
900 Clouds 8 1039 81 10000 2.1 70 04:56 13.01.2020
901 Fog 9 1039 87 4000 2.1 100 03:38 13.01.2020
902 Clouds 9 1038 76 10000 2.1 150 02:49 13.01.2020
903 Clouds 9 1038 76 10000 2.1 150 02:30 13.01.2020
904 Clouds 9 1038 76 10000 2.1 150 02:30 13.01.2020
905 Clouds 8 1037 75 10000 2.6 80 01:33 13.01.2020
906 Clouds 11 1036 62 10000 3.1 90 00:44 13.01.2020
907 Clouds 11 1036 62 10000 3.1 90 00:25 13.01.2020
908 Clouds 13 1036 54 10000 4.1 90 23:57 12.01.2020
909 Clouds 13 1036 54 10000 4.1 90 23:38 12.01.2020
910 Clouds 13 1036 54 10000 4.1 90 23:20 12.01.2020
911 Clouds 13 1036 54 10000 3.1 60 22:43 12.01.2020
912 Clouds 13 1036 54 10000 3.1 60 22:24 12.01.2020
913 Clouds 12 1037 54 10000 3.1 310 21:59 12.01.2020
914 Clouds 12 1037 54 10000 3.1 310 21:59 12.01.2020
915 Clouds 12 1037 54 10000 3.1 310 21:40 12.01.2020
916 Clouds 12 1037 54 10000 3.1 310 21:20 12.01.2020
917 Clouds 13 1038 47 10000 2.1 270 20:57 12.01.2020
918 Clouds 13 1038 47 10000 2.1 270 20:39 12.01.2020
919 Clouds 13 1038 47 10000 2.1 270 20:20 12.01.2020
920 Clouds 12 1039 50 10000 6.2 140 19:56 12.01.2020
921 Clouds 12 1039 50 10000 6.2 140 19:38 12.01.2020
922 Clouds 12 1039 50 10000 6.2 140 19:19 12.01.2020
923 Thunderstorm 12 1039 58 10000 4.6 340 18:57 12.01.2020
924 Thunderstorm 12 1039 58 10000 4.6 340 18:39 12.01.2020
925 Thunderstorm 12 1039 58 10000 4.6 340 18:21 12.01.2020
926 Clouds 15 1040 47 10000 1 0 17:56 12.01.2020
927 Clouds 15 1040 47 10000 1 0 17:37 12.01.2020
928 Clouds 15 1040 47 10000 1 0 17:18 12.01.2020
929 Clouds 13 1040 54 10000 1 0 16:54 12.01.2020
930 Clouds 13 1040 54 10000 1 0 16:36 12.01.2020
931 Clouds 13 1040 54 10000 1 0 16:18 12.01.2020
932 Clouds 12 1041 62 10000 1 0 15:42 12.01.2020
933 Clouds 12 1041 62 10000 1 0 15:23 12.01.2020
934 Clouds 11 1040 66 10000 3.1 240 14:55 12.01.2020
935 Clouds 11 1040 66 10000 3.1 240 14:36 12.01.2020
936 Clouds 11 1040 66 10000 3.1 240 14:18 12.01.2020
937 Clouds 10 1040 61 10000 1 0 13:42 12.01.2020
938 Clouds 10 1040 61 10000 1 0 13:23 12.01.2020
939 Clouds 6 1039 93 10000 1 0 12:58 12.01.2020
940 Clouds 6 1039 93 10000 1 0 12:38 12.01.2020
941 Clouds 6 1039 93 10000 1 0 12:19 12.01.2020
942 Clouds 4 1038 93 10000 1 0 11:43 12.01.2020
943 Clouds 4 1038 93 10000 1 0 11:23 12.01.2020
944 Clouds 6 1038 87 10000 1 0 10:59 12.01.2020
945 Clouds 6 1038 87 10000 1 0 10:40 12.01.2020
946 Clouds 6 1038 87 10000 1 0 10:21 12.01.2020
947 Clouds 5 1038 93 10000 1 0 09:44 12.01.2020
948 Clouds 5 1038 93 10000 1 0 09:24 12.01.2020
949 Clouds 5 1038 93 10000 1 0 08:57 12.01.2020
950 Clouds 5 1038 93 10000 1 0 08:38 12.01.2020
951 Clouds 5 1038 93 10000 1 0 08:19 12.01.2020
952 Clouds 5 1039 93 10000 1 0 07:38 12.01.2020
953 Clouds 5 1039 93 10000 1 0 07:19 12.01.2020
954 Rain 6 1018 88 0 1.36 89 06:41 12.01.2020
955 Clouds 6 1040 87 10000 1 0 06:18 12.01.2020
956 Clouds 6 1040 87 10000 1 0 05:20 12.01.2020
957 Fog 6 1040 93 4000 2.1 160 03:44 12.01.2020
958 Fog 6 1038 93 4000 3.1 100 02:55 12.01.2020
959 Fog 6 1038 93 4000 3.1 100 02:30 12.01.2020
960 Fog 6 1038 93 4000 4.6 80 01:39 12.01.2020
961 Fog 7 1038 93 4000 4.6 70 00:57 12.01.2020
962 Fog 7 1038 93 4000 4.6 70 00:37 12.01.2020
963 Fog 7 1038 93 4000 4.6 70 00:18 12.01.2020
964 Rain 8 1038 70 8000 4.6 340 23:41 11.01.2020
965 Rain 8 1038 70 8000 4.6 340 23:19 11.01.2020
966 Rain 8 1037 70 8000 5.1 330 22:56 11.01.2020
967 Rain 8 1037 70 8000 5.1 330 22:38 11.01.2020
968 Rain 8 1037 70 8000 5.1 330 22:20 11.01.2020
969 Thunderstorm 7 1037 75 10000 6.7 320 21:44 11.01.2020
970 Thunderstorm 7 1037 75 10000 6.7 320 21:20 11.01.2020
971 Thunderstorm 8 1037 75 5000 7.2 320 20:59 11.01.2020
972 Clouds 9 1037 70 5000 7.2 310 20:39 11.01.2020
973 Clouds 9 1037 70 5000 7.2 310 20:19 11.01.2020
974 Clouds 9 1037 76 6000 7.7 310 19:57 11.01.2020
975 Rain 10 1038 71 8000 4.6 90 19:38 11.01.2020
976 Rain 10 1038 71 8000 4.6 90 19:38 11.01.2020
977 Rain 10 1038 71 8000 4.6 90 19:38 11.01.2020
978 Rain 10 1038 71 8000 4.6 90 19:38 11.01.2020
979 Rain 10 1038 71 8000 4.6 90 19:20 11.01.2020
980 Clouds 12 1038 62 10000 4.6 90 18:55 11.01.2020
981 Clouds 12 1038 62 10000 4.6 90 18:36 11.01.2020
982 Clouds 12 1038 62 10000 4.6 90 18:18 11.01.2020
983 Clouds 10 1039 76 10000 5.7 60 17:57 11.01.2020
984 Clouds 10 1039 76 10000 5.7 60 17:38 11.01.2020
985 Clouds 10 1039 76 10000 5.7 60 17:18 11.01.2020
986 Clouds 8 1040 81 6000 2.1 290 16:43 11.01.2020
987 Clouds 8 1040 81 6000 2.1 290 16:24 11.01.2020
988 Thunderstorm 7 1039 87 6000 4.6 330 15:56 11.01.2020
989 Thunderstorm 7 1039 87 6000 4.6 330 15:37 11.01.2020
990 Thunderstorm 7 1039 87 6000 4.6 330 15:19 11.01.2020
991 Thunderstorm 8 1039 87 8000 5.1 330 14:44 11.01.2020
992 Clouds 10 1039 71 6000 1 0 14:24 11.01.2020
993 Fog 6 1039 87 4000 1 0 13:56 11.01.2020
994 Fog 6 1039 87 4000 1 0 13:37 11.01.2020
995 Fog 6 1039 87 4000 1 0 13:19 11.01.2020
996 Clouds 6 1038 93 10000 1 0 12:44 11.01.2020
997 Clouds 6 1038 93 10000 1 0 12:26 11.01.2020
998 Clouds 5 1037 93 10000 1 0 11:55 11.01.2020
999 Clouds 5 1037 93 10000 1 0 11:37 11.01.2020
1000 Clouds 5 1037 93 10000 1 0 11:18 11.01.2020
1001 Clouds 5 1037 93 10000 1 0 11:18 11.01.2020
1002 Clouds 4 1036 93 10000 2.1 100 10:43 11.01.2020
1003 Clouds 4 1036 93 10000 2.1 100 10:24 11.01.2020
1004 Clouds 5 1036 86 10000 2.1 90 09:40 11.01.2020
1005 Clouds 5 1036 86 10000 2.1 90 09:21 11.01.2020
1006 Clouds 7 1037 81 10000 3.6 70 08:43 11.01.2020
1007 Clouds 7 1037 81 10000 3.6 70 08:43 11.01.2020
1008 Clouds 7 1037 81 10000 3.6 70 08:23 11.01.2020
1009 Fog 8 1038 87 4000 2.6 110 07:45 11.01.2020
1010 Fog 8 1038 87 4000 2.6 110 07:26 11.01.2020
1011 Clouds 8 1038 75 10000 1 0 06:55 11.01.2020
1012 Clouds 8 1038 75 10000 1 0 06:19 11.01.2020
1013 Clouds 9 1039 66 10000 1 0 04:48 11.01.2020
1014 Clouds 9 1039 66 10000 1 0 04:29 11.01.2020
1015 Clouds 6 1038 75 10000 1 0 03:28 11.01.2020
1016 Clouds 9 1037 66 10000 1 0 02:40 11.01.2020
1017 Clouds 10 1036 57 10000 4.1 330 01:44 11.01.2020
1018 Clouds 10 1036 57 10000 4.1 330 01:20 11.01.2020
1019 Clouds 10 1036 61 10000 5.7 290 00:44 11.01.2020
1020 Clouds 10 1036 61 10000 5.7 290 00:20 11.01.2020
1021 Clouds 12 1035 50 10000 6.2 290 23:41 10.01.2020
1022 Clouds 12 1035 50 10000 6.2 290 23:41 10.01.2020
1023 Clouds 12 1035 50 10000 6.2 290 23:22 10.01.2020
1024 Clouds 16 1034 36 10000 4.6 280 22:59 10.01.2020
1025 Clouds 16 1034 36 10000 4.6 280 22:40 10.01.2020
1026 Clouds 16 1034 36 10000 4.6 280 22:20 10.01.2020
1027 Clouds 16 1034 59 10000 4.1 290 21:57 10.01.2020
1028 Clouds 16 1034 59 10000 4.1 290 21:37 10.01.2020
1029 Clouds 16 1034 59 10000 4.1 290 21:19 10.01.2020
1030 Clouds 15 1035 41 10000 5.1 130 20:43 10.01.2020
1031 Clouds 15 1035 41 10000 5.1 130 20:24 10.01.2020
1032 Thunderstorm 15 1036 44 10000 4.6 180 19:59 10.01.2020
1033 Thunderstorm 15 1036 44 10000 4.6 180 19:38 10.01.2020
1034 Thunderstorm 15 1036 44 10000 4.6 180 19:19 10.01.2020
1035 Thunderstorm 15 1037 41 10000 4.1 140 18:43 10.01.2020
1036 Thunderstorm 15 1037 41 10000 4.1 140 18:19 10.01.2020
1037 Thunderstorm 14 1037 47 8000 3.6 120 17:57 10.01.2020
1038 Thunderstorm 14 1037 47 8000 3.6 120 17:57 10.01.2020
1039 Clouds 15 1037 41 10000 2.1 200 17:39 10.01.2020
1040 Clouds 15 1037 41 10000 2.1 200 17:20 10.01.2020
1041 Clouds 14 1038 47 10000 2.6 200 16:57 10.01.2020
1042 Clouds 14 1038 47 10000 2.6 200 16:38 10.01.2020
1043 Clouds 14 1038 47 10000 2.6 200 16:19 10.01.2020
1044 Clouds 13 1039 54 8000 1 0 15:56 10.01.2020
1045 Clouds 13 1039 54 8000 1 0 15:36 10.01.2020
1046 Clouds 13 1039 54 8000 1 0 15:18 10.01.2020
1047 Clouds 12 1039 58 6000 2.1 260 14:54 10.01.2020
1048 Clouds 12 1039 58 6000 2.1 260 14:36 10.01.2020
1049 Clouds 12 1039 58 6000 2.1 260 14:18 10.01.2020
1050 Clouds 11 1038 66 10000 1 0 13:42 10.01.2020
1051 Clouds 11 1038 66 10000 1 0 13:23 10.01.2020
1052 Clouds 6 1037 100 6000 1.5 70 12:58 10.01.2020
1053 Clouds 6 1037 100 6000 1.5 70 12:39 10.01.2020
1054 Clouds 6 1037 100 6000 1.5 70 12:39 10.01.2020
1055 Clouds 6 1037 100 6000 1.5 70 12:19 10.01.2020
1056 Fog 4 1036 100 3000 2.1 70 11:55 10.01.2020
1057 Fog 4 1036 100 3000 2.1 70 11:37 10.01.2020
1058 Fog 4 1036 100 3000 2.1 70 11:18 10.01.2020
1059 Fog 4 1036 100 3000 2.1 70 11:18 10.01.2020
1060 Fog 6 1036 100 4000 2.6 70 10:43 10.01.2020
1061 Fog 6 1036 100 4000 2.6 70 10:24 10.01.2020
1062 Fog 6 1036 87 4000 1.5 100 09:56 10.01.2020
1063 Fog 6 1036 87 4000 1.5 100 09:38 10.01.2020
1064 Fog 6 1036 87 4000 1.5 100 09:20 10.01.2020
1065 Clouds 6 1036 75 10000 1 0 08:42 10.01.2020
1066 Clouds 6 1036 75 10000 1 0 08:23 10.01.2020
1067 Clouds 6 1036 75 10000 1 0 08:23 10.01.2020
1068 Clouds 5 1036 80 10000 1 0 07:45 10.01.2020
1069 Clouds 5 1036 80 10000 1 0 07:26 10.01.2020
1070 Fog 4 1036 86 4000 1 0 06:46 10.01.2020
1071 Fog 4 1036 86 4000 1 0 06:26 10.01.2020
1072 Clouds 7 1037 81 10000 1 0 05:51 10.01.2020
1073 Clouds 9 1036 61 10000 2.6 90 03:37 10.01.2020
1074 Clouds 9 1036 61 10000 2.6 90 03:18 10.01.2020
1075 Clouds 9 1035 61 10000 3.6 70 02:47 10.01.2020
1076 Clouds 10 1035 57 10000 4.1 60 01:44 10.01.2020
1077 Clouds 10 1035 57 10000 4.1 60 01:26 10.01.2020
1078 Clouds 14 1035 84 10000 1 0 00:40 10.01.2020
1079 Clouds 12 1035 54 10000 6.2 200 23:58 09.01.2020
1080 Clouds 12 1035 54 10000 6.2 200 23:38 09.01.2020
1081 Clouds 12 1035 54 10000 6.2 200 23:20 09.01.2020
1082 Clouds 16 1034 26 10000 4.6 120 22:57 09.01.2020
1083 Clouds 16 1034 26 10000 4.6 120 22:38 09.01.2020
1084 Clouds 16 1034 26 10000 4.6 120 22:19 09.01.2020
1085 Clouds 19 1034 24 10000 4.6 300 21:57 09.01.2020
1086 Clouds 19 1034 24 10000 4.6 300 21:37 09.01.2020
1087 Clouds 19 1034 24 10000 4.6 300 21:37 09.01.2020
1088 Clouds 19 1034 24 10000 4.6 300 21:37 09.01.2020
1089 Clouds 19 1034 24 10000 4.6 300 21:37 09.01.2020
1090 Clouds 19 1034 24 10000 4.6 300 21:37 09.01.2020
1091 Clouds 19 1034 24 10000 4.6 300 21:19 09.01.2020
1092 Clouds 15 1035 65 10000 7.7 20 20:56 09.01.2020
1093 Clouds 15 1035 65 10000 7.7 20 20:38 09.01.2020
1094 Clouds 15 1035 56 10000 7.7 20 20:19 09.01.2020
1095 Clouds 15 1035 67 10000 7.7 20 20:19 09.01.2020
1096 Thunderstorm 17 1036 56 10000 5.1 90 19:56 09.01.2020
1097 Thunderstorm 17 1036 56 10000 5.1 90 19:37 09.01.2020
1098 Thunderstorm 17 1036 56 10000 5.1 90 19:18 09.01.2020
1099 Clouds 17 1036 29 10000 3.6 110 18:54 09.01.2020
1100 Clouds 17 1036 29 10000 3.6 110 18:54 09.01.2020
1101 Clouds 17 1036 29 10000 3.6 110 18:36 09.01.2020
1102 Clouds 17 1036 29 10000 3.6 110 18:18 09.01.2020
1103 Clouds 17 1037 39 10000 3.6 130 17:41 09.01.2020
1104 Clouds 17 1037 39 10000 3.6 130 17:18 09.01.2020
1105 Clouds 16 1038 44 10000 2.1 160 16:47 09.01.2020
1106 Clouds 16 1038 44 10000 2.1 160 16:22 09.01.2020
1107 Clouds 14 1038 35 10000 1 0 15:44 09.01.2020
1108 Clouds 14 1038 35 10000 1 0 15:25 09.01.2020
1109 Clouds 10 1038 37 10000 1 0 14:59 09.01.2020
1110 Clouds 10 1038 37 10000 1 0 14:41 09.01.2020
1111 Clouds 10 1038 37 10000 1 0 14:19 09.01.2020
1112 Clouds 10 1038 46 10000 1 0 13:57 09.01.2020
1113 Clouds 10 1038 46 10000 1 0 13:38 09.01.2020
1114 Clouds 10 1038 46 10000 1 0 13:19 09.01.2020
1115 Clouds 5 1037 93 10000 1.5 80 12:57 09.01.2020
1116 Clouds 5 1037 93 10000 1.5 80 12:38 09.01.2020
1117 Clouds 5 1037 93 10000 1.5 80 12:18 09.01.2020
1118 Fog 2 1036 100 4000 2.6 70 11:43 09.01.2020
1119 Fog 2 1036 100 4000 2.6 70 11:25 09.01.2020
1120 Fog 2 1035 100 4000 2.6 80 10:59 09.01.2020
1121 Fog 2 1035 100 4000 2.6 80 10:41 09.01.2020
1122 Fog 2 1035 100 4000 2.6 80 10:21 09.01.2020
1123 Clouds 5 1014 81 0 0.46 269 09:47 09.01.2020
1124 Fog 2 1035 93 4000 2.1 60 09:25 09.01.2020
1125 Fog 2 1035 93 4000 2.1 60 08:59 09.01.2020
1126 Fog 2 1035 93 4000 2.1 60 08:39 09.01.2020
1127 Fog 2 1035 93 4000 2.1 60 08:21 09.01.2020
1128 Fog 4 1035 93 4000 2.6 90 07:48 09.01.2020
1129 Fog 4 1035 93 4000 2.6 90 07:30 09.01.2020
1130 Fog 4 1036 100 4000 2.1 100 06:40 09.01.2020
1131 Fog 4 1036 93 1200 2.6 90 06:22 09.01.2020
1132 Clouds 7 1036 42 10000 1 0 05:51 09.01.2020
1133 Clouds 7 1036 42 10000 1 0 05:20 09.01.2020
1134 Clouds 9 1036 82 10000 2.1 260 04:39 09.01.2020
1135 Clouds 9 1036 76 10000 2.1 60 03:27 09.01.2020
1136 Clouds 9 1035 76 10000 2.1 100 02:46 09.01.2020
1137 Clouds 12 1034 50 10000 2.1 120 01:42 09.01.2020
1138 Clouds 16 1033 25 10000 2.1 280 00:59 09.01.2020
1139 Clouds 16 1033 25 10000 2.1 280 00:37 09.01.2020
1140 Clouds 16 1033 25 10000 2.1 280 00:19 09.01.2020
1141 Clouds 17 1033 39 10000 2.1 260 23:39 08.01.2020
1142 Clouds 17 1033 39 10000 2.1 260 23:20 08.01.2020
1143 Clouds 17 1033 27 10000 3.1 250 22:40 08.01.2020
1144 Clouds 17 1033 27 10000 3.1 250 22:22 08.01.2020
1145 Clouds 17 1034 23 10000 3.1 240 21:59 08.01.2020
1146 Clouds 17 1034 23 10000 3.1 240 21:40 08.01.2020
1147 Clouds 17 1034 23 10000 3.1 240 21:40 08.01.2020
1148 Clouds 17 1034 23 10000 3.1 240 21:21 08.01.2020
1149 Clouds 18 1034 23 10000 4.1 300 20:59 08.01.2020
1150 Clouds 18 1034 23 10000 4.1 300 20:59 08.01.2020
1151 Clouds 17 1035 23 10000 3.6 270 20:41 08.01.2020
1152 Clouds 17 1035 23 10000 3.6 270 20:21 08.01.2020
1153 Clouds 17 1036 27 10000 4.6 280 19:58 08.01.2020
1154 Clouds 17 1036 27 10000 4.6 280 19:38 08.01.2020
1155 Clouds 17 1036 27 10000 4.6 280 19:19 08.01.2020
1156 Clouds 16 1037 38 10000 4.6 300 18:58 08.01.2020
1157 Clouds 16 1037 38 10000 4.6 300 18:39 08.01.2020
1158 Clouds 16 1037 38 10000 4.6 300 18:19 08.01.2020
1159 Clouds 14 1037 41 10000 5.1 260 17:56 08.01.2020
1160 Clouds 14 1037 41 10000 5.1 260 17:38 08.01.2020
1161 Clouds 14 1037 41 10000 5.1 260 17:19 08.01.2020
1162 Clouds 13 1038 47 10000 4.6 290 16:55 08.01.2020
1163 Clouds 13 1038 47 10000 4.6 290 16:37 08.01.2020
1164 Clouds 13 1038 47 10000 4.6 290 16:18 08.01.2020
1165 Clouds 12 1038 58 10000 4.1 270 15:44 08.01.2020
1166 Clouds 12 1038 58 10000 4.1 270 15:21 08.01.2020
1167 Clouds 11 1038 62 10000 2.6 300 14:57 08.01.2020
1168 Clouds 11 1038 62 10000 2.6 300 14:39 08.01.2020
1169 Clouds 11 1038 62 10000 2.6 300 14:20 08.01.2020
1170 Clouds 9 1037 66 10000 1 0 13:40 08.01.2020
1171 Clouds 9 1037 66 10000 1 0 13:19 08.01.2020
1172 Clouds 6 1037 93 10000 1.5 90 12:43 08.01.2020
1173 Clouds 6 1037 93 10000 1.5 90 12:20 08.01.2020
1174 Clouds 5 1036 93 10000 2.1 100 11:59 08.01.2020
1175 Clouds 5 1036 93 10000 2.1 100 11:40 08.01.2020
1176 Clouds 5 1036 93 10000 2.1 100 11:19 08.01.2020
1177 Clouds 6 1036 87 10000 1 0 10:55 08.01.2020
1178 Clouds 6 1036 87 10000 1 0 10:37 08.01.2020
1179 Clouds 6 1036 87 10000 1 0 10:37 08.01.2020
1180 Clouds 6 1036 87 10000 1 0 10:19 08.01.2020
1181 Clouds 6 1035 93 10000 2.1 60 09:42 08.01.2020
1182 Clouds 6 1035 93 10000 2.1 60 09:19 08.01.2020
1183 Clouds 7 1035 81 10000 3.1 210 08:57 08.01.2020
1184 Clouds 7 1035 81 10000 3.1 210 08:37 08.01.2020
1185 Clouds 7 1035 81 10000 3.1 210 08:19 08.01.2020
1186 Clouds 8 1035 70 10000 4.1 350 07:48 08.01.2020
1187 Clouds 8 1035 70 10000 4.1 350 07:29 08.01.2020
1188 Clouds 7 1036 75 10000 2.6 10 06:45 08.01.2020
1189 Clouds 7 1036 75 10000 2.6 10 06:19 08.01.2020
1190 Clouds 7 1038 81 10000 3.1 50 05:41 08.01.2020
1191 Clouds 7 1038 81 10000 3.1 50 05:41 08.01.2020
1192 Thunderstorm 7 1038 75 10000 2.1 180 04:56 08.01.2020
1193 Thunderstorm 7 1038 75 10000 2.1 180 04:24 08.01.2020
1194 Clouds 8 1035 81 10000 2.1 70 02:45 08.01.2020
1195 Clouds 8 1035 81 10000 2.1 70 02:21 08.01.2020
1196 Clouds 10 1034 71 10000 4.1 110 01:42 08.01.2020
1197 Clouds 12 1033 54 10000 4.1 100 00:59 08.01.2020
1198 Clouds 12 1033 54 10000 4.1 100 00:27 08.01.2020
1199 Clouds 13 1033 50 10000 4.6 90 23:47 07.01.2020
1200 Clouds 13 1033 50 10000 4.6 90 23:22 07.01.2020
1201 Rain 14 1032 44 8000 1 0 22:58 07.01.2020
1202 Rain 14 1032 44 8000 1 0 22:39 07.01.2020
1203 Rain 14 1032 44 8000 1 0 22:19 07.01.2020
1204 Thunderstorm 15 1033 38 8000 6.2 300 21:54 07.01.2020
1205 Thunderstorm 15 1033 38 8000 6.2 300 21:36 07.01.2020
1206 Thunderstorm 15 1033 38 8000 6.2 300 21:36 07.01.2020
1207 Thunderstorm 15 1033 38 8000 6.2 300 21:18 07.01.2020
1208 Clouds 16 1033 38 10000 6.2 300 20:42 07.01.2020
1209 Clouds 16 1033 38 10000 6.2 300 20:23 07.01.2020
1210 Clouds 16 1034 36 10000 3.6 260 19:59 07.01.2020
1211 Clouds 16 1034 36 10000 3.6 260 19:38 07.01.2020
1212 Clouds 16 1034 36 10000 3.6 260 19:19 07.01.2020
1213 Clouds 15 1035 44 10000 3.6 210 18:57 07.01.2020
1214 Clouds 15 1035 44 10000 3.6 210 18:38 07.01.2020
1215 Clouds 15 1035 44 10000 3.6 210 18:18 07.01.2020
1216 Clouds 14 1036 50 10000 2.1 220 17:57 07.01.2020
1217 Clouds 14 1036 50 10000 2.1 220 17:37 07.01.2020
1218 Clouds 14 1036 50 10000 2.1 220 17:19 07.01.2020
1219 Clouds 13 1036 54 10000 1 0 16:55 07.01.2020
1220 Clouds 13 1036 54 10000 1 0 16:37 07.01.2020
1221 Clouds 13 1036 54 10000 1 0 16:18 07.01.2020
1222 Clouds 10 1037 71 6000 1 0 15:43 07.01.2020
1223 Clouds 10 1037 71 6000 1 0 15:24 07.01.2020
1224 Clouds 8 1036 87 6000 3.1 240 14:59 07.01.2020
1225 Clouds 8 1036 87 6000 3.1 240 14:40 07.01.2020
1226 Clouds 8 1036 87 6000 3.1 240 14:22 07.01.2020
1227 Fog 8 1036 93 4000 1 0 13:46 07.01.2020
1228 Fog 8 1036 93 4000 1 0 13:21 07.01.2020
1229 Fog 7 1035 93 4000 1 0 12:56 07.01.2020
1230 Fog 7 1035 93 4000 1 0 12:38 07.01.2020
1231 Fog 7 1035 93 4000 1 0 12:19 07.01.2020
1232 Fog 7 1035 93 4000 2.6 110 11:42 07.01.2020
1233 Fog 7 1035 93 4000 2.6 110 11:23 07.01.2020
1234 Fog 7 1034 93 4000 2.6 120 10:57 07.01.2020
1235 Fog 7 1034 93 4000 2.6 120 10:57 07.01.2020
1236 Fog 7 1034 93 4000 2.6 120 10:39 07.01.2020
1237 Fog 7 1034 93 4000 2.6 120 10:39 07.01.2020
1238 Fog 7 1034 93 4000 2.6 120 10:39 07.01.2020
1239 Fog 7 1034 93 4000 2.6 120 10:39 07.01.2020
1240 Fog 7 1034 93 4000 2.6 120 10:39 07.01.2020
1241 Fog 7 1034 93 4000 2.6 120 10:21 07.01.2020
1242 Fog 6 1034 93 4000 2.6 90 09:39 07.01.2020
1243 Fog 6 1034 93 4000 2.6 90 09:21 07.01.2020
1244 Fog 6 1034 93 4000 2.6 90 09:21 07.01.2020
1245 Fog 6 1034 93 4000 2.6 90 09:21 07.01.2020
1246 Clouds 7 1034 65 10000 1 0 08:59 07.01.2020
1247 Clouds 7 1034 65 10000 1 0 08:41 07.01.2020
1248 Clouds 7 1034 65 10000 1 0 08:18 07.01.2020
1249 Clouds 8 1034 61 10000 1.5 270 07:42 07.01.2020
1250 Clouds 8 1034 61 10000 1.5 270 07:20 07.01.2020
1251 Clouds 9 1035 49 10000 2.1 260 06:49 07.01.2020
1252 Clouds 9 1035 49 10000 2.1 260 06:29 07.01.2020
1253 Clouds 8 1036 65 10000 2.1 250 05:41 07.01.2020
1254 Clouds 10 1035 61 10000 4.6 240 03:46 07.01.2020
1255 Clouds 10 1035 61 10000 4.6 240 03:24 07.01.2020
1256 Clouds 9 1033 76 10000 1.5 100 02:19 07.01.2020
1257 Clouds 13 1032 83 10000 2.6 20 01:40 07.01.2020
1258 Clouds 15 1032 33 10000 3.6 300 00:57 07.01.2020
1259 Clouds 15 1032 33 10000 3.6 300 00:21 07.01.2020
1260 Clouds 16 1031 36 10000 3.1 280 23:57 06.01.2020
1261 Clouds 16 1031 36 10000 3.1 280 23:37 06.01.2020
1262 Clouds 16 1031 36 10000 3.1 280 23:19 06.01.2020
1263 Clouds 18 1031 34 10000 5.1 260 22:44 06.01.2020
1264 Clouds 18 1031 34 10000 5.1 260 22:24 06.01.2020
1265 Clouds 17 1032 38 10000 3.1 50 21:58 06.01.2020
1266 Clouds 17 1032 38 10000 3.1 50 21:39 06.01.2020
1267 Clouds 17 1032 38 10000 3.1 50 21:20 06.01.2020
1268 Clouds 17 1032 38 10000 3.1 50 21:20 06.01.2020
1269 Clouds 17 1033 27 10000 4.1 240 20:57 06.01.2020
1270 Clouds 17 1033 27 10000 4.1 240 20:38 06.01.2020
1271 Clouds 17 1033 27 10000 4.1 240 20:38 06.01.2020
1272 Clouds 17 1033 27 10000 4.1 240 20:20 06.01.2020
1273 Clouds 15 1034 30 10000 3.6 260 19:56 06.01.2020
1274 Clouds 15 1034 30 10000 3.6 260 19:38 06.01.2020
1275 Clouds 15 1034 30 10000 3.6 260 19:20 06.01.2020
1276 Clouds 14 1034 35 10000 3.1 210 18:48 06.01.2020
1277 Clouds 14 1034 35 10000 3.1 210 18:22 06.01.2020
1278 Clouds 13 1035 37 10000 2.6 230 17:58 06.01.2020
1279 Clouds 13 1035 37 10000 2.6 230 17:38 06.01.2020
1280 Clouds 13 1035 37 10000 2.6 230 17:18 06.01.2020
1281 Clouds 12 1035 47 10000 3.6 270 16:44 06.01.2020
1282 Clouds 12 1035 47 10000 3.6 270 16:25 06.01.2020
1283 Clouds 11 1036 50 10000 2.1 260 15:59 06.01.2020
1284 Clouds 11 1036 50 10000 2.1 260 15:39 06.01.2020
1285 Clouds 11 1036 50 10000 2.1 260 15:18 06.01.2020
1286 Clouds 10 1036 46 10000 1.5 250 14:56 06.01.2020
1287 Clouds 10 1036 46 10000 1.5 250 14:37 06.01.2020
1288 Clouds 10 1036 46 10000 1.5 250 14:18 06.01.2020
1289 Clouds 9 1035 52 10000 1 0 13:41 06.01.2020
1290 Clouds 9 1035 50 10000 1 0 13:22 06.01.2020
1291 Clouds 6 1034 56 10000 1 0 12:59 06.01.2020
1292 Clouds 6 1034 56 10000 1 0 12:41 06.01.2020
1293 Clouds 6 1034 56 10000 1 0 12:20 06.01.2020
1294 Clouds 6 1034 56 10000 1 0 12:20 06.01.2020
1295 Clouds 4 1034 80 10000 3.55 241 11:55 06.01.2020
1296 Clouds 4 1034 80 10000 3.55 241 11:37 06.01.2020
1297 Clouds 4 1034 80 10000 2.87 275 11:19 06.01.2020
1298 Clouds 5 1033 58 10000 1 0 10:42 06.01.2020
1299 Clouds 5 1033 58 10000 1 0 10:21 06.01.2020
1300 Clouds 5 1033 75 10000 2.1 220 09:42 06.01.2020
1301 Clouds 5 1033 75 10000 2.1 220 09:24 06.01.2020
1302 Clouds 5 1033 75 10000 2.1 220 09:24 06.01.2020
1303 Clouds 7 1033 87 10000 2.1 260 08:58 06.01.2020
1304 Clouds 7 1033 87 10000 2.1 260 08:39 06.01.2020
1305 Clouds 7 1033 87 10000 2.1 260 08:21 06.01.2020
1306 Clouds 7 1034 87 10000 2.1 280 07:45 06.01.2020
1307 Clouds 7 1034 75 10000 1 0 06:55 06.01.2020
1308 Clouds 7 1034 75 10000 1 0 06:35 06.01.2020
1309 Clouds 7 1035 81 10000 3.1 40 05:48 06.01.2020
1310 Clouds 7 1035 81 10000 3.1 40 05:24 06.01.2020
1311 Rain 7 1036 81 10000 4.6 60 04:24 06.01.2020
1312 Rain 7 1036 87 8000 2.1 30 03:51 06.01.2020
1313 Thunderstorm 7 1035 87 7000 5.1 220 02:28 06.01.2020
1314 Thunderstorm 10 1033 87 10000 3.1 60 01:53 06.01.2020
1315 Thunderstorm 10 1033 87 10000 3.1 60 01:30 06.01.2020
1316 Clouds 11 1033 71 10000 3.1 40 00:46 06.01.2020
1317 Clouds 11 1033 71 10000 3.1 40 00:27 06.01.2020
1318 Clouds 11 1032 76 10000 2.6 100 23:57 05.01.2020
1319 Clouds 11 1032 76 10000 2.6 100 23:38 05.01.2020
1320 Clouds 11 1032 76 10000 2.6 100 23:19 05.01.2020
1321 Thunderstorm 12 1032 71 8000 5.1 90 22:40 05.01.2020
1322 Thunderstorm 12 1032 71 8000 5.1 90 22:20 05.01.2020
1323 Thunderstorm 12 1032 71 8000 5.1 90 22:20 05.01.2020
1324 Thunderstorm 13 1032 62 10000 6.2 130 21:57 05.01.2020
1325 Clouds 15 1032 54 10000 4.6 100 21:39 05.01.2020
1326 Clouds 15 1032 54 10000 4.6 100 21:20 05.01.2020
1327 Clouds 15 1033 47 10000 2.6 30 20:56 05.01.2020
1328 Clouds 15 1033 47 10000 2.6 30 20:38 05.01.2020
1329 Clouds 15 1033 47 10000 2.6 30 20:19 05.01.2020
1330 Rain 13 1034 58 10000 3.6 130 19:58 05.01.2020
1331 Rain 13 1034 58 10000 3.6 130 19:38 05.01.2020
1332 Rain 13 1034 58 10000 3.6 130 19:19 05.01.2020
1333 Clouds 13 1035 58 10000 2.6 90 18:55 05.01.2020
1334 Clouds 13 1035 58 10000 2.6 90 18:37 05.01.2020
1335 Clouds 13 1035 58 10000 2.6 90 18:37 05.01.2020
1336 Clouds 13 1035 58 10000 2.6 90 18:18 05.01.2020
1337 Clouds 13 1036 58 10000 1 0 17:57 05.01.2020
1338 Clouds 13 1036 58 10000 1 0 17:37 05.01.2020
1339 Clouds 13 1036 58 10000 1 0 17:19 05.01.2020
1340 Clouds 13 1036 58 10000 1 0 17:19 05.01.2020
1341 Clouds 12 1037 66 10000 2.1 90 16:55 05.01.2020
1342 Clouds 12 1037 66 10000 2.1 90 16:37 05.01.2020
1343 Clouds 12 1037 66 10000 2.1 90 16:19 05.01.2020
1344 Clouds 12 1037 66 10000 2.1 90 16:19 05.01.2020
1345 Clouds 10 1038 71 6000 1 0 15:37 05.01.2020
1346 Clouds 10 1038 71 6000 1 0 15:18 05.01.2020
1347 Clouds 8 1038 87 6000 3.1 80 14:55 05.01.2020
1348 Clouds 8 1038 87 6000 3.1 80 14:36 05.01.2020
1349 Clouds 8 1038 87 6000 3.1 80 14:18 05.01.2020
1350 Clouds 7 1037 87 6000 2.1 60 13:40 05.01.2020
1351 Clouds 7 1037 87 6000 2.1 60 13:21 05.01.2020
1352 Rain 6 1037 93 4000 2.1 50 12:58 05.01.2020
1353 Rain 6 1037 93 4000 2.1 50 12:39 05.01.2020
1354 Rain 6 1037 93 4000 2.1 50 12:21 05.01.2020
1355 Rain 6 1037 93 4000 2.1 50 12:21 05.01.2020
1356 Rain 6 1036 93 4000 1 0 11:56 05.01.2020
1357 Rain 6 1036 93 4000 1 0 11:37 05.01.2020
1358 Rain 6 1036 93 4000 1 0 11:19 05.01.2020
1359 Rain 6 1036 93 4000 1 0 10:55 05.01.2020
1360 Rain 6 1036 93 4000 1 0 10:36 05.01.2020
1361 Rain 6 1036 93 4000 1 0 10:36 05.01.2020
1362 Rain 6 1036 93 4000 1 0 10:18 05.01.2020
1363 Rain 6 1036 93 4000 1 0 09:41 05.01.2020
1364 Rain 6 1036 93 4000 1 0 09:21 05.01.2020
1365 Rain 6 1036 100 4000 2.1 130 08:45 05.01.2020
1366 Rain 6 1036 100 4000 2.1 130 08:26 05.01.2020
1367 Rain 6 1036 93 4000 2.1 70 07:55 05.01.2020
1368 Rain 6 1036 93 4000 2.1 70 07:32 05.01.2020
1369 Rain 6 1037 93 4000 3.1 70 06:57 05.01.2020
1370 Rain 7 1038 93 4000 3.6 80 05:53 05.01.2020
1371 Rain 7 1038 93 4000 3.6 80 05:28 05.01.2020
1372 Rain 8 1038 87 4000 4.6 100 04:24 05.01.2020
1373 Fog 8 1038 93 4000 3.6 70 03:45 05.01.2020
1374 Rain 8 1037 81 8000 1 0 02:41 05.01.2020
1375 Rain 8 1037 81 8000 1 0 02:19 05.01.2020
1376 Thunderstorm 8 1036 81 10000 4.1 240 01:36 05.01.2020
1377 Thunderstorm 8 1036 81 10000 4.1 240 01:18 05.01.2020
1378 Clouds 10 1035 66 10000 3.1 340 00:40 05.01.2020
1379 Clouds 10 1035 66 10000 3.1 340 00:21 05.01.2020
1380 Clouds 11 1035 66 10000 4.1 310 23:58 04.01.2020
1381 Clouds 11 1035 66 10000 4.1 310 23:38 04.01.2020
1382 Clouds 11 1035 66 10000 4.1 310 23:18 04.01.2020
1383 Clouds 14 1034 54 10000 3.1 140 22:39 04.01.2020
1384 Clouds 14 1034 54 10000 3.1 140 22:20 04.01.2020
1385 Clouds 15 1034 51 10000 4.1 150 21:56 04.01.2020
1386 Clouds 15 1034 51 10000 4.1 150 21:37 04.01.2020
1387 Clouds 15 1034 51 10000 4.1 150 21:19 04.01.2020
1388 Clouds 15 1035 51 10000 3.1 90 20:55 04.01.2020
1389 Clouds 15 1035 51 10000 3.1 90 20:36 04.01.2020
1390 Clouds 15 1035 51 10000 3.1 90 20:18 04.01.2020
1391 Clouds 15 1036 47 10000 1 0 19:41 04.01.2020
1392 Clouds 15 1036 47 10000 1 0 19:23 04.01.2020
1393 Clouds 12 1038 62 10000 2.6 260 18:58 04.01.2020
1394 Clouds 12 1038 62 10000 2.6 260 18:39 04.01.2020
1395 Clouds 12 1038 62 10000 2.6 260 18:20 04.01.2020
1396 Clouds 11 1039 71 10000 2.6 300 17:56 04.01.2020
1397 Clouds 11 1039 71 10000 2.6 300 17:38 04.01.2020
1398 Clouds 11 1039 71 10000 2.6 300 17:20 04.01.2020
1399 Clouds 13 1040 66 10000 3.6 90 16:41 04.01.2020
1400 Clouds 13 1040 66 10000 3.6 90 16:23 04.01.2020
1401 Clouds 10 1040 81 6000 2.6 60 15:57 04.01.2020
1402 Clouds 10 1040 81 6000 2.6 60 15:38 04.01.2020
1403 Clouds 10 1040 81 6000 2.6 60 15:19 04.01.2020
1404 Clouds 9 1040 87 6000 2.6 130 14:56 04.01.2020
1405 Clouds 9 1040 87 6000 2.6 130 14:37 04.01.2020
1406 Clouds 9 1040 87 6000 2.6 130 14:19 04.01.2020
1407 Clouds 8 1039 81 10000 1 0 13:54 04.01.2020
1408 Clouds 8 1039 81 10000 1 0 13:36 04.01.2020
1409 Clouds 8 1039 81 10000 1 0 13:18 04.01.2020
1410 Clouds 7 1039 93 10000 1 0 12:41 04.01.2020
1411 Clouds 7 1039 93 10000 1 0 12:19 04.01.2020
1412 Clouds 5 1038 93 10000 3.6 70 11:57 04.01.2020
1413 Clouds 5 1038 93 10000 3.6 70 11:38 04.01.2020
1414 Clouds 5 1038 93 10000 3.6 70 11:19 04.01.2020
1415 Fog 6 1038 93 4000 3.1 60 10:41 04.01.2020
1416 Fog 6 1038 93 4000 3.1 60 10:22 04.01.2020
1417 Rain 6 1038 93 4000 2.6 120 09:50 04.01.2020
1418 Rain 6 1038 93 4000 2.6 120 09:26 04.01.2020
1419 Rain 6 1039 93 4000 3.6 160 08:58 04.01.2020
1420 Rain 6 1039 93 4000 3.6 160 08:39 04.01.2020
1421 Rain 6 1039 93 4000 3.6 160 08:20 04.01.2020
1422 Thunderstorm 6 1039 93 4000 5.7 170 07:42 04.01.2020
1423 Fog 8 1039 93 4000 1.5 50 06:52 04.01.2020
1424 Fog 8 1039 93 4000 1.5 50 06:33 04.01.2020
1425 Fog 8 1040 93 4000 1.5 100 05:18 04.01.2020
1426 Fog 8 1040 93 4000 3.1 70 04:33 04.01.2020
1427 Clouds 10 1040 66 10000 2.6 350 03:43 04.01.2020
1428 Clouds 10 1040 66 10000 2.6 350 03:18 04.01.2020
1429 Clouds 9 1039 76 10000 4.1 330 02:21 04.01.2020
1430 Clouds 9 1038 81 10000 1 0 01:53 04.01.2020
1431 Clouds 9 1038 81 10000 1 0 01:30 04.01.2020
1432 Clouds 11 1037 71 10000 3.1 120 00:41 04.01.2020
1433 Clouds 11 1037 71 10000 3.1 120 00:22 04.01.2020
1434 Clouds 12 1036 62 10000 3.6 110 23:42 03.01.2020
1435 Clouds 12 1036 62 10000 3.6 110 23:23 03.01.2020
1436 Clouds 13 1036 54 10000 4.1 90 22:41 03.01.2020
1437 Clouds 13 1036 54 10000 4.1 90 22:20 03.01.2020
1438 Clouds 12 1037 62 10000 5.1 80 21:58 03.01.2020
1439 Clouds 12 1037 62 10000 5.1 80 21:38 03.01.2020
1440 Clouds 12 1037 62 10000 5.1 80 21:19 03.01.2020
1441 Clouds 12 1037 62 10000 5.1 80 21:19 03.01.2020
1442 Thunderstorm 15 1037 51 10000 6.2 100 20:58 03.01.2020
1443 Thunderstorm 15 1037 51 10000 6.2 100 20:40 03.01.2020
1444 Thunderstorm 15 1037 51 10000 6.2 100 20:18 03.01.2020
1445 Clouds 16 1038 51 10000 6.2 100 19:55 03.01.2020
1446 Clouds 16 1038 51 10000 6.2 100 19:55 03.01.2020
1447 Clouds 16 1038 51 10000 6.2 100 19:37 03.01.2020
1448 -273 0 0 0 0 0 19:18 03.01.2020
1449 Clouds 14 1039 58 10000 5.1 110 18:43 03.01.2020
1450 Clouds 14 1039 58 10000 5.1 110 18:24 03.01.2020
1451 Clouds 13 1040 62 10000 5.1 130 17:55 03.01.2020
1452 Clouds 13 1040 62 10000 5.1 130 17:37 03.01.2020
1453 Clouds 13 1040 62 10000 5.1 130 17:18 03.01.2020
1454 Clouds 12 1041 66 10000 4.1 120 16:42 03.01.2020
1455 Clouds 12 1041 66 10000 4.1 120 16:22 03.01.2020
1456 Clouds 9 1041 76 8000 4.6 120 15:44 03.01.2020
1457 Clouds 9 1041 76 8000 4.6 120 15:19 03.01.2020
1458 Clouds 9 1041 76 6000 3.6 120 14:59 03.01.2020
1459 Clouds 9 1041 76 6000 3.6 120 14:38 03.01.2020
1460 Clouds 9 1041 76 6000 3.6 120 14:19 03.01.2020
1461 Clouds 8 1040 81 6000 2.6 100 13:43 03.01.2020
1462 Clouds 8 1040 81 6000 2.6 100 13:24 03.01.2020
1463 Fog 5 1039 100 4000 1 0 12:58 03.01.2020
1464 Fog 5 1039 100 4000 1 0 12:38 03.01.2020
1465 Fog 5 1039 100 4000 1 0 12:20 03.01.2020
1466 Fog 5 1038 93 4000 3.6 110 11:44 03.01.2020
1467 Fog 5 1038 93 4000 3.6 110 11:20 03.01.2020
1468 Fog 5 1038 93 4000 4.1 100 10:44 03.01.2020
1469 Fog 5 1038 93 4000 4.1 100 10:25 03.01.2020
1470 Fog 5 1037 93 4000 3.6 80 09:57 03.01.2020
1471 Fog 5 1037 93 4000 3.6 80 09:39 03.01.2020
1472 Fog 5 1037 93 4000 3.6 80 09:21 03.01.2020
1473 Fog 5 1037 93 4000 3.6 80 09:21 03.01.2020
1474 Fog 6 1038 93 4000 2.1 90 08:56 03.01.2020
1475 Fog 6 1038 93 4000 2.1 90 08:36 03.01.2020
1476 Fog 6 1038 93 4000 2.1 90 08:18 03.01.2020
1477 Fog 6 1038 93 4000 1 0 07:39 03.01.2020
1478 Fog 6 1038 93 4000 1 0 07:18 03.01.2020
1479 Fog 6 1039 93 4000 2.6 40 06:43 03.01.2020
1480 Fog 6 1039 93 4000 2.6 40 06:24 03.01.2020
1481 Fog 6 1039 93 4000 3.6 60 05:28 03.01.2020
1482 Fog 7 1039 87 4000 4.6 60 03:55 03.01.2020
1483 Clouds 8 1038 81 10000 3.1 70 02:55 03.01.2020
1484 Clouds 8 1037 75 10000 4.6 50 01:54 03.01.2020
1485 Clouds 8 1037 75 10000 4.6 50 01:36 03.01.2020
1486 Clouds 8 1037 75 10000 4.6 50 01:36 03.01.2020
1487 Clouds 10 1036 61 10000 5.1 40 00:46 03.01.2020
1488 Clouds 10 1036 61 10000 5.1 40 00:26 03.01.2020
1489 Clouds 12 1036 58 10000 4.1 80 23:39 02.01.2020
1490 Clouds 12 1036 58 10000 4.1 80 23:21 02.01.2020
1491 Clouds 12 1035 62 10000 4.6 70 22:59 02.01.2020
1492 Clouds 12 1035 62 10000 4.6 70 22:41 02.01.2020
1493 Clouds 12 1035 62 10000 4.6 70 22:20 02.01.2020
1494 Clouds 12 1035 62 10000 5.7 100 21:57 02.01.2020
1495 Clouds 12 1035 62 10000 5.7 100 21:38 02.01.2020
1496 Clouds 12 1035 62 10000 5.7 100 21:19 02.01.2020
1497 Clouds 11 1036 66 10000 5.7 100 20:56 02.01.2020
1498 Clouds 11 1036 66 10000 5.7 100 20:37 02.01.2020
1499 Clouds 11 1036 66 10000 5.7 100 20:19 02.01.2020
1500 Rain 10 1037 81 8000 6.2 120 19:54 02.01.2020
1501 Rain 10 1037 81 8000 6.2 120 19:54 02.01.2020
1502 Rain 10 1037 81 8000 6.2 120 19:36 02.01.2020
1503 Rain 10 1037 81 8000 6.2 120 19:18 02.01.2020
1504 Rain 10 1037 81 8000 6.2 120 19:18 02.01.2020
1505 Clouds 12 1037 66 10000 6.2 90 18:43 02.01.2020
1506 Clouds 12 1037 66 10000 6.2 90 18:25 02.01.2020
1507 Clouds 11 1038 76 10000 5.7 110 17:59 02.01.2020
1508 Clouds 11 1038 76 10000 5.7 110 17:39 02.01.2020
1509 Clouds 11 1038 76 10000 5.7 110 17:21 02.01.2020
1510 Clouds 10 1038 76 10000 4.1 90 16:59 02.01.2020
1511 Clouds 10 1038 76 10000 4.1 90 16:41 02.01.2020
1512 Clouds 10 1038 76 10000 4.1 90 16:20 02.01.2020
1513 Clouds 9 1039 81 6000 3.6 100 15:58 02.01.2020
1514 Clouds 9 1039 81 6000 3.6 100 15:58 02.01.2020
1515 Clouds 9 1039 81 6000 3.6 100 15:40 02.01.2020
1516 Rain 8 1038 87 6000 3.6 120 15:21 02.01.2020
1517 Rain 8 1038 87 6000 3.6 120 14:57 02.01.2020
1518 Rain 8 1038 87 6000 3.6 120 14:36 02.01.2020
1519 Rain 6 1038 100 2000 4.1 120 14:18 02.01.2020
1520 Rain 6 1038 100 2000 4.1 120 13:48 02.01.2020
1521 Rain 6 1038 100 2000 4.1 120 13:48 02.01.2020
1522 Rain 6 1038 100 2000 4.1 120 13:30 02.01.2020
1523 Rain 25 1013 88 4000 3.1 180 12:46 02.01.2020
1524 Fog 6 1036 93 4000 3.1 100 12:25 02.01.2020
1525 Fog 6 1036 93 4000 3.1 100 11:58 02.01.2020
1526 Fog 6 1036 93 4000 3.1 100 11:40 02.01.2020
1527 Fog 6 1036 93 4000 3.1 100 11:19 02.01.2020
1528 Fog 6 1035 93 4000 1 0 10:43 02.01.2020
1529 Fog 6 1035 93 4000 1 0 10:25 02.01.2020
1530 Fog 6 1035 93 4000 1 0 09:46 02.01.2020
1531 Fog 6 1035 93 4000 1 0 09:28 02.01.2020
1532 Clouds 6 1035 93 10000 2.1 200 08:45 02.01.2020
1533 Clouds 6 1035 93 10000 2.1 200 08:27 02.01.2020
1534 Clouds 6 1036 93 10000 1 0 07:51 02.01.2020
1535 Clouds 6 1036 93 10000 1 0 07:30 02.01.2020
1536 Clouds 6 1036 87 10000 4.1 60 06:45 02.01.2020
1537 Clouds 6 1036 87 10000 4.1 60 06:26 02.01.2020
1538 Clouds 7 1037 93 10000 2.1 260 05:21 02.01.2020
1539 Rain 7 1037 87 10000 1 0 04:31 02.01.2020
1540 Rain 8 1036 87 4000 2.6 50 02:37 02.01.2020
1541 Fog 9 1035 87 4000 4.1 110 01:58 02.01.2020
1542 Fog 9 1035 87 4000 4.1 110 01:33 02.01.2020
1543 Fog 9 1035 87 4000 4.1 110 01:33 02.01.2020
1544 Clouds 9 1034 93 10000 4.6 120 00:57 02.01.2020
1545 Clouds 9 1034 93 10000 4.6 120 00:33 02.01.2020
1546 Clouds 10 1033 87 10000 4.1 130 23:49 01.01.2020
1547 Clouds 10 1033 87 10000 4.1 130 23:27 01.01.2020
1548 Clouds 11 1033 81 10000 3.1 150 22:56 01.01.2020
1549 Clouds 11 1033 81 10000 3.1 150 22:37 01.01.2020
1550 Clouds 11 1033 81 10000 3.1 150 22:19 01.01.2020
1551 Rain 12 1033 66 8000 3.6 90 21:55 01.01.2020
1552 Rain 12 1033 66 8000 3.6 90 21:37 01.01.2020
1553 Rain 12 1033 66 8000 3.6 90 21:18 01.01.2020
1554 Clouds 14 1034 58 10000 3.6 100 20:42 01.01.2020
1555 Clouds 14 1034 58 10000 3.6 100 20:22 01.01.2020
1556 Clouds 13 1035 62 10000 3.6 90 19:58 01.01.2020
1557 Clouds 13 1035 62 10000 3.6 90 19:39 01.01.2020
1558 Clouds 13 1035 62 10000 3.6 90 19:21 01.01.2020
1559 Rain 10 1036 81 8000 6.7 110 18:59 01.01.2020
1560 Rain 10 1036 81 8000 6.7 110 18:39 01.01.2020
1561 Rain 10 1036 81 8000 6.7 110 18:20 01.01.2020
1562 Clouds 10 1037 81 6000 4.1 110 17:59 01.01.2020
1563 Clouds 10 1037 81 6000 4.1 110 17:40 01.01.2020
1564 Clouds 10 1037 81 6000 4.1 110 17:20 01.01.2020
1565 Rain 8 1038 87 6000 5.1 110 16:59 01.01.2020
1566 Rain 8 1038 87 6000 5.1 110 16:38 01.01.2020
1567 Rain 8 1038 87 6000 5.1 110 16:20 01.01.2020
1568 Fog 8 1038 87 4000 4.6 130 15:57 01.01.2020
1569 Fog 8 1038 87 4000 4.6 130 15:38 01.01.2020
1570 Fog 8 1038 87 4000 4.6 130 15:20 01.01.2020
1571 Fog 8 1038 87 4000 3.1 140 14:56 01.01.2020
1572 Fog 8 1038 87 4000 3.1 140 14:37 01.01.2020
1573 Fog 8 1038 87 4000 3.1 140 14:19 01.01.2020
1574 Rain 7 1037 93 4000 2.6 160 13:55 01.01.2020
1575 Rain 7 1037 93 4000 2.6 160 13:55 01.01.2020
1576 Rain 7 1037 93 4000 2.6 160 13:36 01.01.2020
1577 Rain 7 1037 93 4000 2.6 160 13:18 01.01.2020
1578 Rain 7 1037 87 3000 2.1 150 12:40 01.01.2020
1579 Rain 7 1037 87 3000 2.1 150 12:19 01.01.2020
1580 Fog 6 1036 93 4000 3.1 110 11:57 01.01.2020
1581 Fog 6 1036 93 4000 3.1 110 11:38 01.01.2020
1582 Fog 6 1036 93 4000 3.1 110 11:19 01.01.2020
1583 Fog 7 1035 93 4000 1.5 130 10:55 01.01.2020
1584 Fog 7 1035 93 4000 1.5 130 10:36 01.01.2020
1585 Fog 7 1035 93 4000 1.5 130 10:18 01.01.2020
1586 Fog 7 1035 93 4000 2.1 90 09:40 01.01.2020
1587 Rain 7 1035 93 4000 2.6 110 09:20 01.01.2020
1588 Rain 7 1035 93 4000 2.6 110 08:57 01.01.2020
1589 Rain 7 1035 93 4000 2.6 110 08:37 01.01.2020
1590 Rain 7 1035 93 4000 2.6 110 08:37 01.01.2020
1591 Rain 7 1035 93 4000 2.6 110 08:19 01.01.2020
1592 Rain 7 1036 93 4000 2.6 90 07:56 01.01.2020
1593 Rain 7 1036 93 4000 2.6 90 07:38 01.01.2020
1594 Rain 8 1037 87 4000 2.1 100 06:46 01.01.2020
1595 Rain 8 1037 87 4000 2.1 100 06:22 01.01.2020
1596 Fog 8 1037 87 4000 1 0 05:45 01.01.2020
1597 Fog 8 1037 87 4000 4.1 90 03:48 01.01.2020
1598 Fog 8 1037 87 4000 4.1 90 03:28 01.01.2020
1599 Clouds 7 1036 93 10000 3.6 70 02:59 01.01.2020
1600 Clouds 7 1036 93 10000 3.6 70 02:40 01.01.2020
1601 Clouds 7 1036 93 10000 3.6 70 02:21 01.01.2020
1602 Clouds 7 1035 93 10000 4.6 90 01:39 01.01.2020
1603 Clouds 7 1035 93 10000 4.6 90 01:39 01.01.2020
1604 Clouds 7 1035 93 10000 4.6 90 01:21 01.01.2020
1605 Clouds 8 1034 81 10000 2.1 90 00:44 01.01.2020
1606 Clouds 8 1034 81 10000 2.1 90 00:25 01.01.2020
1607 Clouds 9 1033 81 10000 3.1 80 23:41 31.12.2019
1608 Clouds 9 1033 81 10000 3.1 80 23:22 31.12.2019
1609 Clouds 9 1034 81 10000 2.6 80 22:58 31.12.2019
1610 Clouds 9 1034 81 10000 2.6 80 22:39 31.12.2019
1611 Clouds 9 1034 81 10000 2.6 80 22:39 31.12.2019
1612 Clouds 9 1034 81 10000 2.6 80 22:20 31.12.2019
1613 Clouds 9 1035 81 10000 4.6 80 21:57 31.12.2019
1614 Clouds 9 1035 81 10000 4.6 80 21:39 31.12.2019
1615 Clouds 9 1035 81 10000 4.6 80 21:20 31.12.2019
1616 Clouds 8 1035 93 10000 8.2 100 20:55 31.12.2019
1617 Clouds 8 1035 93 10000 8.2 100 20:37 31.12.2019
1618 Clouds 8 1035 93 10000 8.2 100 20:18 31.12.2019
1619 Thunderstorm 11 1035 71 8000 9.3 120 19:43 31.12.2019
1620 Thunderstorm 11 1035 71 8000 9.3 120 19:24 31.12.2019
1621 Thunderstorm 16 1036 41 10000 4.1 120 18:59 31.12.2019
1622 Thunderstorm 16 1036 41 10000 4.1 120 18:40 31.12.2019
1623 Thunderstorm 16 1036 41 10000 4.1 120 18:20 31.12.2019
1624 Clouds 14 1036 50 10000 4.1 90 17:57 31.12.2019
1625 Clouds 14 1036 50 10000 4.1 90 17:57 31.12.2019
1626 Clouds 14 1036 50 10000 4.1 90 17:38 31.12.2019
1627 Clouds 14 1036 50 10000 4.1 90 17:19 31.12.2019
1628 Clouds 13 1037 58 10000 3.1 140 16:57 31.12.2019
1629 Clouds 13 1037 58 10000 3.1 140 16:38 31.12.2019
1630 Clouds 13 1037 58 10000 3.1 140 16:19 31.12.2019
1631 Clouds 11 1037 62 10000 3.1 130 15:57 31.12.2019
1632 Clouds 11 1037 62 10000 3.1 130 15:38 31.12.2019
1633 Clouds 11 1037 62 10000 3.1 130 15:20 31.12.2019
1634 Clouds 10 1037 71 10000 2.1 140 14:58 31.12.2019
1635 Clouds 10 1037 71 10000 2.1 140 14:38 31.12.2019
1636 Clouds 10 1037 71 10000 2.1 140 14:19 31.12.2019
1637 Clouds 9 1036 81 6000 2.6 100 13:57 31.12.2019
1638 Clouds 9 1036 81 6000 2.6 100 13:39 31.12.2019
1639 Clouds 9 1036 81 6000 2.6 100 13:20 31.12.2019
1640 Fog 7 1036 93 4000 2.1 70 12:56 31.12.2019
1641 Fog 7 1036 93 4000 2.1 70 12:38 31.12.2019
1642 Fog 7 1036 93 4000 2.1 70 12:20 31.12.2019
1643 Fog 7 1035 93 6000 2.6 110 11:56 31.12.2019
1644 Fog 7 1035 93 6000 2.6 110 11:56 31.12.2019
1645 Fog 7 1035 93 6000 2.6 110 11:56 31.12.2019
1646 Fog 7 1035 93 6000 2.6 110 11:38 31.12.2019
1647 Fog 7 1035 93 6000 2.6 110 11:19 31.12.2019
1648 Fog 6 1034 93 3000 1.5 60 10:57 31.12.2019
1649 Fog 6 1034 93 3000 1.5 60 10:57 31.12.2019
1650 Fog 6 1034 93 3000 1.5 60 10:38 31.12.2019
1651 Fog 6 1034 93 3000 1.5 60 10:20 31.12.2019
1652 Fog 7 1035 93 4000 1 0 09:58 31.12.2019
1653 Fog 7 1035 93 4000 1 0 09:39 31.12.2019
1654 Fog 7 1035 93 4000 1 0 09:20 31.12.2019
1655 Fog 7 1035 93 3000 2.1 240 08:57 31.12.2019
1656 Fog 7 1035 93 3000 2.1 240 08:37 31.12.2019
1657 Fog 7 1035 93 3000 2.1 240 08:37 31.12.2019
1658 Fog 7 1035 93 3000 2.1 240 08:18 31.12.2019
1659 Fog 8 1035 87 4000 1 0 07:41 31.12.2019
1660 Fog 8 1035 87 4000 1 0 07:19 31.12.2019
1661 Fog 8 1036 93 4000 3.1 90 06:48 31.12.2019
1662 Fog 7 1036 93 4000 1 0 05:54 31.12.2019
1663 Fog 8 1036 87 4000 2.6 120 04:27 31.12.2019
1664 Clouds 9 1035 76 10000 4.1 70 03:27 31.12.2019
1665 Clouds 10 1035 71 10000 3.6 40 02:39 31.12.2019
1666 Clouds 10 1035 81 10000 4.1 100 01:53 31.12.2019
1667 Clouds 10 1035 81 10000 4.1 100 01:34 31.12.2019
1668 Thunderstorm 10 1034 76 10000 4.1 160 00:56 31.12.2019
1669 Thunderstorm 10 1034 76 10000 4.1 160 00:37 31.12.2019
1670 Thunderstorm 10 1034 76 10000 4.1 160 00:18 31.12.2019
1671 Thunderstorm 10 1034 76 10000 4.1 160 00:18 31.12.2019
1672 Thunderstorm 13 1034 62 10000 5.7 110 23:55 30.12.2019
1673 Thunderstorm 13 1034 62 10000 5.7 110 23:36 30.12.2019
1674 Thunderstorm 13 1034 62 10000 5.7 110 23:18 30.12.2019
1675 Thunderstorm 14 1033 50 10000 4.1 110 22:54 30.12.2019
1676 Thunderstorm 14 1033 50 10000 4.1 110 22:36 30.12.2019
1677 Thunderstorm 14 1033 50 10000 4.1 110 22:18 30.12.2019
1678 Thunderstorm 14 1033 50 10000 4.1 110 22:18 30.12.2019
1679 Thunderstorm 15 1033 44 10000 4.1 90 21:55 30.12.2019
1680 Thunderstorm 15 1033 44 10000 4.1 90 21:55 30.12.2019
1681 Clouds 17 1033 36 10000 4.6 100 21:36 30.12.2019
1682 Clouds 17 1033 36 10000 4.6 100 21:18 30.12.2019
1683 Clouds 16 1034 36 10000 4.6 140 20:41 30.12.2019
1684 Clouds 16 1034 36 10000 4.6 140 20:20 30.12.2019
1685 Clouds 13 1036 50 10000 2.1 130 19:59 30.12.2019
1686 Clouds 13 1036 50 10000 2.1 130 19:40 30.12.2019
1687 Clouds 13 1036 50 10000 2.1 130 19:20 30.12.2019
1688 Clouds 14 1036 50 10000 2.6 110 18:59 30.12.2019
1689 Clouds 14 1036 50 10000 2.6 110 18:41 30.12.2019
1690 Clouds 14 1036 50 10000 2.6 110 18:20 30.12.2019
1691 Clouds 13 1037 50 10000 4.6 120 17:58 30.12.2019
1692 Clouds 13 1037 50 10000 4.6 120 17:40 30.12.2019
1693 Clouds 13 1037 50 10000 4.6 120 17:19 30.12.2019
1694 Clouds 12 1038 58 10000 3.6 130 16:58 30.12.2019
1695 Clouds 12 1038 58 10000 3.6 130 16:37 30.12.2019
1696 Clouds 12 1038 58 10000 3.6 130 16:19 30.12.2019
1697 Clouds 10 1038 66 10000 3.6 120 15:56 30.12.2019
1698 Clouds 10 1038 66 10000 3.6 120 15:37 30.12.2019
1699 Clouds 10 1038 66 10000 3.6 120 15:18 30.12.2019
1700 Clouds 9 1038 70 10000 2.1 140 14:43 30.12.2019
1701 Clouds 9 1038 70 10000 2.1 140 14:20 30.12.2019
1702 Clouds 8 1037 70 10000 1 0 13:58 30.12.2019
1703 Clouds 8 1037 70 10000 1 0 13:40 30.12.2019
1704 Clouds 8 1037 70 10000 1 0 13:21 30.12.2019
1705 Clouds 8 1037 70 10000 1 0 13:21 30.12.2019
1706 Clouds 7 1037 75 10000 1 0 12:56 30.12.2019
1707 Clouds 7 1037 75 10000 1 0 12:37 30.12.2019
1708 Clouds 7 1037 75 10000 1 0 12:18 30.12.2019
1709 Clouds 7 1036 81 10000 1 0 11:42 30.12.2019
1710 Clouds 7 1036 81 10000 1 0 11:20 30.12.2019
1711 Clouds 6 1036 87 10000 1 0 10:58 30.12.2019
1712 Clouds 6 1036 87 10000 1 0 10:40 30.12.2019
1713 Clouds 6 1036 87 10000 1 0 10:40 30.12.2019
1714 Clouds 6 1036 87 10000 1 0 10:18 30.12.2019
1715 Clouds 6 1036 81 10000 2.6 40 09:42 30.12.2019
1716 Clouds 6 1036 81 10000 2.6 40 09:20 30.12.2019
1717 Clouds 5 1036 86 10000 3.1 60 08:55 30.12.2019
1718 Clouds 5 1036 86 10000 3.1 60 08:36 30.12.2019
1719 Clouds 5 1036 86 10000 3.1 60 08:18 30.12.2019
1720 Rain 5 1037 93 4000 4.6 70 07:41 30.12.2019
1721 Rain 5 1038 93 4000 4.6 100 06:58 30.12.2019
1722 Rain 5 1038 93 4000 4.6 100 06:23 30.12.2019
1723 Rain 5 1038 93 4000 4.6 100 06:23 30.12.2019
1724 Clouds 8 1038 75 10000 5.7 210 03:58 30.12.2019
1725 Clouds 8 1038 75 10000 5.7 210 03:32 30.12.2019
1726 Clouds 9 1037 76 10000 6.2 240 02:40 30.12.2019
1727 Clouds 10 1036 66 10000 2.6 110 01:56 30.12.2019
1728 Clouds 10 1036 66 10000 2.6 110 01:25 30.12.2019
1729 Clouds 11 1034 57 10000 3.6 40 00:45 30.12.2019
1730 Clouds 11 1034 57 10000 3.6 40 00:23 30.12.2019
1731 Clouds 11 1035 57 10000 4.6 180 23:39 29.12.2019
1732 Clouds 11 1035 57 10000 4.6 180 23:21 29.12.2019
1733 Clouds 13 1034 58 10000 5.7 100 22:55 29.12.2019
1734 Clouds 13 1034 58 10000 5.7 100 22:37 29.12.2019
1735 Clouds 13 1034 58 10000 5.7 100 22:18 29.12.2019
1736 Clouds 13 1034 58 10000 5.1 120 21:43 29.12.2019
1737 Clouds 13 1034 58 10000 5.1 120 21:21 29.12.2019
1738 Clouds 14 1035 54 10000 4.6 100 20:57 29.12.2019
1739 Clouds 14 1035 54 10000 4.6 100 20:39 29.12.2019
1740 Clouds 14 1035 54 10000 4.6 100 20:21 29.12.2019
1741 Clouds 13 1036 58 10000 5.1 100 19:59 29.12.2019
1742 Clouds 13 1036 58 10000 5.1 100 19:40 29.12.2019
1743 Clouds 13 1036 58 10000 5.1 100 19:21 29.12.2019
1744 Clouds 15 1037 51 10000 5.7 110 18:57 29.12.2019
1745 Clouds 15 1037 51 10000 5.7 110 18:38 29.12.2019
1746 Clouds 15 1037 51 10000 5.7 110 18:19 29.12.2019
1747 Clouds 13 1037 58 10000 5.7 100 17:58 29.12.2019
1748 Clouds 13 1037 58 10000 5.7 100 17:39 29.12.2019
1749 Clouds 13 1037 58 10000 5.7 100 17:20 29.12.2019
1750 Clouds 13 1038 58 10000 4.1 140 16:56 29.12.2019
1751 Clouds 13 1038 58 10000 4.1 140 16:37 29.12.2019
1752 Clouds 13 1038 58 10000 4.1 140 16:19 29.12.2019
1753 Clouds 29 1012 74 6000 5.1 340 15:57 29.12.2019
1754 Clouds 29 1012 74 6000 5.1 340 15:38 29.12.2019
1755 Clouds 29 1012 74 6000 5.1 340 15:19 29.12.2019
1756 Clouds 10 1037 71 6000 1 0 14:56 29.12.2019
1757 Clouds 10 1037 71 6000 1 0 14:38 29.12.2019
1758 Clouds 10 1037 71 6000 1 0 14:18 29.12.2019
1759 Clouds 10 1037 71 6000 1 0 14:18 29.12.2019
1760 Clouds 8 1037 81 6000 1 0 13:55 29.12.2019
1761 Clouds 8 1037 81 6000 1 0 13:55 29.12.2019
1762 Clouds 8 1037 81 6000 1 0 13:37 29.12.2019
1763 Clouds 8 1037 81 6000 1 0 13:18 29.12.2019
1764 Clouds 7 1037 81 6000 1 0 12:43 29.12.2019
1765 Clouds 7 1037 81 6000 1 0 12:25 29.12.2019
1766 Clouds 7 1037 81 6000 1 0 12:25 29.12.2019
1767 Fog 7 1036 87 4000 1 0 11:56 29.12.2019
1768 Fog 7 1036 87 4000 1 0 11:37 29.12.2019
1769 Fog 7 1036 87 4000 1 0 11:37 29.12.2019
1770 Fog 7 1036 87 4000 1 0 11:37 29.12.2019
1771 Fog 7 1036 87 4000 1 0 11:19 29.12.2019
1772 Fog 6 1036 93 4000 1 0 10:42 29.12.2019
1773 Fog 6 1036 93 4000 1 0 10:22 29.12.2019
1774 Clouds 4 1016 89 0 0.86 181 09:56 29.12.2019
1775 Clouds 4 1016 89 0 0.86 181 09:38 29.12.2019
1776 Fog 6 1036 93 4000 3.1 80 09:19 29.12.2019
1777 Fog 6 1036 93 4000 3.1 80 08:46 29.12.2019
1778 Fog 6 1036 93 4000 3.1 80 08:24 29.12.2019
1779 Clouds 6 1036 81 10000 3.1 70 07:54 29.12.2019
1780 Clouds 6 1036 81 10000 3.1 70 07:28 29.12.2019
1781 Clouds 7 1037 75 10000 2.6 80 06:53 29.12.2019
1782 Clouds 7 1037 75 10000 2.6 80 06:23 29.12.2019
1783 Clouds 8 1038 70 10000 1 0 05:50 29.12.2019
1784 Clouds 7 1038 75 10000 3.1 360 04:35 29.12.2019
1785 Clouds 6 1039 87 10000 4.1 300 03:40 29.12.2019
1786 Clouds 6 1039 87 10000 4.1 300 03:19 29.12.2019
1787 Clouds 9 1038 66 10000 4.6 170 02:19 29.12.2019
1788 Clouds 9 1036 76 10000 4.6 110 01:31 29.12.2019
1789 Clouds 9 1036 76 10000 4.6 110 01:31 29.12.2019
1790 Clouds 11 1034 66 10000 5.1 110 00:51 29.12.2019
1791 Clouds 11 1034 66 10000 5.1 110 00:27 29.12.2019
1792 Clouds 13 1034 58 10000 4.6 100 23:57 28.12.2019
1793 Clouds 13 1034 58 10000 4.6 100 23:39 28.12.2019
1794 Clouds 13 1034 58 10000 4.6 100 23:18 28.12.2019
1795 Clouds 15 1034 51 10000 4.1 110 22:39 28.12.2019
1796 Clouds 15 1034 51 10000 4.1 110 22:19 28.12.2019
1797 Thunderstorm 13 1035 54 10000 4.6 110 21:57 28.12.2019
1798 Thunderstorm 13 1035 54 10000 4.6 110 21:38 28.12.2019
1799 Thunderstorm 13 1035 54 10000 4.6 110 21:20 28.12.2019
1800 Clouds 15 1036 54 10000 5.1 120 20:55 28.12.2019
1801 Clouds 15 1036 54 10000 5.1 120 20:36 28.12.2019
1802 Clouds 15 1036 54 10000 5.1 120 20:18 28.12.2019
1803 Clouds 15 1036 47 10000 5.7 100 19:54 28.12.2019
1804 Clouds 15 1036 47 10000 5.7 100 19:36 28.12.2019
1805 Clouds 15 1036 47 10000 5.7 100 19:18 28.12.2019
1806 Clouds 14 1037 50 10000 5.7 130 18:43 28.12.2019
1807 Clouds 14 1037 50 10000 5.7 130 18:21 28.12.2019
1808 Clouds 14 1038 50 10000 5.1 110 17:59 28.12.2019
1809 Clouds 14 1038 50 10000 5.1 110 17:41 28.12.2019
1810 Clouds 14 1038 50 10000 5.1 110 17:21 28.12.2019
1811 Clouds 13 1038 54 10000 4.1 110 16:55 28.12.2019
1812 Clouds 13 1038 54 10000 4.1 110 16:36 28.12.2019
1813 Clouds 13 1038 54 10000 4.1 110 16:36 28.12.2019
1814 Clouds 13 1038 54 10000 4.1 110 16:18 28.12.2019
1815 Clouds 11 1038 62 10000 4.1 130 15:41 28.12.2019
1816 Clouds 11 1038 62 10000 4.1 130 15:21 28.12.2019
1817 Clouds 11 1038 62 10000 4.1 130 15:21 28.12.2019
1818 Clouds 9 1039 70 10000 3.6 100 14:48 28.12.2019
1819 Clouds 9 1039 70 10000 3.6 100 14:26 28.12.2019
1820 Clouds 8 1038 81 6000 2.6 90 13:58 28.12.2019
1821 Clouds 8 1038 81 6000 2.6 90 13:39 28.12.2019
1822 Clouds 8 1038 81 6000 2.6 90 13:20 28.12.2019
1823 Fog 6 1038 93 4000 2.1 100 12:56 28.12.2019
1824 Fog 6 1038 93 4000 2.1 100 12:37 28.12.2019
1825 Fog 6 1038 93 4000 2.1 100 12:19 28.12.2019
1826 Rain 6 1037 93 4000 4.1 100 11:40 28.12.2019
1827 Rain 6 1037 93 4000 4.1 100 11:21 28.12.2019
1828 Fog 6 1036 93 4000 3.6 130 10:47 28.12.2019
1829 Fog 6 1036 93 4000 3.6 130 10:23 28.12.2019
1830 Fog 6 1036 93 4000 2.6 90 09:58 28.12.2019
1831 Fog 6 1036 93 4000 2.6 90 09:40 28.12.2019
1832 Fog 6 1036 93 4000 2.6 90 09:21 28.12.2019
1833 Fog 7 1037 93 4000 2.6 80 08:45 28.12.2019
1834 Fog 7 1037 93 4000 2.6 80 08:27 28.12.2019
1835 Clouds 7 1037 87 10000 1 0 07:57 28.12.2019
1836 Clouds 7 1037 87 10000 1 0 07:39 28.12.2019
1837 Clouds 7 1038 87 10000 1 0 06:42 28.12.2019
1838 Clouds 7 1038 81 10000 2.6 110 05:19 28.12.2019
1839 Clouds 8 1038 81 10000 4.1 200 03:47 28.12.2019
1840 Clouds 9 1038 81 10000 3.6 220 02:49 28.12.2019
1841 Clouds 9 1038 81 10000 3.6 220 02:19 28.12.2019
1842 Clouds 9 1037 81 10000 2.1 230 01:42 28.12.2019
1843 Clouds 9 1037 81 10000 2.1 230 01:18 28.12.2019
1844 Clouds 9 1036 76 10000 1 0 00:40 28.12.2019
1845 Clouds 9 1036 76 10000 1 0 00:21 28.12.2019
1846 Clouds 10 1035 76 10000 2.1 180 23:45 27.12.2019
1847 Clouds 10 1035 76 10000 2.1 180 23:20 27.12.2019
1848 Clouds 12 1036 58 10000 3.6 230 22:58 27.12.2019
1849 Clouds 12 1036 58 10000 3.6 230 22:39 27.12.2019
1850 Clouds 12 1036 58 10000 3.6 230 22:20 27.12.2019
1851 Clouds 11 1037 66 10000 3.1 260 21:56 27.12.2019
1852 Clouds 11 1037 66 10000 3.1 260 21:37 27.12.2019
1853 Clouds 11 1037 66 10000 3.1 260 21:19 27.12.2019
1854 Rain 10 1037 71 10000 2.6 330 20:42 27.12.2019
1855 Rain 10 1037 71 10000 2.6 330 20:23 27.12.2019
1856 Clouds 11 1038 62 8000 5.1 40 19:43 27.12.2019
1857 Clouds 11 1038 62 8000 5.1 40 19:21 27.12.2019
1858 Clouds 11 1038 62 8000 5.1 40 19:21 27.12.2019
1859 Clouds 13 1038 50 10000 5.7 70 18:59 27.12.2019
1860 Clouds 13 1038 50 10000 5.7 70 18:39 27.12.2019
1861 Clouds 13 1038 50 10000 5.7 70 18:39 27.12.2019
1862 Clouds 13 1038 50 10000 5.7 70 18:21 27.12.2019
1863 Clouds 12 1039 62 10000 4.1 110 17:57 27.12.2019
1864 Clouds 12 1039 62 10000 4.1 110 17:39 27.12.2019
1865 Clouds 12 1039 62 10000 4.1 110 17:19 27.12.2019
1866 Clouds 11 1039 57 10000 4.1 170 16:58 27.12.2019
1867 Clouds 11 1039 57 10000 4.1 170 16:38 27.12.2019
1868 Clouds 11 1039 57 10000 4.1 170 16:19 27.12.2019
1869 Clouds 9 1040 70 10000 1 0 15:44 27.12.2019
1870 Clouds 9 1040 70 10000 1 0 15:22 27.12.2019
1871 Clouds 8 1039 75 10000 1 0 14:57 27.12.2019
1872 Clouds 8 1039 75 10000 1 0 14:39 27.12.2019
1873 Clouds 8 1039 75 10000 1 0 14:20 27.12.2019
1874 Clouds 8 1039 81 10000 1 0 13:48 27.12.2019
1875 Clouds 8 1039 81 10000 1 0 13:48 27.12.2019
1876 Clouds 8 1039 81 10000 1 0 13:25 27.12.2019
1877 Clouds 7 1039 81 10000 1 0 12:58 27.12.2019
1878 Clouds 7 1039 81 10000 1 0 12:40 27.12.2019
1879 Clouds 7 1039 81 10000 1 0 12:21 27.12.2019
1880 Clouds 6 1038 87 10000 1 0 11:45 27.12.2019
1881 Clouds 6 1038 87 10000 1 0 11:26 27.12.2019
1882 Clouds 6 1038 87 10000 2.1 280 10:56 27.12.2019
1883 Clouds 6 1038 87 10000 2.1 280 10:38 27.12.2019
1884 Clouds 6 1038 87 10000 2.1 280 10:20 27.12.2019
1885 Clouds 6 1038 87 10000 3.1 280 09:42 27.12.2019
1886 Clouds 6 1038 87 10000 3.1 280 09:21 27.12.2019
1887 Clouds 6 1038 87 10000 3.1 270 08:56 27.12.2019
1888 Clouds 6 1038 87 10000 3.1 270 08:36 27.12.2019
1889 Rain 7 1039 81 8000 3.6 310 07:51 27.12.2019
1890 Rain 7 1039 81 8000 3.6 310 07:31 27.12.2019
1891 Clouds 6 1039 87 10000 3.6 320 06:37 27.12.2019
1892 Clouds 7 1040 75 10000 6.7 310 05:28 27.12.2019
1893 Clouds 9 1039 76 10000 4.1 280 03:26 27.12.2019
1894 Clouds 10 1036 53 10000 3.1 100 01:59 27.12.2019
1895 Clouds 10 1036 53 10000 3.1 100 01:24 27.12.2019
1896 Clouds 11 1036 53 10000 4.6 70 00:58 27.12.2019
1897 Clouds 11 1036 53 10000 4.6 70 00:40 27.12.2019
1898 Clouds 11 1036 53 10000 4.6 70 00:21 27.12.2019
1899 Clouds 13 1035 43 10000 4.1 100 23:41 26.12.2019
1900 Clouds 13 1035 43 10000 4.1 100 23:22 26.12.2019
1901 Clouds 14 1035 41 10000 5.1 80 22:45 26.12.2019
1902 Clouds 14 1035 41 10000 5.1 80 22:23 26.12.2019
1903 Clouds 16 1035 38 10000 6.2 60 21:59 26.12.2019
1904 Clouds 16 1035 38 10000 6.2 60 21:38 26.12.2019
1905 Clouds 16 1035 38 10000 6.2 60 21:20 26.12.2019
1906 Clouds 15 1036 41 10000 5.7 60 20:46 26.12.2019
1907 Clouds 15 1036 41 10000 5.7 60 20:23 26.12.2019
1908 Clouds 16 1037 41 10000 5.1 100 19:59 26.12.2019
1909 Clouds 16 1037 41 10000 5.1 100 19:39 26.12.2019
1910 Clouds 16 1037 41 10000 5.1 100 19:39 26.12.2019
1911 Clouds 16 1037 41 10000 5.1 100 19:20 26.12.2019
1912 Clouds 15 1038 47 10000 4.6 110 18:57 26.12.2019
1913 Clouds 15 1038 47 10000 4.6 110 18:38 26.12.2019
1914 Clouds 15 1038 47 10000 4.6 110 18:19 26.12.2019
1915 Clouds 13 1039 54 10000 4.6 100 17:43 26.12.2019
1916 Clouds 13 1039 54 10000 4.6 100 17:22 26.12.2019
1917 Thunderstorm 14 1038 50 10000 5.1 100 16:58 26.12.2019
1918 Thunderstorm 14 1038 50 10000 5.1 100 16:39 26.12.2019
1919 Thunderstorm 14 1038 50 10000 5.1 100 16:20 26.12.2019
1920 Clouds 13 1039 58 10000 3.6 120 15:41 26.12.2019
1921 Clouds 13 1039 58 10000 3.6 120 15:20 26.12.2019
1922 Clouds 12 1039 66 8000 4.1 130 14:54 26.12.2019
1923 Clouds 12 1039 66 8000 4.1 130 14:36 26.12.2019
1924 Clouds 12 1039 66 8000 4.1 130 14:36 26.12.2019
1925 Clouds 12 1039 66 8000 4.1 130 14:18 26.12.2019
1926 Clouds 10 1039 71 6000 2.6 130 13:42 26.12.2019
1927 Clouds 10 1039 71 6000 2.6 130 13:19 26.12.2019
1928 Fog 8 1038 87 4000 3.6 80 12:56 26.12.2019
1929 Fog 8 1038 87 4000 3.6 80 12:37 26.12.2019
1930 Fog 8 1038 87 4000 3.6 80 12:18 26.12.2019
1931 Fog 7 1037 93 4000 3.6 100 11:43 26.12.2019
1932 Fog 7 1037 93 4000 3.6 100 11:23 26.12.2019
1933 Fog 5 1036 93 4000 2.6 90 10:57 26.12.2019
1934 Fog 5 1036 93 4000 2.6 90 10:57 26.12.2019
1935 Fog 5 1036 93 4000 2.6 90 10:39 26.12.2019
1936 Fog 5 1036 93 4000 2.6 90 10:18 26.12.2019
1937 Clouds 7 1037 70 10000 1.8 44 09:42 26.12.2019
1938 Clouds 7 1037 70 10000 1.8 44 09:24 26.12.2019
1939 Clouds 8 1037 65 10000 1 0 08:42 26.12.2019
1940 Clouds 8 1037 65 10000 1 0 08:23 26.12.2019
1941 Clouds 8 1037 65 10000 1 0 07:50 26.12.2019
1942 Clouds 8 1037 65 10000 1 0 07:26 26.12.2019
1943 Clouds 9 1038 61 10000 1 0 06:44 26.12.2019
1944 Clouds 9 1038 61 10000 1 0 06:25 26.12.2019
1945 Clouds 9 1038 61 10000 2.1 220 05:43 26.12.2019
1946 Clouds 9 1039 66 10000 1 200 04:38 26.12.2019
1947 Clouds 10 1038 61 10000 2.1 120 03:46 26.12.2019
1948 Clouds 11 1037 53 10000 3.1 120 02:49 26.12.2019
1949 Clouds 11 1037 53 10000 3.1 120 02:31 26.12.2019
1950 Clouds 11 1037 53 10000 3.1 120 02:31 26.12.2019
1951 Clouds 11 1035 82 10000 4.6 80 01:45 26.12.2019
1952 Clouds 11 1035 82 10000 4.6 80 01:26 26.12.2019
1953 Clouds 12 1034 46 10000 5.1 90 00:47 26.12.2019
1954 Clouds 12 1034 46 10000 5.1 90 00:23 26.12.2019
1955 Clouds 13 1033 37 10000 5.1 40 23:58 25.12.2019
1956 Clouds 13 1033 37 10000 5.1 40 23:37 25.12.2019
1957 Clouds 13 1033 37 10000 5.1 40 23:19 25.12.2019
1958 Clouds 13 1033 37 10000 5.1 40 23:19 25.12.2019
1959 Clouds 14 1032 58 10000 6.7 40 22:57 25.12.2019
1960 Clouds 14 1032 58 10000 6.7 40 22:37 25.12.2019
1961 Clouds 14 1032 58 10000 6.7 40 22:19 25.12.2019
1962 Clouds 16 1033 58 10000 7.2 40 21:55 25.12.2019
1963 Clouds 16 1033 58 10000 7.2 40 21:37 25.12.2019
1964 Clouds 16 1033 58 10000 7.2 40 21:19 25.12.2019
1965 Clouds 18 1033 58 10000 4.1 90 20:40 25.12.2019
1966 Clouds 18 1033 65 10000 4.1 90 20:21 25.12.2019
1967 Clouds 16 1034 36 10000 5.7 70 19:59 25.12.2019
1968 Clouds 16 1034 36 10000 5.7 70 19:41 25.12.2019
1969 Clouds 16 1034 36 10000 5.7 70 19:21 25.12.2019
1970 Clouds 17 1035 65 10000 2.1 360 18:40 25.12.2019
1971 Clouds 17 1035 65 10000 2.1 360 18:21 25.12.2019
1972 Clouds 17 1035 65 10000 2.1 360 18:21 25.12.2019
1973 Clouds 16 1037 36 10000 3.6 260 17:57 25.12.2019
1974 Clouds 16 1037 36 10000 3.6 260 17:39 25.12.2019
1975 Clouds 16 1037 36 10000 3.6 260 17:18 25.12.2019
1976 Clouds 14 1037 41 10000 2.1 230 16:39 25.12.2019
1977 Clouds 14 1037 41 10000 2.1 230 16:20 25.12.2019
1978 Clouds 14 1038 47 10000 2.1 240 15:58 25.12.2019
1979 Clouds 14 1038 47 10000 2.1 240 15:40 25.12.2019
1980 Clouds 14 1038 47 10000 2.1 240 15:21 25.12.2019
1981 Clouds 13 1038 54 10000 1 0 14:59 25.12.2019
1982 Clouds 13 1038 54 10000 1 0 14:40 25.12.2019
1983 Clouds 13 1038 54 10000 1 0 14:21 25.12.2019
1984 Clouds 11 1037 66 10000 1 0 13:57 25.12.2019
1985 Clouds 11 1037 66 10000 1 0 13:38 25.12.2019
1986 Clouds 11 1037 66 10000 1 0 13:19 25.12.2019
1987 Fog 7 1037 93 4000 1.5 80 12:42 25.12.2019
1988 Fog 7 1037 93 4000 1.5 80 12:20 25.12.2019
1989 Clouds 3 1036 93 10000 1.5 60 11:56 25.12.2019
1990 Clouds 3 1036 93 10000 1.5 60 11:56 25.12.2019
1991 Clouds 3 1036 93 10000 1.5 60 11:38 25.12.2019
1992 Clouds 3 1036 93 10000 1.5 60 11:18 25.12.2019
1993 Fog 6 1035 93 4000 1.5 140 10:38 25.12.2019
1994 Fog 6 1035 93 4000 1.5 140 10:20 25.12.2019
1995 Fog 5 1035 86 4000 1 0 09:51 25.12.2019
1996 Fog 5 1035 86 4000 1 0 09:32 25.12.2019
1997 Fog 6 1036 93 4000 1 0 08:51 25.12.2019
1998 Fog 6 1036 93 4000 1 0 08:31 25.12.2019
1999 Fog 5 1036 100 4000 2.6 10 07:50 25.12.2019
2000 Fog 4 1037 93 4000 1 0 07:32 25.12.2019
2001 Fog 4 1037 93 4000 1 0 06:51 25.12.2019
2002 Fog 4 1037 93 4000 1 0 06:23 25.12.2019
2003 Clouds 5 1037 86 10000 1 0 05:18 25.12.2019
2004 Clouds 7 1037 81 10000 1 0 04:39 25.12.2019
2005 Clouds 7 1037 81 10000 1 0 04:20 25.12.2019
2006 Clouds 8 1036 75 10000 2.6 110 03:41 25.12.2019
2007 Clouds 9 1036 61 10000 2.6 60 02:53 25.12.2019
2008 Clouds 9 1036 61 10000 2.6 60 02:20 25.12.2019
2009 Clouds 10 1035 53 10000 2.6 70 01:25 25.12.2019
2010 Clouds 13 1034 43 10000 4.1 110 00:53 25.12.2019
2011 Clouds 13 1034 43 10000 4.1 110 00:30 25.12.2019
2012 Clouds 15 1033 41 10000 3.6 140 23:56 24.12.2019
2013 Clouds 15 1033 41 10000 3.6 140 23:38 24.12.2019
2014 Clouds 15 1033 41 10000 3.6 140 23:20 24.12.2019
2015 Thunderstorm 15 1033 30 10000 2.1 340 22:40 24.12.2019
2016 Thunderstorm 15 1033 30 10000 2.1 340 22:21 24.12.2019
2017 Clouds 18 1033 31 10000 4.6 130 21:43 24.12.2019
2018 Clouds 18 1033 31 10000 4.6 130 21:23 24.12.2019
2019 Clouds 16 1034 31 10000 2.1 140 20:55 24.12.2019
2020 Clouds 16 1034 31 10000 2.1 140 20:36 24.12.2019
2021 Clouds 16 1034 31 10000 2.1 140 20:18 24.12.2019
2022 Clouds 16 1035 31 10000 3.6 130 19:43 24.12.2019
2023 Clouds 16 1035 31 10000 3.6 130 19:19 24.12.2019
2024 Clouds 16 1036 31 10000 4.1 100 18:43 24.12.2019
2025 Clouds 16 1036 31 10000 4.1 100 18:24 24.12.2019
2026 Clouds 16 1037 57 10000 4.1 160 17:58 24.12.2019
2027 Clouds 16 1037 57 10000 4.1 160 17:37 24.12.2019
2028 Clouds 16 1037 47 10000 4.1 160 17:19 24.12.2019
2029 Clouds 14 1038 41 10000 3.1 170 16:55 24.12.2019
2030 Clouds 14 1038 41 10000 3.1 170 16:36 24.12.2019
2031 Clouds 14 1038 41 10000 3.1 170 16:18 24.12.2019
2032 Clouds 13 1039 50 10000 2.6 140 15:54 24.12.2019
2033 Clouds 13 1039 50 10000 2.6 140 15:36 24.12.2019
2034 Clouds 13 1039 50 10000 2.6 140 15:36 24.12.2019
2035 Clouds 13 1039 50 10000 2.6 140 15:18 24.12.2019
2036 Clouds 12 1039 58 10000 2.1 150 14:41 24.12.2019
2037 Clouds 12 1039 58 10000 2.1 150 14:22 24.12.2019
2038 Clouds 10 1039 61 10000 1 0 13:57 24.12.2019
2039 Clouds 10 1039 61 10000 1 0 13:39 24.12.2019
2040 Clouds 10 1039 61 10000 1 0 13:21 24.12.2019
2041 Clouds 7 1038 87 10000 2.1 60 12:58 24.12.2019
2042 Clouds 7 1038 87 10000 2.1 60 12:58 24.12.2019
2043 Clouds 7 1038 87 10000 2.1 60 12:38 24.12.2019
2044 Clouds 7 1038 87 10000 2.1 60 12:19 24.12.2019
2045 Fog 5 1037 93 4000 3.1 80 11:58 24.12.2019
2046 Fog 5 1037 93 4000 3.1 80 11:38 24.12.2019
2047 Fog 5 1037 93 4000 3.1 80 11:20 24.12.2019
2048 Fog 5 1037 93 4000 3.6 90 10:57 24.12.2019
2049 Fog 5 1037 93 4000 3.6 90 10:38 24.12.2019
2050 Fog 5 1037 93 4000 3.6 90 10:20 24.12.2019
2051 Fog 5 1037 93 4000 3.1 80 09:59 24.12.2019
2052 Fog 5 1037 93 4000 3.1 80 09:41 24.12.2019
2053 Fog 5 1037 93 4000 3.1 80 09:22 24.12.2019
2054 Fog 6 1037 93 4000 3.1 80 08:56 24.12.2019
2055 Fog 6 1037 93 4000 3.1 80 08:37 24.12.2019
2056 Fog 6 1037 93 4000 3.1 80 08:18 24.12.2019
2057 Fog 6 1038 93 4000 4.1 80 07:43 24.12.2019
2058 Fog 6 1038 93 4000 4.1 80 07:21 24.12.2019
2059 Fog 7 1038 93 4000 1 0 06:40 24.12.2019
2060 Fog 7 1038 93 4000 1 0 06:22 24.12.2019
2061 Fog 7 1039 93 4000 2.1 100 05:55 24.12.2019
2062 Fog 7 1039 93 4000 2.1 100 05:19 24.12.2019
2063 Fog 7 1039 93 4000 3.1 70 04:21 24.12.2019
2064 Clouds 9 1039 81 10000 3.1 110 03:48 24.12.2019
2065 Clouds 10 1038 81 10000 2.1 70 02:29 24.12.2019
2066 Clouds 11 1037 66 10000 3.1 110 01:55 24.12.2019
2067 Clouds 11 1037 66 10000 3.1 110 01:26 24.12.2019
2068 Clouds 12 1036 62 10000 4.1 100 00:58 24.12.2019
2069 Clouds 12 1036 62 10000 4.1 100 00:39 24.12.2019
2070 Clouds 12 1036 62 10000 4.1 100 00:20 24.12.2019
2071 Clouds 14 1035 41 10000 5.1 40 23:42 23.12.2019
2072 Clouds 14 1035 41 10000 5.1 40 23:24 23.12.2019
2073 Clouds 16 1035 38 10000 5.1 60 22:57 23.12.2019
2074 Clouds 16 1035 38 10000 5.1 60 22:38 23.12.2019
2075 Clouds 16 1035 38 10000 5.1 60 22:38 23.12.2019
2076 Clouds 16 1035 38 10000 5.1 60 22:20 23.12.2019
2077 Clouds 14 1035 47 10000 3.1 40 21:56 23.12.2019
2078 Clouds 14 1035 47 10000 3.1 40 21:37 23.12.2019
2079 Clouds 14 1035 47 10000 3.1 40 21:19 23.12.2019
2080 Clouds 14 1035 47 10000 3.1 40 21:19 23.12.2019
2081 Clouds 13 1036 50 10000 3.6 270 20:58 23.12.2019
2082 Clouds 13 1036 50 10000 3.6 270 20:40 23.12.2019
2083 Thunderstorm 12 1036 62 10000 5.1 300 20:18 23.12.2019
2084 Thunderstorm 17 1036 45 10000 4.6 60 19:56 23.12.2019
2085 Thunderstorm 17 1036 45 10000 4.6 60 19:38 23.12.2019
2086 Thunderstorm 17 1036 45 10000 4.6 60 19:19 23.12.2019
2087 Clouds 16 1037 48 10000 4.6 130 18:58 23.12.2019
2088 Clouds 16 1037 48 10000 4.6 130 18:39 23.12.2019
2089 Clouds 16 1037 48 10000 4.6 130 18:20 23.12.2019
2090 Clouds 15 1038 54 10000 3.6 100 17:57 23.12.2019
2091 Clouds 15 1038 54 10000 3.6 100 17:38 23.12.2019
2092 Clouds 15 1038 54 10000 3.6 100 17:19 23.12.2019
2093 Clouds 15 1038 54 10000 3.6 100 17:19 23.12.2019
2094 Clouds 13 1039 62 10000 4.1 140 16:55 23.12.2019
2095 Clouds 13 1039 62 10000 4.1 140 16:55 23.12.2019
2096 Clouds 13 1039 62 10000 4.1 140 16:36 23.12.2019
2097 Clouds 13 1039 62 10000 4.1 140 16:18 23.12.2019
2098 Clouds 12 1039 66 10000 3.6 90 15:55 23.12.2019
2099 Clouds 12 1039 66 10000 3.6 90 15:36 23.12.2019
2100 Clouds 12 1039 66 10000 3.6 90 15:18 23.12.2019
2101 Clouds 11 1039 66 10000 4.1 90 14:45 23.12.2019
2102 Clouds 11 1039 66 10000 4.1 90 14:26 23.12.2019
2103 Fog 9 1038 87 4000 2.6 90 13:59 23.12.2019
2104 Fog 9 1038 87 4000 2.6 90 13:41 23.12.2019
2105 Fog 9 1038 87 4000 2.6 90 13:22 23.12.2019
2106 Fog 9 1038 87 4000 2.6 90 13:22 23.12.2019
2107 Fog 6 1038 93 4000 3.1 80 12:58 23.12.2019
2108 Fog 6 1038 93 4000 3.1 80 12:39 23.12.2019
2109 Fog 6 1038 93 4000 3.1 80 12:20 23.12.2019
2110 Fog 6 1037 93 4000 3.1 80 11:45 23.12.2019
2111 Fog 6 1037 93 4000 3.1 80 11:26 23.12.2019
2112 Fog 5 1037 93 3000 3.1 60 10:59 23.12.2019
2113 Fog 5 1037 93 3000 3.1 60 10:41 23.12.2019
2114 Fog 5 1037 93 3000 3.1 60 10:21 23.12.2019
2115 Fog 4 1036 93 4000 2.6 80 09:59 23.12.2019
2116 Fog 4 1036 93 4000 2.6 80 09:40 23.12.2019
2117 Fog 4 1036 93 4000 2.6 80 09:21 23.12.2019
2118 Fog 5 1037 93 4000 2.6 70 08:56 23.12.2019
2119 Fog 5 1037 93 4000 2.6 70 08:38 23.12.2019
2120 Fog 5 1037 93 4000 2.6 70 08:20 23.12.2019
2121 Fog 6 1037 93 4000 3.1 70 07:43 23.12.2019
2122 Fog 6 1037 93 4000 3.1 70 07:20 23.12.2019
2123 Fog 5 1038 86 4000 1 0 06:53 23.12.2019
2124 Clouds 7 1038 75 10000 2.1 30 06:25 23.12.2019
2125 Clouds 7 1038 75 10000 2.1 30 05:50 23.12.2019
2126 Clouds 7 1038 75 10000 2.1 30 05:27 23.12.2019
2127 Clouds 8 1039 81 10000 1 0 04:31 23.12.2019
2128 Clouds 7 1038 70 10000 1.5 60 02:58 23.12.2019
2129 Clouds 7 1038 70 10000 1.5 60 02:40 23.12.2019
2130 Clouds 7 1038 70 10000 1.5 60 02:18 23.12.2019
2131 Clouds 9 1037 61 10000 4.6 60 01:41 23.12.2019
2132 Clouds 9 1037 61 10000 4.6 60 01:19 23.12.2019
2133 Clouds 11 1035 53 10000 5.1 50 00:41 23.12.2019
2134 Clouds 11 1035 53 10000 5.1 50 00:19 23.12.2019
2135 Clouds 14 1035 47 10000 5.7 50 23:39 22.12.2019
2136 Clouds 14 1035 47 10000 5.7 50 23:39 22.12.2019
2137 Clouds 14 1035 47 10000 5.7 50 23:20 22.12.2019
2138 Clouds 15 1034 41 10000 6.7 50 22:58 22.12.2019
2139 Clouds 15 1034 41 10000 6.7 50 22:39 22.12.2019
2140 Clouds 15 1034 41 10000 6.7 50 22:19 22.12.2019
2141 Clouds 13 1035 50 10000 4.1 50 21:57 22.12.2019
2142 Clouds 13 1035 50 10000 4.1 50 21:39 22.12.2019
2143 Clouds 13 1035 50 10000 4.1 50 21:20 22.12.2019
2144 Thunderstorm 12 1036 50 10000 5.7 40 20:56 22.12.2019
2145 Thunderstorm 12 1036 50 10000 5.7 40 20:38 22.12.2019
2146 Thunderstorm 12 1036 50 10000 5.7 40 20:18 22.12.2019
2147 Clouds 16 1036 44 10000 1 0 19:41 22.12.2019
2148 Clouds 16 1036 44 10000 1 0 19:21 22.12.2019
2149 Thunderstorm 16 1036 48 10000 3.6 60 18:58 22.12.2019
2150 Thunderstorm 16 1036 48 10000 3.6 60 18:38 22.12.2019
2151 Clouds 17 1037 42 10000 3.6 110 18:19 22.12.2019
2152 Clouds 16 1037 51 10000 4.6 90 17:55 22.12.2019
2153 Clouds 16 1037 51 10000 4.6 90 17:37 22.12.2019
2154 Clouds 16 1037 51 10000 4.6 90 17:18 22.12.2019
2155 Clouds 14 1038 58 10000 4.1 90 16:43 22.12.2019
2156 Clouds 14 1038 58 10000 4.1 90 16:43 22.12.2019
2157 Clouds 14 1038 58 10000 4.1 90 16:23 22.12.2019
2158 Clouds 13 1038 62 10000 3.1 90 15:59 22.12.2019
2159 Clouds 13 1038 62 10000 3.1 90 15:59 22.12.2019
2160 Clouds 13 1038 62 10000 3.1 90 15:39 22.12.2019
2161 Clouds 13 1038 62 10000 3.1 90 15:21 22.12.2019
2162 Clouds 13 1038 62 10000 3.1 90 15:21 22.12.2019
2163 Clouds 10 1039 71 6000 4.6 90 14:59 22.12.2019
2164 Clouds 10 1039 71 6000 4.6 90 14:39 22.12.2019
2165 Clouds 10 1039 71 6000 4.6 90 14:19 22.12.2019
2166 Clouds 8 1038 87 6000 4.1 100 13:56 22.12.2019
2167 Clouds 8 1038 87 6000 4.1 100 13:38 22.12.2019
2168 Clouds 8 1038 87 6000 4.1 100 13:19 22.12.2019
2169 Fog 7 1037 93 4000 3.6 80 12:57 22.12.2019
2170 Fog 7 1037 93 4000 3.6 80 12:57 22.12.2019
2171 Fog 7 1037 93 4000 3.6 80 12:38 22.12.2019
2172 Fog 7 1037 93 4000 3.6 80 12:19 22.12.2019
2173 Fog 7 1037 93 4000 3.6 80 12:19 22.12.2019
2174 Fog 7 1037 93 4000 3.6 80 12:19 22.12.2019
2175 Fog 6 1037 93 4000 2.6 120 11:58 22.12.2019
2176 Fog 6 1037 93 4000 2.6 120 11:39 22.12.2019
2177 Fog 6 1037 93 4000 2.6 120 11:19 22.12.2019
2178 Fog 6 1036 93 4000 2.6 100 10:57 22.12.2019
2179 Fog 6 1036 93 4000 2.6 100 10:38 22.12.2019
2180 Fog 6 1036 93 4000 2.6 100 10:19 22.12.2019
2181 Fog 6 1035 93 4000 2.1 60 09:57 22.12.2019
2182 Fog 6 1035 93 4000 2.1 60 09:57 22.12.2019
2183 Fog 6 1035 93 4000 2.1 60 09:39 22.12.2019
2184 Fog 6 1035 93 4000 2.1 60 09:20 22.12.2019
2185 Rain 5 1016 91 0 2.18 42 08:45 22.12.2019
2186 Clouds 7 1036 87 10000 3.1 320 08:22 22.12.2019
2187 Clouds 7 1036 87 10000 3.1 320 07:44 22.12.2019
2188 Clouds 7 1036 87 10000 3.1 320 07:21 22.12.2019
2189 Clouds 7 1036 87 10000 3.1 320 07:21 22.12.2019
2190 Clouds 7 1036 87 10000 3.1 320 07:21 22.12.2019
2191 Clouds 8 1037 75 10000 1.5 330 06:55 22.12.2019
2192 Clouds 8 1037 75 10000 1.5 330 06:26 22.12.2019
2193 Clouds 8 1038 87 10000 2.1 280 05:33 22.12.2019
2194 Clouds 8 1038 81 10000 4.1 10 04:55 22.12.2019
2195 Clouds 8 1038 81 10000 4.1 10 04:25 22.12.2019
2196 Clouds 9 1035 76 10000 4.6 90 02:46 22.12.2019
2197 Clouds 9 1035 76 10000 4.6 90 02:21 22.12.2019
2198 Clouds 9 1034 66 10000 7.2 50 01:31 22.12.2019
2199 Thunderstorm 10 1035 61 8000 3.6 200 00:54 22.12.2019
2200 Thunderstorm 10 1035 61 8000 3.6 200 00:36 22.12.2019
2201 Thunderstorm 10 1035 61 8000 3.6 200 00:18 22.12.2019
2202 Thunderstorm 11 1035 57 8000 4.6 200 23:40 21.12.2019
2203 Clouds 12 1034 58 10000 3.1 70 23:21 21.12.2019
2204 Clouds 12 1033 54 10000 4.6 50 22:47 21.12.2019
2205 Clouds 12 1033 54 10000 4.6 50 22:20 21.12.2019
2206 Clouds 13 1033 50 10000 5.1 40 21:59 21.12.2019
2207 Clouds 13 1033 50 10000 5.1 40 21:40 21.12.2019
2208 Clouds 13 1033 50 10000 5.1 40 21:40 21.12.2019
2209 Clouds 13 1033 50 10000 5.1 40 21:21 21.12.2019
2210 Clouds 16 1034 44 10000 2.6 150 20:59 21.12.2019
2211 Clouds 16 1034 44 10000 2.6 150 20:59 21.12.2019
2212 Clouds 16 1034 44 10000 2.6 150 20:41 21.12.2019
2213 Clouds 16 1034 44 10000 2.6 150 20:22 21.12.2019
2214 Thunderstorm 15 1034 47 10000 1 0 19:59 21.12.2019
2215 Thunderstorm 15 1034 47 10000 1 0 19:59 21.12.2019
2216 Thunderstorm 15 1034 47 10000 1 0 19:41 21.12.2019
2217 Thunderstorm 14 1035 50 10000 1 0 19:41 21.12.2019
2218 Thunderstorm 14 1035 50 10000 1 0 19:20 21.12.2019
2219 Thunderstorm 12 1036 62 10000 5.1 100 18:59 21.12.2019
2220 Thunderstorm 12 1036 62 10000 5.1 100 18:40 21.12.2019
2221 Thunderstorm 12 1036 62 10000 5.1 100 18:22 21.12.2019
2222 Thunderstorm 14 1036 50 10000 2.1 190 17:55 21.12.2019
2223 Thunderstorm 14 1036 50 10000 2.1 190 17:37 21.12.2019
2224 Thunderstorm 14 1036 50 10000 2.1 190 17:18 21.12.2019
2225 Clouds 14 1037 54 10000 3.6 280 16:41 21.12.2019
2226 Clouds 14 1037 54 10000 3.6 280 16:19 21.12.2019
2227 Clouds 12 1038 62 10000 3.1 280 15:58 21.12.2019
2228 Clouds 12 1038 62 10000 3.1 280 15:39 21.12.2019
2229 Clouds 12 1038 62 10000 3.1 280 15:20 21.12.2019
2230 Clouds 11 1038 66 10000 2.1 260 14:59 21.12.2019
2231 Clouds 11 1038 66 10000 2.1 260 14:40 21.12.2019
2232 Clouds 11 1038 66 10000 2.1 260 14:22 21.12.2019
2233 Clouds 8 1037 81 10000 1 0 13:57 21.12.2019
2234 Clouds 8 1037 81 10000 1 0 13:38 21.12.2019
2235 Clouds 8 1037 81 10000 1 0 13:18 21.12.2019
2236 Clouds 6 1036 87 10000 1 0 12:56 21.12.2019
2237 Clouds 6 1036 87 10000 1 0 12:37 21.12.2019
2238 Clouds 6 1036 87 10000 1 0 12:19 21.12.2019
2239 Clouds 5 1035 93 10000 1 0 11:45 21.12.2019
2240 Clouds 5 1035 93 10000 1 0 11:26 21.12.2019
2241 Clouds 5 1035 93 10000 2.6 120 10:57 21.12.2019
2242 Clouds 5 1035 93 10000 2.6 120 10:39 21.12.2019
2243 Clouds 5 1035 93 10000 2.6 120 10:21 21.12.2019
2244 Clouds 5 1035 93 10000 1 0 09:56 21.12.2019
2245 Clouds 5 1035 93 10000 1 0 09:37 21.12.2019
2246 Clouds 5 1035 93 10000 1 0 09:18 21.12.2019
2247 Clouds 4 1035 93 10000 1 0 08:44 21.12.2019
2248 Clouds 4 1035 93 10000 1.5 30 08:25 21.12.2019
2249 Clouds 4 1035 93 10000 1.5 30 07:46 21.12.2019
2250 Clouds 4 1035 93 10000 1.5 30 07:22 21.12.2019
2251 Clouds 5 1036 93 10000 1.22 11 06:46 21.12.2019
2252 Clouds 5 1036 93 10000 1.22 11 06:26 21.12.2019
2253 Clouds 6 1037 87 10000 2.1 240 05:55 21.12.2019
2254 Clouds 7 1037 87 10000 2.6 70 04:58 21.12.2019
2255 Clouds 7 1037 87 10000 2.6 70 04:58 21.12.2019
2256 Clouds 8 1037 70 10000 4.6 340 03:59 21.12.2019
2257 Clouds 8 1037 70 10000 4.6 340 03:18 21.12.2019
2258 Clouds 7 1038 81 10000 3.1 340 02:18 21.12.2019
2259 Rain 7 1038 87 6000 3.1 170 01:38 21.12.2019
2260 Rain 7 1038 87 6000 3.1 170 01:20 21.12.2019
2261 Thunderstorm 7 1035 81 6000 6.7 150 00:37 21.12.2019
2262 Thunderstorm 7 1035 81 6000 6.7 150 00:18 21.12.2019
2263 Thunderstorm 9 1034 70 8000 7.7 180 23:38 20.12.2019
2264 Thunderstorm 9 1034 70 8000 7.7 180 23:19 20.12.2019
2265 Clouds 14 1033 54 10000 5.1 250 22:41 20.12.2019
2266 Clouds 15 1032 41 10000 1 0 22:21 20.12.2019
2267 Clouds 14 1033 47 10000 3.1 40 21:59 20.12.2019
2268 Clouds 14 1033 47 10000 3.1 40 21:40 20.12.2019
2269 Clouds 14 1033 47 10000 3.1 40 21:20 20.12.2019
2270 Clouds 14 1034 50 10000 2.1 330 20:41 20.12.2019
2271 Clouds 14 1034 50 10000 2.1 330 20:21 20.12.2019
2272 Clouds 14 1035 44 10000 2.1 130 19:59 20.12.2019
2273 Clouds 14 1035 44 10000 2.1 130 19:40 20.12.2019
2274 Clouds 14 1035 44 10000 2.1 130 19:19 20.12.2019
2275 Rain 10 1036 76 10000 3.1 290 18:54 20.12.2019
2276 Rain 10 1036 76 10000 3.1 290 18:36 20.12.2019
2277 Rain 10 1036 76 10000 3.1 290 18:18 20.12.2019
2278 Thunderstorm 12 1037 54 8000 3.6 70 17:42 20.12.2019
2279 Thunderstorm 12 1037 54 8000 3.6 70 17:21 20.12.2019
2280 Clouds 13 1037 62 10000 3.6 130 16:59 20.12.2019
2281 Clouds 13 1037 62 10000 3.6 130 16:39 20.12.2019
2282 Clouds 13 1037 62 10000 3.6 130 16:20 20.12.2019
2283 Clouds 10 1038 76 10000 2.6 120 15:56 20.12.2019
2284 Clouds 10 1038 76 10000 2.6 120 15:38 20.12.2019
2285 Clouds 10 1038 76 10000 2.6 120 15:19 20.12.2019
2286 Fog 9 1038 87 4000 2.1 110 14:43 20.12.2019
2287 Fog 9 1038 87 4000 2.1 110 14:25 20.12.2019
2288 Fog 8 1038 87 4000 3.1 120 13:59 20.12.2019
2289 Fog 8 1038 87 4000 3.1 120 13:41 20.12.2019
2290 Fog 8 1038 87 4000 3.1 120 13:20 20.12.2019
2291 Fog 7 1037 87 4000 1.23 75 12:57 20.12.2019
2292 Fog 7 1037 87 4000 1.23 75 12:37 20.12.2019
2293 Fog 7 1037 87 4000 1.23 75 12:18 20.12.2019
2294 Fog 6 1036 93 4000 1.23 75 11:57 20.12.2019
2295 Fog 6 1036 93 4000 1.23 75 11:39 20.12.2019
2296 Fog 6 1036 93 4000 0.06 331 11:18 20.12.2019
2297 Rain 7 1036 87 4000 1 0 10:56 20.12.2019
2298 Rain 7 1036 87 4000 1 0 10:38 20.12.2019
2299 Rain 7 1036 87 4000 1 0 10:20 20.12.2019
2300 Rain 7 1036 87 4000 1 0 10:20 20.12.2019
2301 Fog 7 1035 93 4000 1.5 80 09:43 20.12.2019
2302 Fog 7 1035 93 4000 1.5 80 09:22 20.12.2019
2303 Fog 7 1036 93 4000 1 0 08:58 20.12.2019
2304 Fog 7 1036 93 4000 1 0 08:40 20.12.2019
2305 Fog 7 1036 93 4000 1 0 08:21 20.12.2019
2306 Fog 7 1036 87 4000 1 0 07:57 20.12.2019
2307 Fog 7 1036 87 4000 1 0 07:57 20.12.2019
2308 Clouds 5 1016 84 0 0.19 123 07:38 20.12.2019
2309 Clouds 8 1037 81 10000 1 0 07:18 20.12.2019
2310 Clouds 8 1037 81 10000 1 0 06:46 20.12.2019
2311 Clouds 8 1037 81 10000 1 0 06:28 20.12.2019
2312 Clouds 8 1038 75 10000 1 0 05:48 20.12.2019
2313 Clouds 8 1038 75 10000 1 0 05:18 20.12.2019
2314 Clouds 8 1038 81 10000 1 0 03:49 20.12.2019
2315 Clouds 8 1038 81 10000 1 0 03:20 20.12.2019
2316 Clouds 9 1037 70 10000 1 0 02:20 20.12.2019
2317 Clouds 8 1036 81 10000 1 0 01:36 20.12.2019
2318 Clouds 9 1035 76 10000 2.1 70 00:56 20.12.2019
2319 Clouds 9 1035 76 10000 2.1 70 00:35 20.12.2019
2320 Clouds 10 1035 66 10000 3.1 60 23:58 19.12.2019
2321 Clouds 10 1035 66 10000 3.1 60 23:40 19.12.2019
2322 Clouds 10 1035 66 10000 3.1 60 23:19 19.12.2019
2323 Clouds 10 1035 71 10000 4.1 70 22:40 19.12.2019
2324 Clouds 10 1035 71 10000 4.1 70 22:21 19.12.2019
2325 Rain 8 1035 87 8000 3.1 70 21:56 19.12.2019
2326 Rain 8 1035 87 8000 3.1 70 21:38 19.12.2019
2327 Thunderstorm 8 1036 87 8000 3.1 290 21:19 19.12.2019
2328 Thunderstorm 8 1036 87 8000 3.1 290 20:56 19.12.2019
2329 Thunderstorm 8 1036 87 8000 3.1 290 20:37 19.12.2019
2330 Thunderstorm 8 1036 87 8000 3.1 290 20:19 19.12.2019
2331 Thunderstorm 8 1036 87 6000 3.6 280 19:58 19.12.2019
2332 Clouds 8 1036 81 8000 5.1 290 19:39 19.12.2019
2333 Clouds 8 1036 81 8000 5.1 290 19:19 19.12.2019
2334 Clouds 8 1036 81 8000 5.1 290 19:19 19.12.2019
2335 Thunderstorm 11 1036 71 8000 6.7 70 18:56 19.12.2019
2336 -273 0 0 0 0 0 18:38 19.12.2019
2337 Thunderstorm 11 1036 71 8000 6.7 70 18:18 19.12.2019
2338 Clouds 15 1036 47 10000 5.1 100 17:55 19.12.2019
2339 Clouds 15 1036 47 10000 5.1 100 17:37 19.12.2019
2340 Clouds 15 1036 47 10000 5.1 100 17:18 19.12.2019
2341 Clouds 15 1036 47 10000 5.1 100 17:18 19.12.2019
2342 Clouds 14 1037 54 10000 4.6 120 16:54 19.12.2019
2343 Clouds 14 1037 54 10000 4.6 120 16:36 19.12.2019
2344 Clouds 14 1037 54 10000 4.6 120 16:18 19.12.2019
2345 Clouds 12 1038 62 10000 4.6 100 15:54 19.12.2019
2346 Clouds 12 1038 62 10000 4.6 100 15:36 19.12.2019
2347 Clouds 12 1038 62 10000 4.6 100 15:36 19.12.2019
2348 Clouds 12 1038 62 10000 4.6 100 15:18 19.12.2019
2349 Clouds 10 1038 71 10000 3.6 100 14:42 19.12.2019
2350 Clouds 10 1038 71 10000 3.6 100 14:20 19.12.2019
2351 Clouds 8 1037 81 6000 2.6 110 13:57 19.12.2019
2352 Clouds 8 1037 81 6000 2.6 110 13:38 19.12.2019
2353 Clouds 8 1037 81 6000 2.6 110 13:19 19.12.2019
2354 Fog 5 1036 100 4000 2.6 100 12:55 19.12.2019
2355 Fog 5 1036 100 4000 2.6 100 12:37 19.12.2019
2356 Fog 5 1036 100 4000 2.6 100 12:18 19.12.2019
2357 Fog 2 1035 100 6000 2.1 70 11:57 19.12.2019
2358 Fog 2 1035 100 6000 2.1 70 11:39 19.12.2019
2359 Fog 2 1035 100 6000 2.1 70 11:18 19.12.2019
2360 Fog 2 1035 100 6000 2.1 70 11:18 19.12.2019
2361 Fog 4 1035 93 4000 3.1 80 10:55 19.12.2019
2362 Fog 4 1035 93 4000 3.1 80 10:36 19.12.2019
2363 Fog 4 1035 93 4000 3.1 80 10:18 19.12.2019
2364 Fog 4 1035 93 4000 3.1 80 10:18 19.12.2019
2365 Fog 4 1035 93 4000 3.1 80 10:18 19.12.2019
2366 Fog 5 1034 93 4000 3.6 80 09:38 19.12.2019
2367 Fog 5 1034 93 4000 3.6 80 09:20 19.12.2019
2368 Fog 5 1034 93 4000 3.6 80 09:20 19.12.2019
2369 Fog 5 1034 93 4000 3.6 80 09:20 19.12.2019
2370 Fog 5 1034 93 4000 3.6 80 09:20 19.12.2019
2371 Fog 5 1035 93 4000 2.6 100 08:58 19.12.2019
2372 Fog 5 1035 93 4000 2.6 100 08:39 19.12.2019
2373 Fog 5 1035 93 4000 2.6 100 08:19 19.12.2019
2374 Fog 6 1035 87 4000 1 0 07:56 19.12.2019
2375 Fog 6 1035 87 4000 1 0 07:38 19.12.2019
2376 Fog 6 1035 87 4000 1 0 07:19 19.12.2019
2377 Fog 6 1036 93 4000 1 0 06:46 19.12.2019
2378 Fog 6 1036 93 4000 1 0 06:27 19.12.2019
2379 Fog 7 1036 93 4000 1 0 05:52 19.12.2019
2380 Fog 7 1036 93 4000 1 0 05:32 19.12.2019
2381 Fog 8 1037 87 4000 1 0 04:43 19.12.2019
2382 Clouds 8 1035 87 10000 3.1 100 02:48 19.12.2019
2383 Clouds 10 1034 76 10000 5.1 110 01:46 19.12.2019
2384 Clouds 10 1034 76 10000 5.1 110 01:21 19.12.2019
2385 Clouds 11 1033 71 10000 3.1 60 00:39 19.12.2019
2386 Clouds 11 1033 71 10000 3.1 60 00:39 19.12.2019
2387 Clouds 11 1033 71 10000 3.1 60 00:39 19.12.2019
2388 Clouds 11 1033 71 10000 3.1 60 00:39 19.12.2019
2389 Clouds 11 1033 71 10000 3.1 60 00:19 19.12.2019
2390 Clouds 13 1033 58 10000 3.1 80 23:45 18.12.2019
2391 Clouds 13 1033 58 10000 3.1 80 23:19 18.12.2019
2392 Clouds 15 1032 47 10000 4.1 90 22:58 18.12.2019
2393 Clouds 15 1032 47 10000 4.1 90 22:40 18.12.2019
2394 Clouds 15 1032 47 10000 4.1 90 22:22 18.12.2019
2395 Clouds 15 1033 44 10000 3.6 80 21:59 18.12.2019
2396 Clouds 15 1033 44 10000 3.6 80 21:41 18.12.2019
2397 Clouds 15 1033 44 10000 3.6 80 21:21 18.12.2019
2398 Clouds 15 1033 44 10000 3.6 80 21:21 18.12.2019
2399 Clouds 14 1033 41 10000 4.6 60 20:57 18.12.2019
2400 Clouds 14 1033 41 10000 4.6 60 20:57 18.12.2019
2401 Clouds 14 1033 41 10000 4.6 60 20:39 18.12.2019
2402 Clouds 14 1033 41 10000 4.6 60 20:20 18.12.2019
2403 Clouds 14 1033 41 10000 4.6 60 20:20 18.12.2019
2404 Thunderstorm 13 1034 43 10000 6.7 60 19:57 18.12.2019
2405 Thunderstorm 13 1034 43 10000 6.7 60 19:39 18.12.2019
2406 Thunderstorm 13 1034 43 10000 6.7 60 19:19 18.12.2019
2407 Clouds 14 1034 54 10000 4.1 140 18:56 18.12.2019
2408 Clouds 14 1034 54 10000 4.1 140 18:37 18.12.2019
2409 Clouds 14 1034 54 10000 4.1 140 18:18 18.12.2019
2410 Clouds 14 1035 58 10000 4.1 140 17:55 18.12.2019
2411 Clouds 14 1035 58 10000 4.1 140 17:37 18.12.2019
2412 Clouds 14 1035 58 10000 4.1 140 17:37 18.12.2019
2413 Clouds 14 1035 58 10000 4.1 140 17:18 18.12.2019
2414 Clouds 14 1036 58 10000 2.6 100 16:42 18.12.2019
2415 Clouds 14 1036 58 10000 2.6 100 16:23 18.12.2019
2416 Clouds 11 1036 66 8000 2.6 130 15:57 18.12.2019
2417 Clouds 11 1036 66 8000 2.6 130 15:39 18.12.2019
2418 Clouds 11 1036 66 8000 2.6 130 15:21 18.12.2019
2419 Clouds 10 1036 66 6000 2.6 100 14:56 18.12.2019
2420 Clouds 10 1036 66 6000 2.6 100 14:38 18.12.2019
2421 Clouds 10 1036 66 6000 2.6 100 14:19 18.12.2019
2422 Fog 7 1035 87 4000 3.1 100 13:55 18.12.2019
2423 Fog 7 1035 87 4000 3.1 100 13:36 18.12.2019
2424 Fog 7 1035 87 4000 3.1 100 13:18 18.12.2019
2425 Fog 7 1035 87 4000 3.1 100 13:18 18.12.2019
2426 Fog 6 1035 87 4000 3.6 100 12:40 18.12.2019
2427 Fog 6 1035 87 4000 3.6 100 12:21 18.12.2019
2428 Fog 5 1033 93 4000 3.6 80 11:57 18.12.2019
2429 Fog 5 1033 93 4000 3.6 80 11:39 18.12.2019
2430 Fog 5 1033 93 4000 3.6 80 11:20 18.12.2019
2431 Fog 6 1033 93 4000 4.6 90 10:58 18.12.2019
2432 Fog 6 1033 93 4000 4.6 90 10:39 18.12.2019
2433 Fog 6 1033 93 4000 4.6 90 10:20 18.12.2019
2434 Fog 6 1033 93 4000 4.6 90 10:20 18.12.2019
2435 Mist 5 1033 100 3000 4.6 70 09:57 18.12.2019
2436 Mist 5 1033 100 3000 4.6 70 09:20 18.12.2019
2437 Clouds 6 1033 75 10000 2.6 30 08:43 18.12.2019
2438 Clouds 6 1033 75 10000 2.6 30 08:24 18.12.2019
2439 Clouds 7 1034 75 10000 4.1 330 07:57 18.12.2019
2440 Clouds 7 1034 75 10000 4.1 330 07:39 18.12.2019
2441 Clouds 7 1034 75 10000 4.1 330 07:19 18.12.2019
2442 Clouds 7 1035 75 10000 5.1 310 06:51 18.12.2019
2443 Clouds 7 1035 75 10000 5.1 310 06:23 18.12.2019
2444 Clouds 7 1036 87 10000 0.01 90 05:35 18.12.2019
2445 Clouds 7 1036 87 10000 0.01 90 05:35 18.12.2019
2446 Clouds 8 1036 81 10000 1 0 03:49 18.12.2019
2447 Clouds 8 1034 87 10000 6.2 110 02:46 18.12.2019
2448 Clouds 8 1034 87 10000 6.2 110 02:27 18.12.2019
2449 Clouds 9 1032 70 10000 4.6 110 01:43 18.12.2019
2450 Clouds 9 1032 70 10000 4.6 110 01:25 18.12.2019
2451 Clouds 10 1031 53 10000 5.1 40 00:42 18.12.2019
2452 Clouds 10 1031 53 10000 5.1 40 00:24 18.12.2019
2453 Clouds 11 1031 53 10000 5.1 60 23:58 17.12.2019
2454 Clouds 11 1031 53 10000 5.1 60 23:58 17.12.2019
2455 Clouds 11 1031 53 10000 5.1 60 23:39 17.12.2019
2456 Clouds 11 1031 53 10000 5.1 60 23:21 17.12.2019
2457 Clouds 13 1031 43 10000 6.2 70 22:57 17.12.2019
2458 Clouds 13 1031 43 10000 6.2 70 22:38 17.12.2019
2459 Clouds 13 1031 43 10000 6.2 70 22:19 17.12.2019
2460 Clouds 14 1032 33 10000 3.1 250 21:57 17.12.2019
2461 Clouds 14 1032 33 10000 3.1 250 21:38 17.12.2019
2462 Clouds 14 1032 33 10000 3.1 250 21:20 17.12.2019
2463 Clouds 12 1033 46 10000 5.1 350 20:58 17.12.2019
2464 Clouds 12 1033 46 10000 5.1 350 20:39 17.12.2019
2465 Clouds 12 1033 46 10000 5.1 350 20:18 17.12.2019
2466 Clouds 13 1033 61 8000 5.7 50 19:56 17.12.2019
2467 Clouds 13 1033 61 8000 5.7 50 19:38 17.12.2019
2468 Clouds 13 1033 61 8000 5.7 50 19:18 17.12.2019
2469 Clouds 16 1033 48 8000 5.7 70 18:54 17.12.2019
2470 Clouds 16 1033 48 8000 5.7 70 18:36 17.12.2019
2471 Clouds 16 1033 48 8000 5.7 70 18:18 17.12.2019
2472 Clouds 16 1033 48 8000 5.7 70 18:18 17.12.2019
2473 Clouds 15 1034 54 10000 4.1 110 17:42 17.12.2019
2474 Clouds 15 1034 54 10000 4.1 110 17:21 17.12.2019
2475 Clouds 13 1035 62 10000 4.1 110 16:57 17.12.2019
2476 Clouds 13 1035 62 10000 4.1 110 16:38 17.12.2019
2477 Clouds 13 1035 62 10000 4.1 110 16:19 17.12.2019
2478 Clouds 12 1035 71 6000 2.6 110 15:58 17.12.2019
2479 Clouds 12 1035 71 6000 2.6 110 15:37 17.12.2019
2480 Clouds 12 1035 71 6000 2.6 110 15:37 17.12.2019
2481 Clouds 12 1035 71 6000 2.6 110 15:19 17.12.2019
2482 Clouds 11 1035 76 6000 3.6 70 14:55 17.12.2019
2483 Clouds 11 1035 76 6000 3.6 70 14:55 17.12.2019
2484 Clouds 11 1035 76 6000 3.6 70 14:37 17.12.2019
2485 Clouds 11 1035 76 6000 3.6 70 14:18 17.12.2019
2486 Clouds 11 1035 76 6000 3.6 70 14:18 17.12.2019
2487 Clouds 11 1035 76 6000 1 0 13:55 17.12.2019
2488 Clouds 11 1035 76 6000 1 0 13:37 17.12.2019
2489 Clouds 11 1035 76 6000 1 0 13:18 17.12.2019
2490 Fog 6 1034 93 4000 2.1 80 12:41 17.12.2019
2491 Fog 6 1034 93 4000 2.1 80 12:19 17.12.2019
2492 Rain 19 1013 100 4000 6.2 170 11:59 17.12.2019
2493 Rain 19 1013 100 4000 6.2 170 11:38 17.12.2019
2494 Rain 19 1013 100 4000 6.2 170 11:19 17.12.2019
2495 Fog 3 1033 93 4000 1 0 10:59 17.12.2019
2496 Fog 3 1033 93 4000 1 0 10:41 17.12.2019
2497 Fog 3 1033 93 4000 1 0 10:41 17.12.2019
2498 Fog 3 1033 93 4000 1 0 10:22 17.12.2019
2499 Clouds 3 1033 86 10000 2.1 130 09:59 17.12.2019
2500 Clouds 3 1033 86 10000 2.1 130 09:41 17.12.2019
2501 Clouds 3 1033 86 10000 2.1 130 09:20 17.12.2019
2502 Clouds 4 1034 93 10000 2.1 60 08:56 17.12.2019
2503 Clouds 4 1034 93 10000 2.1 60 08:38 17.12.2019
2504 Clouds 4 1034 93 10000 2.1 60 08:19 17.12.2019
2505 Fog 4 1034 93 4000 2.6 80 07:47 17.12.2019
2506 Fog 4 1034 93 4000 2.6 80 07:27 17.12.2019
2507 Clouds 5 1034 80 10000 1 0 06:59 17.12.2019
2508 Clouds 5 1034 80 10000 1 0 06:35 17.12.2019
2509 Clouds 7 1035 70 10000 1 0 05:53 17.12.2019
2510 Clouds 7 1035 70 10000 1 0 05:35 17.12.2019
2511 Clouds 8 1035 65 10000 3.1 270 04:30 17.12.2019
2512 Clouds 22 1010 94 10000 3.6 190 02:34 17.12.2019
2513 Clouds 22 1010 94 10000 3.6 190 02:34 17.12.2019
2514 Thunderstorm 9 1035 61 10000 2.6 210 01:55 17.12.2019
2515 Thunderstorm 8 1034 70 8000 5.7 190 00:58 17.12.2019
2516 Thunderstorm 8 1034 70 8000 5.7 190 00:37 17.12.2019
2517 Thunderstorm 8 1034 70 8000 5.7 190 00:19 17.12.2019
2518 Clouds 14 1030 33 10000 3.1 30 23:41 16.12.2019
2519 Clouds 14 1030 33 10000 3.1 30 23:19 16.12.2019
2520 Clouds 14 1030 33 10000 3.1 30 23:19 16.12.2019
2521 Clouds 14 1032 28 10000 3.6 100 22:56 16.12.2019
2522 Clouds 14 1032 28 10000 3.6 100 22:37 16.12.2019
2523 Clouds 14 1032 28 10000 3.6 100 22:19 16.12.2019
2524 Thunderstorm 13 1032 47 10000 3.6 360 21:55 16.12.2019
2525 Thunderstorm 13 1032 47 10000 3.6 360 21:37 16.12.2019
2526 Thunderstorm 13 1032 47 10000 3.6 360 21:37 16.12.2019
2527 Thunderstorm 13 1032 47 10000 3.6 360 21:37 16.12.2019
2528 Thunderstorm 13 1032 47 10000 3.6 360 21:18 16.12.2019
2529 Thunderstorm 14 1032 47 10000 4.6 40 20:56 16.12.2019
2530 Thunderstorm 14 1032 47 10000 4.6 40 20:56 16.12.2019
2531 Thunderstorm 14 1032 47 10000 4.6 40 20:37 16.12.2019
2532 Thunderstorm 14 1032 47 10000 4.6 40 20:19 16.12.2019
2533 Clouds 15 1033 44 10000 4.1 30 19:55 16.12.2019
2534 Clouds 15 1033 44 10000 4.1 30 19:36 16.12.2019
2535 Clouds 15 1033 44 10000 4.1 30 19:18 16.12.2019
2536 Clouds 15 1034 54 10000 2.6 130 18:55 16.12.2019
2537 Clouds 15 1034 54 10000 2.6 130 18:37 16.12.2019
2538 Clouds 15 1034 54 10000 2.6 130 18:18 16.12.2019
2539 Clouds 14 1035 50 10000 2.6 120 17:56 16.12.2019
2540 Clouds 14 1035 50 10000 2.6 120 17:37 16.12.2019
2541 Clouds 14 1035 50 10000 2.6 120 17:18 16.12.2019
2542 Clouds 15 1036 47 10000 3.1 80 16:54 16.12.2019
2543 Clouds 15 1036 47 10000 3.1 80 16:36 16.12.2019
2544 Clouds 15 1036 47 10000 3.1 80 16:18 16.12.2019
2545 Clouds 12 1036 54 10000 2.6 260 15:54 16.12.2019
2546 Clouds 12 1036 54 10000 2.6 260 15:36 16.12.2019
2547 Clouds 12 1036 54 10000 2.6 260 15:18 16.12.2019
2548 Clouds 13 1037 54 10000 2.1 80 14:54 16.12.2019
2549 Clouds 13 1037 54 10000 2.1 80 14:36 16.12.2019
2550 Clouds 13 1037 54 10000 2.1 80 14:18 16.12.2019
2551 Clouds 10 1037 76 6000 2.6 90 13:38 16.12.2019
2552 Clouds 10 1037 76 6000 2.6 90 13:20 16.12.2019
2553 Fog 6 1036 93 4000 2.6 80 12:58 16.12.2019
2554 Fog 6 1036 93 4000 2.6 80 12:40 16.12.2019
2555 Fog 6 1036 93 4000 2.6 80 12:20 16.12.2019
2556 Fog 5 1035 93 4000 1.5 20 11:59 16.12.2019
2557 Fog 5 1035 93 4000 1.5 20 11:41 16.12.2019
2558 Fog 5 1035 93 4000 1.5 20 11:21 16.12.2019
2559 Fog 4 1035 100 4000 2.1 70 10:58 16.12.2019
2560 Fog 4 1035 100 4000 2.1 70 10:40 16.12.2019
2561 Fog 4 1035 100 4000 2.1 70 10:20 16.12.2019
2562 Fog 6 1035 93 4000 1.5 80 09:46 16.12.2019
2563 Fog 6 1035 93 4000 1.5 80 09:27 16.12.2019
2564 Fog 6 1035 93 4000 3.1 70 08:57 16.12.2019
2565 Clouds 6 1014 83 0 1.91 48 08:38 16.12.2019
2566 Fog 6 1036 93 4000 3.6 90 08:18 16.12.2019
2567 Fog 6 1036 93 4000 3.6 90 07:47 16.12.2019
2568 Fog 6 1036 93 4000 3.6 90 07:28 16.12.2019
2569 Clouds 8 1036 75 10000 1 0 06:45 16.12.2019
2570 Clouds 8 1036 75 10000 1 0 06:25 16.12.2019
2571 Clouds 9 1037 76 10000 2.6 360 05:50 16.12.2019
2572 Clouds 9 1037 76 10000 2.6 360 05:31 16.12.2019
2573 Clouds 9 1037 76 10000 3.6 310 04:22 16.12.2019
2574 Clouds 10 1035 61 10000 3.1 320 02:19 16.12.2019
2575 Clouds 9 1034 81 10000 1 0 01:44 16.12.2019
2576 Clouds 12 1034 58 10000 2.1 60 00:43 16.12.2019
2577 Clouds 12 1034 58 10000 2.1 60 00:25 16.12.2019
2578 Clouds 14 1034 41 10000 3.6 50 23:58 15.12.2019
2579 Clouds 14 1034 41 10000 3.6 50 23:39 15.12.2019
2580 Clouds 14 1034 41 10000 3.6 50 23:20 15.12.2019
2581 Clouds 14 1034 47 10000 4.1 60 22:56 15.12.2019
2582 Clouds 14 1034 47 10000 4.1 60 22:37 15.12.2019
2583 Clouds 14 1034 47 10000 4.1 60 22:18 15.12.2019
2584 Clouds 14 1034 47 10000 4.1 60 22:18 15.12.2019
2585 Clouds 14 1034 44 10000 3.6 110 21:55 15.12.2019
2586 Clouds 14 1034 44 10000 3.6 110 21:37 15.12.2019
2587 Clouds 14 1034 44 10000 3.6 110 21:19 15.12.2019
2588 Clouds 16 1035 38 10000 3.6 100 20:55 15.12.2019
2589 Clouds 16 1035 38 10000 3.6 100 20:37 15.12.2019
2590 Clouds 16 1035 38 10000 3.6 100 20:18 15.12.2019
2591 Clouds 16 1035 38 10000 3.6 100 20:18 15.12.2019
2592 Thunderstorm 14 1036 68 10000 5.1 160 19:55 15.12.2019
2593 Thunderstorm 14 1036 68 10000 5.1 160 19:37 15.12.2019
2594 Thunderstorm 14 1036 68 10000 5.1 160 19:18 15.12.2019
2595 Thunderstorm 15 1037 47 10000 4.1 140 18:55 15.12.2019
2596 Thunderstorm 15 1037 47 10000 4.1 140 18:36 15.12.2019
2597 Thunderstorm 15 1037 47 10000 4.1 140 18:18 15.12.2019
2598 Thunderstorm 15 1036 47 10000 4.6 100 17:55 15.12.2019
2599 Clouds 14 1037 50 10000 4.1 120 17:36 15.12.2019
2600 Clouds 12 1038 71 10000 3.6 100 17:18 15.12.2019
2601 Clouds 12 1038 71 10000 3.6 100 16:42 15.12.2019
2602 Clouds 12 1038 71 10000 3.6 100 16:23 15.12.2019
2603 Clouds 11 1038 66 10000 2.6 80 15:57 15.12.2019
2604 Clouds 11 1038 66 10000 2.6 80 15:39 15.12.2019
2605 Clouds 11 1038 66 10000 2.6 80 15:19 15.12.2019
2606 Clouds 10 1038 76 10000 2.6 120 14:56 15.12.2019
2607 Clouds 10 1038 76 10000 2.6 120 14:37 15.12.2019
2608 Clouds 10 1038 76 10000 2.6 120 14:19 15.12.2019
2609 Clouds 11 1038 62 10000 0.4 147 13:58 15.12.2019
2610 Clouds 11 1038 62 10000 0.4 147 13:38 15.12.2019
2611 Clouds 11 1038 62 10000 0.08 2 13:19 15.12.2019
2612 Clouds 7 1037 87 10000 2.1 60 12:57 15.12.2019
2613 Clouds 7 1037 87 10000 2.1 60 12:39 15.12.2019
2614 Clouds 7 1037 87 10000 2.1 60 12:20 15.12.2019
2615 Clouds 7 1037 87 10000 2.1 60 12:20 15.12.2019
2616 Rain 6 1037 87 10000 3.6 60 11:56 15.12.2019
2617 Rain 6 1037 87 10000 3.6 60 11:37 15.12.2019
2618 Rain 5 1036 93 8000 5.1 60 11:18 15.12.2019
2619 Rain 5 1036 93 8000 5.1 60 10:55 15.12.2019
2620 Rain 5 1036 93 8000 5.1 60 10:37 15.12.2019
2621 Rain 5 1036 93 8000 5.1 60 10:18 15.12.2019
2622 Rain 5 1036 93 4000 6.7 60 09:41 15.12.2019
2623 Rain 5 1036 93 4000 6.7 60 09:20 15.12.2019
2624 Rain 6 1036 93 3000 6.2 90 08:58 15.12.2019
2625 Clouds 6 1037 87 10000 5.1 150 08:39 15.12.2019
2626 Clouds 6 1037 87 10000 5.1 150 08:21 15.12.2019
2627 Fog 8 1037 81 4000 3.6 110 07:56 15.12.2019
2628 Fog 8 1037 81 4000 3.6 110 07:34 15.12.2019
2629 Clouds 8 1037 70 10000 2.6 80 06:51 15.12.2019
2630 Clouds 8 1037 70 10000 2.6 80 06:20 15.12.2019
2631 Clouds 7 1038 81 10000 3.6 340 05:26 15.12.2019
2632 Clouds 7 1038 87 10000 4.6 300 04:47 15.12.2019
2633 Rain 7 1038 93 7000 4.6 290 03:29 15.12.2019
2634 Clouds 7 1037 93 10000 4.6 270 02:34 15.12.2019
2635 Thunderstorm 8 1036 75 8000 5.1 210 01:47 15.12.2019
2636 Thunderstorm 8 1036 75 8000 5.1 210 01:28 15.12.2019
2637 Clouds 11 1034 57 10000 3.1 50 00:57 15.12.2019
2638 Clouds 11 1034 57 10000 3.1 50 00:38 15.12.2019
2639 Clouds 11 1034 57 10000 3.1 50 00:20 15.12.2019
2640 Clouds 14 1033 47 10000 5.7 40 23:39 14.12.2019
2641 Clouds 14 1033 47 10000 5.7 40 23:19 14.12.2019
2642 Clouds 16 1033 41 10000 6.2 90 22:57 14.12.2019
2643 Clouds 16 1033 41 10000 6.2 90 22:57 14.12.2019
2644 Clouds 16 1033 41 10000 6.2 90 22:39 14.12.2019
2645 Clouds 16 1033 41 10000 6.2 90 22:20 14.12.2019
2646 Clouds 16 1034 38 10000 6.2 100 21:56 14.12.2019
2647 Clouds 16 1034 38 10000 6.2 100 21:37 14.12.2019
2648 Clouds 16 1034 38 10000 6.2 100 21:18 14.12.2019
2649 Clouds 18 1035 34 10000 2.6 70 20:55 14.12.2019
2650 Clouds 18 1035 34 10000 2.6 70 20:37 14.12.2019
2651 Clouds 18 1035 34 10000 2.6 70 20:19 14.12.2019
2652 Clouds 17 1036 33 10000 2.6 130 19:40 14.12.2019
2653 Clouds 17 1036 33 10000 2.6 130 19:21 14.12.2019
2654 Clouds 15 1037 38 10000 2.6 130 18:58 14.12.2019
2655 Clouds 15 1037 38 10000 2.6 130 18:39 14.12.2019
2656 Clouds 15 1037 38 10000 2.6 130 18:21 14.12.2019
2657 Clouds 15 1037 41 10000 3.6 120 17:59 14.12.2019
2658 Clouds 15 1037 41 10000 3.6 120 17:41 14.12.2019
2659 Clouds 14 1038 47 10000 4.1 110 17:22 14.12.2019
2660 Clouds 14 1038 47 10000 4.1 110 16:41 14.12.2019
2661 Clouds 14 1038 47 10000 4.1 110 16:19 14.12.2019
2662 Clouds 13 1038 54 10000 3.6 120 15:56 14.12.2019
2663 Clouds 13 1038 54 10000 3.6 120 15:38 14.12.2019
2664 Clouds 13 1038 54 10000 3.6 120 15:19 14.12.2019
2665 Clouds 11 1038 62 10000 4.6 110 14:56 14.12.2019
2666 Clouds 11 1038 62 10000 4.6 110 14:37 14.12.2019
2667 Clouds 11 1038 62 10000 4.6 110 14:37 14.12.2019
2668 Clouds 11 1038 62 10000 4.6 110 14:18 14.12.2019
2669 Clouds 11 1038 62 10000 4.6 110 14:18 14.12.2019
2670 Clouds 9 1037 70 6000 3.6 90 13:44 14.12.2019
2671 Clouds 9 1037 70 6000 3.6 90 13:19 14.12.2019
2672 Fog 6 1037 87 4000 2.6 110 12:58 14.12.2019
2673 Fog 6 1037 87 4000 2.6 110 12:39 14.12.2019
2674 Fog 6 1037 87 4000 2.6 110 12:20 14.12.2019
2675 Fog 4 1036 93 4000 2.6 100 11:58 14.12.2019
2676 Fog 4 1036 93 4000 2.6 100 11:39 14.12.2019
2677 Fog 4 1036 93 4000 2.6 100 11:19 14.12.2019
2678 Fog 6 1036 87 4000 2.1 110 10:56 14.12.2019
2679 Fog 6 1036 87 4000 2.1 110 10:38 14.12.2019
2680 Fog 6 1036 87 4000 2.1 110 10:19 14.12.2019
2681 Fog 4 1036 93 4000 1 0 09:43 14.12.2019
2682 Fog 4 1036 93 4000 1 0 09:23 14.12.2019
2683 Fog 5 1036 93 4000 1.5 130 08:57 14.12.2019
2684 Fog 5 1036 93 4000 1.5 130 08:38 14.12.2019
2685 Fog 5 1036 93 4000 1.5 130 08:38 14.12.2019
2686 Fog 5 1036 93 4000 1.5 130 08:19 14.12.2019
2687 Fog 6 1036 93 4000 1 0 07:40 14.12.2019
2688 Fog 6 1037 87 4000 1 0 07:21 14.12.2019
2689 Fog 6 1037 87 4000 1 0 07:21 14.12.2019
2690 Fog 6 1037 87 4000 1 0 06:48 14.12.2019
2691 Fog 6 1037 87 4000 1 0 06:30 14.12.2019
2692 Clouds 6 1037 87 10000 3.1 80 05:43 14.12.2019
2693 Clouds 8 1036 70 10000 5.7 90 03:44 14.12.2019
2694 Clouds 9 1035 61 10000 6.2 60 02:23 14.12.2019
2695 Clouds 10 1034 57 10000 6.2 50 01:44 14.12.2019
2696 Clouds 11 1033 53 10000 6.2 50 00:59 14.12.2019
2697 Clouds 11 1033 53 10000 6.2 50 00:40 14.12.2019
2698 Clouds 11 1033 53 10000 6.2 50 00:20 14.12.2019
2699 Clouds 15 1033 80 10000 5.7 80 23:41 13.12.2019
2700 Clouds 15 1033 65 10000 5.7 80 23:19 13.12.2019
2701 Clouds 15 1033 65 10000 5.7 90 22:56 13.12.2019
2702 Clouds 15 1033 65 10000 5.7 90 22:37 13.12.2019
2703 Clouds 15 1033 65 10000 5.7 90 22:18 13.12.2019
2704 Clouds 15 1033 65 10000 5.7 90 22:18 13.12.2019
2705 Clouds 16 1034 31 10000 5.7 80 21:42 13.12.2019
2706 Clouds 16 1034 31 10000 5.7 80 21:21 13.12.2019
2707 Clouds 16 1035 31 10000 4.6 150 20:58 13.12.2019
2708 Rain 9 1009 64 0 5.31 43 20:39 13.12.2019
2709 Clouds 15 1036 55 10000 6.7 140 20:20 13.12.2019
2710 Clouds 15 1036 55 10000 6.7 140 19:56 13.12.2019
2711 Clouds 15 1036 55 10000 6.7 140 19:38 13.12.2019
2712 Clouds 15 1036 55 10000 6.7 140 19:19 13.12.2019
2713 Clouds 15 1036 41 10000 4.6 140 18:42 13.12.2019
2714 Clouds 15 1036 41 10000 4.6 140 18:20 13.12.2019
2715 Clouds 14 1037 44 10000 4.6 110 18:00 13.12.2019
2716 Clouds 14 1037 44 10000 4.6 110 17:39 13.12.2019
2717 Clouds 14 1037 44 10000 4.6 110 17:18 13.12.2019
2718 Clouds 14 1037 44 10000 4.6 110 17:18 13.12.2019
2719 Clouds 12 1038 54 10000 5.1 120 16:56 13.12.2019
2720 Clouds 12 1038 54 10000 5.1 120 16:38 13.12.2019
2721 Clouds 12 1038 54 10000 5.1 120 16:38 13.12.2019
2722 Clouds 12 1038 54 10000 5.1 120 16:20 13.12.2019
2723 Clouds 11 1038 50 10000 4.1 90 15:42 13.12.2019
2724 Clouds 11 1038 50 10000 4.1 90 15:42 13.12.2019
2725 Clouds 11 1038 50 10000 4.1 90 15:21 13.12.2019
2726 Clouds 9 1038 66 10000 3.1 130 14:57 13.12.2019
2727 Clouds 9 1038 66 10000 3.1 130 14:37 13.12.2019
2728 Clouds 9 1038 66 10000 3.1 130 14:19 13.12.2019
2729 Clouds 8 1038 70 10000 3.1 100 13:43 13.12.2019
2730 Clouds 8 1038 70 10000 3.1 100 13:24 13.12.2019
2731 Clouds 8 1038 70 10000 3.1 100 13:24 13.12.2019
2732 Clouds 6 1038 81 10000 3.1 100 12:57 13.12.2019
2733 Clouds 6 1038 81 10000 3.1 100 12:39 13.12.2019
2734 Clouds 6 1038 81 10000 3.1 100 12:18 13.12.2019
2735 Clouds 4 1036 86 10000 3.1 80 11:43 13.12.2019
2736 Clouds 4 1036 86 10000 3.1 80 11:25 13.12.2019
2737 Clouds 4 1035 80 10000 2.1 110 10:56 13.12.2019
2738 Clouds 4 1035 80 10000 2.1 110 10:38 13.12.2019
2739 Clouds 4 1035 80 10000 2.1 110 10:20 13.12.2019
2740 Clouds 6 1035 70 10000 3.6 60 09:42 13.12.2019
2741 Clouds 6 1035 70 10000 3.6 60 09:21 13.12.2019
2742 Clouds 7 1035 84 10000 5.1 50 08:45 13.12.2019
2743 Clouds 7 1035 84 10000 5.1 50 08:27 13.12.2019
2744 Clouds 7 1035 78 10000 4.6 60 07:50 13.12.2019
2745 Clouds 7 1035 78 10000 4.6 60 07:27 13.12.2019
2746 Clouds 6 1036 78 10000 3.1 40 06:57 13.12.2019
2747 Clouds 6 1036 78 10000 3.1 40 06:32 13.12.2019
2748 Clouds 5 1037 75 10000 2.6 100 05:52 13.12.2019
2749 Clouds 5 1037 75 10000 2.6 100 05:33 13.12.2019
2750 Clouds 7 1037 65 10000 4.6 130 04:54 13.12.2019
2751 Clouds 6 1036 60 10000 4.1 60 03:52 13.12.2019
2752 Clouds 8 1036 86 10000 4.6 70 02:35 13.12.2019
2753 Clouds 8 1035 61 10000 6.7 70 01:51 13.12.2019
2754 Clouds 8 1035 61 10000 6.7 70 01:25 13.12.2019
2755 Clouds 9 1034 61 10000 6.2 70 00:46 13.12.2019
2756 Clouds 9 1034 61 10000 6.2 70 00:24 13.12.2019
2757 Clouds 11 1033 62 10000 5.1 50 23:42 12.12.2019
2758 Clouds 11 1033 62 10000 5.1 50 23:24 12.12.2019
2759 Clouds 10 1033 61 10000 6.2 30 22:56 12.12.2019
2760 Thunderstorm 8 1033 81 8000 7.2 50 22:38 12.12.2019
2761 Thunderstorm 8 1033 81 8000 7.2 50 22:19 12.12.2019
2762 Thunderstorm 11 1033 50 8000 5.1 180 21:55 12.12.2019
2763 Thunderstorm 11 1033 50 8000 5.1 180 21:37 12.12.2019
2764 Thunderstorm 11 1033 50 8000 5.1 180 21:19 12.12.2019
2765 Thunderstorm 11 1033 50 8000 8.2 200 20:57 12.12.2019
2766 Thunderstorm 16 1033 31 10000 6.7 70 20:38 12.12.2019
2767 Thunderstorm 16 1033 31 10000 6.7 70 20:20 12.12.2019
2768 Clouds 17 1033 33 10000 7.2 50 19:55 12.12.2019
2769 Clouds 17 1033 33 10000 7.2 50 19:37 12.12.2019
2770 Clouds 17 1033 33 10000 7.2 50 19:18 12.12.2019
2771 Clouds 18 1034 31 10000 6.2 70 18:55 12.12.2019
2772 Clouds 18 1034 31 10000 6.2 70 18:36 12.12.2019
2773 Clouds 17 1035 39 10000 6.7 110 18:18 12.12.2019
2774 Clouds 17 1035 39 10000 6.7 110 17:55 12.12.2019
2775 Clouds 17 1035 39 10000 6.7 110 17:55 12.12.2019
2776 Clouds 17 1035 39 10000 6.7 110 17:37 12.12.2019
2777 Clouds 17 1035 39 10000 6.7 110 17:18 12.12.2019
2778 Clouds 15 1035 41 10000 5.1 120 16:42 12.12.2019
2779 Clouds 15 1035 41 10000 5.1 120 16:21 12.12.2019
2780 Clouds 14 1036 50 10000 4.1 140 15:59 12.12.2019
2781 Clouds 14 1036 50 10000 4.1 140 15:41 12.12.2019
2782 Clouds 14 1036 50 10000 4.1 140 15:19 12.12.2019
2783 Clouds 14 1036 50 10000 4.1 140 15:19 12.12.2019
2784 Clouds 13 1036 54 10000 3.1 100 14:57 12.12.2019
2785 Clouds 13 1036 54 10000 3.1 100 14:36 12.12.2019
2786 Clouds 11 1036 66 10000 2.1 40 14:18 12.12.2019
2787 Clouds 11 1036 66 10000 2.1 40 13:54 12.12.2019
2788 Clouds 11 1036 66 10000 2.1 40 13:36 12.12.2019
2789 Fog 7 1035 93 4000 2.1 60 13:18 12.12.2019
2790 Fog 7 1035 93 4000 2.1 60 13:18 12.12.2019
2791 Fog 7 1035 93 4000 2.1 60 12:41 12.12.2019
2792 Fog 7 1035 93 4000 2.1 60 12:22 12.12.2019
2793 Fog 5 1034 100 4000 3.1 90 11:59 12.12.2019
2794 Fog 5 1034 100 4000 3.1 90 11:40 12.12.2019
2795 Fog 5 1034 100 4000 3.1 90 11:21 12.12.2019
2796 Clouds 4 1034 93 10000 1 0 10:58 12.12.2019
2797 Clouds 4 1034 93 10000 1 0 10:40 12.12.2019
2798 Clouds 4 1034 93 10000 1 0 10:21 12.12.2019
2799 Clouds 4 1034 93 10000 1 0 10:21 12.12.2019
2800 Clouds 7 1034 87 10000 1 0 09:56 12.12.2019
2801 Clouds 7 1034 87 10000 1 0 09:38 12.12.2019
2802 Clouds 7 1034 87 10000 1 0 09:19 12.12.2019
2803 Clouds 7 1034 93 10000 1 0 08:46 12.12.2019
2804 Clouds 7 1034 93 10000 1 0 08:27 12.12.2019
2805 Clouds 7 1034 81 10000 1 0 07:50 12.12.2019
2806 Clouds 7 1034 81 10000 1 0 07:27 12.12.2019
2807 Clouds 7 1034 93 10000 4.1 70 06:56 12.12.2019
2808 Clouds 7 1034 93 10000 4.1 70 06:35 12.12.2019
2809 Clouds 8 1035 87 10000 5.7 110 05:42 12.12.2019
2810 Clouds 24 1008 94 10000 4.6 350 04:55 12.12.2019
2811 Clouds 24 1008 94 10000 4.6 350 04:23 12.12.2019
2812 Clouds 10 1035 81 10000 2.6 130 02:40 12.12.2019
2813 Clouds 10 1035 81 10000 2.6 130 02:22 12.12.2019
2814 Clouds 9 1034 87 10000 1 0 01:46 12.12.2019
2815 Clouds 9 1034 87 10000 1 0 01:28 12.12.2019
2816 Clouds 11 1032 71 10000 6.2 120 00:47 12.12.2019
2817 Clouds 11 1032 71 10000 6.2 120 00:20 12.12.2019
2818 Clouds 13 1032 43 10000 5.1 60 23:45 11.12.2019
2819 Clouds 13 1032 43 10000 5.1 60 23:21 11.12.2019
2820 Clouds 13 1032 37 10000 5.7 70 22:58 11.12.2019
2821 Clouds 12 1033 66 10000 5.7 280 22:39 11.12.2019
2822 Clouds 12 1033 66 10000 5.7 280 22:20 11.12.2019
2823 Clouds 12 1032 66 10000 4.1 310 21:59 11.12.2019
2824 Clouds 12 1032 66 10000 4.1 310 21:39 11.12.2019
2825 Clouds 12 1032 66 10000 4.1 310 21:20 11.12.2019
2826 Clouds 15 1033 47 10000 3.1 50 20:56 11.12.2019
2827 Clouds 15 1033 47 10000 3.1 50 20:56 11.12.2019
2828 Clouds 15 1033 47 10000 3.1 50 20:38 11.12.2019
2829 Clouds 15 1033 47 10000 3.1 50 20:19 11.12.2019
2830 Thunderstorm 14 1034 54 10000 4.6 50 19:58 11.12.2019
2831 Thunderstorm 14 1034 54 10000 4.6 50 19:39 11.12.2019
2832 Thunderstorm 14 1034 54 10000 4.6 50 19:19 11.12.2019
2833 Clouds 17 1035 48 10000 4.6 90 18:42 11.12.2019
2834 Clouds 17 1035 48 10000 4.6 90 18:22 11.12.2019
2835 Clouds 16 1035 55 10000 4.6 120 17:57 11.12.2019
2836 Clouds 16 1035 55 10000 4.6 120 17:39 11.12.2019
2837 Clouds 16 1035 55 10000 4.6 120 17:19 11.12.2019
2838 Clouds 14 1036 62 10000 4.1 120 16:57 11.12.2019
2839 Clouds 14 1036 62 10000 4.1 120 16:39 11.12.2019
2840 Clouds 14 1036 62 10000 4.1 120 16:21 11.12.2019
2841 Clouds 13 1037 66 10000 4.6 120 15:59 11.12.2019
2842 Clouds 13 1037 66 10000 4.6 120 15:40 11.12.2019
2843 Clouds 13 1037 66 10000 4.6 120 15:22 11.12.2019
2844 Clouds 11 1036 76 10000 3.6 110 14:56 11.12.2019
2845 Clouds 11 1036 76 10000 3.6 110 14:37 11.12.2019
2846 Clouds 11 1036 76 10000 3.6 110 14:19 11.12.2019
2847 Clouds 10 1036 81 6000 3.6 100 13:55 11.12.2019
2848 Clouds 10 1036 81 6000 3.6 100 13:36 11.12.2019
2849 Clouds 10 1036 81 6000 3.6 100 13:18 11.12.2019
2850 Clouds 10 1036 81 6000 3.6 100 13:18 11.12.2019
2851 Fog 8 1035 93 4000 1.5 80 12:54 11.12.2019
2852 Fog 8 1035 93 4000 1.5 80 12:36 11.12.2019
2853 Fog 5 1035 100 4000 2.1 100 12:18 11.12.2019
2854 Fog 5 1035 100 4000 2.1 100 11:55 11.12.2019
2855 Fog 5 1035 100 4000 2.1 100 11:37 11.12.2019
2856 Fog 5 1035 100 4000 2.1 100 11:18 11.12.2019
2857 Fog 7 1035 93 4000 3.1 110 10:41 11.12.2019
2858 Fog 7 1035 93 4000 3.1 110 10:23 11.12.2019
2859 Fog 7 1034 93 4000 4.1 90 09:58 11.12.2019
2860 Fog 7 1034 93 4000 4.1 90 09:38 11.12.2019
2861 Fog 7 1034 93 4000 4.1 90 09:20 11.12.2019
2862 Fog 7 1034 93 4000 3.6 90 08:56 11.12.2019
2863 Fog 7 1034 93 4000 3.6 90 08:37 11.12.2019
2864 Fog 7 1035 93 4000 2.6 90 08:18 11.12.2019
2865 Fog 7 1035 93 4000 2.6 90 07:45 11.12.2019
2866 Fog 7 1035 93 4000 2.6 90 07:25 11.12.2019
2867 Fog 7 1036 93 4000 3.1 70 06:46 11.12.2019
2868 Fog 7 1036 93 4000 3.1 70 06:25 11.12.2019
2869 Clouds 9 1036 76 10000 2.6 330 05:56 11.12.2019
2870 Clouds 9 1036 76 10000 2.6 330 05:36 11.12.2019
2871 Clouds 9 1037 81 10000 3.1 330 04:53 11.12.2019
2872 Clouds 9 1036 81 10000 1 0 03:37 11.12.2019
2873 Clouds 10 1035 66 10000 4.6 70 02:38 11.12.2019
2874 Clouds 11 1033 62 10000 3.6 70 01:22 11.12.2019
2875 Clouds 12 1032 58 10000 6.7 50 00:43 11.12.2019
2876 Clouds 12 1032 58 10000 6.7 50 00:43 11.12.2019
2877 Clouds 12 1032 58 10000 6.7 50 00:19 11.12.2019
2878 Clouds 14 1032 47 10000 5.7 40 23:45 10.12.2019
2879 Clouds 14 1032 47 10000 5.7 40 23:26 10.12.2019
2880 Clouds 15 1032 47 10000 6.7 50 22:57 10.12.2019
2881 Clouds 15 1032 47 10000 6.7 50 22:38 10.12.2019
2882 Clouds 15 1032 47 10000 6.7 50 22:20 10.12.2019
2883 Clouds 16 1032 48 10000 4.6 90 21:54 10.12.2019
2884 Clouds 16 1032 48 10000 4.6 90 21:36 10.12.2019
2885 Clouds 16 1032 48 10000 4.6 90 21:18 10.12.2019
2886 Clouds 19 1033 34 10000 4.6 120 20:55 10.12.2019
2887 Clouds 19 1033 34 10000 4.6 120 20:36 10.12.2019
2888 Clouds 19 1033 34 10000 4.6 120 20:18 10.12.2019
2889 Clouds 19 1033 34 10000 4.6 120 20:18 10.12.2019
2890 Clouds 19 1033 34 10000 4.6 120 20:18 10.12.2019
2891 Clouds 17 1034 39 10000 2.6 160 19:42 10.12.2019
2892 Clouds 17 1034 39 10000 2.6 160 19:24 10.12.2019
2893 Clouds 17 1035 39 10000 2.1 150 18:57 10.12.2019
2894 Clouds 17 1035 39 10000 2.1 150 18:57 10.12.2019
2895 Clouds 17 1035 39 10000 2.1 150 18:38 10.12.2019
2896 Clouds 17 1035 39 10000 2.1 150 18:19 10.12.2019
2897 Clouds 14 1036 50 10000 2.6 140 17:54 10.12.2019
2898 Clouds 14 1036 50 10000 2.6 140 17:54 10.12.2019
2899 Clouds 14 1036 50 10000 2.6 140 17:36 10.12.2019
2900 Clouds 14 1036 50 10000 2.6 140 17:18 10.12.2019
2901 Clouds 13 1037 54 10000 1 0 16:42 10.12.2019
2902 Clouds 13 1037 54 10000 1 0 16:20 10.12.2019
2903 Clouds 13 1037 58 10000 1.5 120 15:40 10.12.2019
2904 Clouds 13 1037 58 10000 1.5 120 15:19 10.12.2019
2905 Clouds 11 1037 71 10000 1 0 14:59 10.12.2019
2906 Clouds 11 1037 71 10000 1 0 14:41 10.12.2019
2907 Clouds 11 1037 71 10000 1 0 14:23 10.12.2019
2908 Clouds 7 1037 87 10000 1 0 13:59 10.12.2019
2909 Clouds 7 1037 87 10000 1 0 13:40 10.12.2019
2910 Clouds 7 1037 87 10000 1 0 13:20 10.12.2019
2911 Clouds 5 1036 93 10000 1 0 12:55 10.12.2019
2912 Clouds 5 1036 93 10000 1 0 12:36 10.12.2019
2913 Clouds 5 1036 93 10000 1 0 12:18 10.12.2019
2914 Fog 5 1035 93 4000 1 0 11:40 10.12.2019
2915 Fog 5 1035 93 4000 1 0 11:22 10.12.2019
2916 Clouds 6 1034 81 10000 1 0 10:44 10.12.2019
2917 Clouds 6 1034 81 10000 1 0 10:25 10.12.2019
2918 Clouds 5 1034 93 10000 4.1 10 09:58 10.12.2019
2919 Clouds 5 1034 93 10000 4.1 10 09:40 10.12.2019
2920 Clouds 5 1034 93 10000 4.1 10 09:22 10.12.2019
2921 Clouds 5 1034 93 10000 4.1 10 09:22 10.12.2019
2922 Clouds 5 1035 93 10000 1 0 08:59 10.12.2019
2923 Thunderstorm 5 1036 93 6000 3.6 200 08:40 10.12.2019
2924 Thunderstorm 5 1036 93 6000 3.6 200 08:22 10.12.2019
2925 Clouds 5 1036 93 5000 8.7 190 07:54 10.12.2019
2926 Clouds 5 1036 93 5000 8.7 190 07:36 10.12.2019
2927 Clouds 5 1036 93 5000 8.7 190 07:18 10.12.2019
2928 Fog 8 1036 93 4000 2.6 60 06:42 10.12.2019
2929 Fog 8 1036 93 4000 2.6 60 06:19 10.12.2019
2930 Thunderstorm 7 1036 93 10000 1.49 57 05:51 10.12.2019
2931 Clouds 8 1037 87 10000 1.5 320 04:35 10.12.2019
2932 Clouds 8 1036 87 10000 3.1 270 03:27 10.12.2019
2933 Clouds 10 1035 71 10000 3.6 80 02:36 10.12.2019
2934 Clouds 10 1033 66 10000 5.1 60 01:40 10.12.2019
2935 Clouds 10 1033 66 10000 5.1 60 01:19 10.12.2019
2936 Clouds 12 1032 58 10000 5.7 50 00:31 10.12.2019
2937 Clouds 13 1032 50 10000 4.1 10 23:59 09.12.2019
2938 Clouds 13 1032 50 10000 4.1 10 23:59 09.12.2019
2939 Clouds 13 1032 50 10000 4.1 10 23:39 09.12.2019
2940 Clouds 13 1032 50 10000 4.1 10 23:21 09.12.2019
2941 Thunderstorm 14 1032 50 10000 4.1 60 22:57 09.12.2019
2942 Clouds 14 1032 50 10000 5.1 50 22:38 09.12.2019
2943 Clouds 14 1032 50 10000 5.1 50 22:18 09.12.2019
2944 Clouds 14 1032 50 10000 5.1 50 22:18 09.12.2019
2945 Clouds 16 1032 44 10000 4.6 90 21:55 09.12.2019
2946 Clouds 16 1032 44 10000 4.6 90 21:37 09.12.2019
2947 Clouds 16 1032 44 10000 4.6 90 21:18 09.12.2019
2948 Clouds 16 1032 41 10000 4.1 100 20:55 09.12.2019
2949 Clouds 16 1032 41 10000 4.1 100 20:37 09.12.2019
2950 Clouds 16 1032 41 10000 4.1 100 20:18 09.12.2019
2951 Clouds 15 1034 47 10000 5.1 10 19:55 09.12.2019
2952 Clouds 15 1034 47 10000 5.1 10 19:37 09.12.2019
2953 Clouds 15 1034 47 10000 5.1 10 19:18 09.12.2019
2954 Thunderstorm 15 1035 47 10000 2.6 100 18:54 09.12.2019
2955 Thunderstorm 15 1035 47 10000 2.6 100 18:54 09.12.2019
2956 Thunderstorm 15 1035 47 10000 2.6 100 18:36 09.12.2019
2957 Clouds 15 1035 58 10000 4.1 110 18:18 09.12.2019
2958 Clouds 15 1035 58 10000 4.1 110 17:54 09.12.2019
2959 Clouds 15 1035 58 10000 4.1 110 17:36 09.12.2019
2960 Clouds 15 1035 58 10000 4.1 110 17:18 09.12.2019
2961 Clouds 12 1036 71 6000 2.6 110 16:54 09.12.2019
2962 Clouds 12 1036 71 6000 2.6 110 16:36 09.12.2019
2963 Clouds 12 1036 71 6000 2.6 110 16:18 09.12.2019
2964 Fog 12 1036 81 4000 2.1 110 15:54 09.12.2019
2965 Fog 12 1036 81 4000 2.1 110 15:36 09.12.2019
2966 Fog 12 1036 81 4000 2.1 110 15:18 09.12.2019
2967 Fog 9 1036 93 6000 3.1 80 14:41 09.12.2019
2968 Fog 9 1036 93 6000 3.1 80 14:18 09.12.2019
2969 Fog 7 1035 93 2000 3.1 70 13:56 09.12.2019
2970 Fog 7 1035 93 2000 3.1 70 13:37 09.12.2019
2971 Fog 7 1035 93 2000 3.1 70 13:19 09.12.2019
2972 Fog 6 1035 100 2000 3.1 60 12:55 09.12.2019
2973 Fog 6 1035 100 2000 3.1 60 12:55 09.12.2019
2974 Fog 6 1035 100 3000 2.6 70 12:37 09.12.2019
2975 Fog 6 1035 100 3000 2.6 70 12:18 09.12.2019
2976 Fog 6 1034 100 800 3.1 80 11:40 09.12.2019
2977 Fog 6 1034 100 800 3.1 80 11:22 09.12.2019
2978 Mist 5 1034 100 2000 2.6 80 10:59 09.12.2019
2979 Fog 4 1033 93 4000 1.5 90 10:39 09.12.2019
2980 Fog 4 1033 93 4000 1.5 90 10:19 09.12.2019
2981 Fog 5 1033 93 4000 1.5 40 09:45 09.12.2019
2982 Fog 5 1033 93 4000 1.5 40 09:25 09.12.2019
2983 Fog 6 1033 100 4000 1.5 70 08:57 09.12.2019
2984 Fog 6 1033 100 4000 1.5 70 08:39 09.12.2019
2985 Fog 6 1033 100 4000 1.5 70 08:20 09.12.2019
2986 Mist 6 1034 100 4000 3.1 90 07:49 09.12.2019
2987 Mist 6 1034 100 4000 3.1 90 07:30 09.12.2019
2988 Fog 6 1034 93 4000 2.6 70 06:55 09.12.2019
2989 Fog 6 1034 93 4000 2.6 70 06:29 09.12.2019
2990 Fog 6 1035 100 500 3.6 80 05:31 09.12.2019
2991 Fog 5 1035 100 500 3.1 80 04:58 09.12.2019
2992 Clouds 6 1035 93 10000 2.1 100 04:25 09.12.2019
2993 Fog 8 1034 93 4000 4.1 80 02:28 09.12.2019
2994 Clouds 9 1033 81 10000 5.1 100 01:46 09.12.2019
2995 Clouds 10 1032 81 10000 2.6 60 00:57 09.12.2019
2996 Clouds 10 1032 81 10000 2.6 60 00:32 09.12.2019
2997 Clouds 11 1032 76 10000 5.7 100 23:54 08.12.2019
2998 Clouds 11 1032 76 10000 5.7 100 23:36 08.12.2019
2999 Clouds 11 1032 76 10000 5.7 100 23:18 08.12.2019
3000 Clouds 11 1032 66 10000 2.6 360 22:56 08.12.2019
3001 Clouds 11 1032 66 10000 2.6 360 22:38 08.12.2019
3002 Clouds 11 1032 66 10000 2.6 360 22:18 08.12.2019
3003 Clouds 10 1032 71 10000 3.1 30 21:55 08.12.2019
3004 Thunderstorm 8 1033 81 8000 5.1 40 21:37 08.12.2019
3005 Thunderstorm 8 1033 81 8000 5.1 40 21:18 08.12.2019
3006 Thunderstorm 11 1033 71 10000 11.8 230 20:54 08.12.2019
3007 Clouds 15 1033 44 10000 3.6 100 20:36 08.12.2019
3008 Clouds 15 1033 44 10000 3.6 100 20:18 08.12.2019
3009 Clouds 15 1033 47 10000 3.1 200 19:42 08.12.2019
3010 Clouds 15 1033 47 10000 3.1 200 19:24 08.12.2019
3011 Clouds 15 1034 51 10000 4.1 110 18:56 08.12.2019
3012 Clouds 15 1034 51 10000 4.1 110 18:38 08.12.2019
3013 Clouds 15 1034 51 10000 4.1 110 18:38 08.12.2019
3014 Clouds 15 1034 51 10000 4.1 110 18:19 08.12.2019
3015 Clouds 14 1035 54 10000 3.6 100 17:57 08.12.2019
3016 Clouds 14 1035 54 10000 3.6 100 17:39 08.12.2019
3017 Clouds 13 1036 58 10000 3.1 110 17:20 08.12.2019
3018 Clouds 13 1036 58 10000 3.1 110 16:58 08.12.2019
3019 Clouds 13 1036 58 10000 3.1 110 16:40 08.12.2019
3020 Clouds 13 1036 58 10000 3.1 110 16:21 08.12.2019
3021 Clouds 12 1036 62 10000 3.1 90 15:57 08.12.2019
3022 Clouds 12 1036 62 10000 3.1 90 15:37 08.12.2019
3023 Clouds 12 1036 62 10000 3.1 90 15:18 08.12.2019
3024 Clouds 10 1036 76 6000 3.1 90 14:44 08.12.2019
3025 Clouds 10 1036 76 6000 3.1 90 14:24 08.12.2019
3026 Fog 8 1035 93 4000 2.1 90 13:59 08.12.2019
3027 Fog 8 1035 93 4000 2.1 90 13:40 08.12.2019
3028 Fog 8 1035 93 4000 2.1 90 13:21 08.12.2019
3029 Fog 7 1035 87 4000 1 0 12:57 08.12.2019
3030 Fog 7 1035 87 4000 1 0 12:38 08.12.2019
3031 Fog 7 1035 87 4000 1 0 12:18 08.12.2019
3032 Fog 7 1035 87 4000 1 0 12:18 08.12.2019
3033 Fog 6 1034 93 4000 2.1 60 11:57 08.12.2019
3034 Fog 6 1034 93 4000 2.1 60 11:37 08.12.2019
3035 Fog 6 1034 93 4000 2.1 60 11:19 08.12.2019
3036 Mist 6 1034 93 3000 4.1 110 10:40 08.12.2019
3037 Mist 6 1034 93 3000 4.1 110 10:22 08.12.2019
3038 Fog 6 1034 93 3000 3.6 100 09:58 08.12.2019
3039 Fog 6 1034 93 3000 3.6 100 09:39 08.12.2019
3040 Fog 6 1034 93 3000 3.6 100 09:20 08.12.2019
3041 Fog 6 1034 93 4000 3.6 110 08:59 08.12.2019
3042 Fog 6 1034 93 4000 3.6 100 08:39 08.12.2019
3043 Fog 6 1034 93 4000 3.6 100 08:21 08.12.2019
3044 Fog 6 1034 93 4000 3.6 100 08:21 08.12.2019
3045 Fog 6 1034 93 3000 2.1 70 07:45 08.12.2019
3046 Fog 6 1034 93 3000 2.1 70 07:20 08.12.2019
3047 Fog 6 1035 93 3000 4.1 80 06:52 08.12.2019
3048 Rain 6 1014 87 0 1.69 21 06:23 08.12.2019
3049 Rain 6 1014 87 0 1.69 21 05:52 08.12.2019
3050 Clouds 8 1035 75 10000 3.1 20 05:18 08.12.2019
3051 Thunderstorm 7 1036 87 8000 4.6 10 03:54 08.12.2019
3052 Thunderstorm 7 1036 87 8000 4.6 10 03:36 08.12.2019
3053 Thunderstorm 7 1036 81 8000 4.6 230 02:40 08.12.2019
3054 Thunderstorm 7 1035 81 8000 4.6 250 01:56 08.12.2019
3055 Clouds 10 1034 71 10000 1 0 01:33 08.12.2019
3056 Clouds 10 1033 71 10000 1 0 00:42 08.12.2019
3057 Clouds 10 1033 71 10000 1 0 00:21 08.12.2019
3058 Clouds 11 1032 71 10000 4.1 60 23:42 07.12.2019
3059 Clouds 11 1032 71 10000 4.1 60 23:21 07.12.2019
3060 Clouds 11 1032 66 10000 3.6 20 22:58 07.12.2019
3061 Clouds 11 1032 66 10000 3.6 20 22:40 07.12.2019
3062 Clouds 11 1032 66 10000 3.6 20 22:22 07.12.2019
3063 Clouds 10 1033 71 10000 4.1 40 21:56 07.12.2019
3064 Clouds 10 1033 71 10000 4.1 40 21:38 07.12.2019
3065 Clouds 10 1033 71 10000 4.1 40 21:20 07.12.2019
3066 Clouds 10 1033 76 10000 2.6 60 20:59 07.12.2019
3067 Clouds 10 1033 76 10000 2.6 60 20:37 07.12.2019
3068 Clouds 10 1033 76 10000 2.6 60 20:19 07.12.2019
3069 Thunderstorm 9 1035 76 8000 6.2 70 19:56 07.12.2019
3070 Thunderstorm 9 1035 76 8000 6.2 70 19:38 07.12.2019
3071 Thunderstorm 9 1035 76 8000 6.2 70 19:20 07.12.2019
3072 Thunderstorm 11 1035 71 8000 3.1 300 18:44 07.12.2019
3073 Thunderstorm 11 1035 71 8000 3.1 300 18:21 07.12.2019
3074 Thunderstorm 13 1035 62 10000 2.6 270 17:59 07.12.2019
3075 Clouds 14 1036 50 10000 1 0 17:41 07.12.2019
3076 Clouds 14 1036 50 10000 1 0 17:23 07.12.2019
3077 Clouds 12 1037 58 10000 2.6 240 16:58 07.12.2019
3078 Clouds 12 1037 58 10000 2.6 240 16:39 07.12.2019
3079 Clouds 12 1037 58 10000 2.6 240 16:20 07.12.2019
3080 Clouds 10 1038 66 6000 3.1 280 15:57 07.12.2019
3081 Clouds 10 1038 66 6000 3.1 280 15:38 07.12.2019
3082 Clouds 10 1038 66 6000 3.1 280 15:20 07.12.2019
3083 Clouds 9 1038 76 6000 4.1 280 14:42 07.12.2019
3084 Clouds 9 1038 76 6000 4.1 280 14:19 07.12.2019
3085 Clouds 8 1038 81 6000 2.1 280 13:56 07.12.2019
3086 Clouds 8 1038 81 6000 2.1 280 13:56 07.12.2019
3087 Clouds 8 1038 81 6000 2.1 280 13:37 07.12.2019
3088 Clouds 8 1038 81 6000 2.1 280 13:19 07.12.2019
3089 Rain 6 1037 93 8000 2.1 250 12:41 07.12.2019
3090 Rain 6 1037 93 8000 2.1 250 12:23 07.12.2019
3091 Fog 6 1036 87 4000 2.1 250 11:58 07.12.2019
3092 Fog 6 1036 87 4000 2.1 250 11:40 07.12.2019
3093 Fog 6 1036 87 4000 2.1 250 11:22 07.12.2019
3094 Clouds 7 1036 75 10000 3.6 310 10:39 07.12.2019
3095 Clouds 7 1036 75 10000 3.6 310 10:20 07.12.2019
3096 Clouds 7 1036 81 10000 2.1 290 09:58 07.12.2019
3097 Clouds 7 1036 81 10000 2.1 290 09:38 07.12.2019
3098 Clouds 7 1036 81 10000 2.1 290 09:19 07.12.2019
3099 Clouds 7 1035 81 10000 2.1 210 08:43 07.12.2019
3100 Clouds 7 1035 81 10000 2.1 210 08:21 07.12.2019
3101 Clouds 6 1036 81 10000 1 0 07:47 07.12.2019
3102 Clouds 6 1036 81 10000 1 0 07:27 07.12.2019
3103 Clouds 7 1037 87 10000 1 0 06:51 07.12.2019
3104 Clouds 7 1037 87 10000 1 0 06:25 07.12.2019
3105 Clouds 7 1037 87 10000 1.84 8 05:38 07.12.2019
3106 Clouds 8 1038 87 10000 1.5 160 04:19 07.12.2019
3107 Clouds 7 1036 93 10000 4.1 80 03:47 07.12.2019
3108 Clouds 8 1036 87 10000 4.6 70 02:22 07.12.2019
3109 Clouds 10 1035 76 10000 6.2 100 01:35 07.12.2019
3110 Clouds 11 1034 71 10000 6.2 120 00:55 07.12.2019
3111 Clouds 14 1033 50 10000 3.1 100 00:20 07.12.2019
3112 Clouds 14 1033 50 10000 3.1 100 23:56 06.12.2019
3113 Clouds 14 1033 50 10000 3.1 100 23:38 06.12.2019
3114 Clouds 14 1033 50 10000 3.1 100 23:18 06.12.2019
3115 Clouds 14 1033 50 10000 1 0 22:38 06.12.2019
3116 Clouds 14 1033 50 10000 1 0 22:20 06.12.2019
3117 Clouds 14 1034 47 10000 2.1 210 21:58 06.12.2019
3118 Clouds 14 1034 47 10000 2.1 210 21:39 06.12.2019
3119 Clouds 14 1034 47 10000 2.1 210 21:20 06.12.2019
3120 Clouds 14 1035 50 10000 1 0 20:43 06.12.2019
3121 Clouds 14 1035 50 10000 1 0 20:25 06.12.2019
3122 Clouds 14 1035 50 10000 2.6 260 19:59 06.12.2019
3123 Clouds 14 1035 50 10000 2.6 260 19:40 06.12.2019
3124 Clouds 14 1035 50 10000 2.6 260 19:22 06.12.2019
3125 Clouds 14 1035 50 10000 2.6 260 19:22 06.12.2019
3126 Clouds 14 1035 50 10000 2.6 260 19:22 06.12.2019
3127 Clouds 13 1036 54 10000 1 0 18:57 06.12.2019
3128 Clouds 13 1036 54 10000 1 0 18:39 06.12.2019
3129 Clouds 13 1036 54 10000 1 0 18:19 06.12.2019
3130 Clouds 13 1037 50 10000 2.6 140 17:56 06.12.2019
3131 Clouds 13 1037 50 10000 2.6 140 17:37 06.12.2019
3132 Clouds 13 1037 50 10000 2.6 140 17:19 06.12.2019
3133 Clouds 13 1038 50 10000 1 0 16:43 06.12.2019
3134 Clouds 13 1038 50 10000 1 0 16:24 06.12.2019
3135 Clouds 12 1038 58 10000 2.1 100 15:59 06.12.2019
3136 Clouds 12 1038 58 10000 2.1 100 15:40 06.12.2019
3137 Clouds 12 1038 58 10000 2.1 100 15:18 06.12.2019
3138 Clouds 12 1038 58 10000 2.1 100 15:18 06.12.2019
3139 Clouds 9 1039 70 10000 1.5 110 14:56 06.12.2019
3140 Clouds 9 1039 70 10000 1.5 110 14:37 06.12.2019
3141 Clouds 9 1039 70 10000 1.5 110 14:18 06.12.2019
3142 Clouds 7 1038 81 10000 1 0 13:42 06.12.2019
3143 Clouds 7 1038 81 10000 1 0 13:24 06.12.2019
3144 Clouds 5 1038 93 10000 2.1 200 12:42 06.12.2019
3145 Clouds 5 1038 93 10000 2.1 200 12:22 06.12.2019
3146 Clouds 5 1037 93 10000 2.1 80 11:56 06.12.2019
3147 Clouds 5 1037 93 10000 2.1 80 11:37 06.12.2019
3148 Clouds 5 1037 93 10000 2.1 80 11:19 06.12.2019
3149 Clouds 5 1036 86 10000 3.6 30 10:42 06.12.2019
3150 Clouds 5 1036 86 10000 3.6 30 10:21 06.12.2019
3151 Rain 4 1037 93 5000 4.6 70 09:57 06.12.2019
3152 Rain 4 1037 93 5000 4.6 70 09:37 06.12.2019
3153 Rain 4 1037 93 5000 4.6 70 09:19 06.12.2019
3154 Rain 5 1037 93 4000 5.7 80 08:45 06.12.2019
3155 Rain 5 1037 93 4000 5.7 80 08:26 06.12.2019
3156 Rain 7 1037 93 4000 2.1 70 07:44 06.12.2019
3157 Rain 7 1037 93 4000 2.1 70 07:23 06.12.2019
3158 Rain 7 1038 93 6000 2.6 60 06:55 06.12.2019
3159 Rain 7 1038 93 6000 2.6 60 06:26 06.12.2019
3160 Rain 7 1038 93 5000 1 0 05:52 06.12.2019
3161 Thunderstorm 8 1038 75 10000 2.6 210 03:57 06.12.2019
3162 Clouds 8 1036 87 10000 3.1 80 01:48 06.12.2019
3163 Clouds 8 1036 87 10000 3.1 80 01:48 06.12.2019
3164 Clouds 10 1035 76 10000 2.1 70 00:57 06.12.2019
3165 Clouds 10 1035 76 10000 2.1 70 00:24 06.12.2019
3166 Clouds 12 1034 66 10000 3.1 80 23:56 05.12.2019
3167 Clouds 12 1034 66 10000 3.1 80 23:21 05.12.2019
3168 Clouds 13 1034 58 10000 3.6 80 22:59 05.12.2019
3169 Clouds 13 1034 58 10000 3.6 80 22:39 05.12.2019
3170 Clouds 13 1034 58 10000 3.6 80 22:20 05.12.2019
3171 Clouds 13 1035 58 10000 4.1 100 21:58 05.12.2019
3172 Clouds 13 1035 58 10000 4.1 100 21:58 05.12.2019
3173 Clouds 13 1035 58 10000 4.1 100 21:40 05.12.2019
3174 Clouds 13 1035 58 10000 4.1 100 21:22 05.12.2019
3175 Thunderstorm 12 1035 66 10000 4.6 70 20:58 05.12.2019
3176 Thunderstorm 12 1035 66 10000 4.6 70 20:38 05.12.2019
3177 Thunderstorm 12 1035 66 10000 4.6 70 20:19 05.12.2019
3178 Thunderstorm 13 1036 62 10000 2.6 130 19:43 05.12.2019
3179 Thunderstorm 13 1036 62 10000 2.6 130 19:25 05.12.2019
3180 Thunderstorm 10 1037 71 8000 2.1 20 18:59 05.12.2019
3181 Thunderstorm 10 1037 71 8000 2.1 20 18:39 05.12.2019
3182 Thunderstorm 10 1037 71 8000 2.1 20 18:20 05.12.2019
3183 Clouds 10 1038 76 8000 1 0 17:55 05.12.2019
3184 Clouds 10 1038 76 8000 1 0 17:37 05.12.2019
3185 Clouds 10 1038 76 8000 1 0 17:18 05.12.2019
3186 Thunderstorm 10 1038 71 6000 2.1 260 16:40 05.12.2019
3187 Thunderstorm 10 1038 71 6000 2.1 260 16:40 05.12.2019
3188 Thunderstorm 10 1038 71 6000 2.1 260 16:22 05.12.2019
3189 Clouds 10 1038 66 6000 3.1 200 15:58 05.12.2019
3190 Clouds 10 1038 66 6000 3.1 200 15:40 05.12.2019
3191 Clouds 10 1038 66 6000 3.1 200 15:20 05.12.2019
3192 Clouds 11 1038 71 6000 1 0 14:56 05.12.2019
3193 Clouds 11 1038 71 6000 1 0 14:38 05.12.2019
3194 Clouds 11 1038 71 6000 1 0 14:20 05.12.2019
3195 Clouds 9 1038 70 6000 1.28 15 13:58 05.12.2019
3196 Clouds 9 1038 70 6000 1.28 15 13:39 05.12.2019
3197 Clouds 9 1038 70 6000 0.54 51 13:20 05.12.2019
3198 Fog 6 1037 93 4000 1 0 12:58 05.12.2019
3199 Fog 6 1037 93 4000 1 0 12:39 05.12.2019
3200 Fog 6 1037 93 4000 1 0 12:20 05.12.2019
3201 Fog 6 1036 93 4000 2.1 310 11:40 05.12.2019
3202 Fog 6 1036 93 4000 2.1 310 11:22 05.12.2019
3203 Fog 6 1036 93 4000 2.6 250 10:58 05.12.2019
3204 Fog 6 1036 93 4000 2.6 250 10:40 05.12.2019
3205 Fog 6 1036 93 4000 2.6 250 10:40 05.12.2019
3206 Fog 6 1036 93 4000 2.6 250 10:19 05.12.2019
3207 Fog 7 1035 87 4000 1 0 09:55 05.12.2019
3208 Fog 7 1035 87 4000 1 0 09:37 05.12.2019
3209 Fog 7 1035 87 4000 1 0 09:18 05.12.2019
3210 Clouds 7 1035 81 10000 2.1 20 08:39 05.12.2019
3211 Clouds 7 1035 81 10000 2.1 20 08:20 05.12.2019
3212 Clouds 7 1035 87 10000 1 0 07:58 05.12.2019
3213 Clouds 7 1035 87 10000 1 0 07:38 05.12.2019
3214 Clouds 7 1035 87 10000 1 0 07:20 05.12.2019
3215 Rain 8 1036 93 4000 1.5 220 06:45 05.12.2019
3216 Rain 8 1036 93 4000 1.5 220 06:23 05.12.2019
3217 Fog 8 1037 93 4000 1 0 05:48 05.12.2019
3218 Fog 8 1037 93 4000 1 0 05:24 05.12.2019
3219 Fog 7 1036 93 4000 2.1 80 04:27 05.12.2019
3220 Fog 7 1036 93 4000 2.1 80 04:27 05.12.2019
3221 Clouds 7 1034 81 10000 2.1 40 02:55 05.12.2019
3222 Clouds 7 1034 81 10000 2.1 40 02:25 05.12.2019
3223 Clouds 8 1034 75 10000 3.1 80 01:59 05.12.2019
3224 Clouds 8 1034 75 10000 3.1 80 01:40 05.12.2019
3225 Clouds 8 1034 75 10000 3.1 80 01:20 05.12.2019
3226 Clouds 10 1033 61 10000 4.1 80 00:37 05.12.2019
3227 Clouds 10 1033 61 10000 4.1 80 00:19 05.12.2019
3228 Clouds 11 1032 57 10000 3.6 70 23:42 04.12.2019
3229 Clouds 11 1032 57 10000 3.6 70 23:22 04.12.2019
3230 Clouds 11 1032 57 10000 4.6 50 22:57 04.12.2019
3231 Clouds 11 1032 57 10000 4.6 50 22:36 04.12.2019
3232 Clouds 11 1032 57 10000 4.6 50 22:18 04.12.2019
3233 Clouds 11 1033 62 10000 5.7 40 21:55 04.12.2019
3234 Clouds 11 1033 62 10000 5.7 40 21:37 04.12.2019
3235 Clouds 11 1033 62 10000 5.7 40 21:18 04.12.2019
3236 Clouds 13 1033 54 10000 4.1 40 20:56 04.12.2019
3237 Clouds 13 1033 54 10000 4.1 40 20:37 04.12.2019
3238 Clouds 13 1033 54 10000 4.1 40 20:19 04.12.2019
3239 Clouds 13 1034 54 10000 2.6 30 19:40 04.12.2019
3240 Clouds 13 1034 54 10000 2.6 30 19:22 04.12.2019
3241 Clouds 9 1035 70 8000 3.6 260 18:58 04.12.2019
3242 Clouds 9 1035 70 8000 3.6 260 18:40 04.12.2019
3243 Clouds 9 1035 70 8000 3.6 260 18:22 04.12.2019
3244 Thunderstorm 8 1035 81 6000 4.6 310 17:56 04.12.2019
3245 Thunderstorm 11 1035 66 10000 3.1 40 17:37 04.12.2019
3246 Thunderstorm 11 1035 66 10000 3.1 40 17:18 04.12.2019
3247 Clouds 12 1036 66 10000 4.6 80 16:40 04.12.2019
3248 Clouds 12 1036 66 10000 4.6 80 16:20 04.12.2019
3249 Clouds 12 1036 54 10000 3.1 250 15:57 04.12.2019
3250 Clouds 12 1036 54 10000 3.1 250 15:38 04.12.2019
3251 Clouds 12 1036 54 10000 3.1 250 15:19 04.12.2019
3252 Clouds 11 1036 62 10000 1 0 14:57 04.12.2019
3253 Clouds 11 1036 62 10000 1 0 14:39 04.12.2019
3254 Clouds 11 1036 62 10000 1 0 14:20 04.12.2019
3255 Clouds 10 1036 66 6000 1 0 13:39 04.12.2019
3256 Clouds 10 1036 66 6000 1 0 13:20 04.12.2019
3257 Fog 8 1035 93 4000 1.5 70 12:59 04.12.2019
3258 Fog 8 1035 93 4000 1.5 70 12:40 04.12.2019
3259 Fog 8 1035 93 4000 1.5 70 12:22 04.12.2019
3260 Fog 6 1034 100 4000 1 0 11:41 04.12.2019
3261 Fog 6 1034 100 4000 1 0 11:23 04.12.2019
3262 Fog 6 1033 100 4000 2.1 80 10:44 04.12.2019
3263 Fog 6 1033 100 4000 2.1 80 10:24 04.12.2019
3264 Fog 7 1033 93 4000 1.5 80 09:58 04.12.2019
3265 Fog 7 1033 93 4000 1.5 80 09:39 04.12.2019
3266 Fog 7 1033 93 4000 1.5 80 09:21 04.12.2019
3267 Fog 6 1033 100 4000 1.5 100 08:43 04.12.2019
3268 Fog 6 1033 100 4000 1.5 100 08:24 04.12.2019
3269 Clouds 6 1013 86 0 0.05 34 07:51 04.12.2019
3270 Fog 6 1034 100 4000 1 0 07:31 04.12.2019
3271 Fog 6 1034 100 4000 1 0 06:57 04.12.2019
3272 Fog 6 1034 100 4000 1 0 06:31 04.12.2019
3273 Fog 5 1035 93 4000 1.5 90 05:43 04.12.2019
3274 Fog 6 1035 93 4000 2.6 80 04:33 04.12.2019
3275 Clouds 7 1035 87 10000 2.1 40 03:29 04.12.2019
3276 Clouds 7 1033 87 10000 1.5 70 01:25 04.12.2019
3277 Clouds 9 1032 76 10000 3.1 80 00:40 04.12.2019
3278 Clouds 9 1032 76 10000 3.1 80 00:40 04.12.2019
3279 Clouds 9 1032 76 10000 3.1 80 00:19 04.12.2019
3280 Clouds 11 1031 62 10000 3.1 30 23:41 03.12.2019
3281 Clouds 11 1031 62 10000 3.1 30 23:20 03.12.2019
3282 Clouds 10 1032 61 10000 4.6 20 22:56 03.12.2019
3283 Clouds 10 1032 61 10000 4.6 20 22:36 03.12.2019
3284 Clouds 10 1032 61 10000 4.6 20 22:18 03.12.2019
3285 Rain 9 1033 76 10000 2.6 320 21:39 03.12.2019
3286 Rain 9 1033 76 10000 2.6 320 21:39 03.12.2019
3287 Rain 9 1033 76 10000 2.6 320 21:19 03.12.2019
3288 Thunderstorm 28 1015 23 8000 6.2 350 20:58 03.12.2019
3289 Thunderstorm 28 1015 23 8000 6.2 350 20:40 03.12.2019
3290 Thunderstorm 28 1015 23 8000 6.2 350 20:19 03.12.2019
3291 Thunderstorm 12 1033 58 8000 4.1 30 19:55 03.12.2019
3292 Rain 12 1032 71 10000 4.6 60 19:37 03.12.2019
3293 Rain 12 1032 71 10000 4.6 60 19:19 03.12.2019
3294 Clouds 16 1034 38 10000 2.6 140 18:56 03.12.2019
3295 Clouds 16 1034 38 10000 2.6 140 18:38 03.12.2019
3296 Clouds 16 1034 38 10000 2.6 140 18:19 03.12.2019
3297 Clouds 16 1035 41 10000 2.1 200 17:56 03.12.2019
3298 Clouds 16 1035 41 10000 2.1 200 17:36 03.12.2019
3299 Clouds 16 1035 41 10000 2.1 200 17:18 03.12.2019
3300 -273 0 0 0 0 0 16:56 03.12.2019
3301 Clouds 14 1036 47 10000 3.1 120 16:37 03.12.2019
3302 Clouds 14 1036 47 10000 3.1 120 16:19 03.12.2019
3303 Clouds 12 1036 54 10000 1 0 15:41 03.12.2019
3304 Clouds 12 1036 54 10000 1 0 15:20 03.12.2019
3305 Clouds 12 1036 54 10000 2.1 200 14:59 03.12.2019
3306 Clouds 12 1036 54 10000 2.1 200 14:41 03.12.2019
3307 Clouds 12 1036 54 10000 2.1 200 14:19 03.12.2019
3308 Clouds 10 1036 66 10000 1 0 13:39 03.12.2019
3309 Clouds 10 1036 66 10000 1 0 13:21 03.12.2019
3310 Fog 7 1036 87 4000 1.5 70 12:59 03.12.2019
3311 Fog 7 1036 87 4000 1.5 70 12:38 03.12.2019
3312 Fog 7 1036 87 4000 1.5 70 12:18 03.12.2019
3313 Fog 3 1035 100 4000 1.5 40 11:58 03.12.2019
3314 Fog 3 1035 100 4000 1.5 40 11:38 03.12.2019
3315 Fog 3 1035 100 4000 1.5 40 11:19 03.12.2019
3316 Fog 3 1035 100 4000 1.5 40 11:19 03.12.2019
3317 Fog 4 1034 100 4000 1 0 10:56 03.12.2019
3318 Fog 4 1034 100 4000 1 0 10:38 03.12.2019
3319 Fog 4 1034 100 4000 1 0 10:19 03.12.2019
3320 Clouds 5 1014 92 0 1.14 179 09:45 03.12.2019
3321 Fog 7 1035 87 4000 1 0 09:24 03.12.2019
3322 Fog 7 1035 87 4000 1 0 08:56 03.12.2019
3323 Fog 7 1035 87 4000 1 0 08:38 03.12.2019
3324 Fog 7 1035 87 4000 1 0 08:20 03.12.2019
3325 Fog 6 1035 93 4000 1 0 07:51 03.12.2019
3326 Fog 6 1035 93 4000 1 0 07:28 03.12.2019
3327 Clouds 8 1036 75 10000 2.1 240 06:38 03.12.2019
3328 Clouds 8 1036 75 10000 2.1 240 06:19 03.12.2019
3329 Clouds 8 1038 70 10000 3.1 350 04:56 03.12.2019
3330 Clouds 9 1039 66 10000 3.6 210 03:42 03.12.2019
3331 Clouds 9 1039 66 10000 3.6 210 03:21 03.12.2019
3332 Rain 9 1039 81 10000 5.1 200 02:51 03.12.2019
3333 Rain 9 1039 81 10000 5.1 200 02:32 03.12.2019
3334 Clouds 9 1037 76 10000 2.1 100 01:56 03.12.2019
3335 Clouds 9 1037 76 10000 2.1 100 01:37 03.12.2019
3336 Clouds 9 1036 76 10000 7.7 120 00:59 03.12.2019
3337 Clouds 9 1036 76 10000 7.7 120 00:40 03.12.2019
3338 Clouds 9 1036 76 10000 7.7 120 00:40 03.12.2019
3339 Clouds 9 1036 76 10000 7.7 120 00:21 03.12.2019
3340 Rain 7 1017 81 0 2.43 192 23:43 02.12.2019
3341 Rain 8 1012 81 0 4.27 40 23:20 02.12.2019
3342 Clouds 14 1035 50 10000 5.7 80 22:43 02.12.2019
3343 Clouds 14 1035 50 10000 5.7 80 22:23 02.12.2019
3344 Clouds 15 1035 47 10000 6.7 100 21:59 02.12.2019
3345 Clouds 15 1035 47 10000 6.7 100 21:59 02.12.2019
3346 Clouds 15 1035 47 10000 6.7 100 21:38 02.12.2019
3347 Clouds 15 1035 47 10000 6.7 100 21:19 02.12.2019
3348 Clouds 15 1035 47 10000 6.7 100 21:19 02.12.2019
3349 Clouds 15 1036 51 10000 4.6 110 20:56 02.12.2019
3350 Clouds 15 1036 51 10000 4.6 110 20:38 02.12.2019
3351 Clouds 15 1036 51 10000 4.6 110 20:20 02.12.2019
3352 Clouds 14 1037 54 10000 3.1 130 19:55 02.12.2019
3353 Clouds 14 1037 54 10000 3.1 130 19:36 02.12.2019
3354 Clouds 14 1037 54 10000 3.1 130 19:18 02.12.2019
3355 Clouds 13 1038 62 10000 2.1 90 18:42 02.12.2019
3356 Clouds 13 1038 62 10000 2.1 90 18:20 02.12.2019
3357 Clouds 13 1039 66 10000 2.1 110 17:58 02.12.2019
3358 Clouds 13 1039 66 10000 2.1 110 17:40 02.12.2019
3359 Clouds 13 1039 66 10000 2.1 110 17:20 02.12.2019
3360 Clouds 12 1040 66 8000 2.1 90 16:42 02.12.2019
3361 Clouds 12 1040 66 8000 2.1 90 16:19 02.12.2019
3362 Clouds 11 1040 66 6000 2.1 90 15:59 02.12.2019
3363 Clouds 11 1040 66 6000 2.1 90 15:40 02.12.2019
3364 Clouds 11 1040 66 6000 2.1 90 15:22 02.12.2019
3365 Clouds 9 1040 76 6000 2.1 90 14:59 02.12.2019
3366 Clouds 9 1040 76 6000 2.1 90 14:38 02.12.2019
3367 Clouds 9 1040 76 6000 2.1 90 14:20 02.12.2019
3368 Clouds 9 1040 76 6000 2.1 90 14:20 02.12.2019
3369 Clouds 8 1039 81 6000 3.1 80 13:57 02.12.2019
3370 Clouds 8 1039 81 6000 3.1 80 13:39 02.12.2019
3371 Clouds 8 1039 81 6000 3.1 80 13:19 02.12.2019
3372 Clouds 8 1038 75 10000 2.6 40 12:56 02.12.2019
3373 Clouds 8 1038 75 10000 2.6 40 12:37 02.12.2019
3374 Clouds 8 1038 75 10000 2.6 40 12:19 02.12.2019
3375 Clouds 6 1037 87 10000 3.6 40 11:38 02.12.2019
3376 Clouds 6 1037 87 10000 3.6 40 11:20 02.12.2019
3377 Rain 6 1037 87 7000 4.6 50 10:58 02.12.2019
3378 Rain 6 1037 87 7000 4.6 50 10:40 02.12.2019
3379 Rain 6 1037 87 7000 4.6 50 10:22 02.12.2019
3380 Rain 6 1037 93 6000 6.2 60 09:56 02.12.2019
3381 Rain 6 1037 93 6000 6.2 60 09:38 02.12.2019
3382 Rain 6 1037 93 6000 6.2 60 09:18 02.12.2019
3383 Rain 6 1037 93 6000 6.2 60 09:18 02.12.2019
3384 Rain 6 1038 93 6000 5.1 80 08:55 02.12.2019
3385 Rain 6 1038 93 6000 5.1 80 08:37 02.12.2019
3386 Rain 8 1038 93 4000 2.6 130 08:18 02.12.2019
3387 Rain 8 1038 93 4000 2.6 130 07:39 02.12.2019
3388 Rain 8 1038 93 4000 2.6 130 07:20 02.12.2019
3389 Rain 8 1038 93 4000 4.1 120 06:42 02.12.2019
3390 Clouds 9 1039 81 10000 4.6 130 05:49 02.12.2019
3391 Clouds 9 1039 81 10000 4.6 130 05:19 02.12.2019
3392 Clouds 10 1037 57 10000 5.1 50 03:28 02.12.2019
3393 Clouds 11 1037 80 10000 6.7 50 02:50 02.12.2019
3394 Clouds 11 1036 53 10000 5.1 70 01:47 02.12.2019
3395 Clouds 11 1036 53 10000 5.1 70 01:21 02.12.2019
3396 Clouds 13 1035 47 10000 4.1 80 00:37 02.12.2019
3397 Clouds 13 1035 47 10000 4.1 80 00:19 02.12.2019
3398 Clouds 15 1035 38 10000 3.1 70 23:42 01.12.2019
3399 Clouds 15 1035 38 10000 3.1 70 23:21 01.12.2019
3400 Clouds 16 1034 38 10000 4.6 90 22:56 01.12.2019
3401 Clouds 16 1034 38 10000 4.6 90 22:38 01.12.2019
3402 Clouds 16 1034 38 10000 4.6 90 22:19 01.12.2019
3403 Clouds 16 1035 36 10000 5.1 50 21:56 01.12.2019
3404 Clouds 16 1035 36 10000 5.1 50 21:38 01.12.2019
3405 Clouds 16 1035 36 10000 5.1 50 21:19 01.12.2019
3406 Clouds 17 1035 29 10000 4.6 60 20:57 01.12.2019
3407 Clouds 17 1035 29 10000 4.6 60 20:39 01.12.2019
3408 Clouds 17 1035 29 10000 4.6 60 20:21 01.12.2019
3409 Clouds 17 1036 29 10000 5.7 70 19:55 01.12.2019
3410 Clouds 17 1036 29 10000 5.7 70 19:37 01.12.2019
3411 Clouds 17 1036 29 10000 5.7 70 19:19 01.12.2019
3412 Clouds 16 1037 31 8000 5.7 100 18:55 01.12.2019
3413 Clouds 16 1037 31 8000 5.7 100 18:37 01.12.2019
3414 Clouds 16 1037 31 8000 5.7 100 18:18 01.12.2019
3415 Clouds 17 1038 39 10000 4.1 100 17:56 01.12.2019
3416 Clouds 17 1038 39 10000 4.1 100 17:38 01.12.2019
3417 Clouds 17 1038 39 10000 4.1 100 17:19 01.12.2019
3418 Clouds 16 1038 35 10000 3.1 150 16:43 01.12.2019
3419 Clouds 16 1038 35 10000 3.1 150 16:24 01.12.2019
3420 Clouds 15 1039 51 10000 3.1 140 15:53 01.12.2019
3421 Clouds 15 1039 51 10000 3.1 140 15:33 01.12.2019
3422 Clouds 14 1039 50 10000 1 0 14:58 01.12.2019
3423 Clouds 14 1039 50 10000 1 0 14:58 01.12.2019
3424 Clouds 14 1039 50 10000 1 0 14:58 01.12.2019
3425 Clouds 14 1039 50 10000 1 0 14:37 01.12.2019
3426 Clouds 14 1039 50 10000 1 0 14:18 01.12.2019
3427 Clouds 11 1039 66 10000 2.1 90 13:40 01.12.2019
3428 Clouds 11 1039 66 10000 2.1 90 13:21 01.12.2019
3429 Fog 8 1039 87 4000 1 0 12:47 01.12.2019
3430 Fog 8 1039 87 4000 1 0 12:19 01.12.2019
3431 Fog 8 1039 87 4000 1 0 12:19 01.12.2019
3432 Fog 8 1039 87 4000 1 0 12:19 01.12.2019
3433 Fog 8 1039 87 4000 1 0 12:19 01.12.2019
3434 Fog 8 1039 87 4000 1 0 12:18 01.12.2019
3435 Fog 7 1038 87 4000 3.6 130 11:43 01.12.2019
3436 Fog 7 1038 87 4000 3.6 130 11:43 01.12.2019
3437 Fog 7 1038 87 4000 3.6 130 11:43 01.12.2019
3438 Fog 7 1038 87 4000 3.6 130 11:43 01.12.2019
3439 Fog 7 1038 87 4000 3.6 130 11:24 01.12.2019
3440 Fog 7 1038 87 4000 3.6 130 11:24 01.12.2019
3441 Fog 7 1037 87 4000 2.1 110 10:45 01.12.2019
3442 Fog 7 1037 87 4000 2.1 110 10:22 01.12.2019
3443 Fog 5 1036 93 4000 2.6 90 09:59 01.12.2019
3444 Fog 5 1036 93 4000 2.6 90 09:40 01.12.2019
3445 Fog 5 1036 93 4000 2.6 90 09:20 01.12.2019
3446 Fog 5 1037 93 4000 2.6 70 08:48 01.12.2019
3447 Fog 5 1037 93 4000 2.6 70 08:20 01.12.2019
3448 Clouds 6 1036 87 10000 1 0 07:52 01.12.2019
3449 Clouds 6 1036 87 10000 1 0 07:31 01.12.2019
3450 Clouds 7 1037 75 10000 1 0 06:57 01.12.2019
3451 Clouds 7 1037 75 10000 1 0 06:35 01.12.2019
3452 Clouds 7 1037 81 10000 3.1 260 05:49 01.12.2019
3453 Clouds 6 1036 87 10000 2.6 80 04:51 01.12.2019
3454 Clouds 8 1036 65 10000 3.1 70 03:23 01.12.2019
3455 Clouds 8 1035 61 10000 3.1 70 02:36 01.12.2019
3456 Clouds 8 1035 61 10000 3.1 70 02:18 01.12.2019
3457 Clouds 9 1034 57 10000 3.6 70 01:51 01.12.2019
3458 Clouds 9 1034 57 10000 3.6 70 01:24 01.12.2019
3459 Clouds 13 1034 43 10000 2.6 80 00:41 01.12.2019
3460 Clouds 13 1034 43 10000 2.6 80 00:23 01.12.2019
3461 Clouds 14 1033 41 10000 3.1 30 23:42 30.11.2019
3462 Clouds 14 1033 41 10000 3.1 30 23:23 30.11.2019
3463 Clouds 14 1033 41 10000 4.1 40 22:51 30.11.2019
3464 Clouds 14 1033 41 10000 4.1 40 22:30 30.11.2019
3465 Clouds 16 1033 71 10000 4.6 80 21:59 30.11.2019
3466 Clouds 16 1033 71 10000 4.6 80 21:41 30.11.2019
3467 Clouds 16 1033 71 10000 4.6 80 21:41 30.11.2019
3468 Clouds 16 1033 71 10000 4.6 80 21:23 30.11.2019
3469 Clouds 16 1034 36 10000 5.7 110 20:55 30.11.2019
3470 Clouds 16 1034 36 10000 5.7 110 20:37 30.11.2019
3471 Clouds 16 1034 36 10000 5.7 110 20:19 30.11.2019
3472 Thunderstorm 16 1034 31 10000 3.6 120 19:55 30.11.2019
3473 Clouds 17 1034 29 10000 3.6 160 19:37 30.11.2019
3474 Clouds 17 1034 29 10000 3.6 160 19:18 30.11.2019
3475 Clouds 17 1035 25 10000 4.6 150 18:55 30.11.2019
3476 Clouds 17 1035 25 10000 4.6 150 18:37 30.11.2019
3477 Clouds 17 1035 25 10000 4.6 150 18:18 30.11.2019
3478 Clouds 16 1036 23 10000 5.1 120 17:56 30.11.2019
3479 Clouds 16 1036 23 10000 5.1 120 17:37 30.11.2019
3480 Clouds 16 1036 23 10000 5.1 120 17:19 30.11.2019
3481 Clouds 15 1036 28 10000 5.1 130 16:42 30.11.2019
3482 Clouds 15 1036 28 10000 5.1 130 16:22 30.11.2019
3483 Clouds 13 1036 32 10000 4.6 130 15:55 30.11.2019
3484 Clouds 13 1036 32 10000 4.6 130 15:55 30.11.2019
3485 Clouds 13 1036 32 10000 4.6 130 15:37 30.11.2019
3486 Clouds 13 1036 32 10000 4.6 130 15:18 30.11.2019
3487 Clouds 12 1037 46 10000 3.6 120 14:56 30.11.2019
3488 Clouds 12 1037 46 10000 3.6 120 14:37 30.11.2019
3489 Clouds 12 1037 46 10000 3.6 120 14:18 30.11.2019
3490 Clouds 10 1036 66 10000 3.6 80 13:45 30.11.2019
3491 Clouds 10 1036 66 10000 3.6 80 13:26 30.11.2019
3492 Fog 7 1035 93 4000 3.1 110 12:59 30.11.2019
3493 Fog 7 1035 93 4000 3.1 110 12:41 30.11.2019
3494 Fog 7 1035 93 4000 3.1 110 12:22 30.11.2019
3495 Fog 2 1034 100 4000 2.6 80 11:43 30.11.2019
3496 Fog 2 1034 100 4000 2.6 80 11:20 30.11.2019
3497 Fog 2 1034 93 4000 2.6 90 10:56 30.11.2019
3498 Fog 2 1034 93 4000 2.6 90 10:37 30.11.2019
3499 Fog 2 1034 93 4000 2.6 90 10:19 30.11.2019
3500 Fog 1 1034 86 4000 1.5 80 09:46 30.11.2019
3501 Fog 1 1034 86 4000 1.5 80 09:24 30.11.2019
3502 Clear 4 1034 51 10000 0.9 166 08:44 30.11.2019
3503 Clear 4 1034 51 10000 0.82 151 08:22 30.11.2019
3504 Clouds 5 1034 75 10000 1 0 07:58 30.11.2019
3505 Clouds 5 1034 75 10000 1 0 07:39 30.11.2019
3506 Clouds 5 1034 80 10000 1 0 06:59 30.11.2019
3507 Clouds 5 1034 80 10000 1 0 06:29 30.11.2019
3508 Clouds 7 1035 87 10000 1 0 05:52 30.11.2019
3509 Clouds 11 1035 62 10000 2.6 180 03:53 30.11.2019
3510 Clouds 11 1034 53 10000 2.6 30 02:40 30.11.2019
3511 Clouds 11 1034 53 10000 2.6 30 02:22 30.11.2019
3512 Clouds 12 1033 54 10000 3.6 100 01:25 30.11.2019
3513 Clouds 12 1033 54 10000 3.6 100 01:25 30.11.2019
3514 Clouds 14 1033 44 10000 3.1 100 00:50 30.11.2019
3515 Clouds 14 1033 44 10000 3.1 100 00:31 30.11.2019
3516 Clouds 17 1032 23 10000 5.1 260 23:59 29.11.2019
3517 Clouds 17 1032 23 10000 5.1 260 23:59 29.11.2019
3518 Clouds 17 1032 23 10000 5.1 260 23:40 29.11.2019
3519 Clouds 17 1032 23 10000 5.1 260 23:22 29.11.2019
3520 Clouds 18 1032 23 10000 5.1 250 22:45 29.11.2019
3521 Clouds 18 1032 23 10000 5.1 250 22:25 29.11.2019
3522 Clouds 19 1033 16 10000 2.6 310 21:44 29.11.2019
3523 Clouds 19 1033 16 10000 2.6 310 21:24 29.11.2019
3524 Clouds 20 1033 14 10000 3.1 260 20:58 29.11.2019
3525 Clouds 20 1033 14 10000 3.1 260 20:38 29.11.2019
3526 Clouds 20 1033 14 10000 3.1 260 20:19 29.11.2019
3527 Clouds 19 1034 22 10000 3.1 260 19:57 29.11.2019
3528 Clouds 19 1034 22 10000 3.1 260 19:38 29.11.2019
3529 Clouds 19 1034 22 10000 3.1 260 19:19 29.11.2019
3530 Clouds 19 1035 24 10000 3.1 190 18:55 29.11.2019
3531 Clouds 19 1035 24 10000 3.1 190 18:37 29.11.2019
3532 Clouds 19 1035 24 10000 3.1 190 18:19 29.11.2019
3533 Clouds 17 1036 29 10000 2.1 100 17:43 29.11.2019
3534 Clouds 17 1036 29 10000 2.1 100 17:23 29.11.2019
3535 Clouds 16 1037 31 10000 2.6 110 16:56 29.11.2019
3536 Clouds 16 1037 31 10000 2.6 110 16:37 29.11.2019
3537 Clouds 16 1037 31 10000 2.6 110 16:18 29.11.2019
3538 Clouds 15 1037 38 10000 2.1 120 15:40 29.11.2019
3539 Clouds 15 1037 38 10000 2.1 120 15:21 29.11.2019
3540 Clouds 13 1038 54 10000 2.1 110 14:42 29.11.2019
3541 Clouds 13 1038 54 10000 2.1 110 14:22 29.11.2019
3542 Clouds 11 1037 50 10000 1 0 13:58 29.11.2019
3543 Clouds 11 1037 50 10000 1 0 13:38 29.11.2019
3544 Clouds 11 1037 50 10000 1 0 13:20 29.11.2019
3545 Clouds 7 1037 81 10000 2.1 70 12:44 29.11.2019
3546 Clouds 7 1037 81 10000 2.1 70 12:25 29.11.2019
3547 Fog 3 1035 100 4000 3.1 90 11:57 29.11.2019
3548 Fog 3 1035 100 4000 3.1 90 11:38 29.11.2019
3549 Fog 3 1035 100 4000 3.1 90 11:19 29.11.2019
3550 Fog 3 1035 100 4000 3.1 90 11:19 29.11.2019
3551 Fog 3 1035 100 4000 3.1 90 10:58 29.11.2019
3552 Fog 3 1035 100 4000 3.1 90 10:39 29.11.2019
3553 Fog 3 1035 100 4000 3.1 90 10:21 29.11.2019
3554 Fog 4 1035 100 4000 3.1 90 09:59 29.11.2019
3555 Fog 4 1035 100 4000 3.1 90 09:39 29.11.2019
3556 Fog 4 1035 100 4000 3.1 90 09:20 29.11.2019
3557 Fog 4 1035 86 4000 1 0 08:55 29.11.2019
3558 Fog 4 1035 86 4000 1 0 08:37 29.11.2019
3559 Fog 4 1035 86 4000 1 0 08:18 29.11.2019
3560 Clouds 7 1035 48 10000 1.61 242 07:41 29.11.2019
3561 Clouds 7 1035 48 10000 1.61 242 07:23 29.11.2019
3562 Clouds 5 1036 80 10000 1.61 242 06:47 29.11.2019
3563 Clouds 5 1036 80 10000 1.61 242 06:28 29.11.2019
3564 Clouds 7 1037 81 10000 1.61 242 05:32 29.11.2019
3565 Clouds 7 1037 81 10000 1.61 242 05:32 29.11.2019
3566 Clouds 8 1037 81 10000 1.5 80 04:56 29.11.2019
3567 Clouds 10 1036 71 10000 3.1 60 03:37 29.11.2019
3568 Clouds 10 1036 71 10000 3.1 60 03:18 29.11.2019
3569 Clouds 10 1036 71 10000 3.1 60 03:18 29.11.2019
3570 Clouds 11 1036 62 10000 2.6 170 02:22 29.11.2019
3571 Clouds 10 1035 66 10000 2.6 100 01:27 29.11.2019
3572 Clouds 13 1034 54 10000 3.6 80 00:51 29.11.2019
3573 Clouds 13 1034 54 10000 3.6 80 00:23 29.11.2019
3574 Clouds 16 1034 31 10000 2.6 60 23:59 28.11.2019
3575 Clouds 16 1034 31 10000 2.6 60 23:39 28.11.2019
3576 Clouds 16 1034 31 10000 2.6 60 23:20 28.11.2019
3577 Clouds 16 1034 31 10000 2.6 60 23:20 28.11.2019
3578 Clouds 16 1034 31 10000 2.6 60 23:20 28.11.2019
3579 Clouds 16 1034 36 10000 2.6 290 22:56 28.11.2019
3580 Clouds 16 1034 36 10000 2.6 290 22:36 28.11.2019
3581 Clouds 16 1034 36 10000 2.6 290 22:18 28.11.2019
3582 Thunderstorm 16 1034 29 10000 2.6 110 21:42 28.11.2019
3583 Thunderstorm 16 1034 29 10000 2.6 110 21:21 28.11.2019
3584 Clouds 16 1035 36 10000 3.6 120 20:58 28.11.2019
3585 Clouds 16 1035 36 10000 3.6 120 20:40 28.11.2019
3586 Clouds 16 1035 36 10000 3.6 120 20:21 28.11.2019
3587 Clouds 17 1036 33 10000 3.1 150 19:57 28.11.2019
3588 Clouds 17 1036 33 10000 3.1 150 19:37 28.11.2019
3589 Clouds 17 1036 33 10000 3.1 150 19:19 28.11.2019
3590 Clouds 17 1037 33 10000 4.1 250 18:57 28.11.2019
3591 Clouds 17 1037 33 10000 4.1 250 18:38 28.11.2019
3592 Clouds 17 1037 33 10000 4.1 250 18:18 28.11.2019
3593 Clouds 15 1038 38 10000 3.1 270 17:43 28.11.2019
3594 Clouds 15 1038 38 10000 3.1 270 17:25 28.11.2019
3595 Clouds 15 1038 38 10000 3.1 270 17:25 28.11.2019
3596 Clouds 13 1038 62 10000 3.1 130 16:59 28.11.2019
3597 Clouds 13 1038 62 10000 3.1 130 16:40 28.11.2019
3598 Clouds 13 1038 62 10000 3.1 130 16:40 28.11.2019
3599 Clouds 13 1038 62 10000 3.1 130 16:19 28.11.2019
3600 Clouds 11 1038 71 6000 2.6 130 15:56 28.11.2019
3601 Clouds 11 1038 71 6000 2.6 130 15:37 28.11.2019
3602 Clouds 11 1038 71 6000 2.6 130 15:19 28.11.2019
3603 Clouds 10 1038 81 6000 2.6 80 14:57 28.11.2019
3604 Clouds 10 1038 81 6000 2.6 80 14:38 28.11.2019
3605 Clouds 10 1038 81 6000 2.6 80 14:19 28.11.2019
3606 Fog 8 1038 93 4000 2.1 120 13:41 28.11.2019
3607 Fog 8 1038 93 4000 2.1 120 13:22 28.11.2019
3608 Fog 8 1037 87 4000 2.6 110 12:49 28.11.2019
3609 Fog 8 1037 87 4000 2.6 110 12:30 28.11.2019
3610 Fog 8 1036 87 4000 2.6 100 11:59 28.11.2019
3611 -273 0 0 0 0 0 11:59 28.11.2019
3612 Fog 8 1036 87 4000 2.6 100 11:41 28.11.2019
3613 -273 0 0 0 0 0 11:21 28.11.2019
3614 Fog 8 1036 93 4000 2.6 90 10:59 28.11.2019
3615 Fog 8 1036 93 4000 2.6 90 10:40 28.11.2019
3616 Fog 8 1036 93 4000 2.6 90 10:40 28.11.2019
3617 Fog 8 1036 93 4000 2.6 90 10:20 28.11.2019
3618 Fog 8 1035 93 4000 4.1 90 09:41 28.11.2019
3619 Fog 8 1035 93 4000 4.1 90 09:23 28.11.2019
3620 Fog 8 1036 93 4000 2.6 70 08:59 28.11.2019
3621 Fog 8 1036 93 4000 2.6 70 08:59 28.11.2019
3622 Fog 8 1036 93 4000 2.6 70 08:59 28.11.2019
3623 Fog 8 1036 93 4000 2.6 70 08:39 28.11.2019
3624 Fog 8 1036 93 4000 2.6 70 08:21 28.11.2019
3625 Fog 8 1036 93 4000 4.6 100 07:42 28.11.2019
3626 Fog 8 1036 93 4000 4.6 100 07:24 28.11.2019
3627 Fog 8 1037 93 4000 3.1 80 06:51 28.11.2019
3628 Fog 8 1037 93 4000 3.1 80 06:31 28.11.2019
3629 Fog 9 1037 87 4000 3.6 120 05:51 28.11.2019
3630 Fog 9 1037 87 4000 3.6 120 05:18 28.11.2019
3631 Clouds 11 1036 62 10000 1 0 02:46 28.11.2019
3632 Clouds 11 1035 66 10000 5.7 90 01:50 28.11.2019
3633 Clouds 12 1034 50 10000 5.7 40 00:48 28.11.2019
3634 Clouds 12 1034 50 10000 5.7 40 00:23 28.11.2019
3635 Clouds 13 1033 47 10000 6.2 60 23:55 27.11.2019
3636 Clouds 13 1033 47 10000 6.2 60 23:37 27.11.2019
3637 Clouds 13 1033 47 10000 6.2 60 23:19 27.11.2019
3638 Clouds 16 1033 38 10000 6.7 100 22:39 27.11.2019
3639 Clouds 16 1033 38 10000 6.7 100 22:20 27.11.2019
3640 Clouds 19 1033 29 10000 5.7 90 21:56 27.11.2019
3641 Clouds 19 1033 29 10000 5.7 90 21:38 27.11.2019
3642 Clouds 19 1033 29 10000 5.7 90 21:19 27.11.2019
3643 Thunderstorm 20 1033 73 10000 4.6 240 20:59 27.11.2019
3644 Thunderstorm 20 1033 73 10000 4.6 240 20:39 27.11.2019
3645 Thunderstorm 20 1033 56 10000 4.6 240 20:21 27.11.2019
3646 Clouds 20 1035 24 10000 4.1 310 19:57 27.11.2019
3647 Clouds 20 1035 24 10000 4.1 310 19:39 27.11.2019
3648 Clouds 20 1035 24 10000 4.1 310 19:21 27.11.2019
3649 Clouds 18 1036 23 10000 5.1 260 18:58 27.11.2019
3650 Clouds 18 1036 23 10000 5.1 260 18:37 27.11.2019
3651 Clouds 18 1036 23 10000 5.1 260 18:19 27.11.2019
3652 Clouds 18 1037 34 10000 4.6 250 17:57 27.11.2019
3653 Clouds 18 1037 34 10000 4.6 250 17:38 27.11.2019
3654 Clouds 18 1037 34 10000 4.6 250 17:38 27.11.2019
3655 Clouds 18 1037 34 10000 4.6 250 17:20 27.11.2019
3656 Clouds 18 1037 34 10000 4.6 250 17:20 27.11.2019
3657 Clouds 18 1037 34 10000 4.6 250 17:20 27.11.2019
3658 Clouds 16 1037 38 10000 4.1 290 16:56 27.11.2019
3659 Clouds 16 1037 38 10000 4.1 290 16:37 27.11.2019
3660 Clouds 16 1037 38 10000 4.1 290 16:18 27.11.2019
3661 -273 0 0 0 0 0 15:57 27.11.2019
3662 Clouds 15 1037 41 10000 3.6 280 15:38 27.11.2019
3663 Clouds 15 1037 41 10000 3.6 280 15:20 27.11.2019
3664 Clouds 13 1038 54 10000 3.1 290 14:56 27.11.2019
3665 Clouds 13 1038 54 10000 3.1 290 14:38 27.11.2019
3666 Clouds 13 1038 54 10000 3.1 290 14:20 27.11.2019
3667 Clouds 12 1037 54 10000 3.6 310 13:55 27.11.2019
3668 Clouds 12 1037 54 10000 3.6 310 13:55 27.11.2019
3669 Clouds 12 1037 54 10000 3.6 310 13:37 27.11.2019
3670 Clouds 12 1037 54 10000 3.6 310 13:18 27.11.2019
3671 Clouds 12 1037 54 10000 3.6 310 13:18 27.11.2019
3672 Rain 9 1015 67 0 0.63 150 12:41 27.11.2019
3673 Clouds 7 1036 70 10000 2.6 330 12:22 27.11.2019
3674 Clouds 7 1036 70 10000 2.6 330 11:56 27.11.2019
3675 Clouds 7 1036 70 10000 2.6 330 11:37 27.11.2019
3676 Clouds 6 1035 75 10000 1 0 11:18 27.11.2019
3677 Clouds 6 1035 75 10000 1 0 10:46 27.11.2019
3678 Clouds 6 1035 75 10000 1 0 10:46 27.11.2019
3679 Clouds 6 1035 75 10000 1 0 10:24 27.11.2019
3680 Fog 5 1035 86 4000 1 0 09:57 27.11.2019
3681 Fog 5 1035 86 4000 1 0 09:39 27.11.2019
3682 Fog 5 1035 86 4000 1 0 09:18 27.11.2019
3683 Clouds 8 1035 61 10000 1 0 08:42 27.11.2019
3684 Clouds 8 1035 61 10000 1 0 08:23 27.11.2019
3685 Clouds 9 1035 61 10000 1 0 07:47 27.11.2019
3686 Clouds 9 1035 61 10000 1 0 07:29 27.11.2019
3687 Clouds 9 1036 66 10000 1 0 06:54 27.11.2019
3688 Clouds 9 1036 66 10000 1 0 06:36 27.11.2019
3689 Clouds 9 1037 66 10000 3.1 300 05:47 27.11.2019
3690 Clouds 9 1037 66 10000 3.1 300 05:21 27.11.2019
3691 Clouds 9 1037 76 10000 1 0 04:48 27.11.2019
3692 Clouds 9 1037 76 10000 1 0 04:29 27.11.2019
3693 Clouds 10 1036 61 10000 1 0 03:40 27.11.2019
3694 Clouds 10 1036 61 10000 1 0 03:19 27.11.2019
3695 Clouds 10 1034 57 10000 5.1 320 02:21 27.11.2019
3696 Clouds 11 1033 53 10000 6.2 290 00:50 27.11.2019
3697 Clouds 14 1033 41 10000 4.6 300 00:30 27.11.2019
3698 Clouds 15 1032 44 10000 4.6 310 23:54 26.11.2019
3699 Clouds 15 1032 44 10000 4.6 310 23:36 26.11.2019
3700 Clouds 15 1032 44 10000 4.6 310 23:18 26.11.2019
3701 Clouds 15 1031 41 10000 6.7 310 22:39 26.11.2019
3702 Clouds 15 1031 41 10000 6.7 310 22:19 26.11.2019
3703 Clouds 15 1031 41 10000 6.7 310 22:19 26.11.2019
3704 Clouds 17 1032 33 10000 6.7 290 21:59 26.11.2019
3705 Clouds 17 1032 33 10000 6.7 290 21:38 26.11.2019
3706 Clouds 17 1032 33 10000 6.7 290 21:20 26.11.2019
3707 Clouds 17 1033 36 10000 7.2 280 20:57 26.11.2019
3708 Clouds 17 1033 36 10000 7.2 280 20:57 26.11.2019
3709 Clouds 17 1033 36 10000 7.2 280 20:57 26.11.2019
3710 Clouds 17 1033 36 10000 7.2 280 20:37 26.11.2019
3711 Clouds 17 1033 36 10000 7.2 280 20:37 26.11.2019
3712 Clouds 17 1033 36 10000 7.2 280 20:37 26.11.2019
3713 Clouds 17 1033 36 10000 7.2 280 20:19 26.11.2019
3714 Clouds 16 1034 38 10000 6.2 300 19:55 26.11.2019
3715 Clouds 16 1034 38 10000 6.2 300 19:37 26.11.2019
3716 Clouds 16 1034 38 10000 6.2 300 19:19 26.11.2019
3717 Clouds 16 1034 38 10000 6.2 300 19:19 26.11.2019
3718 Clouds 16 1035 44 10000 5.7 280 18:56 26.11.2019
3719 Clouds 16 1035 44 10000 5.7 280 18:38 26.11.2019
3720 Clouds 16 1035 44 10000 5.7 280 18:38 26.11.2019
3721 Clouds 15 1035 51 10000 5.1 290 18:20 26.11.2019
3722 Clouds 15 1035 51 10000 5.1 290 17:56 26.11.2019
3723 Clouds 15 1035 51 10000 5.1 290 17:56 26.11.2019
3724 Clouds 15 1035 51 10000 5.1 290 17:37 26.11.2019
3725 Clouds 13 1036 54 10000 3.1 290 17:19 26.11.2019
3726 Clouds 13 1036 54 10000 3.1 290 16:56 26.11.2019
3727 Clouds 13 1036 54 10000 3.1 290 16:37 26.11.2019
3728 Clouds 13 1036 54 10000 3.1 290 16:18 26.11.2019
3729 Clouds 12 1036 58 10000 3.6 270 15:57 26.11.2019
3730 Clouds 12 1036 58 10000 3.6 270 15:37 26.11.2019
3731 Clouds 12 1036 58 10000 3.6 270 15:19 26.11.2019
3732 Clouds 10 1037 66 10000 3.6 290 14:45 26.11.2019
3733 Clouds 10 1037 66 10000 3.6 290 14:24 26.11.2019
3734 Clouds 9 1036 70 10000 2.1 270 13:45 26.11.2019
3735 Clouds 9 1036 70 10000 2.1 270 13:25 26.11.2019
3736 Clouds 7 1035 87 10000 2.1 250 12:58 26.11.2019
3737 Clouds 7 1035 87 10000 2.1 250 12:37 26.11.2019
3738 Clouds 5 1034 93 10000 2.1 270 12:19 26.11.2019
3739 Clouds 5 1034 93 10000 2.1 270 11:56 26.11.2019
3740 Clouds 5 1034 93 10000 2.1 270 11:37 26.11.2019
3741 Clouds 6 1033 81 10000 3.1 310 11:19 26.11.2019
3742 Clouds 6 1033 81 10000 3.1 310 10:56 26.11.2019
3743 Clouds 6 1033 81 10000 3.1 310 10:38 26.11.2019
3744 Clouds 6 1033 81 10000 3.1 310 10:19 26.11.2019
3745 Clouds 6 1033 81 10000 4.1 310 09:43 26.11.2019
3746 Clouds 6 1033 81 10000 4.1 310 09:24 26.11.2019
3747 Clouds 6 1034 87 10000 2.6 260 08:56 26.11.2019
3748 Clouds 6 1034 87 10000 2.6 260 08:38 26.11.2019
3749 Clouds 6 1034 87 10000 2.6 260 08:18 26.11.2019
3750 Clouds 6 1034 81 10000 1 0 07:43 26.11.2019
3751 Clouds 6 1034 81 10000 1 0 07:24 26.11.2019
3752 Clouds 6 1035 87 10000 2.1 320 06:51 26.11.2019
3753 Rain 6 1036 93 10000 4.6 290 05:59 26.11.2019
3754 Rain 6 1036 93 10000 4.6 290 05:26 26.11.2019
3755 Rain 6 1035 93 10000 1 0 03:22 26.11.2019
3756 Clouds 8 1034 75 8000 3.6 160 01:37 26.11.2019
3757 Clouds 8 1034 75 8000 3.6 160 01:19 26.11.2019
3758 Clouds 8 1033 75 8000 6.2 200 00:41 26.11.2019
3759 Clouds 13 1031 43 10000 2.6 270 23:59 25.11.2019
3760 Clouds 13 1031 43 10000 2.6 270 23:59 25.11.2019
3761 Clouds 13 1031 43 10000 2.6 270 23:38 25.11.2019
3762 Clouds 13 1031 43 10000 2.6 270 23:19 25.11.2019
3763 Clouds 17 1031 33 10000 2.1 150 22:39 25.11.2019
3764 Clouds 17 1031 33 10000 2.1 150 22:19 25.11.2019
3765 Clouds 16 1031 38 10000 4.1 330 21:59 25.11.2019
3766 Clouds 16 1031 38 10000 4.1 330 21:59 25.11.2019
3767 Clouds 16 1031 38 10000 4.1 330 21:59 25.11.2019
3768 Clouds 16 1031 38 10000 4.1 330 21:41 25.11.2019
3769 Clouds 16 1031 38 10000 4.1 330 21:22 25.11.2019
3770 Clouds 14 1032 44 10000 6.2 30 20:58 25.11.2019
3771 Clouds 14 1032 44 10000 6.2 30 20:40 25.11.2019
3772 Clouds 14 1032 44 10000 6.2 30 20:20 25.11.2019
3773 Thunderstorm 12 1033 58 10000 4.6 20 19:56 25.11.2019
3774 Thunderstorm 9 1034 76 8000 5.7 10 19:38 25.11.2019
3775 Thunderstorm 9 1034 76 8000 5.7 10 19:20 25.11.2019
3776 Clouds 16 1034 41 10000 2.6 230 18:57 25.11.2019
3777 Clouds 16 1034 41 10000 2.6 230 18:39 25.11.2019
3778 Thunderstorm 15 1035 51 10000 3.1 240 18:21 25.11.2019
3779 Thunderstorm 15 1035 51 10000 3.1 240 17:58 25.11.2019
3780 Thunderstorm 15 1035 51 10000 3.1 240 17:39 25.11.2019
3781 Thunderstorm 15 1035 51 10000 3.1 240 17:20 25.11.2019
3782 Clouds 13 1036 54 10000 2.1 170 16:57 25.11.2019
3783 Clouds 13 1036 54 10000 2.1 170 16:39 25.11.2019
3784 Clouds 13 1036 54 10000 2.1 170 16:21 25.11.2019
3785 Clouds 11 1037 71 10000 2.1 150 15:55 25.11.2019
3786 Clouds 11 1037 71 10000 2.1 150 15:37 25.11.2019
3787 Clouds 11 1037 71 10000 2.1 150 15:18 25.11.2019
3788 Clouds 10 1037 71 10000 1 0 14:42 25.11.2019
3789 Clouds 10 1037 71 10000 1 0 14:23 25.11.2019
3790 Rain 6 1036 87 8000 2.1 270 13:55 25.11.2019
3791 Rain 6 1036 87 8000 2.1 270 13:36 25.11.2019
3792 Rain 6 1036 87 8000 2.1 270 13:18 25.11.2019
3793 Rain 6 1036 87 8000 2.1 270 13:18 25.11.2019
3794 Rain 5 1036 100 7000 3.1 270 12:54 25.11.2019
3795 Rain 5 1036 100 7000 3.1 270 12:36 25.11.2019
3796 Rain 5 1036 100 7000 3.1 270 12:18 25.11.2019
3797 Rain 7 1035 87 6000 1 0 11:40 25.11.2019
3798 Rain 7 1035 87 6000 1 0 11:20 25.11.2019
3799 Fog 7 1034 87 4000 1 0 10:54 25.11.2019
3800 Fog 7 1034 87 4000 1 0 10:36 25.11.2019
3801 Fog 7 1034 87 4000 1 0 10:18 25.11.2019
3802 Fog 7 1034 93 4000 2.1 100 09:41 25.11.2019
3803 Fog 7 1034 93 4000 2.1 100 09:41 25.11.2019
3804 Fog 7 1034 93 4000 2.1 100 09:23 25.11.2019
3805 Clouds 3 1013 87 0 0.14 257 08:41 25.11.2019
3806 Fog 7 1035 93 4000 2.1 80 08:22 25.11.2019
3807 Fog 7 1035 93 4000 2.1 80 07:45 25.11.2019
3808 Fog 7 1035 93 4000 2.1 80 07:25 25.11.2019
3809 Fog 8 1036 87 4000 2.1 60 06:51 25.11.2019
3810 Clouds 8 1036 75 10000 1 0 06:23 25.11.2019
3811 Clouds 8 1036 75 10000 1 0 05:50 25.11.2019
3812 Clouds 8 1036 75 10000 1 0 05:29 25.11.2019
3813 Clouds 8 1036 81 10000 2.6 250 03:49 25.11.2019
3814 Clouds 9 1035 70 10000 2.1 300 02:32 25.11.2019
3815 Clouds 9 1034 76 10000 2.1 260 01:42 25.11.2019
3816 Clouds 9 1034 76 10000 2.1 260 01:23 25.11.2019
3817 Clouds 10 1033 61 10000 3.1 80 00:37 25.11.2019
3818 Clouds 13 1032 50 10000 4.1 70 00:18 25.11.2019
3819 Clouds 13 1032 50 10000 4.1 70 23:43 24.11.2019
3820 Clouds 13 1032 50 10000 4.1 70 23:20 24.11.2019
3821 Clouds 14 1032 50 10000 2.6 20 22:56 24.11.2019
3822 Clouds 14 1032 50 10000 2.6 20 22:56 24.11.2019
3823 Clouds 14 1032 50 10000 2.6 20 22:37 24.11.2019
3824 Clouds 14 1032 50 10000 2.6 20 22:19 24.11.2019
3825 Clouds 12 1033 46 10000 2.6 350 21:54 24.11.2019
3826 Clouds 12 1033 46 10000 2.6 350 21:36 24.11.2019
3827 Clouds 12 1033 46 10000 2.6 350 21:18 24.11.2019
3828 Clouds 11 1034 53 10000 3.1 360 20:54 24.11.2019
3829 Clouds 11 1034 53 10000 3.1 360 20:36 24.11.2019
3830 Clouds 11 1034 53 10000 3.1 360 20:18 24.11.2019
3831 Thunderstorm 10 1035 66 10000 4.1 320 19:54 24.11.2019
3832 Thunderstorm 10 1035 66 10000 4.1 320 19:36 24.11.2019
3833 Clouds 12 1036 58 10000 3.6 120 19:18 24.11.2019
3834 Clouds 12 1036 58 10000 3.6 120 18:54 24.11.2019
3835 Clouds 12 1036 58 10000 3.6 120 18:36 24.11.2019
3836 Clouds 13 1037 50 10000 4.6 90 18:18 24.11.2019
3837 Clouds 13 1037 50 10000 4.6 90 17:41 24.11.2019
3838 Clouds 13 1037 50 10000 4.6 90 17:23 24.11.2019
3839 Clouds 11 1037 62 10000 3.6 160 16:59 24.11.2019
3840 Clouds 11 1037 62 10000 3.6 160 16:41 24.11.2019
3841 Clouds 11 1037 62 10000 3.6 160 16:23 24.11.2019
3842 Clouds 11 1037 62 10000 3.6 160 16:23 24.11.2019
3843 Clouds 10 1038 61 10000 3.1 110 15:56 24.11.2019
3844 Clouds 10 1038 61 10000 3.1 110 15:38 24.11.2019
3845 Clouds 10 1038 61 10000 3.1 110 15:38 24.11.2019
3846 Clouds 10 1038 61 10000 3.1 110 15:20 24.11.2019
3847 Clouds 9 1037 66 10000 1 0 14:40 24.11.2019
3848 Clouds 9 1037 66 10000 1 0 14:20 24.11.2019
3849 Clouds 7 1037 75 10000 1 0 13:59 24.11.2019
3850 Clouds 7 1037 75 10000 1 0 13:38 24.11.2019
3851 Clouds 7 1037 75 10000 1 0 13:19 24.11.2019
3852 Clouds 6 1037 87 10000 1 0 12:56 24.11.2019
3853 Clouds 6 1037 87 10000 1 0 12:37 24.11.2019
3854 Fog 4 1036 93 4000 3.02 46 12:18 24.11.2019
3855 Fog 4 1036 93 4000 3.02 46 11:38 24.11.2019
3856 Fog 4 1036 93 4000 2.46 37 11:19 24.11.2019
3857 Clouds 4 1036 93 10000 1 0 10:55 24.11.2019
3858 Clouds 4 1036 93 10000 1 0 10:37 24.11.2019
3859 Clouds 4 1036 93 10000 1 0 10:19 24.11.2019
3860 Fog 3 1036 93 4000 1 0 09:38 24.11.2019
3861 Fog 3 1036 93 4000 1 0 09:20 24.11.2019
3862 Fog 5 1036 86 4000 1 0 08:57 24.11.2019
3863 Fog 5 1036 86 4000 1 0 08:38 24.11.2019
3864 Fog 5 1036 86 4000 1 0 08:19 24.11.2019
3865 Fog 5 1037 93 4000 3.1 90 07:47 24.11.2019
3866 Fog 5 1037 93 4000 3.1 90 07:21 24.11.2019
3867 Fog 5 1037 93 4000 2.1 120 06:40 24.11.2019
3868 Fog 6 1039 87 4000 3.6 110 04:54 24.11.2019
3869 Fog 6 1039 87 4000 3.6 110 04:35 24.11.2019
3870 Clouds 7 1038 87 10000 2.6 80 02:35 24.11.2019
3871 Clouds 8 1037 81 10000 2.6 110 01:49 24.11.2019
3872 Clouds 8 1037 81 10000 2.6 110 01:27 24.11.2019
3873 Clouds 9 1036 70 10000 4.1 70 00:48 24.11.2019
3874 Clouds 9 1036 70 10000 4.1 70 00:24 24.11.2019
3875 Clouds 11 1035 57 10000 4.1 70 23:56 23.11.2019
3876 Clouds 11 1035 57 10000 4.1 70 23:37 23.11.2019
3877 Clouds 11 1035 57 10000 4.1 70 23:19 23.11.2019
3878 Clouds 11 1034 57 10000 4.6 70 22:55 23.11.2019
3879 Clouds 11 1034 57 10000 4.6 70 22:55 23.11.2019
3880 Clouds 11 1034 57 10000 4.6 70 22:36 23.11.2019
3881 Clouds 11 1034 57 10000 4.6 70 22:18 23.11.2019
3882 Clouds 14 1034 47 10000 5.7 80 21:43 23.11.2019
3883 Clouds 14 1034 47 10000 5.7 80 21:43 23.11.2019
3884 Clouds 14 1034 47 10000 5.7 80 21:23 23.11.2019
3885 Clouds 10 1035 76 10000 6.7 90 20:59 23.11.2019
3886 Clouds 10 1035 76 10000 6.7 90 20:37 23.11.2019
3887 Clouds 10 1035 76 10000 6.7 90 20:18 23.11.2019
3888 Clouds 14 1036 50 10000 6.7 90 19:56 23.11.2019
3889 Clouds 14 1036 50 10000 6.7 90 19:37 23.11.2019
3890 Clouds 14 1036 50 10000 6.7 90 19:37 23.11.2019
3891 Clouds 14 1036 50 10000 6.7 90 19:37 23.11.2019
3892 Clouds 14 1036 50 10000 6.7 90 19:37 23.11.2019
3893 Clouds 14 1036 50 10000 6.7 90 19:18 23.11.2019
3894 Clouds 14 1036 50 10000 6.7 90 19:18 23.11.2019
3895 Clouds 13 1037 62 10000 7.7 90 18:40 23.11.2019
3896 Clouds 13 1037 62 10000 7.7 90 18:40 23.11.2019
3897 Clouds 11 1038 66 10000 7.2 110 18:21 23.11.2019
3898 Clouds 11 1038 66 10000 7.2 110 18:21 23.11.2019
3899 Clouds 11 1038 66 10000 7.2 110 18:21 23.11.2019
3900 Clouds 11 1038 66 10000 7.2 110 17:58 23.11.2019
3901 Clouds 11 1038 66 10000 7.2 110 17:40 23.11.2019
3902 Clouds 11 1038 66 10000 7.2 110 17:20 23.11.2019
3903 Clouds 11 1038 71 10000 4.6 110 16:56 23.11.2019
3904 Clouds 11 1038 71 10000 4.6 110 16:38 23.11.2019
3905 Clouds 11 1038 71 10000 4.6 110 16:20 23.11.2019
3906 Clouds 9 1039 76 6000 3.6 100 15:56 23.11.2019
3907 Clouds 9 1039 76 6000 3.6 100 15:38 23.11.2019
3908 Clouds 9 1039 76 6000 3.6 100 15:18 23.11.2019
3909 Thunderstorm 6 1039 93 4000 4.1 120 14:43 23.11.2019
3910 Thunderstorm 6 1039 93 4000 4.1 120 14:21 23.11.2019
3911 Fog 7 1038 87 4000 3.1 120 13:59 23.11.2019
3912 Fog 7 1038 87 4000 3.1 120 13:40 23.11.2019
3913 Fog 7 1038 87 4000 3.1 120 13:19 23.11.2019
3914 Fog 7 1037 87 4000 1 0 12:44 23.11.2019
3915 Fog 7 1037 87 4000 1 0 12:24 23.11.2019
3916 Fog 7 1037 87 4000 1 0 11:45 23.11.2019
3917 Fog 7 1037 87 4000 1 0 11:24 23.11.2019
3918 Fog 6 1036 93 4000 4.1 100 10:57 23.11.2019
3919 Fog 6 1036 93 4000 4.1 100 10:39 23.11.2019
3920 Fog 6 1036 93 4000 4.1 100 10:18 23.11.2019
3921 Fog 6 1035 93 4000 4.1 80 09:41 23.11.2019
3922 Fog 6 1035 93 4000 4.1 80 09:19 23.11.2019
3923 Clouds 7 1035 87 10000 3.6 90 08:41 23.11.2019
3924 Clouds 7 1035 87 10000 3.6 90 08:19 23.11.2019
3925 Clouds 7 1036 81 10000 3.1 80 07:42 23.11.2019
3926 Clouds 7 1036 81 10000 3.1 80 07:21 23.11.2019
3927 Clouds 8 1037 75 10000 2.6 120 06:42 23.11.2019
3928 Clouds 6 1037 81 10000 2.1 70 06:19 23.11.2019
3929 Clouds 6 1037 81 10000 2.1 70 05:45 23.11.2019
3930 Clouds 6 1037 81 10000 2.1 70 05:26 23.11.2019
3931 Clouds 6 1037 81 10000 2.6 80 04:39 23.11.2019
3932 Clouds 6 1037 81 10000 2.6 80 04:21 23.11.2019
3933 Clouds 8 1036 70 10000 1 0 02:39 23.11.2019
3934 Clouds 9 1035 66 10000 4.1 100 01:42 23.11.2019
3935 Clouds 11 1035 62 10000 4.1 120 00:49 23.11.2019
3936 -273 0 0 0 0 0 00:23 23.11.2019
3937 Clouds 11 1035 62 10000 4.1 120 00:23 23.11.2019
3938 Clouds 11 1035 62 10000 4.1 120 00:22 23.11.2019
3939 Clouds 13 1034 54 10000 5.7 120 23:56 22.11.2019
3940 Clouds 13 1034 54 10000 5.7 120 23:37 22.11.2019
3941 Clouds 13 1034 54 10000 5.7 120 23:18 22.11.2019
3942 Clouds 14 1034 44 10000 6.2 110 22:56 22.11.2019
3943 Clouds 14 1034 44 10000 6.2 110 22:37 22.11.2019
3944 Clouds 14 1034 44 10000 6.2 110 22:18 22.11.2019
3945 Clouds 14 1034 47 10000 6.2 110 21:41 22.11.2019
3946 Clouds 14 1034 47 10000 6.2 110 21:21 22.11.2019
3947 Thunderstorm 13 1035 54 10000 9.3 130 20:55 22.11.2019
3948 Thunderstorm 13 1035 54 10000 9.3 130 20:37 22.11.2019
3949 Thunderstorm 13 1035 54 10000 9.3 130 20:19 22.11.2019
3950 Thunderstorm 14 1036 47 10000 9.3 140 19:39 22.11.2019
3951 Clouds 15 1036 51 10000 5.1 80 19:20 22.11.2019
3952 Clouds 15 1037 41 10000 4.6 120 18:59 22.11.2019
3953 Clouds 15 1037 41 10000 4.6 120 18:38 22.11.2019
3954 Clouds 15 1037 41 10000 4.6 120 18:20 22.11.2019
3955 Clouds 15 1038 44 10000 4.1 120 17:42 22.11.2019
3956 Clouds 15 1038 44 10000 4.1 120 17:22 22.11.2019
3957 Clouds 14 1038 47 10000 4.6 120 16:48 22.11.2019
3958 Clouds 14 1038 47 10000 4.6 120 16:30 22.11.2019
3959 Clouds 13 1039 54 10000 2.1 170 15:58 22.11.2019
3960 Clouds 13 1039 54 10000 2.1 170 15:38 22.11.2019
3961 Clouds 13 1039 54 10000 2.1 170 15:20 22.11.2019
3962 Clouds 12 1039 58 10000 1 0 14:54 22.11.2019
3963 Clouds 12 1039 58 10000 1 0 14:36 22.11.2019
3964 Clouds 12 1039 58 10000 1 0 14:18 22.11.2019
3965 Clouds 11 1038 53 10000 1 0 13:38 22.11.2019
3966 Clouds 11 1038 53 10000 1 0 13:19 22.11.2019
3967 Clouds 6 1037 75 10000 1 0 12:58 22.11.2019
3968 Clouds 6 1037 75 10000 1 0 12:40 22.11.2019
3969 Clouds 6 1037 75 10000 1 0 12:19 22.11.2019
3970 Clouds 3 1037 86 10000 1.35 84 11:56 22.11.2019
3971 Clouds 3 1037 86 10000 1.35 84 11:36 22.11.2019
3972 Clouds 3 1037 86 10000 1.34 47 11:18 22.11.2019
3973 Clouds 3 1036 93 10000 1 0 10:42 22.11.2019
3974 Clouds 3 1036 93 10000 1 0 10:23 22.11.2019
3975 Clouds 4 1036 93 10000 1 0 09:59 22.11.2019
3976 Clouds 4 1036 93 10000 1 0 09:40 22.11.2019
3977 Clouds 4 1036 93 10000 1 0 09:21 22.11.2019
3978 Clouds 4 1036 93 10000 1 0 08:57 22.11.2019
3979 Clouds 4 1036 93 10000 1 0 08:37 22.11.2019
3980 Clouds 4 1036 93 10000 1 0 08:19 22.11.2019
3981 Clouds 4 1037 93 10000 2.1 260 07:40 22.11.2019
3982 Clouds 4 1037 93 10000 2.1 260 07:19 22.11.2019
3983 Clouds 5 1038 86 10000 2.1 220 06:42 22.11.2019
3984 Clouds 5 1038 86 10000 2.1 220 06:18 22.11.2019
3985 Clouds 7 1039 81 10000 3.1 320 04:55 22.11.2019
3986 Rain 5 1039 93 4000 6.2 340 02:59 22.11.2019
3987 Rain 5 1039 93 4000 6.2 340 02:37 22.11.2019
3988 Rain 5 1039 93 4000 6.2 340 02:18 22.11.2019
3989 Thunderstorm 6 1038 93 6000 7.2 320 01:42 22.11.2019
3990 Thunderstorm 6 1038 93 6000 7.2 320 01:18 22.11.2019
3991 Thunderstorm 8 1036 81 8000 8.2 290 00:26 22.11.2019
3992 Clouds 11 1035 53 10000 4.6 340 23:57 21.11.2019
3993 Thunderstorm 11 1034 57 8000 4.6 140 23:39 21.11.2019
3994 Thunderstorm 11 1034 57 8000 4.6 140 23:21 21.11.2019
3995 Thunderstorm 14 1034 44 10000 3.1 80 22:54 21.11.2019
3996 Clouds 15 1033 41 10000 6.7 60 22:36 21.11.2019
3997 Clouds 15 1033 41 10000 6.7 60 22:18 21.11.2019
3998 Clouds 18 1033 27 10000 4.1 130 21:54 21.11.2019
3999 Clouds 18 1033 27 10000 4.1 130 21:36 21.11.2019
4000 Clouds 18 1033 27 10000 4.1 130 21:18 21.11.2019
4001 Clouds 18 1034 25 10000 5.7 120 20:39 21.11.2019
4002 Clouds 18 1034 25 10000 5.7 120 20:19 21.11.2019
4003 Clouds 17 1035 27 10000 6.2 110 19:59 21.11.2019
4004 Clouds 17 1035 27 10000 6.2 110 19:59 21.11.2019
4005 Clouds 17 1035 27 10000 6.2 110 19:41 21.11.2019
4006 Clouds 17 1035 27 10000 6.2 110 19:23 21.11.2019
4007 Clouds 17 1037 61 10000 5.7 140 18:58 21.11.2019
4008 Clouds 17 1037 61 10000 5.7 140 18:40 21.11.2019
4009 Clouds 17 1037 61 10000 5.7 140 18:20 21.11.2019
4010 Clouds 15 1038 41 10000 4.6 120 17:58 21.11.2019
4011 Clouds 15 1038 41 10000 4.6 120 17:39 21.11.2019
4012 Clouds 15 1038 41 10000 4.6 120 17:20 21.11.2019
4013 Clouds 14 1038 47 10000 3.1 110 16:55 21.11.2019
4014 Clouds 14 1038 47 10000 3.1 110 16:37 21.11.2019
4015 Clouds 14 1038 47 10000 3.1 110 16:18 21.11.2019
4016 Clouds 13 1039 54 10000 3.1 100 15:42 21.11.2019
4017 Clouds 13 1039 54 10000 3.1 100 15:20 21.11.2019
4018 Clouds 11 1039 62 10000 4.1 110 14:57 21.11.2019
4019 Clouds 11 1039 62 10000 4.1 110 14:37 21.11.2019
4020 Clouds 11 1039 62 10000 4.1 110 14:19 21.11.2019
4021 Clouds 9 1039 70 6000 4.1 80 13:40 21.11.2019
4022 Clouds 9 1039 70 6000 4.1 80 13:21 21.11.2019
4023 Fog 7 1038 93 4000 4.1 90 12:59 21.11.2019
4024 Fog 7 1038 93 4000 4.1 90 12:39 21.11.2019
4025 Fog 7 1038 93 4000 4.1 90 12:20 21.11.2019
4026 Fog 4 1037 93 4000 3.1 70 11:43 21.11.2019
4027 Fog 4 1037 93 4000 3.1 70 11:23 21.11.2019
4028 Fog 5 1037 93 4000 2.6 70 10:59 21.11.2019
4029 Fog 5 1037 93 4000 2.6 70 10:41 21.11.2019
4030 Fog 5 1037 93 4000 2.6 70 10:23 21.11.2019
4031 Fog 3 1037 93 4000 3.6 70 09:57 21.11.2019
4032 Fog 3 1037 93 4000 3.6 70 09:57 21.11.2019
4033 Fog 3 1037 93 4000 3.6 70 09:39 21.11.2019
4034 Fog 3 1037 93 4000 3.6 70 09:20 21.11.2019
4035 Fog 4 1037 93 4000 2.6 70 08:42 21.11.2019
4036 Fog 4 1037 93 4000 2.6 70 08:20 21.11.2019
4037 Fog 5 1037 93 4000 3.1 60 07:43 21.11.2019
4038 Fog 5 1037 93 4000 3.1 60 07:18 21.11.2019
4039 Clouds 4 1038 86 10000 2.6 100 06:57 21.11.2019
4040 Clouds 4 1038 86 10000 2.6 100 06:34 21.11.2019
4041 Clouds 7 1039 81 10000 1 0 05:38 21.11.2019
4042 Clouds 7 1038 70 10000 2.6 90 03:34 21.11.2019
4043 Clouds 8 1037 61 10000 4.6 80 02:42 21.11.2019
4044 Clouds 8 1037 61 10000 4.6 80 02:20 21.11.2019
4045 Clouds 9 1037 57 10000 4.1 70 01:42 21.11.2019
4046 Clouds 11 1036 43 10000 4.6 50 00:56 21.11.2019
4047 Clouds 11 1036 43 10000 4.6 50 00:22 21.11.2019
4048 Clouds 14 1036 35 10000 5.1 60 23:59 20.11.2019
4049 Clouds 14 1036 35 10000 5.1 60 23:40 20.11.2019
4050 Clouds 14 1036 35 10000 5.1 60 23:20 20.11.2019
4051 Clouds 16 1035 29 10000 5.1 120 22:55 20.11.2019
4052 Clouds 16 1035 29 10000 5.1 120 22:37 20.11.2019
4053 -273 0 0 0 0 0 22:18 20.11.2019
4054 Clouds 16 1036 31 10000 5.1 110 21:55 20.11.2019
4055 Clouds 16 1036 31 10000 5.1 110 21:37 20.11.2019
4056 Clouds 16 1036 31 10000 5.1 110 21:18 20.11.2019
4057 Clouds 15 1037 71 10000 5.1 120 20:54 20.11.2019
4058 Clouds 15 1037 71 10000 5.1 120 20:36 20.11.2019
4059 Clouds 15 1037 71 10000 5.1 120 20:18 20.11.2019
4060 Clouds 15 1038 71 10000 6.2 110 19:54 20.11.2019
4061 Clouds 15 1038 71 10000 6.2 110 19:36 20.11.2019
4062 Clouds 15 1038 71 10000 6.2 110 19:18 20.11.2019
4063 Clouds 15 1039 71 10000 5.1 120 18:41 20.11.2019
4064 Clouds 15 1039 71 10000 5.1 120 18:23 20.11.2019
4065 Clouds 14 1040 71 10000 4.6 80 17:59 20.11.2019
4066 Clouds 14 1040 71 10000 4.6 80 17:59 20.11.2019
4067 Clouds 14 1040 71 10000 4.6 80 17:40 20.11.2019
4068 Clouds 14 1040 71 10000 4.6 80 17:39 20.11.2019
4069 Clouds 14 1040 71 10000 4.6 80 17:21 20.11.2019
4070 Clouds 14 1040 71 10000 4.6 80 17:21 20.11.2019
4071 Clouds 13 1040 71 10000 4.6 110 16:58 20.11.2019
4072 Clouds 13 1040 71 10000 4.6 110 16:39 20.11.2019
4073 Clouds 13 1040 71 10000 4.6 110 16:20 20.11.2019
4074 Clouds 11 1041 71 10000 4.6 90 15:57 20.11.2019
4075 Clouds 11 1041 71 10000 4.6 90 15:38 20.11.2019
4076 Clouds 11 1041 71 10000 4.6 90 15:19 20.11.2019
4077 Clouds 10 1041 53 10000 4.1 120 14:41 20.11.2019
4078 Clouds 10 1041 53 10000 4.1 120 14:22 20.11.2019
4079 Clouds 9 1040 45 10000 3.6 100 13:59 20.11.2019
4080 Clouds 9 1040 45 10000 3.6 100 13:40 20.11.2019
4081 Clouds 9 1040 45 10000 3.6 100 13:21 20.11.2019
4082 Clouds 7 1040 65 10000 2.1 70 12:59 20.11.2019
4083 Clouds 7 1040 65 10000 2.1 70 12:38 20.11.2019
4084 Clouds 7 1040 65 10000 2.1 70 12:19 20.11.2019
4085 Clouds 3 1039 64 10000 3.6 60 11:45 20.11.2019
4086 Clouds 3 1039 64 10000 3.6 60 11:23 20.11.2019
4087 Clouds 3 1039 74 10000 3.6 70 10:57 20.11.2019
4088 Clouds 3 1039 74 10000 3.6 70 10:57 20.11.2019
4089 Clouds 3 1039 74 10000 3.6 70 10:39 20.11.2019
4090 Clouds 3 1039 74 10000 3.6 70 10:20 20.11.2019
4091 Clouds 4 1038 64 10000 4.1 50 09:56 20.11.2019
4092 Clouds 4 1038 64 10000 4.1 50 09:37 20.11.2019
4093 Clouds 4 1038 64 10000 4.1 50 09:19 20.11.2019
4094 Clouds 4 1038 93 10000 2.1 70 08:41 20.11.2019
4095 Clouds 4 1038 93 10000 2.1 70 08:23 20.11.2019
4096 Clouds 5 1038 80 10000 3.1 80 07:48 20.11.2019
4097 Clouds 5 1038 80 10000 3.1 80 07:30 20.11.2019
4098 Clouds 6 1039 75 10000 4.1 70 06:55 20.11.2019
4099 Clouds 6 1039 75 10000 4.1 70 06:36 20.11.2019
4100 Clouds 6 1039 75 10000 4.1 70 06:18 20.11.2019
4101 Clouds 7 1039 70 10000 3.1 100 03:55 20.11.2019
4102 Clouds 7 1038 65 10000 2.6 80 02:22 20.11.2019
4103 Clouds 8 1037 61 10000 2.6 80 01:34 20.11.2019
4104 Clouds 9 1037 82 10000 4.6 50 00:44 20.11.2019
4105 Clouds 9 1037 82 10000 4.6 50 00:18 20.11.2019
4106 Clouds 13 1036 82 10000 5.7 100 23:39 19.11.2019
4107 Clouds 13 1036 69 10000 5.7 100 23:20 19.11.2019
4108 Clouds 14 1036 33 10000 4.6 60 22:42 19.11.2019
4109 Clouds 14 1036 33 10000 4.6 60 22:19 19.11.2019
4110 Clouds 16 1036 29 10000 6.2 110 21:58 19.11.2019
4111 Clouds 16 1036 29 10000 6.2 110 21:38 19.11.2019
4112 Clouds 16 1036 29 10000 6.2 110 21:20 19.11.2019
4113 Clouds 16 1036 29 10000 6.2 110 21:20 19.11.2019
4114 Clouds 15 1037 33 10000 6.7 70 20:58 19.11.2019
4115 Clouds 15 1037 33 10000 6.7 70 20:39 19.11.2019
4116 Clouds 15 1037 33 10000 6.7 70 20:21 19.11.2019
4117 Clouds 15 1038 33 10000 5.7 60 19:59 19.11.2019
4118 Clouds 15 1038 33 10000 5.7 60 19:41 19.11.2019
4119 Clouds 15 1038 33 10000 5.7 60 19:19 19.11.2019
4120 Clouds 15 1039 74 10000 5.1 90 18:57 19.11.2019
4121 Clouds 15 1039 74 10000 5.1 90 18:38 19.11.2019
4122 Clouds 15 1039 74 10000 5.1 90 18:18 19.11.2019
4123 Rain 13 1040 47 10000 5.7 120 17:56 19.11.2019
4124 Rain 13 1040 47 10000 5.7 120 17:37 19.11.2019
4125 Rain 13 1040 47 10000 5.7 120 17:18 19.11.2019
4126 Clouds 13 1040 47 10000 4.6 110 16:55 19.11.2019
4127 Clouds 13 1040 47 10000 4.6 110 16:37 19.11.2019
4128 Clouds 13 1040 47 10000 4.6 110 16:18 19.11.2019
4129 Clouds 11 1040 53 10000 4.1 140 15:41 19.11.2019
4130 Clouds 11 1040 53 10000 4.1 140 15:23 19.11.2019
4131 Clouds 10 1040 57 10000 4.6 120 14:56 19.11.2019
4132 Clouds 10 1040 57 10000 4.6 120 14:56 19.11.2019
4133 Clouds 10 1040 57 10000 4.6 120 14:37 19.11.2019
4134 Clouds 10 1040 57 10000 4.6 120 14:19 19.11.2019
4135 Clouds 8 1040 93 10000 3.6 80 13:41 19.11.2019
4136 Clouds 8 1040 90 10000 3.6 80 13:19 19.11.2019
4137 Clouds 6 1039 60 10000 3.6 80 12:41 19.11.2019
4138 Clouds 6 1039 60 10000 3.6 80 12:23 19.11.2019
4139 Clouds 6 1039 60 10000 3.6 80 12:23 19.11.2019
4140 Clouds 5 1038 65 10000 4.6 60 11:58 19.11.2019
4141 Clouds 5 1038 65 10000 4.6 60 11:38 19.11.2019
4142 Clouds 5 1038 65 10000 4.6 60 11:19 19.11.2019
4143 Clouds 5 1038 85 10000 5.1 50 10:48 19.11.2019
4144 Clouds 5 1038 85 10000 5.1 50 10:23 19.11.2019
4145 Clouds 5 1038 85 10000 5.1 50 10:23 19.11.2019
4146 Clouds 5 1037 65 10000 5.7 50 09:58 19.11.2019
4147 Clouds 5 1037 65 10000 5.7 50 09:40 19.11.2019
4148 Clouds 5 1037 65 10000 5.7 50 09:19 19.11.2019
4149 Clouds 5 1037 65 10000 7.7 50 08:41 19.11.2019
4150 Clouds 5 1037 65 10000 7.7 50 08:23 19.11.2019
4151 Clouds 6 1037 70 10000 2.6 80 07:57 19.11.2019
4152 Clouds 6 1037 70 10000 2.6 80 07:38 19.11.2019
4153 Clouds 6 1037 70 10000 2.6 80 07:20 19.11.2019
4154 Clouds 6 1038 70 10000 6.2 40 06:49 19.11.2019
4155 Clouds 6 1038 70 10000 6.2 40 06:29 19.11.2019
4156 Clouds 8 1038 70 10000 3.1 130 05:24 19.11.2019
4157 Clouds 9 1037 57 10000 7.2 70 03:47 19.11.2019
4158 Clouds 9 1037 57 10000 7.2 70 03:29 19.11.2019
4159 Clouds 9 1036 57 10000 6.2 60 02:53 19.11.2019
4160 Clouds 9 1036 61 10000 6.2 60 01:58 19.11.2019
4161 Clouds 11 1034 50 10000 5.1 60 00:59 19.11.2019
4162 Clouds 11 1034 50 10000 5.1 60 00:21 19.11.2019
4163 Clouds 13 1033 43 10000 5.1 40 23:56 18.11.2019
4164 Clouds 13 1033 43 10000 5.1 40 23:37 18.11.2019
4165 Clouds 13 1033 43 10000 5.1 40 23:18 18.11.2019
4166 Clouds 16 1033 36 10000 5.1 50 22:42 18.11.2019
4167 Clouds 16 1033 36 10000 5.1 50 22:23 18.11.2019
4168 Clouds 17 1033 64 10000 5.7 50 21:54 18.11.2019
4169 Clouds 17 1033 64 10000 5.7 50 21:54 18.11.2019
4170 Clouds 17 1033 64 10000 5.7 50 21:36 18.11.2019
4171 Clouds 17 1033 64 10000 5.7 50 21:36 18.11.2019
4172 Clouds 17 1033 64 10000 5.7 50 21:18 18.11.2019
4173 Clouds 16 1034 36 10000 6.2 60 20:41 18.11.2019
4174 Clouds 16 1034 36 10000 6.2 60 20:20 18.11.2019
4175 Clouds 15 1036 41 10000 7.2 50 19:58 18.11.2019
4176 Clouds 15 1036 41 10000 7.2 50 19:38 18.11.2019
4177 Clouds 15 1036 41 10000 7.2 50 19:20 18.11.2019
4178 Clouds 15 1036 33 10000 5.1 110 18:56 18.11.2019
4179 Clouds 15 1036 33 10000 5.1 110 18:38 18.11.2019
4180 Clouds 15 1036 33 10000 5.1 110 18:19 18.11.2019
4181 Clouds 15 1037 41 10000 4.6 110 17:59 18.11.2019
4182 Clouds 15 1037 41 10000 4.6 110 17:37 18.11.2019
4183 Clouds 15 1037 41 10000 4.6 110 17:19 18.11.2019
4184 Clouds 15 1037 41 10000 4.6 110 17:19 18.11.2019
4185 Clouds 13 1038 50 10000 5.1 100 16:43 18.11.2019
4186 Clouds 13 1038 50 10000 5.1 100 16:43 18.11.2019
4187 Clouds 13 1038 50 10000 5.1 100 16:24 18.11.2019
4188 Clouds 11 1038 57 10000 4.1 140 15:58 18.11.2019
4189 Clouds 11 1038 57 10000 4.1 140 15:39 18.11.2019
4190 Clouds 11 1038 57 10000 4.1 140 15:20 18.11.2019
4191 Clouds 10 1038 66 10000 4.1 100 14:56 18.11.2019
4192 Clouds 10 1038 66 10000 4.1 100 14:37 18.11.2019
4193 Clouds 10 1038 66 10000 4.1 100 14:18 18.11.2019
4194 Clouds 9 1037 70 6000 4.1 100 13:42 18.11.2019
4195 Clouds 9 1037 70 6000 4.1 100 13:23 18.11.2019
4196 Clouds 7 1037 81 6000 4.1 90 12:40 18.11.2019
4197 Clouds 7 1037 81 6000 4.1 90 12:20 18.11.2019
4198 Fog 5 1036 86 4000 2.6 90 11:56 18.11.2019
4199 Fog 5 1036 86 4000 2.6 90 11:37 18.11.2019
4200 Fog 5 1036 86 4000 2.6 90 11:19 18.11.2019
4201 Fog 4 1036 93 4000 2.6 80 10:42 18.11.2019
4202 -273 0 0 0 0 0 10:23 18.11.2019
4203 Fog 5 1036 93 4000 3.6 100 09:57 18.11.2019
4204 Fog 5 1036 93 4000 3.6 100 09:38 18.11.2019
4205 Fog 5 1036 93 4000 3.6 100 09:19 18.11.2019
4206 Fog 5 1036 93 4000 3.6 100 09:19 18.11.2019
4207 Clouds 6 1036 87 10000 4.1 120 08:46 18.11.2019
4208 Clouds 6 1036 87 10000 4.1 120 08:24 18.11.2019
4209 Fog 6 1036 93 4000 4.1 140 07:49 18.11.2019
4210 Fog 6 1036 93 4000 4.1 140 07:31 18.11.2019
4211 Clouds 5 1035 86 10000 3.1 100 06:59 18.11.2019
4212 Clouds 5 1035 86 10000 3.1 100 06:41 18.11.2019
4213 Clouds 5 1035 86 10000 3.1 100 06:41 18.11.2019
4214 Clouds 5 1035 86 10000 3.1 100 06:21 18.11.2019
4215 Clouds 6 1035 81 10000 3.1 100 05:25 18.11.2019
4216 Clouds 9 1036 66 10000 4.6 120 03:30 18.11.2019
4217 Clouds 9 1034 57 10000 4.1 60 01:37 18.11.2019
4218 Clouds 10 1033 53 10000 4.1 50 00:46 18.11.2019
4219 Clouds 13 1032 37 10000 5.7 120 23:57 17.11.2019
4220 Clouds 13 1032 37 10000 5.7 120 23:39 17.11.2019
4221 Clouds 13 1032 37 10000 5.7 120 23:19 17.11.2019
4222 Clouds 16 1032 63 10000 4.6 100 22:54 17.11.2019
4223 Clouds 16 1032 63 10000 4.6 100 22:36 17.11.2019
4224 Clouds 16 1032 63 10000 4.6 100 22:18 17.11.2019
4225 Clouds 16 1032 63 10000 4.1 100 21:42 17.11.2019
4226 Clouds 16 1032 63 10000 4.1 100 21:20 17.11.2019
4227 Clouds 16 1032 63 10000 7.2 100 20:58 17.11.2019
4228 Clouds 16 1032 63 10000 7.2 100 20:39 17.11.2019
4229 Clouds 16 1032 54 10000 7.2 100 20:20 17.11.2019
4230 Clouds 16 1034 54 10000 7.2 90 19:56 17.11.2019
4231 Clouds 16 1034 54 10000 7.2 90 19:38 17.11.2019
4232 Clouds 16 1034 54 10000 7.2 90 19:38 17.11.2019
4233 Clouds 16 1034 54 10000 7.2 90 19:38 17.11.2019
4234 Clouds 16 1034 54 10000 7.2 90 19:20 17.11.2019
4235 Clouds 15 1035 38 10000 6.7 90 18:56 17.11.2019
4236 Clouds 15 1035 38 10000 6.7 90 18:38 17.11.2019
4237 Clouds 15 1035 38 10000 6.7 90 18:19 17.11.2019
4238 Clouds 15 1035 38 10000 4.1 130 17:57 17.11.2019
4239 Clouds 15 1035 38 10000 4.1 130 17:57 17.11.2019
4240 Clouds 15 1035 38 10000 4.1 130 17:39 17.11.2019
4241 Clouds 15 1035 38 10000 4.1 130 17:20 17.11.2019
4242 Clouds 13 1036 43 10000 4.6 120 16:58 17.11.2019
4243 Clouds 13 1036 43 10000 4.6 120 16:40 17.11.2019
4244 Clouds 13 1036 43 10000 4.6 120 16:21 17.11.2019
4245 Clouds 12 1037 46 10000 5.1 120 15:55 17.11.2019
4246 Clouds 12 1037 46 10000 5.1 120 15:36 17.11.2019
4247 Clouds 12 1037 46 10000 5.1 120 15:36 17.11.2019
4248 Clouds 12 1037 46 10000 5.1 120 15:18 17.11.2019
4249 Clouds 10 1037 61 10000 5.1 110 14:55 17.11.2019
4250 Clouds 10 1037 61 10000 5.1 110 14:37 17.11.2019
4251 Clouds 10 1037 61 10000 5.1 110 14:18 17.11.2019
4252 Clouds 9 1036 61 6000 5.1 110 13:41 17.11.2019
4253 Clouds 9 1036 61 6000 5.1 110 13:22 17.11.2019
4254 Fog 5 1035 93 4000 5.1 90 13:00 17.11.2019
4255 Fog 5 1035 93 4000 5.1 90 12:38 17.11.2019
4256 Fog 5 1035 93 4000 5.1 90 12:19 17.11.2019
4257 Fog 3 1035 93 4000 3.1 60 11:56 17.11.2019
4258 Fog 3 1035 93 4000 3.1 60 11:38 17.11.2019
4259 Fog 3 1035 93 4000 3.1 60 11:19 17.11.2019
4260 Fog 1 1034 89 4000 2.6 70 10:41 17.11.2019
4261 Fog 1 1034 89 4000 2.6 70 10:22 17.11.2019
4262 Fog 4 1034 86 4000 1 0 09:43 17.11.2019
4263 Fog 4 1034 86 4000 1 0 09:24 17.11.2019
4264 Fog 4 1034 86 4000 1 0 09:24 17.11.2019
4265 Clouds 5 1033 75 10000 1 0 08:57 17.11.2019
4266 Clouds 3 1015 89 0 2.27 35 08:37 17.11.2019
4267 Clouds 8 1034 49 10000 2.1 120 08:18 17.11.2019
4268 Clouds 8 1034 49 10000 2.1 120 07:42 17.11.2019
4269 Clouds 8 1034 49 10000 2.1 120 07:42 17.11.2019
4270 Clouds 8 1034 49 10000 2.1 120 07:21 17.11.2019
4271 Clouds 8 1035 52 10000 2.6 80 06:55 17.11.2019
4272 Clouds 8 1035 52 10000 2.6 80 06:30 17.11.2019
4273 Clouds 8 1035 52 10000 2.6 80 06:30 17.11.2019
4274 Clouds 8 1035 42 10000 2.1 70 05:39 17.11.2019
4275 Clouds 9 1035 31 10000 3.6 70 04:18 17.11.2019
4276 Clouds 9 1035 23 10000 4.1 60 03:39 17.11.2019
4277 Clouds 9 1035 23 10000 4.1 60 03:20 17.11.2019
4278 Clouds 10 1034 27 10000 4.6 60 01:59 17.11.2019
4279 Clouds 10 1034 27 10000 4.6 60 01:21 17.11.2019
4280 Clouds 11 1033 29 10000 5.1 50 00:41 17.11.2019
4281 Clouds 11 1033 29 10000 5.1 50 00:21 17.11.2019
4282 Clouds 12 1033 30 10000 4.6 100 23:42 16.11.2019
4283 Clouds 12 1033 30 10000 4.6 100 23:19 16.11.2019
4284 Clouds 14 1033 28 10000 6.2 90 22:43 16.11.2019
4285 Clouds 14 1033 28 10000 6.2 90 22:20 16.11.2019
4286 Clouds 14 1033 28 10000 6.2 100 21:59 16.11.2019
4287 Clouds 14 1033 28 10000 6.2 100 21:40 16.11.2019
4288 Clouds 14 1033 28 10000 6.2 100 21:21 16.11.2019
4289 Clouds 15 1033 28 10000 6.2 110 20:58 16.11.2019
4290 Clouds 15 1033 28 10000 6.2 110 20:39 16.11.2019
4291 Clouds 15 1033 28 10000 6.2 110 20:19 16.11.2019
4292 Clouds 15 1034 33 10000 5.7 100 19:41 16.11.2019
4293 Clouds 15 1034 33 10000 5.7 100 19:22 16.11.2019
4294 Clouds 15 1035 41 10000 5.7 100 18:59 16.11.2019
4295 Clouds 15 1035 41 10000 5.7 100 18:39 16.11.2019
4296 Clouds 15 1035 41 10000 5.7 100 18:20 16.11.2019
4297 Clouds 14 1036 66 10000 3.6 130 17:55 16.11.2019
4298 Clouds 14 1036 66 10000 3.6 130 17:36 16.11.2019
4299 Clouds 14 1036 66 10000 3.6 130 17:18 16.11.2019
4300 Clouds 12 1036 50 10000 4.1 150 16:44 16.11.2019
4301 Clouds 12 1036 50 10000 4.1 150 16:26 16.11.2019
4302 Clouds 11 1037 57 10000 4.6 110 15:54 16.11.2019
4303 Clouds 11 1037 57 10000 4.6 110 15:36 16.11.2019
4304 Clouds 11 1037 57 10000 4.6 110 15:18 16.11.2019
4305 Clouds 9 1037 70 6000 4.1 100 14:40 16.11.2019
4306 Clouds 9 1037 70 6000 4.1 100 14:21 16.11.2019
4307 Clouds 9 1037 70 6000 4.1 100 14:21 16.11.2019
4308 Clouds 8 1036 75 6000 4.6 100 13:56 16.11.2019
4309 Clouds 8 1036 75 6000 4.6 100 13:38 16.11.2019
4310 Clouds 8 1036 75 6000 4.6 100 13:19 16.11.2019
4311 Fog 5 1036 93 4000 4.1 80 12:58 16.11.2019
4312 Fog 5 1036 93 4000 4.1 80 12:58 16.11.2019
4313 Fog 5 1036 93 4000 4.1 80 12:58 16.11.2019
4314 Fog 5 1036 93 4000 4.1 80 12:58 16.11.2019
4315 Fog 5 1036 93 4000 4.1 80 12:39 16.11.2019
4316 Fog 5 1036 93 4000 4.1 80 12:20 16.11.2019
4317 Fog 4 1035 93 3000 3.1 80 11:44 16.11.2019
4318 Fog 4 1035 93 3000 3.1 80 11:26 16.11.2019
4319 Fog 4 1035 93 4000 3.6 80 10:56 16.11.2019
4320 Fog 4 1035 93 4000 3.6 80 10:38 16.11.2019
4321 Fog 4 1035 93 4000 3.6 80 10:20 16.11.2019
4322 Fog 4 1035 100 4000 3.6 110 09:43 16.11.2019
4323 Fog 4 1035 100 4000 3.6 110 09:21 16.11.2019
4324 Fog 4 1035 93 4000 3.1 70 08:58 16.11.2019
4325 Rain 4 1016 88 0 0.54 234 08:37 16.11.2019
4326 Fog 5 1036 93 4000 5.1 90 08:18 16.11.2019
4327 Fog 5 1036 93 4000 5.1 90 07:41 16.11.2019
4328 Fog 5 1036 93 4000 5.1 90 07:41 16.11.2019
4329 Fog 5 1036 93 4000 5.1 90 07:20 16.11.2019
4330 Fog 5 1036 93 4000 4.1 100 06:45 16.11.2019
4331 Fog 5 1036 93 4000 4.1 100 06:26 16.11.2019
4332 Clouds 7 1037 87 10000 2.6 140 04:50 16.11.2019
4333 Clouds 7 1037 81 10000 2.38 38 03:27 16.11.2019
4334 Clouds 7 1037 81 10000 2.38 38 03:27 16.11.2019
4335 Clouds 7 1037 81 10000 2.38 38 03:27 16.11.2019
4336 Clouds 7 1037 81 10000 1 0 02:55 16.11.2019
4337 Clouds 7 1037 81 10000 1 0 02:55 16.11.2019
4338 Clouds 9 1036 70 10000 2.1 100 01:44 16.11.2019
4339 Clouds 9 1036 70 10000 2.1 100 01:18 16.11.2019
4340 Clouds 10 1035 61 10000 3.6 100 00:37 16.11.2019
4341 Clouds 10 1035 61 10000 3.6 100 00:18 16.11.2019
4342 Clouds 13 1034 47 10000 4.6 120 23:39 15.11.2019
4343 Clouds 13 1034 47 10000 4.6 120 23:20 15.11.2019
4344 Clouds 13 1034 47 10000 4.6 120 23:20 15.11.2019
4345 Clouds 15 1034 44 10000 4.1 100 22:43 15.11.2019
4346 Clouds 15 1034 44 10000 4.1 100 22:20 15.11.2019
4347 Clouds 15 1034 44 10000 6.2 140 22:00 15.11.2019
4348 Clouds 15 1034 44 10000 6.2 140 21:40 15.11.2019
4349 Clouds 15 1034 44 10000 6.2 140 21:40 15.11.2019
4350 Clouds 15 1034 44 10000 6.2 140 21:20 15.11.2019
4351 Clouds 15 1035 47 10000 4.6 120 20:57 15.11.2019
4352 Clouds 15 1035 47 10000 4.6 120 20:39 15.11.2019
4353 Clouds 15 1035 47 10000 4.6 120 20:39 15.11.2019
4354 Clouds 15 1035 47 10000 4.6 120 20:21 15.11.2019
4355 Clouds 14 1036 47 10000 5.1 120 19:57 15.11.2019
4356 Clouds 14 1036 47 10000 5.1 120 19:39 15.11.2019
4357 Clouds 14 1036 47 10000 5.1 120 19:20 15.11.2019
4358 Clouds 13 1037 54 10000 4.1 90 18:56 15.11.2019
4359 Clouds 13 1037 54 10000 4.1 90 18:38 15.11.2019
4360 Clouds 13 1037 54 10000 4.1 90 18:20 15.11.2019
4361 Clouds 13 1038 54 10000 3.6 100 17:42 15.11.2019
4362 Clouds 13 1038 54 10000 3.6 100 17:42 15.11.2019
4363 Clouds 13 1038 54 10000 3.6 100 17:24 15.11.2019
4364 Clouds 11 1038 66 10000 5.1 100 16:56 15.11.2019
4365 Clouds 11 1038 66 10000 5.1 100 16:37 15.11.2019
4366 Clouds 11 1038 66 10000 5.1 100 16:19 15.11.2019
4367 Clouds 9 1039 70 10000 3.6 120 15:38 15.11.2019
4368 Clouds 9 1039 70 10000 3.6 120 15:20 15.11.2019
4369 Clouds 7 1039 81 6000 4.6 110 14:57 15.11.2019
4370 Clouds 7 1039 81 6000 4.6 110 14:38 15.11.2019
4371 Clouds 7 1039 81 6000 4.6 110 14:19 15.11.2019
4372 Clouds 7 1038 81 6000 2.1 190 13:57 15.11.2019
4373 Clouds 7 1038 81 6000 2.1 190 13:39 15.11.2019
4374 Clouds 7 1038 81 6000 2.1 190 13:20 15.11.2019
4375 Clouds 5 1037 93 10000 1 0 12:57 15.11.2019
4376 Clouds 5 1037 93 10000 1 0 12:39 15.11.2019
4377 Clouds 5 1037 93 10000 1 0 12:19 15.11.2019
4378 Clouds 4 1037 93 8000 3.1 90 11:56 15.11.2019
4379 Clouds 4 1037 93 8000 3.1 90 11:37 15.11.2019
4380 Clouds 4 1037 93 8000 3.1 90 11:37 15.11.2019
4381 Clouds 4 1037 93 8000 3.1 90 11:19 15.11.2019
4382 Clouds 4 1037 93 7000 4.1 100 10:40 15.11.2019
4383 Clouds 4 1037 93 7000 4.1 100 10:22 15.11.2019
4384 Clouds 4 1036 93 7000 3.1 80 09:58 15.11.2019
4385 Clouds 4 1036 93 7000 3.1 80 09:40 15.11.2019
4386 Clouds 4 1036 93 7000 3.1 80 09:19 15.11.2019
4387 Clouds 5 1037 93 7000 3.6 80 08:43 15.11.2019
4388 Clouds 5 1037 93 7000 3.6 80 08:22 15.11.2019
4389 Clouds 5 1037 93 7000 3.6 80 08:22 15.11.2019
4390 Rain 5 1037 86 7000 2.1 20 07:47 15.11.2019
4391 Rain 5 1037 86 7000 2.1 20 07:27 15.11.2019
4392 Rain 4 1038 93 7000 3.1 340 06:38 15.11.2019
4393 Thunderstorm 4 1039 93 5000 4.6 330 05:58 15.11.2019
4394 Thunderstorm 4 1039 93 5000 4.6 330 05:39 15.11.2019
4395 Thunderstorm 4 1039 93 5000 4.6 330 05:39 15.11.2019
4396 Thunderstorm 5 1039 93 8000 5.1 250 04:58 15.11.2019
4397 Fog 7 1038 93 4000 3.6 120 03:46 15.11.2019
4398 Clouds 7 1037 87 10000 2.6 60 02:51 15.11.2019
4399 Clouds 7 1037 87 10000 2.6 60 02:18 15.11.2019
4400 Clouds 8 1035 87 10000 4.6 110 01:32 15.11.2019
4401 Clouds 9 1034 66 10000 4.1 50 00:46 15.11.2019
4402 Clouds 9 1034 66 10000 4.1 50 00:27 15.11.2019
4403 Thunderstorm 10 1034 76 10000 6.2 80 23:49 14.11.2019
4404 Thunderstorm 10 1034 76 10000 6.2 80 23:27 14.11.2019
4405 Thunderstorm 11 1033 66 10000 5.7 100 22:55 14.11.2019
4406 Thunderstorm 11 1033 66 10000 5.7 100 22:37 14.11.2019
4407 Thunderstorm 11 1033 66 10000 5.7 100 22:19 14.11.2019
4408 Thunderstorm 12 1033 58 10000 7.2 90 21:42 14.11.2019
4409 Thunderstorm 12 1033 58 10000 7.2 90 21:22 14.11.2019
4410 Clouds 12 1034 62 10000 5.1 80 20:55 14.11.2019
4411 Clouds 12 1034 62 10000 5.1 80 20:37 14.11.2019
4412 Clouds 12 1034 62 10000 5.1 80 20:19 14.11.2019
4413 Thunderstorm 12 1035 58 10000 3.6 30 19:56 14.11.2019
4414 Thunderstorm 12 1035 58 10000 3.6 30 19:37 14.11.2019
4415 Thunderstorm 12 1035 58 10000 3.6 30 19:18 14.11.2019
4416 Thunderstorm 10 1036 71 8000 4.6 10 18:42 14.11.2019
4417 Thunderstorm 10 1036 71 8000 4.6 10 18:24 14.11.2019
4418 Thunderstorm 10 1036 71 8000 4.6 10 17:57 14.11.2019
4419 Thunderstorm 13 1036 54 10000 3.1 100 17:38 14.11.2019
4420 Clouds 12 1037 62 9000 2.1 100 17:20 14.11.2019
4421 Clouds 12 1037 62 9000 2.1 100 16:58 14.11.2019
4422 Clouds 12 1037 62 9000 2.1 100 16:37 14.11.2019
4423 Clouds 12 1037 62 9000 2.1 100 16:19 14.11.2019
4424 Clouds 12 1038 58 9000 1 0 15:58 14.11.2019
4425 Clouds 12 1038 58 9000 1 0 15:38 14.11.2019
4426 Clouds 12 1038 58 9000 1 0 15:20 14.11.2019
4427 Clouds 11 1037 66 9000 1 0 14:46 14.11.2019
4428 Clouds 11 1037 66 9000 1 0 14:23 14.11.2019
4429 Clouds 8 1037 81 6000 1 0 13:58 14.11.2019
4430 Clouds 8 1037 81 6000 1 0 13:39 14.11.2019
4431 Clouds 8 1037 81 6000 1 0 13:20 14.11.2019
4432 Fog 6 1036 93 4000 2.1 90 12:56 14.11.2019
4433 Fog 6 1036 93 4000 2.1 90 12:37 14.11.2019
4434 Fog 6 1036 93 4000 2.1 90 12:19 14.11.2019
4435 Mist 4 1035 93 3000 2.1 90 11:54 14.11.2019
4436 Mist 4 1035 93 3000 2.1 90 11:36 14.11.2019
4437 Mist 4 1035 93 3000 2.1 90 11:18 14.11.2019
4438 Clouds 4 1034 86 10000 1 0 10:41 14.11.2019
4439 Clouds 4 1034 86 10000 1 0 10:20 14.11.2019
4440 Rain 6 1014 85 0 1.9 30 09:57 14.11.2019
4441 Rain 6 1014 85 0 1.9 30 09:39 14.11.2019
4442 Clouds 5 1034 86 10000 1 0 09:21 14.11.2019
4443 Clouds 5 1034 86 10000 1 0 08:47 14.11.2019
4444 Clouds 5 1034 86 10000 1 0 08:25 14.11.2019
4445 Clouds 6 1035 81 10000 2.1 70 07:57 14.11.2019
4446 Clouds 6 1035 81 10000 2.1 70 07:38 14.11.2019
4447 Clouds 6 1035 81 10000 2.1 70 07:19 14.11.2019
4448 Clouds 8 1036 75 10000 2.6 80 06:42 14.11.2019
4449 Clouds 8 1036 75 10000 2.6 80 06:18 14.11.2019
4450 Clouds 7 1037 75 10000 2.6 70 04:42 14.11.2019
4451 Clouds 8 1037 75 10000 3.6 320 04:22 14.11.2019
4452 Clouds 8 1036 75 10000 5.1 260 02:47 14.11.2019
4453 Clouds 9 1035 76 10000 1 0 01:51 14.11.2019
4454 Clouds 9 1035 76 10000 1 0 01:32 14.11.2019
4455 Clouds 9 1034 76 10000 1 0 00:49 14.11.2019
4456 Clouds 9 1034 76 10000 1 0 00:29 14.11.2019
4457 Clouds 12 1033 50 10000 1 0 23:41 13.11.2019
4458 Clouds 12 1033 50 10000 1 0 23:22 13.11.2019
4459 Clouds 11 1033 57 10000 5.1 320 22:57 13.11.2019
4460 Clouds 11 1033 57 10000 5.1 320 22:39 13.11.2019
4461 Clouds 11 1033 57 10000 5.1 320 22:21 13.11.2019
4462 Clouds 11 1034 57 10000 4.1 320 21:56 13.11.2019
4463 Clouds 11 1034 57 10000 4.1 320 21:37 13.11.2019
4464 Clouds 11 1034 57 10000 4.1 320 21:19 13.11.2019
4465 Thunderstorm 14 1033 50 10000 4.1 70 20:56 13.11.2019
4466 Thunderstorm 14 1033 50 10000 4.1 70 20:37 13.11.2019
4467 Thunderstorm 14 1033 50 10000 4.1 70 20:37 13.11.2019
4468 Thunderstorm 14 1033 50 10000 4.1 70 20:37 13.11.2019
4469 Thunderstorm 14 1033 50 10000 4.1 70 20:18 13.11.2019
4470 Clouds 15 1034 51 10000 5.7 60 19:44 13.11.2019
4471 Clouds 15 1034 51 10000 5.7 60 19:20 13.11.2019
4472 Thunderstorm 15 1035 51 10000 3.1 100 18:58 13.11.2019
4473 Thunderstorm 15 1035 51 10000 3.1 100 18:58 13.11.2019
4474 Thunderstorm 15 1035 51 10000 3.1 100 18:39 13.11.2019
4475 Thunderstorm 15 1035 51 10000 3.1 100 18:21 13.11.2019
4476 Thunderstorm 13 1036 50 10000 2.1 150 17:58 13.11.2019
4477 Thunderstorm 13 1036 50 10000 2.1 150 17:40 13.11.2019
4478 Thunderstorm 13 1036 50 10000 2.1 150 17:22 13.11.2019
4479 Clouds 12 1037 54 10000 2.1 250 16:58 13.11.2019
4480 Clouds 12 1037 54 10000 2.1 250 16:58 13.11.2019
4481 Clouds 12 1037 54 10000 2.1 250 16:40 13.11.2019
4482 Clouds 12 1037 54 10000 2.1 250 16:40 13.11.2019
4483 Clouds 12 1037 54 10000 2.1 250 16:21 13.11.2019
4484 Clouds 12 1037 58 10000 2.6 240 15:58 13.11.2019
4485 Clouds 12 1037 58 10000 2.6 240 15:39 13.11.2019
4486 Clouds 12 1037 58 10000 2.6 240 15:20 13.11.2019
4487 Clouds 11 1038 57 10000 1 0 14:43 13.11.2019
4488 Clouds 11 1038 57 10000 1 0 14:22 13.11.2019
4489 Clouds 9 1037 70 10000 2.23 244 13:58 13.11.2019
4490 Clouds 9 1037 70 10000 1.42 253 13:36 13.11.2019
4491 Clouds 9 1037 70 10000 1.42 253 13:18 13.11.2019
4492 Clouds 6 1037 93 10000 1 0 12:54 13.11.2019
4493 Clouds 6 1037 93 10000 1 0 12:36 13.11.2019
4494 Clouds 6 1037 93 10000 1 0 12:36 13.11.2019
4495 Clouds 6 1037 93 10000 1 0 12:18 13.11.2019
4496 Clouds 3 1036 100 10000 1 0 11:40 13.11.2019
4497 Clouds 3 1036 100 10000 1 0 11:20 13.11.2019
4498 Clouds 4 1035 93 10000 1.5 320 10:58 13.11.2019
4499 Clouds 4 1035 93 10000 1.5 320 10:40 13.11.2019
4500 Clouds 4 1035 93 10000 1.5 320 10:19 13.11.2019
4501 Clouds 4 1035 100 10000 2.1 270 09:45 13.11.2019
4502 Clouds 4 1035 100 10000 2.1 270 09:24 13.11.2019
4503 Clouds 6 1035 87 10000 1 0 08:59 13.11.2019
4504 Clouds 6 1035 87 10000 1 0 08:37 13.11.2019
4505 Clouds 6 1035 87 10000 1 0 08:19 13.11.2019
4506 Clouds 5 1036 93 10000 1.5 80 07:42 13.11.2019
4507 Clouds 5 1036 93 10000 1.5 80 07:42 13.11.2019
4508 Fog 5 1037 93 4000 4.1 80 07:20 13.11.2019
4509 Fog 5 1037 93 4000 4.1 80 06:44 13.11.2019
4510 Fog 5 1037 93 4000 4.1 80 06:19 13.11.2019
4511 Fog 5 1037 93 4000 4.1 80 06:19 13.11.2019
4512 Fog 5 1037 93 4000 4.1 80 06:19 13.11.2019
4513 Fog 5 1037 93 4000 4.6 70 05:52 13.11.2019
4514 Fog 5 1037 93 4000 4.6 70 05:30 13.11.2019
4515 Fog 6 1038 93 4000 3.1 90 04:21 13.11.2019
4516 Rain 7 1035 81 10000 5.7 220 01:58 13.11.2019
4517 Clouds 7 1035 87 10000 1 0 01:40 13.11.2019
4518 Clouds 9 1034 81 10000 1 0 00:44 13.11.2019
4519 Clouds 10 1033 76 10000 3.1 50 23:59 12.11.2019
4520 Clouds 10 1033 76 10000 3.1 50 23:41 12.11.2019
4521 Clouds 10 1033 76 10000 3.1 50 23:21 12.11.2019
4522 Clouds 9 1033 70 10000 4.6 170 22:43 12.11.2019
4523 Clouds 9 1033 70 10000 4.6 170 22:20 12.11.2019
4524 Clouds 9 1033 76 10000 4.6 180 21:58 12.11.2019
4525 Clouds 9 1033 76 10000 4.6 180 21:40 12.11.2019
4526 Clouds 9 1033 76 10000 4.6 180 21:21 12.11.2019
4527 Thunderstorm 10 1034 71 10000 3.1 10 20:56 12.11.2019
4528 Thunderstorm 10 1034 71 10000 3.1 10 20:37 12.11.2019
4529 Thunderstorm 10 1034 71 10000 3.1 10 20:37 12.11.2019
4530 Thunderstorm 10 1034 71 10000 3.1 10 20:18 12.11.2019
4531 Thunderstorm 10 1034 71 10000 3.1 10 20:18 12.11.2019
4532 Thunderstorm 9 1035 81 8000 5.1 30 19:56 12.11.2019
4533 Thunderstorm 9 1035 81 8000 5.1 30 19:38 12.11.2019
4534 Thunderstorm 9 1035 81 8000 5.1 30 19:18 12.11.2019
4535 Thunderstorm 11 1035 71 8000 5.1 70 18:55 12.11.2019
4536 Clouds 12 1035 71 10000 4.6 130 18:37 12.11.2019
4537 Clouds 12 1035 71 10000 4.6 130 18:37 12.11.2019
4538 Clouds 12 1035 71 10000 4.6 130 18:19 12.11.2019
4539 Clouds 10 1036 71 10000 3.6 20 17:55 12.11.2019
4540 Clouds 10 1036 71 10000 3.6 20 17:37 12.11.2019
4541 Clouds 10 1036 71 10000 3.6 20 17:37 12.11.2019
4542 Clouds 10 1036 71 10000 3.6 20 17:18 12.11.2019
4543 Clouds 10 1036 71 10000 3.6 20 17:18 12.11.2019
4544 Clouds 11 1037 62 10000 3.1 70 16:43 12.11.2019
4545 Clouds 11 1037 62 10000 3.1 70 16:25 12.11.2019
4546 Clouds 9 1037 81 6000 2.1 100 15:57 12.11.2019
4547 Clouds 9 1037 81 6000 2.1 100 15:57 12.11.2019
4548 Clouds 9 1037 81 6000 2.1 100 15:37 12.11.2019
4549 Clouds 9 1037 81 6000 2.1 100 15:18 12.11.2019
4550 Fog 9 1037 81 4000 1 0 14:42 12.11.2019
4551 Fog 9 1037 81 4000 1 0 14:21 12.11.2019
4552 Fog 7 1037 87 6000 1 0 13:59 12.11.2019
4553 Fog 7 1037 87 6000 1 0 13:40 12.11.2019
4554 Fog 7 1037 87 6000 1 0 13:19 12.11.2019
4555 Mist 6 1036 87 2500 2.1 70 12:59 12.11.2019
4556 Mist 6 1036 87 2500 2.1 70 12:39 12.11.2019
4557 Mist 6 1036 87 2500 2.1 70 12:18 12.11.2019
4558 Mist 6 1036 93 2500 2.1 70 11:43 12.11.2019
4559 Mist 6 1036 93 2500 2.1 70 11:23 12.11.2019
4560 Clouds 6 1036 93 6000 1 0 10:58 12.11.2019
4561 Clouds 6 1036 93 6000 1 0 10:39 12.11.2019
4562 Clouds 6 1036 93 6000 1 0 10:21 12.11.2019
4563 Clouds 6 1036 93 6000 1 0 09:58 12.11.2019
4564 Clouds 6 1036 93 6000 1 0 09:38 12.11.2019
4565 Clouds 6 1036 93 6000 1 0 09:18 12.11.2019
4566 Clouds 6 1036 87 8000 1 0 08:46 12.11.2019
4567 Clouds 6 1037 87 10000 1 0 08:27 12.11.2019
4568 Clouds 6 1037 87 10000 1 0 07:42 12.11.2019
4569 Clouds 6 1037 87 10000 1 0 07:23 12.11.2019
4570 Clouds 6 1037 87 8000 2.6 260 06:48 12.11.2019
4571 Clouds 6 1037 87 8000 2.6 260 06:24 12.11.2019
4572 Clouds 6 1038 87 8000 5.1 280 05:52 12.11.2019
4573 Smoke 7 1038 93 4000 2.32 41 04:50 12.11.2019
4574 Smoke 7 1037 91 4000 2.1 100 03:53 12.11.2019
4575 -273 0 0 0 0 0 03:53 12.11.2019
4576 Clouds 8 1036 81 10000 2.6 110 01:50 12.11.2019
4577 Clouds 8 1036 81 10000 2.6 110 01:23 12.11.2019
4578 Clouds 9 1035 81 10000 2.6 90 00:51 12.11.2019
4579 Clouds 9 1035 81 10000 2.6 90 00:32 12.11.2019
4580 Clouds 11 1034 53 10000 1 0 23:47 11.11.2019
4581 Clouds 11 1034 53 10000 1 0 23:24 11.11.2019
4582 Clouds 10 1034 66 10000 3.6 330 22:58 11.11.2019
4583 Clouds 10 1034 66 10000 3.6 330 22:37 11.11.2019
4584 Clouds 10 1034 66 10000 3.6 330 22:18 11.11.2019
4585 Clouds 13 1034 50 10000 4.6 60 21:57 11.11.2019
4586 Clouds 13 1034 50 10000 4.6 60 21:38 11.11.2019
4587 Clouds 13 1034 50 10000 4.6 60 21:19 11.11.2019
4588 Clouds 12 1035 62 10000 4.1 50 20:43 11.11.2019
4589 Clouds 12 1035 62 10000 4.1 50 20:21 11.11.2019
4590 Clouds 13 1036 58 10000 4.6 80 19:59 11.11.2019
4591 Clouds 13 1036 58 10000 4.6 80 19:41 11.11.2019
4592 Clouds 13 1036 58 10000 4.6 80 19:19 11.11.2019
4593 Clouds 12 1036 58 10000 3.1 40 18:56 11.11.2019
4594 Clouds 12 1036 58 10000 3.1 40 18:37 11.11.2019
4595 Clouds 12 1036 58 10000 3.1 40 18:19 11.11.2019
4596 Clouds 12 1037 50 10000 3.6 70 17:42 11.11.2019
4597 Clouds 12 1037 50 10000 3.6 70 17:24 11.11.2019
4598 Clouds 11 1038 57 10000 2.1 70 16:44 11.11.2019
4599 Clouds 11 1038 57 10000 2.1 70 16:24 11.11.2019
4600 Clouds 11 1038 57 10000 2.1 70 16:24 11.11.2019
4601 Clouds 7 1038 75 10000 1.5 330 15:59 11.11.2019
4602 Clouds 7 1038 75 10000 1.5 330 15:40 11.11.2019
4603 Clouds 7 1038 75 10000 1.5 330 15:19 11.11.2019
4604 Clouds 7 1038 75 10000 1.5 330 15:19 11.11.2019
4605 Rain 4 1039 93 8000 2.6 70 14:44 11.11.2019
4606 Rain 4 1039 93 8000 2.6 70 14:25 11.11.2019
4607 Rain 3 1039 93 6000 2.1 80 13:58 11.11.2019
4608 Rain 3 1039 93 6000 2.1 80 13:38 11.11.2019
4609 Rain 3 1039 93 6000 2.1 80 13:19 11.11.2019
4610 Rain 3 1038 93 3000 2.1 100 12:57 11.11.2019
4611 Rain 3 1038 93 3000 2.1 100 12:39 11.11.2019
4612 Rain 3 1038 93 3000 2.1 100 12:39 11.11.2019
4613 Rain 3 1038 93 3000 2.1 100 12:21 11.11.2019
4614 Fog 2 1038 100 2000 2.1 120 11:42 11.11.2019
4615 Fog 2 1038 100 2000 2.1 120 11:22 11.11.2019
4616 Rain 2 1038 100 3000 2.1 150 10:57 11.11.2019
4617 Rain 2 1038 100 3000 2.1 150 10:38 11.11.2019
4618 Rain 2 1038 100 3000 2.1 150 10:18 11.11.2019
4619 Rain 2 1037 93 3000 2.1 150 09:43 11.11.2019
4620 Rain 2 1037 93 3000 2.1 150 09:43 11.11.2019
4621 Rain 2 1037 93 3000 2.1 150 09:21 11.11.2019
4622 Rain 2 1038 100 3000 2.6 180 08:59 11.11.2019
4623 Rain 2 1038 100 3000 2.6 180 08:37 11.11.2019
4624 Rain 3 1038 100 2000 3.6 160 08:18 11.11.2019
4625 Rain 3 1038 100 2000 3.6 160 07:54 11.11.2019
4626 Rain 3 1038 100 2000 3.6 160 07:36 11.11.2019
4627 Rain 5 1038 93 1500 2.6 160 07:18 11.11.2019
4628 Rain 5 1038 93 1500 2.6 160 06:40 11.11.2019
4629 Rain 5 1038 93 1500 2.6 160 06:20 11.11.2019
4630 Rain 4 1039 93 2000 1 0 05:49 11.11.2019
4631 Rain 23 1014 94 4000 2.81 47 03:56 11.11.2019
4632 Rain 5 1038 93 3000 6.7 130 02:55 11.11.2019
4633 Rain 5 1038 93 3000 6.7 130 02:18 11.11.2019
4634 Rain 6 1037 93 3000 6.7 140 01:37 11.11.2019
4635 Thunderstorm 8 1036 75 8000 5.1 120 00:58 11.11.2019
4636 Thunderstorm 8 1036 75 8000 5.1 120 00:40 11.11.2019
4637 Clouds 12 1033 50 10000 5.1 70 23:58 10.11.2019
4638 Clouds 12 1033 50 10000 5.1 70 23:38 10.11.2019
4639 Clouds 12 1033 50 10000 5.1 70 23:19 10.11.2019
4640 Clouds 12 1033 50 10000 5.1 70 23:19 10.11.2019
4641 Clouds 12 1033 50 10000 5.1 70 23:19 10.11.2019
4642 Clouds 15 1033 38 10000 4.6 40 22:56 10.11.2019
4643 Clouds 15 1033 38 10000 4.6 40 22:38 10.11.2019
4644 Clouds 15 1033 38 10000 4.6 40 22:19 10.11.2019
4645 Clouds 15 1033 38 10000 4.6 40 22:19 10.11.2019
4646 Clouds 14 1033 44 10000 4.6 30 21:55 10.11.2019
4647 Clouds 14 1033 44 10000 4.6 30 21:36 10.11.2019
4648 Thunderstorm 12 1034 58 10000 6.2 30 21:18 10.11.2019
4649 Thunderstorm 14 1034 44 10000 4.6 70 20:41 10.11.2019
4650 Thunderstorm 14 1034 44 10000 4.6 70 20:22 10.11.2019
4651 Clouds 16 1035 41 10000 5.7 100 19:56 10.11.2019
4652 Clouds 16 1035 41 10000 5.7 100 19:56 10.11.2019
4653 Clouds 16 1035 41 10000 5.7 100 19:37 10.11.2019
4654 Clouds 16 1035 41 10000 5.7 100 19:37 10.11.2019
4655 Clouds 16 1035 41 10000 5.7 100 19:18 10.11.2019
4656 Clouds 17 1036 39 10000 3.1 110 18:58 10.11.2019
4657 Clouds 17 1036 39 10000 3.1 110 18:58 10.11.2019
4658 Clouds 17 1036 39 10000 3.1 110 18:58 10.11.2019
4659 Clouds 17 1036 39 10000 3.1 110 18:39 10.11.2019
4660 Clouds 17 1036 39 10000 3.1 110 18:19 10.11.2019
4661 Clouds 17 1036 39 10000 3.1 110 18:19 10.11.2019
4662 Clouds 14 1037 44 10000 3.1 130 17:56 10.11.2019
4663 Clouds 14 1037 44 10000 3.1 130 17:38 10.11.2019
4664 Clouds 14 1037 44 10000 3.1 130 17:19 10.11.2019
4665 Clouds 12 1038 58 10000 2.1 150 16:57 10.11.2019
4666 Clouds 12 1038 58 10000 2.1 150 16:37 10.11.2019
4667 Clouds 12 1038 58 10000 2.1 150 16:19 10.11.2019
4668 Clouds 10 1038 61 10000 1 0 15:55 10.11.2019
4669 Clouds 10 1038 61 10000 1 0 15:36 10.11.2019
4670 Clouds 10 1038 61 10000 1 0 15:36 10.11.2019
4671 Clouds 10 1038 61 10000 1 0 15:18 10.11.2019
4672 Clouds 9 1038 66 10000 2.6 120 14:40 10.11.2019
4673 Clouds 9 1038 66 10000 2.6 120 14:22 10.11.2019
4674 Clouds 7 1038 81 10000 1 0 13:57 10.11.2019
4675 Clouds 7 1038 81 10000 1 0 13:39 10.11.2019
4676 Clouds 7 1038 81 10000 1 0 13:19 10.11.2019
4677 Clouds 4 1037 93 10000 1 0 12:42 10.11.2019
4678 Clouds 4 1037 93 10000 1 0 12:20 10.11.2019
4679 Clouds 4 1037 93 10000 1 0 12:20 10.11.2019
4680 Clouds 3 1036 93 10000 1 0 11:57 10.11.2019
4681 Clouds 3 1036 93 10000 1 0 11:38 10.11.2019
4682 Clouds 3 1036 93 10000 1 0 11:20 10.11.2019
4683 Clouds 3 1036 86 10000 1.5 120 10:55 10.11.2019
4684 Clouds 3 1036 86 10000 1.5 120 10:55 10.11.2019
4685 Clouds 3 1036 86 10000 1.5 120 10:37 10.11.2019
4686 Clouds 3 1036 86 10000 1.5 120 10:18 10.11.2019
4687 Clouds 4 1035 86 10000 1.5 50 09:41 10.11.2019
4688 Clouds 4 1035 86 10000 1.5 50 09:22 10.11.2019
4689 Clouds 6 1036 81 10000 1 0 08:40 10.11.2019
4690 Clouds 6 1036 81 10000 1 0 08:21 10.11.2019
4691 Clouds 6 1036 87 10000 3.6 330 07:53 10.11.2019
4692 Clouds 6 1036 87 10000 3.6 330 07:34 10.11.2019
4693 Clouds 6 1037 81 10000 4.6 310 06:59 10.11.2019
4694 Clouds 6 1037 81 10000 4.6 310 06:22 10.11.2019
4695 Clouds 8 1039 70 10000 4.1 220 03:55 10.11.2019
4696 Clouds 9 1037 70 10000 2.6 90 02:33 10.11.2019
4697 Clouds 9 1035 61 10000 4.6 10 01:37 10.11.2019
4698 Clouds 9 1035 61 10000 4.6 10 01:18 10.11.2019
4699 Clouds 9 1035 61 10000 2.6 360 00:25 10.11.2019
4700 Thunderstorm 8 1035 70 8000 8.2 200 23:42 09.11.2019
4701 Thunderstorm 8 1035 70 8000 8.2 200 23:19 09.11.2019
4702 Thunderstorm 10 1034 61 8000 4.1 180 22:42 09.11.2019
4703 Thunderstorm 13 1033 43 10000 5.7 90 22:23 09.11.2019
4704 Thunderstorm 14 1033 41 10000 4.6 80 21:58 09.11.2019
4705 Thunderstorm 14 1033 41 10000 4.6 80 21:40 09.11.2019
4706 Clouds 15 1033 41 10000 5.7 50 21:21 09.11.2019
4707 Clouds 13 1034 47 10000 6.2 40 20:56 09.11.2019
4708 Clouds 13 1034 47 10000 6.2 40 20:37 09.11.2019
4709 Clouds 13 1034 47 10000 6.2 40 20:18 09.11.2019
4710 Clouds 14 1035 44 10000 7.2 40 19:41 09.11.2019
4711 Clouds 14 1035 44 10000 7.2 40 19:23 09.11.2019
4712 Clouds 16 1035 38 10000 6.2 80 18:59 09.11.2019
4713 Clouds 16 1035 38 10000 6.2 80 18:39 09.11.2019
4714 Clouds 16 1035 38 10000 6.2 80 18:18 09.11.2019
4715 Clouds 16 1037 38 10000 6.7 80 17:43 09.11.2019
4716 Clouds 16 1037 38 10000 6.7 80 17:23 09.11.2019
4717 Clouds 14 1037 44 10000 3.1 150 16:57 09.11.2019
4718 Clouds 14 1037 44 10000 3.1 150 16:39 09.11.2019
4719 Clouds 14 1037 44 10000 3.1 150 16:19 09.11.2019
4720 Clouds 14 1038 41 10000 2.1 120 15:42 09.11.2019
4721 Clouds 14 1038 41 10000 2.1 120 15:24 09.11.2019
4722 Clouds 14 1038 41 10000 2.1 120 15:24 09.11.2019
4723 Clouds 12 1038 50 10000 1 0 14:47 09.11.2019
4724 Clouds 12 1038 50 10000 1 0 14:24 09.11.2019
4725 Clouds 12 1038 50 10000 1 0 14:24 09.11.2019
4726 Clouds 10 1038 61 10000 1 0 13:58 09.11.2019
4727 Clouds 10 1038 61 10000 1 0 13:40 09.11.2019
4728 Clouds 10 1038 61 10000 1 0 13:21 09.11.2019
4729 Clouds 6 1037 81 10000 1 0 12:59 09.11.2019
4730 Clouds 6 1037 81 10000 1 0 12:40 09.11.2019
4731 Clouds 6 1037 81 10000 1 0 12:22 09.11.2019
4732 Clouds 4 1037 93 10000 1 0 11:54 09.11.2019
4733 Clouds 4 1037 93 10000 1 0 11:36 09.11.2019
4734 Clouds 4 1037 93 10000 1 0 11:18 09.11.2019
4735 Clouds 5 1036 93 10000 1 0 10:39 09.11.2019
4736 Clouds 5 1036 93 10000 1 0 10:19 09.11.2019
4737 Clouds 5 1036 93 10000 2.1 240 09:47 09.11.2019
4738 Clouds 5 1036 93 10000 2.1 240 09:28 09.11.2019
4739 Clouds 6 1036 87 10000 1 0 08:59 09.11.2019
4740 Clouds 6 1036 87 10000 1 0 08:40 09.11.2019
4741 Clouds 6 1036 87 10000 1 0 08:19 09.11.2019
4742 Clouds 6 1036 87 10000 2.6 260 07:45 09.11.2019
4743 Clouds 6 1036 87 10000 2.6 260 07:23 09.11.2019
4744 Clouds 7 1036 70 10000 3.1 330 06:49 09.11.2019
4745 Clouds 7 1036 70 10000 3.1 330 06:30 09.11.2019
4746 Clouds 7 1037 75 10000 5.1 310 05:43 09.11.2019
4747 Clouds 7 1038 81 10000 4.6 270 04:58 09.11.2019
4748 Clouds 8 1037 75 10000 4.6 270 03:37 09.11.2019
4749 Clouds 8 1035 65 10000 2.6 360 02:43 09.11.2019
4750 Clouds 8 1034 70 10000 5.1 30 01:55 09.11.2019
4751 Thunderstorm 8 1034 70 6000 7.7 120 00:51 09.11.2019
4752 Thunderstorm 11 1034 62 10000 6.7 100 00:31 09.11.2019
4753 Thunderstorm 11 1033 57 10000 7.2 100 23:57 08.11.2019
4754 Clouds 12 1032 50 10000 4.6 100 23:38 08.11.2019
4755 Clouds 12 1032 50 10000 4.6 100 23:19 08.11.2019
4756 Clouds 14 1032 47 10000 4.1 50 22:47 08.11.2019
4757 Clouds 14 1032 47 10000 4.1 50 22:22 08.11.2019
4758 Clouds 14 1032 47 10000 4.6 100 21:56 08.11.2019
4759 Clouds 14 1032 47 10000 4.6 100 21:38 08.11.2019
4760 Clouds 14 1032 47 10000 4.6 100 21:18 08.11.2019
4761 Clouds 16 1033 36 10000 5.1 90 20:41 08.11.2019
4762 Clouds 16 1033 36 10000 5.1 90 20:21 08.11.2019
4763 Clouds 14 1034 47 10000 4.6 50 19:58 08.11.2019
4764 Clouds 14 1034 47 10000 4.6 50 19:58 08.11.2019
4765 Clouds 14 1034 47 10000 4.6 50 19:38 08.11.2019
4766 Clouds 14 1034 47 10000 4.6 50 19:38 08.11.2019
4767 Clouds 14 1034 47 10000 4.6 50 19:18 08.11.2019
4768 Clouds 14 1034 47 10000 4.6 50 19:18 08.11.2019
4769 Clouds 13 1035 53 10000 6.2 40 18:55 08.11.2019
4770 Clouds 13 1035 53 10000 6.2 40 18:37 08.11.2019
4771 Clouds 13 1035 53 10000 6.2 40 18:19 08.11.2019
4772 Clouds 15 1036 44 10000 3.1 190 17:55 08.11.2019
4773 Clouds 15 1036 44 10000 3.1 190 17:36 08.11.2019
4774 Clouds 15 1036 44 10000 3.1 190 17:18 08.11.2019
4775 Clouds 14 1037 47 10000 2.6 200 16:57 08.11.2019
4776 Clouds 14 1037 47 10000 2.6 200 16:39 08.11.2019
4777 Clouds 14 1037 47 10000 2.6 200 16:19 08.11.2019
4778 Clouds 12 1037 62 10000 2.6 290 15:56 08.11.2019
4779 Clouds 12 1037 62 10000 2.6 290 15:38 08.11.2019
4780 Clouds 12 1037 62 10000 2.6 290 15:19 08.11.2019
4781 Clouds 10 1037 71 10000 3.1 250 14:55 08.11.2019
4782 Clouds 10 1037 71 10000 3.1 250 14:36 08.11.2019
4783 Clouds 10 1037 71 10000 3.1 250 14:36 08.11.2019
4784 Clouds 10 1037 71 10000 3.1 250 14:18 08.11.2019
4785 Clouds 9 1037 70 10000 1 0 13:42 08.11.2019
4786 Clouds 9 1037 70 10000 1 0 13:22 08.11.2019
4787 Fog 6 1035 93 4000 2.1 80 12:49 08.11.2019
4788 Fog 6 1035 93 4000 2.1 80 12:31 08.11.2019
4789 Fog 6 1035 93 4000 2.1 80 12:31 08.11.2019
4790 Fog 4 1035 100 4000 3.1 90 11:59 08.11.2019
4791 Fog 4 1035 100 4000 3.1 90 11:41 08.11.2019
4792 Fog 4 1035 100 4000 3.1 90 11:22 08.11.2019
4793 Fog 5 1035 93 4000 3.6 110 10:59 08.11.2019
4794 Fog 5 1035 93 4000 3.6 110 10:41 08.11.2019
4795 Fog 5 1035 93 4000 3.6 110 10:22 08.11.2019
4796 Fog 6 1035 93 4000 2.1 120 09:58 08.11.2019
4797 Fog 6 1035 93 4000 2.1 120 09:38 08.11.2019
4798 Fog 6 1035 93 4000 2.1 120 09:19 08.11.2019
4799 Fog 6 1035 93 4000 3.1 100 08:45 08.11.2019
4800 Fog 6 1035 93 4000 3.1 100 08:23 08.11.2019
4801 Fog 5 1036 100 3000 3.1 130 07:45 08.11.2019
4802 Fog 5 1036 100 3000 3.1 130 07:24 08.11.2019
4803 Fog 5 1036 100 3000 3.1 130 07:24 08.11.2019
4804 Fog 5 1036 100 3000 4.6 120 06:58 08.11.2019
4805 Fog 5 1036 100 3000 4.6 120 06:38 08.11.2019
4806 Fog 5 1036 100 3000 4.6 120 06:19 08.11.2019
4807 Fog 6 1037 87 4000 2.6 70 05:36 08.11.2019
4808 Fog 6 1038 93 4000 4.6 70 04:29 08.11.2019
4809 Rain 7 1038 81 8000 3.6 210 03:42 08.11.2019
4810 Rain 7 1038 81 8000 3.6 210 03:19 08.11.2019
4811 Thunderstorm 8 1036 70 10000 6.7 250 01:54 08.11.2019
4812 Clouds 10 1035 71 10000 5.1 250 01:36 08.11.2019
4813 Clouds 9 1034 70 10000 4.1 60 00:46 08.11.2019
4814 Clouds 9 1034 70 10000 4.1 60 00:22 08.11.2019
4815 Clouds 9 1034 70 10000 4.1 60 00:22 08.11.2019
4816 Clouds 12 1033 58 10000 5.1 70 23:49 07.11.2019
4817 -273 0 0 0 0 0 23:28 07.11.2019
4818 Clouds 14 1032 47 10000 7.7 50 22:58 07.11.2019
4819 Clouds 14 1032 47 10000 7.7 50 22:40 07.11.2019
4820 Clouds 14 1032 47 10000 7.7 50 22:20 07.11.2019
4821 Clouds 14 1033 47 10000 3.1 70 21:40 07.11.2019
4822 Clouds 14 1033 47 10000 3.1 70 21:21 07.11.2019
4823 Clouds 14 1034 50 10000 4.1 90 20:59 07.11.2019
4824 Clouds 14 1034 50 10000 4.1 90 20:59 07.11.2019
4825 Clouds 14 1034 50 10000 4.1 90 20:41 07.11.2019
4826 Clouds 14 1034 50 10000 4.1 90 20:41 07.11.2019
4827 Clouds 14 1034 50 10000 4.1 90 20:22 07.11.2019
4828 Clouds 15 1035 47 10000 5.1 80 19:58 07.11.2019
4829 Clouds 15 1035 47 10000 5.1 80 19:39 07.11.2019
4830 Clouds 15 1035 47 10000 5.1 80 19:20 07.11.2019
4831 Clouds 13 1036 58 10000 5.1 70 18:57 07.11.2019
4832 Clouds 13 1036 58 10000 5.1 70 18:38 07.11.2019
4833 Clouds 13 1036 58 10000 5.1 70 18:38 07.11.2019
4834 Clouds 13 1036 58 10000 5.1 70 18:19 07.11.2019
4835 Clouds 13 1037 58 10000 6.7 120 17:56 07.11.2019
4836 Clouds 13 1037 58 10000 6.7 120 17:37 07.11.2019
4837 Clouds 12 1037 66 10000 4.6 110 17:19 07.11.2019
4838 Clouds 12 1037 66 10000 4.6 110 16:55 07.11.2019
4839 Clouds 12 1037 66 10000 4.6 110 16:37 07.11.2019
4840 Clouds 11 1037 66 10000 3.1 110 16:18 07.11.2019
4841 Clouds 11 1037 66 10000 3.1 110 15:40 07.11.2019
4842 Clouds 11 1037 66 10000 3.1 110 15:20 07.11.2019
4843 Clouds 9 1038 76 10000 3.1 100 14:57 07.11.2019
4844 Clouds 9 1038 76 10000 3.1 100 14:37 07.11.2019
4845 Clouds 9 1038 76 10000 3.1 100 14:19 07.11.2019
4846 Clouds 8 1037 81 6000 2.6 110 13:55 07.11.2019
4847 Clouds 8 1037 81 6000 2.6 110 13:36 07.11.2019
4848 Clouds 8 1037 81 6000 2.6 110 13:18 07.11.2019
4849 Fog 5 1036 93 4000 2.1 70 12:55 07.11.2019
4850 Fog 5 1036 93 4000 2.1 70 12:36 07.11.2019
4851 Fog 5 1036 93 4000 2.1 70 12:36 07.11.2019
4852 Fog 5 1036 93 4000 2.1 70 12:18 07.11.2019
4853 Fog 5 1036 93 4000 2.1 70 12:18 07.11.2019
4854 Fog 2 1035 93 4000 2.6 70 11:41 07.11.2019
4855 Fog 2 1035 93 4000 2.6 70 11:22 07.11.2019
4856 Clouds 3 1035 93 10000 2.1 40 10:42 07.11.2019
4857 Clouds 3 1035 93 10000 2.1 40 10:19 07.11.2019
4858 Clouds 5 1035 86 10000 2.6 130 09:45 07.11.2019
4859 Clouds 5 1035 86 10000 2.6 130 09:25 07.11.2019
4860 Clouds 5 1035 86 10000 2.6 130 09:24 07.11.2019
4861 Clouds 5 1034 80 10000 3.6 80 08:59 07.11.2019
4862 Clouds 5 1034 80 10000 3.6 80 08:40 07.11.2019
4863 Clouds 5 1034 80 10000 3.6 80 08:40 07.11.2019
4864 Clouds 5 1034 80 10000 3.6 80 08:22 07.11.2019
4865 Clouds 7 1035 65 10000 5.1 10 07:56 07.11.2019
4866 Clouds 7 1035 65 10000 5.1 10 07:37 07.11.2019
4867 Clouds 7 1037 65 10000 7.2 40 07:18 07.11.2019
4868 Clouds 7 1037 65 10000 7.2 40 06:42 07.11.2019
4869 -273 0 0 0 0 0 06:41 07.11.2019
4870 Clouds 7 1037 65 10000 7.2 40 06:22 07.11.2019
4871 Clouds 6 1038 81 10000 2.6 60 05:47 07.11.2019
4872 Clouds 6 1038 81 10000 2.6 60 05:29 07.11.2019
4873 Clouds 7 1039 87 8000 4.1 110 04:49 07.11.2019
4874 Clouds 7 1039 87 8000 4.1 110 04:27 07.11.2019
4875 Clouds 8 1037 65 10000 4.6 210 01:18 07.11.2019
4876 Clouds 8 1035 70 10000 1 0 00:26 07.11.2019
4877 Clouds 10 1034 61 10000 2.1 60 23:49 06.11.2019
4878 Clouds 10 1034 61 10000 2.1 60 23:23 06.11.2019
4879 Clouds 10 1034 61 10000 2.6 160 22:58 06.11.2019
4880 Clouds 10 1034 61 10000 2.6 160 22:39 06.11.2019
4881 Clouds 10 1034 61 10000 2.6 160 22:19 06.11.2019
4882 Clouds 9 1034 76 10000 3.1 70 21:57 06.11.2019
4883 Clouds 9 1034 76 10000 3.1 70 21:38 06.11.2019
4884 Clouds 9 1034 76 10000 3.1 70 21:19 06.11.2019
4885 Clouds 9 1035 61 10000 4.1 30 20:55 06.11.2019
4886 Clouds 9 1035 61 10000 4.1 30 20:36 06.11.2019
4887 Clouds 9 1035 61 10000 4.1 30 20:18 06.11.2019
4888 Rain 7 1036 81 10000 6.2 60 19:40 06.11.2019
4889 Rain 7 1036 81 10000 6.2 60 19:21 06.11.2019
4890 Rain 7 1036 81 10000 6.2 60 19:21 06.11.2019
4891 Rain 6 1037 87 10000 5.7 40 18:59 06.11.2019
4892 Thunderstorm 6 1038 81 8000 6.7 30 18:39 06.11.2019
4893 Thunderstorm 6 1038 81 8000 6.7 30 18:19 06.11.2019
4894 Clouds 10 1038 76 8000 6.2 40 17:58 06.11.2019
4895 Thunderstorm 12 1038 58 10000 4.1 270 17:40 06.11.2019
4896 Thunderstorm 12 1038 58 10000 4.1 270 17:21 06.11.2019
4897 Clouds 11 1038 62 10000 3.1 270 16:55 06.11.2019
4898 Clouds 11 1038 62 10000 3.1 270 16:37 06.11.2019
4899 Clouds 11 1038 62 10000 3.1 270 16:18 06.11.2019
4900 Clouds 9 1039 70 8000 4.1 310 15:55 06.11.2019
4901 Clouds 9 1039 70 8000 4.1 310 15:36 06.11.2019
4902 Clouds 9 1039 70 8000 4.1 310 15:18 06.11.2019
4903 Clouds 8 1039 81 6000 1 0 14:55 06.11.2019
4904 Clouds 8 1039 81 6000 1 0 14:37 06.11.2019
4905 Clouds 8 1039 81 6000 1 0 14:37 06.11.2019
4906 Clouds 8 1039 81 6000 1 0 14:19 06.11.2019
4907 Fog 7 1038 93 4000 2.6 80 13:40 06.11.2019
4908 Fog 7 1038 93 4000 2.6 80 13:40 06.11.2019
4909 Fog 7 1038 93 4000 2.6 80 13:22 06.11.2019
4910 Fog 6 1037 93 4000 2.6 110 12:58 06.11.2019
4911 Fog 6 1037 93 4000 2.6 110 12:39 06.11.2019
4912 Fog 6 1037 93 4000 2.6 110 12:20 06.11.2019
4913 Fog 6 1036 100 4000 3.1 100 11:58 06.11.2019
4914 Fog 6 1036 100 4000 3.1 100 11:37 06.11.2019
4915 Fog 6 1036 100 4000 3.1 100 11:18 06.11.2019
4916 Fog 6 1036 100 4000 3.1 110 10:56 06.11.2019
4917 Fog 6 1036 100 4000 3.1 110 10:38 06.11.2019
4918 Fog 6 1036 100 4000 3.1 110 10:19 06.11.2019
4919 Fog 7 1036 87 4000 3.1 110 09:43 06.11.2019
4920 Fog 7 1036 87 4000 3.1 110 09:43 06.11.2019
4921 Fog 7 1036 87 4000 3.1 110 09:22 06.11.2019
4922 Fog 7 1036 93 4000 2.1 90 08:58 06.11.2019
4923 Fog 7 1036 93 4000 2.1 90 08:38 06.11.2019
4924 Fog 7 1036 93 4000 2.1 90 08:19 06.11.2019
4925 Fog 7 1036 87 4000 2.1 80 07:55 06.11.2019
4926 Rain 6 1016 80 0 1.96 58 07:36 06.11.2019
4927 Rain 6 1016 80 0 1.96 58 07:36 06.11.2019
4928 Rain 7 1037 93 7000 3.1 80 07:18 06.11.2019
4929 Rain 7 1037 93 7000 3.1 80 06:40 06.11.2019
4930 Rain 7 1037 93 7000 3.1 80 06:22 06.11.2019
4931 Clouds 5 1038 86 10000 1 0 03:52 06.11.2019
4932 Clouds 8 1037 70 10000 1 0 02:18 06.11.2019
4933 Clouds 9 1035 66 10000 1.5 80 00:55 06.11.2019
4934 Clouds 9 1035 66 10000 1.5 80 00:26 06.11.2019
4935 Clouds 13 1034 47 10000 3.1 80 23:57 05.11.2019
4936 Clouds 13 1034 47 10000 3.1 80 23:37 05.11.2019
4937 Clouds 13 1034 47 10000 3.1 80 23:18 05.11.2019
4938 Clouds 12 1034 54 10000 2.1 160 22:42 05.11.2019
4939 Clouds 12 1034 54 10000 2.1 160 22:19 05.11.2019
4940 Clouds 12 1034 54 10000 2.1 160 22:19 05.11.2019
4941 Clouds 12 1033 58 10000 2.1 120 21:57 05.11.2019
4942 Clouds 12 1033 58 10000 2.1 120 21:39 05.11.2019
4943 Clouds 12 1033 58 10000 2.1 120 21:19 05.11.2019
4944 Clouds 11 1034 62 10000 2.6 30 20:56 05.11.2019
4945 Clouds 11 1034 62 10000 2.6 30 20:37 05.11.2019
4946 Clouds 11 1034 62 10000 2.6 30 20:19 05.11.2019
4947 Clouds 10 1036 76 10000 1 0 19:42 05.11.2019
4948 Clouds 10 1036 76 10000 1 0 19:23 05.11.2019
4949 Clouds 10 1036 71 10000 2.1 90 18:58 05.11.2019
4950 Clouds 10 1036 71 10000 2.1 90 18:40 05.11.2019
4951 Clouds 10 1036 71 10000 2.1 90 18:21 05.11.2019
4952 Clouds 9 1037 76 8000 1 0 17:59 05.11.2019
4953 Clouds 9 1037 76 8000 1 0 17:39 05.11.2019
4954 Clouds 9 1037 76 8000 1 0 17:20 05.11.2019
4955 Thunderstorm 12 1037 66 8000 5.7 110 16:57 05.11.2019
4956 Thunderstorm 12 1037 66 8000 5.7 110 16:57 05.11.2019
4957 Thunderstorm 12 1037 66 8000 5.7 110 16:39 05.11.2019
4958 Thunderstorm 12 1037 66 8000 5.7 110 16:19 05.11.2019
4959 Thunderstorm 12 1037 66 8000 5.7 110 16:19 05.11.2019
4960 Rain 11 1012 59 0 3.57 60 15:39 05.11.2019
4961 Clouds 11 1038 66 10000 3.1 110 15:20 05.11.2019
4962 Clouds 11 1037 71 10000 2.1 80 14:58 05.11.2019
4963 Clouds 11 1037 71 10000 2.1 80 14:40 05.11.2019
4964 Clouds 11 1037 71 10000 2.1 80 14:21 05.11.2019
4965 Clouds 8 1037 81 6000 3.1 130 13:56 05.11.2019
4966 Clouds 8 1037 81 6000 3.1 130 13:38 05.11.2019
4967 Clouds 8 1037 81 6000 3.1 130 13:20 05.11.2019
4968 Fog 6 1036 93 4000 3.6 100 12:39 05.11.2019
4969 Fog 6 1036 93 4000 3.6 100 12:21 05.11.2019
4970 Fog 5 1035 100 8000 3.6 80 11:56 05.11.2019
4971 Fog 5 1035 100 8000 3.6 80 11:37 05.11.2019
4972 Fog 5 1035 100 8000 3.6 80 11:19 05.11.2019
4973 Fog 6 1034 93 4000 3.6 110 10:44 05.11.2019
4974 Fog 6 1034 93 4000 3.6 110 10:25 05.11.2019
4975 Fog 6 1034 93 3000 2.6 110 09:58 05.11.2019
4976 Fog 6 1034 93 3000 2.6 110 09:40 05.11.2019
4977 Fog 6 1034 93 3000 2.6 110 09:19 05.11.2019
4978 Clouds 7 1034 75 10000 2.1 350 08:55 05.11.2019
4979 Clouds 7 1034 75 10000 2.1 350 08:36 05.11.2019
4980 Clouds 7 1034 75 10000 2.1 350 08:18 05.11.2019
4981 Clouds 6 1034 81 10000 2.1 50 07:42 05.11.2019
4982 Clouds 6 1034 81 10000 2.1 50 07:23 05.11.2019
4983 Clouds 7 1034 70 10000 2.6 350 06:51 05.11.2019
4984 Clouds 7 1035 75 10000 2.6 360 05:54 05.11.2019
4985 Clouds 7 1035 75 10000 2.6 360 05:36 05.11.2019
4986 Clouds 7 1035 75 10000 2.6 360 05:18 05.11.2019
4987 Thunderstorm 6 1035 87 8000 3.6 50 04:18 05.11.2019
4988 Thunderstorm 7 1036 87 8000 3.1 140 03:23 05.11.2019
4989 Thunderstorm 7 1036 93 8000 4.1 140 02:41 05.11.2019
4990 Clouds 7 1033 75 10000 3.1 110 01:27 05.11.2019
4991 Clouds 8 1032 65 10000 3.6 20 00:39 05.11.2019
4992 Clouds 10 1031 53 10000 4.6 30 23:59 04.11.2019
4993 Clouds 10 1031 53 10000 4.6 30 23:40 04.11.2019
4994 Clouds 10 1031 53 10000 4.6 30 23:18 04.11.2019
4995 Thunderstorm 8 1032 75 8000 4.6 20 22:43 04.11.2019
4996 Thunderstorm 8 1032 75 8000 4.6 20 22:24 04.11.2019
4997 Thunderstorm 7 1032 75 8000 5.7 360 21:57 04.11.2019
4998 Thunderstorm 7 1032 75 8000 5.7 360 21:38 04.11.2019
4999 Clouds 13 1032 50 8000 4.6 80 21:20 04.11.2019
5000 Thunderstorm 14 1032 44 10000 3.6 200 20:59 04.11.2019
5001 Thunderstorm 14 1032 44 10000 3.6 200 20:40 04.11.2019
5002 Thunderstorm 14 1032 44 10000 3.6 200 20:21 04.11.2019
5003 Thunderstorm 14 1032 44 10000 3.6 200 20:21 04.11.2019
5004 Clouds 17 1033 33 10000 3.6 110 19:59 04.11.2019
5005 Clouds 17 1033 33 10000 3.6 110 19:41 04.11.2019
5006 Clouds 17 1033 33 10000 3.6 110 19:22 04.11.2019
5007 Clouds 15 1034 41 10000 2.1 130 18:57 04.11.2019
5008 Clouds 15 1034 41 10000 2.1 130 18:39 04.11.2019
5009 Clouds 15 1034 41 10000 2.1 130 18:19 04.11.2019
5010 Clouds 14 1035 47 10000 1 0 17:41 04.11.2019
5011 Clouds 14 1035 47 10000 1 0 17:41 04.11.2019
5012 Clouds 14 1035 47 10000 1 0 17:22 04.11.2019
5013 Clouds 12 1036 58 10000 2.1 160 16:59 04.11.2019
5014 Clouds 12 1036 58 10000 2.1 160 16:41 04.11.2019
5015 Clouds 12 1036 58 10000 2.1 160 16:22 04.11.2019
5016 Clouds 13 1036 50 10000 1.5 220 15:56 04.11.2019
5017 Clouds 13 1036 50 10000 1.5 220 15:56 04.11.2019
5018 Clouds 13 1036 50 10000 1.5 220 15:38 04.11.2019
5019 Clouds 13 1036 50 10000 1.5 220 15:19 04.11.2019
5020 Clouds 10 1036 61 10000 2.1 140 14:56 04.11.2019
5021 Clouds 10 1036 61 10000 2.1 140 14:37 04.11.2019
5022 Clouds 10 1036 61 10000 2.1 140 14:18 04.11.2019
5023 Clouds 9 1036 66 10000 1 0 13:54 04.11.2019
5024 Clouds 9 1036 66 10000 1 0 13:36 04.11.2019
5025 Clouds 9 1036 66 10000 1 0 13:18 04.11.2019
5026 Clouds 8 1034 70 10000 2.1 190 12:41 04.11.2019
5027 Clouds 8 1034 70 10000 2.1 190 12:23 04.11.2019
5028 Clouds 8 1034 70 10000 2.61 230 11:57 04.11.2019
5029 Clouds 8 1034 70 10000 2.61 230 11:38 04.11.2019
5030 Clouds 8 1034 70 10000 2.4 238 11:20 04.11.2019
5031 Clouds 7 1033 75 10000 2.4 238 10:45 04.11.2019
5032 Clouds 7 1033 75 10000 2.4 238 10:26 04.11.2019
5033 Clouds 7 1033 81 10000 2.4 238 09:54 04.11.2019
5034 Clouds 7 1033 81 10000 2.4 238 09:36 04.11.2019
5035 Clouds 7 1033 81 10000 2.4 238 09:18 04.11.2019
5036 Clouds 7 1034 81 10000 1.5 70 08:41 04.11.2019
5037 Clouds 7 1034 81 10000 1.5 70 08:21 04.11.2019
5038 Clouds 5 1013 80 0 2.47 230 07:45 04.11.2019
5039 Clouds 7 1034 87 10000 2.6 80 07:25 04.11.2019
5040 Clouds 7 1034 87 10000 2.6 80 06:59 04.11.2019
5041 Clouds 7 1034 87 10000 2.6 80 06:36 04.11.2019
5042 Clouds 6 1035 87 10000 3.1 70 05:59 04.11.2019
5043 Rain 6 1035 93 4000 3.6 80 04:45 04.11.2019
5044 Rain 6 1035 93 4000 3.6 80 04:23 04.11.2019
5045 Thunderstorm 5 1035 86 4000 5.1 180 02:44 04.11.2019
5046 Rain 11 1033 50 10000 3.1 340 01:22 04.11.2019
5047 Clouds 11 1032 50 10000 3.1 30 00:49 04.11.2019
5048 Clouds 11 1032 50 10000 3.1 30 00:21 04.11.2019
5049 Clouds 11 1032 50 10000 3.1 30 00:21 04.11.2019
5050 Clouds 13 1031 77 10000 4.1 60 23:44 03.11.2019
5051 Clouds 13 1031 77 10000 4.1 60 23:44 03.11.2019
5052 Clouds 13 1031 67 10000 4.1 60 23:22 03.11.2019
5053 Clouds 15 1031 33 10000 4.1 60 22:59 03.11.2019
5054 Clouds 15 1031 33 10000 4.1 60 22:41 03.11.2019
5055 Clouds 15 1031 33 10000 4.1 60 22:20 03.11.2019
5056 Clouds 16 1031 67 10000 4.6 330 21:58 03.11.2019
5057 Clouds 16 1031 67 10000 4.6 330 21:39 03.11.2019
5058 Clouds 16 1031 67 10000 4.6 330 21:20 03.11.2019
5059 Clouds 14 1032 41 10000 5.7 350 20:55 03.11.2019
5060 Clouds 14 1032 41 10000 5.7 350 20:36 03.11.2019
5061 Clouds 14 1032 41 10000 5.7 350 20:18 03.11.2019
5062 Clouds 12 1034 46 10000 8.2 20 19:55 03.11.2019
5063 Clouds 12 1034 46 10000 8.2 20 19:37 03.11.2019
5064 Clouds 12 1034 46 10000 8.2 20 19:19 03.11.2019
5065 Clouds 15 1034 33 10000 5.7 100 18:39 03.11.2019
5066 Clouds 15 1034 33 10000 5.7 100 18:18 03.11.2019
5067 Clouds 14 1035 41 10000 4.6 140 17:58 03.11.2019
5068 Clouds 14 1035 41 10000 4.6 140 17:39 03.11.2019
5069 Clouds 14 1035 41 10000 4.6 140 17:18 03.11.2019
5070 Clouds 15 1036 41 10000 4.6 110 16:55 03.11.2019
5071 Clouds 15 1036 41 10000 4.6 110 16:37 03.11.2019
5072 Clouds 15 1036 41 10000 4.6 110 16:18 03.11.2019
5073 Clouds 14 1036 47 10000 5.1 120 15:45 03.11.2019
5074 Clouds 14 1036 47 10000 5.1 120 15:25 03.11.2019
5075 Clouds 11 1036 62 10000 4.6 110 14:58 03.11.2019
5076 Clouds 11 1036 62 10000 4.6 110 14:39 03.11.2019
5077 Clouds 11 1036 62 10000 4.6 110 14:18 03.11.2019
5078 Clouds 9 1036 70 6000 2.1 100 13:54 03.11.2019
5079 Clouds 9 1036 70 6000 2.1 100 13:54 03.11.2019
5080 Clouds 9 1036 70 6000 2.1 100 13:36 03.11.2019
5081 Clouds 9 1036 70 6000 2.1 100 13:18 03.11.2019
5082 Clouds 6 1035 87 6000 3.1 100 12:37 03.11.2019
5083 Clouds 6 1035 87 6000 3.1 100 12:19 03.11.2019
5084 Fog 6 1035 87 4000 3.6 100 11:54 03.11.2019
5085 Fog 6 1035 87 4000 3.6 100 11:36 03.11.2019
5086 Fog 6 1035 87 4000 3.6 100 11:18 03.11.2019
5087 Fog 3 1035 93 4000 2.6 80 10:40 03.11.2019
5088 Fog 3 1035 93 4000 2.6 80 10:22 03.11.2019
5089 Fog 4 1034 80 4000 1.69 41 09:56 03.11.2019
5090 Fog 4 1034 80 4000 1.69 41 09:38 03.11.2019
5091 Fog 4 1034 80 4000 1.69 41 09:20 03.11.2019
5092 Fog 4 1034 80 4000 1 0 08:39 03.11.2019
5093 Fog 4 1034 80 4000 1 0 08:20 03.11.2019
5094 Clouds 6 1035 75 10000 1 0 07:46 03.11.2019
5095 Clouds 6 1035 75 10000 1 0 07:25 03.11.2019
5096 Clouds 7 1035 70 10000 2.6 330 06:49 03.11.2019
5097 Clouds 7 1035 70 10000 2.6 330 06:30 03.11.2019
5098 Clouds 5 1035 75 10000 2.1 70 05:39 03.11.2019
5099 Clouds 8 1036 80 10000 3.6 60 04:56 03.11.2019
5100 Clouds 8 1036 80 10000 3.6 60 04:33 03.11.2019
5101 Clouds 9 1035 80 10000 4.6 60 03:30 03.11.2019
5102 Clouds 10 1035 53 10000 2.6 120 02:30 03.11.2019
5103 Clouds 11 1034 40 10000 3.6 80 01:59 03.11.2019
5104 Clouds 11 1034 40 10000 3.6 80 01:38 03.11.2019
5105 Clouds 11 1034 40 10000 3.6 80 01:19 03.11.2019
5106 Clouds 11 1033 40 10000 4.6 50 00:42 03.11.2019
5107 Clouds 11 1033 40 10000 4.6 50 00:23 03.11.2019
5108 Clouds 15 1033 82 10000 5.7 120 23:57 02.11.2019
5109 Clouds 15 1033 82 10000 5.7 120 23:37 02.11.2019
5110 Clouds 15 1033 61 10000 5.7 120 23:18 02.11.2019
5111 Clouds 17 1032 27 10000 4.6 90 22:55 02.11.2019
5112 Clouds 17 1032 27 10000 4.6 90 22:37 02.11.2019
5113 Clouds 17 1032 27 10000 4.6 90 22:37 02.11.2019
5114 Clouds 17 1032 27 10000 4.6 90 22:18 02.11.2019
5115 Clouds 17 1032 27 10000 4.6 90 22:18 02.11.2019
5116 Clouds 17 1032 27 10000 4.6 90 22:18 02.11.2019
5117 Clouds 18 1033 27 10000 5.1 70 21:55 02.11.2019
5118 Clouds 18 1033 27 10000 5.1 70 21:55 02.11.2019
5119 Clouds 18 1033 27 10000 5.1 70 21:37 02.11.2019
5120 Clouds 18 1033 27 10000 5.1 70 21:18 02.11.2019
5121 Clouds 18 1034 27 10000 5.1 120 20:56 02.11.2019
5122 Clouds 18 1034 27 10000 5.1 120 20:56 02.11.2019
5123 Clouds 18 1034 27 10000 5.1 120 20:38 02.11.2019
5124 Clouds 18 1034 27 10000 5.1 120 20:18 02.11.2019
5125 Clouds 18 1034 56 10000 5.1 100 19:40 02.11.2019
5126 Clouds 18 1034 56 10000 5.1 100 19:21 02.11.2019
5127 Clouds 17 1036 33 10000 6.2 120 18:56 02.11.2019
5128 Clouds 17 1036 33 10000 6.2 120 18:55 02.11.2019
5129 Clouds 17 1036 33 10000 6.2 120 18:37 02.11.2019
5130 Clouds 17 1036 33 10000 6.2 120 18:18 02.11.2019
5131 Clouds 16 1037 29 10000 5.7 140 17:55 02.11.2019
5132 Clouds 16 1037 29 10000 5.7 140 17:37 02.11.2019
5133 Clouds 16 1037 29 10000 5.7 140 17:37 02.11.2019
5134 Clouds 16 1037 29 10000 5.7 140 17:18 02.11.2019
5135 Clouds 14 1038 31 10000 4.1 130 16:40 02.11.2019
5136 Clouds 14 1038 31 10000 4.1 130 16:21 02.11.2019
5137 Clouds 13 1039 43 10000 2.1 150 15:44 02.11.2019
5138 Clouds 13 1039 43 10000 2.1 150 15:22 02.11.2019
5139 Clouds 12 1039 54 10000 2.1 110 14:59 02.11.2019
5140 Clouds 12 1039 54 10000 2.1 110 14:41 02.11.2019
5141 Clouds 12 1039 54 10000 2.1 110 14:41 02.11.2019
5142 Clouds 12 1039 54 10000 2.1 110 14:22 02.11.2019
5143 Clouds 9 1038 66 8000 3.1 110 13:55 02.11.2019
5144 Clouds 9 1038 66 8000 3.1 110 13:37 02.11.2019
5145 Clouds 9 1038 66 8000 3.1 110 13:18 02.11.2019
5146 Clouds 6 1037 81 6000 3.1 80 12:40 02.11.2019
5147 Clouds 6 1037 81 6000 3.1 80 12:22 02.11.2019
5148 Fog 1 1037 34 4000 2.6 80 11:56 02.11.2019
5149 Fog 1 1037 34 4000 2.6 80 11:38 02.11.2019
5150 Fog 1 1037 66 4000 2.6 80 11:19 02.11.2019
5151 Clouds 1 1036 66 10000 3.1 70 10:43 02.11.2019
5152 Clouds 1 1036 66 10000 3.1 70 10:24 02.11.2019
5153 Clouds 0 1036 66 10000 2.6 80 09:54 02.11.2019
5154 Clouds 0 1036 66 10000 2.6 80 09:36 02.11.2019
5155 Clouds 0 1036 66 10000 2.6 80 09:18 02.11.2019
5156 Clear 3 1036 69 10000 2.6 100 08:42 02.11.2019
5157 Clear 3 1036 69 10000 2.6 100 08:19 02.11.2019
5158 Clear 1 1037 40 10000 2.1 100 07:45 02.11.2019
5159 Clear 1 1037 40 10000 2.1 100 07:26 02.11.2019
5160 Clear 1 1037 40 10000 2.1 100 07:26 02.11.2019
5161 Clear 1 1037 40 10000 3.1 90 06:52 02.11.2019
5162 Clear 1 1037 40 10000 3.1 90 06:25 02.11.2019
5163 Clear 2 1038 34 10000 2.6 70 05:50 02.11.2019
5164 Clear 3 1038 32 10000 1.5 50 04:28 02.11.2019
5165 Clear 7 1038 26 10000 1 0 03:59 02.11.2019
5166 Clear 7 1038 26 10000 1 0 03:32 02.11.2019
5167 Clear 9 1038 24 10000 5.1 40 02:32 02.11.2019
5168 Clouds 10 1038 34 10000 4.6 40 01:36 02.11.2019
5169 Clouds 10 1038 34 10000 4.6 40 01:18 02.11.2019
5170 Clouds 10 1037 39 10000 5.1 30 00:42 02.11.2019
5171 Clouds 10 1037 39 10000 5.1 30 00:22 02.11.2019
5172 Clouds 13 1036 32 10000 5.7 80 23:42 01.11.2019
5173 Clouds 13 1036 32 10000 5.7 80 23:42 01.11.2019
5174 Clouds 13 1036 32 10000 5.7 80 23:20 01.11.2019
5175 Clouds 15 1036 28 10000 6.2 70 22:42 01.11.2019
5176 Clouds 15 1036 28 10000 6.2 70 22:21 01.11.2019
5177 Clouds 16 1036 29 10000 5.1 80 21:55 01.11.2019
5178 Clouds 16 1036 29 10000 5.1 80 21:36 01.11.2019
5179 Clouds 16 1036 29 10000 5.1 80 21:18 01.11.2019
5180 Clouds 17 1037 27 10000 5.1 80 20:42 01.11.2019
5181 Clouds 17 1037 27 10000 5.1 80 20:23 01.11.2019
5182 Clouds 16 1038 29 10000 5.1 100 19:59 01.11.2019
5183 Clouds 16 1038 29 10000 5.1 100 19:59 01.11.2019
5184 Clouds 16 1038 29 10000 5.1 100 19:59 01.11.2019
5185 Clouds 16 1038 29 10000 5.1 100 19:59 01.11.2019
5186 Clouds 16 1038 29 10000 5.1 100 19:40 01.11.2019
5187 Clouds 16 1038 29 10000 5.1 100 19:21 01.11.2019
5188 Clouds 16 1039 29 10000 6.2 90 18:41 01.11.2019
5189 Clouds 16 1039 29 10000 6.2 90 18:21 01.11.2019
5190 Clouds 16 1039 31 10000 6.2 110 17:58 01.11.2019
5191 Clouds 16 1039 31 10000 6.2 110 17:40 01.11.2019
5192 Clouds 16 1039 31 10000 6.2 110 17:22 01.11.2019
5193 -273 0 0 0 0 0 16:40 01.11.2019
5194 Clouds 14 1040 41 10000 4.1 80 16:20 01.11.2019
5195 Clouds 14 1040 41 10000 5.1 90 15:56 01.11.2019
5196 Clouds 14 1040 41 10000 5.1 90 15:38 01.11.2019
5197 Clouds 14 1040 41 10000 5.1 90 15:20 01.11.2019
5198 Clouds 12 1040 46 10000 4.6 60 14:43 01.11.2019
5199 Clouds 12 1040 46 10000 4.6 60 14:24 01.11.2019
5200 Clouds 10 1040 61 10000 1 0 13:58 01.11.2019
5201 Clouds 10 1040 61 10000 1 0 13:39 01.11.2019
5202 Clouds 10 1040 61 10000 1 0 13:21 01.11.2019
5203 Clouds 6 1039 87 10000 2.1 230 12:44 01.11.2019
5204 Clouds 6 1039 87 10000 2.1 230 12:26 01.11.2019
5205 Clouds 4 1038 93 10000 1 0 11:59 01.11.2019
5206 Clouds 4 1038 93 10000 1 0 11:40 01.11.2019
5207 Clouds 4 1038 93 10000 1 0 11:22 01.11.2019
5208 Clouds 4 1038 86 10000 1 0 10:42 01.11.2019
5209 Clouds 4 1038 86 10000 1 0 10:24 01.11.2019
5210 Clouds 6 1038 87 10000 3.1 130 09:58 01.11.2019
5211 Clouds 6 1038 87 10000 3.1 130 09:58 01.11.2019
5212 Clouds 6 1038 87 10000 3.1 130 09:40 01.11.2019
5213 Clouds 6 1038 87 10000 3.1 130 09:20 01.11.2019
5214 Clouds 6 1037 81 10000 3.6 70 08:45 01.11.2019
5215 Clouds 6 1037 81 10000 3.6 70 08:22 01.11.2019
5216 Clouds 7 1038 75 10000 5.1 80 07:57 01.11.2019
5217 Clouds 7 1038 75 10000 5.1 80 07:38 01.11.2019
5218 Clouds 7 1038 75 10000 5.1 80 07:19 01.11.2019
5219 Clouds 8 1038 65 10000 4.6 80 06:46 01.11.2019
5220 Clouds 8 1038 65 10000 4.6 80 06:22 01.11.2019
5221 Clouds 9 1038 57 10000 5.1 60 05:43 01.11.2019
5222 Clouds 9 1038 61 10000 4.1 60 03:57 01.11.2019
5223 Clouds 10 1037 57 10000 4.1 60 02:49 01.11.2019
5224 Clouds 10 1037 57 10000 4.1 60 02:49 01.11.2019
5225 Clouds 12 1037 40 10000 4.6 120 01:31 01.11.2019
5226 Clouds 13 1036 43 10000 3.6 280 00:40 01.11.2019
5227 Clouds 13 1036 43 10000 3.6 280 00:18 01.11.2019
5228 Clouds 15 1035 26 10000 2.6 120 23:43 31.10.2019
5229 Clouds 15 1035 26 10000 2.6 120 23:23 31.10.2019
5230 Clouds 16 1035 21 10000 3.1 220 22:55 31.10.2019
5231 Clouds 16 1035 21 10000 3.1 220 22:37 31.10.2019
5232 Clouds 16 1035 21 10000 3.1 220 22:18 31.10.2019
5233 Clouds 17 1035 21 10000 5.1 100 21:42 31.10.2019
5234 Clouds 17 1035 21 10000 5.1 100 21:20 31.10.2019
5235 Clouds 17 1037 23 10000 5.1 100 20:56 31.10.2019
5236 Clouds 17 1037 23 10000 5.1 100 20:37 31.10.2019
5237 Clouds 17 1037 23 10000 5.1 100 20:19 31.10.2019
5238 Clouds 17 1038 25 10000 6.7 90 19:40 31.10.2019
5239 Clouds 17 1038 25 10000 6.7 90 19:40 31.10.2019
5240 Clouds 17 1038 25 10000 6.7 90 19:21 31.10.2019
5241 Clouds 16 1039 29 10000 6.7 80 18:56 31.10.2019
5242 Clouds 16 1039 29 10000 6.7 80 18:36 31.10.2019
5243 Clouds 16 1039 29 10000 6.7 80 18:18 31.10.2019
5244 Clouds 14 1040 33 10000 7.2 50 17:41 31.10.2019
5245 Clouds 14 1040 33 10000 7.2 50 17:21 31.10.2019
5246 Clouds 12 1041 44 10000 4.6 40 16:56 31.10.2019
5247 Clouds 12 1041 44 10000 4.6 40 16:37 31.10.2019
5248 Clouds 12 1041 44 10000 4.6 40 16:18 31.10.2019
5249 Clouds 13 1041 44 10000 4.1 70 15:41 31.10.2019
5250 Clouds 13 1041 44 10000 4.1 70 15:23 31.10.2019
5251 Clouds 11 1040 57 10000 3.1 130 14:59 31.10.2019
5252 Clouds 11 1040 57 10000 3.1 130 14:41 31.10.2019
5253 Clouds 11 1040 57 10000 3.1 130 14:23 31.10.2019
5254 Clouds 9 1040 57 10000 3.6 360 13:59 31.10.2019
5255 Clouds 9 1040 57 10000 3.6 360 13:39 31.10.2019
5256 Clouds 9 1040 57 10000 3.6 360 13:19 31.10.2019
5257 Clouds 6 1039 81 6000 3.6 130 12:57 31.10.2019
5258 Clouds 6 1039 81 6000 3.6 130 12:38 31.10.2019
5259 Clouds 6 1039 81 6000 3.6 130 12:18 31.10.2019
5260 Fog 4 1038 93 4000 3.1 80 11:45 31.10.2019
5261 Fog 4 1038 93 4000 3.1 80 11:21 31.10.2019
5262 Clouds 4 1037 80 10000 2.6 120 10:58 31.10.2019
5263 Clouds 4 1037 80 10000 2.6 120 10:39 31.10.2019
5264 Clouds 4 1037 80 10000 2.6 120 10:20 31.10.2019
5265 Clouds 3 1037 84 10000 3.1 90 09:47 31.10.2019
5266 Clouds 3 1037 84 10000 3.1 90 09:20 31.10.2019
5267 Clouds 4 1037 60 10000 2.6 70 08:58 31.10.2019
5268 Clouds 4 1037 60 10000 2.6 70 08:39 31.10.2019
5269 Clouds 4 1037 60 10000 2.6 70 08:39 31.10.2019
5270 Clear 4 1037 60 10000 2.6 70 08:21 31.10.2019
5271 Clear 4 1015 56 0 2.76 36 07:46 31.10.2019
5272 Clear 2 1037 40 10000 1 0 07:26 31.10.2019
5273 Clear 2 1037 40 10000 1 0 06:52 31.10.2019
5274 Clear 2 1037 40 10000 1 0 06:31 31.10.2019
5275 Clear 4 1037 32 10000 1 0 05:20 31.10.2019
5276 Clear 4 1037 32 10000 1 0 05:20 31.10.2019
5277 Clear 7 1038 36 10000 2.6 40 02:50 31.10.2019
5278 Clear 7 1038 36 10000 2.6 40 02:25 31.10.2019
5279 Clouds 8 1037 42 10000 4.1 50 01:20 31.10.2019
5280 Clouds 11 1036 34 10000 5.7 40 00:26 31.10.2019
5281 Clouds 14 1036 22 10000 5.7 50 23:42 30.10.2019
5282 Clouds 14 1036 22 10000 5.7 50 23:23 30.10.2019
5283 Clouds 15 1036 24 10000 6.2 50 22:42 30.10.2019
5284 Clouds 15 1036 24 10000 6.2 50 22:19 30.10.2019
5285 Clouds 17 1036 18 10000 7.7 60 21:55 30.10.2019
5286 Clouds 17 1036 18 10000 7.7 60 21:55 30.10.2019
5287 Clouds 17 1036 18 10000 7.7 60 21:37 30.10.2019
5288 Clouds 17 1036 18 10000 7.7 60 21:37 30.10.2019
5289 Clouds 17 1036 18 10000 7.7 60 21:18 30.10.2019
5290 Clouds 19 1036 17 10000 8.2 60 20:58 30.10.2019
5291 Clouds 19 1036 17 10000 8.2 60 20:37 30.10.2019
5292 Clouds 19 1036 17 10000 8.2 60 20:37 30.10.2019
5293 Clouds 19 1036 17 10000 8.2 60 20:19 30.10.2019
5294 Clouds 20 1036 10 10000 7.2 80 19:43 30.10.2019
5295 Clouds 20 1036 10 10000 7.2 80 19:25 30.10.2019
5296 Clouds 19 1037 10 10000 8.2 70 18:59 30.10.2019
5297 Clouds 19 1037 10 10000 8.2 70 18:38 30.10.2019
5298 Clouds 19 1037 10 10000 8.2 70 18:38 30.10.2019
5299 Clouds 19 1037 10 10000 8.2 70 18:19 30.10.2019
5300 Clouds 18 1038 23 10000 5.1 120 17:56 30.10.2019
5301 Clouds 18 1038 23 10000 5.1 120 17:37 30.10.2019
5302 Clouds 18 1038 23 10000 5.1 120 17:18 30.10.2019
5303 Clouds 18 1038 23 10000 5.1 120 17:18 30.10.2019
5304 Clouds 16 1038 31 10000 3.1 140 16:54 30.10.2019
5305 Clouds 16 1038 31 10000 3.1 140 16:36 30.10.2019
5306 Clouds 16 1038 31 10000 3.1 140 16:18 30.10.2019
5307 Clouds 13 1039 37 10000 2.6 240 15:40 30.10.2019
5308 Clouds 13 1039 37 10000 2.6 240 15:21 30.10.2019
5309 Clouds 11 1039 31 10000 1 0 14:59 30.10.2019
5310 Clouds 11 1039 31 10000 1 0 14:41 30.10.2019
5311 Clouds 11 1039 37 10000 1 0 14:22 30.10.2019
5312 Clouds 9 1038 45 10000 1 0 13:55 30.10.2019
5313 Clouds 9 1038 45 10000 1 0 13:37 30.10.2019
5314 Clouds 9 1038 45 10000 1 0 13:37 30.10.2019
5315 Clouds 9 1038 45 10000 1 0 13:18 30.10.2019
5316 Clouds 5 1037 52 10000 1 0 12:45 30.10.2019
5317 Clouds 5 1037 52 10000 1 0 12:27 30.10.2019
5318 Clouds -1 1036 74 10000 1.5 70 11:58 30.10.2019
5319 Clouds -1 1036 74 10000 1.5 70 11:40 30.10.2019
5320 Clouds -1 1036 74 10000 1.5 70 11:21 30.10.2019
5321 Clouds 3 1036 59 10000 2.6 30 10:43 30.10.2019
5322 Clouds 3 1036 59 10000 2.6 30 10:23 30.10.2019
5323 Clouds 2 1035 51 10000 2.1 350 09:42 30.10.2019
5324 Clouds 2 1035 51 10000 2.1 350 09:23 30.10.2019
5325 Clouds 1 1035 59 10000 2.6 10 08:57 30.10.2019
5326 Clouds 1 1035 59 10000 2.6 10 08:39 30.10.2019
5327 Clouds 1 1035 59 10000 2.6 10 08:39 30.10.2019
5328 Clear 1 1035 59 10000 2.6 10 08:20 30.10.2019
5329 Clear -1 1035 63 10000 1 0 07:45 30.10.2019
5330 Clear 2 1036 55 10000 1 0 07:20 30.10.2019
5331 Clear 2 1036 55 10000 1 0 06:42 30.10.2019
5332 Clear 2 1036 55 10000 1 0 06:18 30.10.2019
5333 Clear 2 1036 55 10000 1 0 05:41 30.10.2019
5334 Clear 2 1036 47 10000 1 0 04:42 30.10.2019
5335 Clear 1 1036 37 10000 2.1 80 03:43 30.10.2019
5336 Clouds 6 1036 33 10000 3.6 50 02:50 30.10.2019
5337 Clouds 10 1035 31 10000 5.7 50 01:51 30.10.2019
5338 Clouds 11 1034 37 10000 6.7 40 00:49 30.10.2019
5339 Clouds 11 1034 37 10000 6.7 40 00:28 30.10.2019
5340 Clouds 13 1034 32 10000 6.7 40 23:41 29.10.2019
5341 Clouds 13 1034 32 10000 6.7 40 23:22 29.10.2019
5342 Clouds 16 1034 23 10000 6.2 50 22:45 29.10.2019
5343 Clouds 16 1034 23 10000 6.2 50 22:20 29.10.2019
5344 Clouds 17 1034 23 10000 7.7 40 21:56 29.10.2019
5345 Clouds 17 1034 23 10000 7.7 40 21:38 29.10.2019
5346 Clouds 17 1034 23 10000 7.7 40 21:20 29.10.2019
5347 Clouds 18 1035 18 10000 5.7 30 20:42 29.10.2019
5348 Clouds 18 1035 18 10000 5.7 30 20:23 29.10.2019
5349 Clouds 19 1035 17 10000 5.7 30 19:59 29.10.2019
5350 Clouds 19 1035 17 10000 5.7 30 19:40 29.10.2019
5351 Clouds 20 1036 14 10000 5.7 90 19:22 29.10.2019
5352 Clouds 18 1037 22 10000 5.1 80 18:59 29.10.2019
5353 Clouds 18 1037 22 10000 5.1 80 18:40 29.10.2019
5354 Clouds 18 1037 22 10000 5.1 80 18:21 29.10.2019
5355 Clouds 17 1037 25 10000 5.1 100 17:58 29.10.2019
5356 Clouds 17 1037 25 10000 5.1 100 17:39 29.10.2019
5357 Clouds 17 1037 25 10000 5.1 100 17:21 29.10.2019
5358 Clouds 17 1037 25 10000 5.1 100 17:21 29.10.2019
5359 Clouds 15 1038 38 10000 5.1 120 16:57 29.10.2019
5360 Clouds 15 1038 38 10000 5.1 120 16:38 29.10.2019
5361 Clouds 15 1038 38 10000 5.1 120 16:18 29.10.2019
5362 Clouds 14 1038 44 10000 4.1 120 15:42 29.10.2019
5363 Clouds 14 1038 44 10000 4.1 120 15:21 29.10.2019
5364 Clouds 13 1038 43 10000 3.6 100 14:58 29.10.2019
5365 Clouds 13 1038 43 10000 3.6 100 14:39 29.10.2019
5366 Clouds 13 1038 43 10000 3.6 100 14:39 29.10.2019
5367 Clouds 13 1038 43 10000 3.6 100 14:39 29.10.2019
5368 Clouds 13 1038 43 10000 3.6 100 14:21 29.10.2019
5369 Clouds 12 1037 37 10000 1 0 13:57 29.10.2019
5370 Clouds 12 1037 37 10000 1 0 13:38 29.10.2019
5371 Clouds 12 1037 37 10000 1 0 13:20 29.10.2019
5372 Clouds 6 1037 40 10000 1 0 12:42 29.10.2019
5373 Clouds 6 1037 40 10000 1 0 12:24 29.10.2019
5374 Clouds 4 1036 69 10000 2.1 20 11:55 29.10.2019
5375 Clouds 4 1036 69 10000 2.1 20 11:36 29.10.2019
5376 Clouds 4 1036 69 10000 2.1 20 11:18 29.10.2019
5377 Clouds 1 1036 86 10000 2.1 70 10:56 29.10.2019
5378 Clouds 1 1036 86 10000 2.1 70 10:37 29.10.2019
5379 Clouds 1 1036 86 10000 2.1 70 10:19 29.10.2019
5380 Fog 2 1036 67 4000 2.1 70 09:41 29.10.2019
5381 Fog 2 1036 67 4000 2.1 70 09:41 29.10.2019
5382 Fog 3 1036 100 4000 1 0 09:23 29.10.2019
5383 Fog 3 1036 100 4000 1 0 08:55 29.10.2019
5384 Fog 3 1036 100 4000 1 0 08:36 29.10.2019
5385 Fog 3 1036 100 4000 1 0 08:18 29.10.2019
5386 Clouds 4 1036 61 10000 2.6 40 07:47 29.10.2019
5387 Clouds 4 1036 61 10000 2.6 40 07:19 29.10.2019
5388 Clouds 4 1037 55 10000 0.96 208 06:47 29.10.2019
5389 Clouds 4 1037 55 10000 0.96 208 06:28 29.10.2019
5390 Clouds 5 1037 61 10000 1 0 05:52 29.10.2019
5391 Clouds 5 1037 61 10000 1 0 05:34 29.10.2019
5392 Clouds 3 1038 74 10000 1.5 90 04:33 29.10.2019
5393 Clouds 6 1036 60 10000 2.1 110 02:34 29.10.2019
5394 Clouds 10 1036 61 10000 3.6 110 01:54 29.10.2019
5395 Clouds 10 1036 61 10000 3.6 110 01:23 29.10.2019
5396 Clouds 12 1035 34 10000 5.1 100 00:48 29.10.2019
5397 Clouds 14 1035 28 10000 3.6 50 23:44 28.10.2019
5398 Clouds 14 1035 28 10000 3.6 50 23:21 28.10.2019
5399 Clouds 16 1034 23 10000 5.7 30 22:59 28.10.2019
5400 Clouds 16 1034 23 10000 5.7 30 22:39 28.10.2019
5401 Clouds 16 1034 23 10000 5.7 30 22:18 28.10.2019
5402 Clouds 17 1035 23 10000 4.1 20 21:56 28.10.2019
5403 Clouds 17 1035 23 10000 4.1 20 21:38 28.10.2019
5404 Clouds 17 1035 23 10000 4.1 20 21:20 28.10.2019
5405 Clouds 18 1036 22 10000 5.1 50 20:54 28.10.2019
5406 Clouds 18 1036 22 10000 5.1 50 20:36 28.10.2019
5407 Clouds 18 1036 22 10000 5.1 50 20:18 28.10.2019
5408 Clouds 17 1037 25 10000 5.7 60 19:39 28.10.2019
5409 Clouds 17 1037 25 10000 5.7 60 19:21 28.10.2019
5410 Clouds 17 1037 25 10000 5.7 60 19:21 28.10.2019
5411 Clouds 18 1037 27 10000 5.7 90 18:59 28.10.2019
5412 Clouds 18 1037 27 10000 5.7 90 18:59 28.10.2019
5413 Clouds 18 1037 27 10000 5.7 90 18:41 28.10.2019
5414 Clouds 18 1037 27 10000 5.7 90 18:21 28.10.2019
5415 Clouds 16 1038 36 10000 5.1 120 17:57 28.10.2019
5416 Clouds 16 1038 36 10000 5.1 120 17:39 28.10.2019
5417 Clouds 16 1038 36 10000 5.1 120 17:20 28.10.2019
5418 Clouds 16 1038 36 10000 3.1 140 16:57 28.10.2019
5419 Clouds 16 1038 36 10000 3.1 140 16:39 28.10.2019
5420 Clouds 16 1038 36 10000 3.1 140 16:21 28.10.2019
5421 Clouds 15 1039 41 10000 2.1 180 15:58 28.10.2019
5422 Clouds 15 1039 41 10000 2.1 180 15:58 28.10.2019
5423 Clouds 15 1039 41 10000 2.1 180 15:39 28.10.2019
5424 Clouds 15 1039 41 10000 2.1 180 15:20 28.10.2019
5425 Clouds 12 1039 50 10000 1 0 14:56 28.10.2019
5426 Clouds 12 1039 50 10000 1 0 14:38 28.10.2019
5427 Clouds 12 1039 50 10000 1 0 14:18 28.10.2019
5428 Clouds 11 1039 66 10000 1 0 13:54 28.10.2019
5429 Clouds 11 1039 66 10000 1 0 13:36 28.10.2019
5430 Clouds 11 1039 66 10000 1 0 13:18 28.10.2019
5431 Fog 6 1038 93 4000 1 0 12:41 28.10.2019
5432 Fog 6 1038 93 4000 1 0 12:41 28.10.2019
5433 Fog 6 1038 93 4000 1 0 12:20 28.10.2019
5434 Fog 6 1038 93 4000 1 0 12:20 28.10.2019
5435 Fog 4 1037 93 3000 3.1 60 11:40 28.10.2019
5436 Fog 4 1037 93 3000 3.1 60 11:21 28.10.2019
5437 Fog 4 1036 100 4000 2.6 70 10:57 28.10.2019
5438 Fog 4 1036 100 4000 2.6 70 10:38 28.10.2019
5439 Fog 4 1036 100 4000 2.6 70 10:19 28.10.2019
5440 Fog 2 1036 93 4000 2.1 80 09:55 28.10.2019
5441 Fog 2 1036 93 4000 2.1 80 09:36 28.10.2019
5442 Fog 2 1036 93 4000 2.1 80 09:18 28.10.2019
5443 Fog 2 1036 93 4000 2.1 80 09:18 28.10.2019
5444 Clouds 4 1036 86 10000 4.1 80 08:56 28.10.2019
5445 Clouds 4 1036 86 10000 4.1 80 08:37 28.10.2019
5446 Clouds 4 1036 86 10000 4.1 80 08:18 28.10.2019
5447 Clouds 3 1037 100 10000 3.1 60 07:43 28.10.2019
5448 Clouds 3 1037 100 10000 3.1 60 07:21 28.10.2019
5449 Clouds 3 1037 86 10000 1 0 06:56 28.10.2019
5450 Clouds 3 1037 86 10000 1 0 06:34 28.10.2019
5451 Clouds 7 1037 81 10000 2.6 100 04:49 28.10.2019
5452 Clouds 9 1037 70 10000 3.6 110 03:44 28.10.2019
5453 Clouds 8 1036 65 10000 2.6 110 02:45 28.10.2019
5454 Rain 11 1036 57 10000 4.1 90 01:36 28.10.2019
5455 Clouds 13 1035 50 10000 6.2 120 00:46 28.10.2019
5456 Clouds 13 1035 50 10000 6.2 120 00:23 28.10.2019
5457 Clouds 16 1034 29 10000 4.1 80 23:44 27.10.2019
5458 Clouds 16 1034 29 10000 4.1 80 23:21 27.10.2019
5459 Clouds 18 1034 25 10000 5.1 50 22:56 27.10.2019
5460 Clouds 18 1034 25 10000 5.1 50 22:37 27.10.2019
5461 Clouds 18 1034 25 10000 5.1 50 22:18 27.10.2019
5462 Clouds 21 1034 12 10000 5.1 140 21:40 27.10.2019
5463 Clouds 21 1034 12 10000 5.1 140 21:22 27.10.2019
5464 Clouds 19 1035 10 10000 6.2 140 20:59 27.10.2019
5465 Clouds 19 1035 10 10000 6.2 140 20:40 27.10.2019
5466 Clouds 19 1035 10 10000 6.2 140 20:22 27.10.2019
5467 Clouds 18 1036 13 10000 5.7 140 19:57 27.10.2019
5468 Clouds 18 1036 13 10000 5.7 140 19:37 27.10.2019
5469 Clouds 18 1036 13 10000 5.7 140 19:19 27.10.2019
5470 Clouds 18 1037 10 10000 7.2 120 18:56 27.10.2019
5471 Clouds 18 1037 10 10000 7.2 120 18:37 27.10.2019
5472 Clouds 18 1037 10 10000 7.2 120 18:19 27.10.2019
5473 Clouds 17 1038 14 10000 6.2 110 17:41 27.10.2019
5474 Clouds 17 1038 14 10000 6.2 110 17:22 27.10.2019
5475 Clouds 16 1039 25 10000 5.1 120 16:59 27.10.2019
5476 Clouds 16 1039 25 10000 5.1 120 16:40 27.10.2019
5477 Clouds 16 1039 25 10000 5.1 120 16:40 27.10.2019
5478 Clouds 16 1039 25 10000 5.1 120 16:22 27.10.2019
5479 Clouds 15 1040 33 10000 2.1 150 15:58 27.10.2019
5480 Clouds 15 1040 33 10000 2.1 150 15:39 27.10.2019
5481 Clouds 15 1040 33 10000 2.1 150 15:20 27.10.2019
5482 Rain 13 1039 43 10000 2.1 200 14:44 27.10.2019
5483 Clouds 13 1039 43 10000 2.1 200 14:24 27.10.2019
5484 Clouds 10 1039 57 10000 1.78 230 13:59 27.10.2019
5485 Clouds 10 1039 57 10000 1.78 230 13:40 27.10.2019
5486 Clouds 10 1039 57 10000 1.49 226 13:22 27.10.2019
5487 Clouds 6 1038 70 10000 1.5 20 12:59 27.10.2019
5488 Clouds 6 1038 70 10000 1.5 20 12:41 27.10.2019
5489 Clouds 6 1038 70 10000 1.5 20 12:23 27.10.2019
5490 Clouds -1 1037 92 10000 1.49 226 11:42 27.10.2019
5491 Clouds -1 1037 92 10000 1.49 226 11:24 27.10.2019
5492 Clouds -1 1037 92 10000 1.49 226 11:24 27.10.2019
5493 Fog 1 1037 82 4000 1.5 60 10:56 27.10.2019
5494 Fog 1 1037 82 4000 1.5 60 10:37 27.10.2019
5495 Fog 1 1037 82 4000 1.5 60 10:18 27.10.2019
5496 Clouds 2 1036 93 10000 1 0 09:42 27.10.2019
5497 Clouds 2 1036 93 10000 1 0 09:19 27.10.2019
5498 Clouds 2 1036 93 10000 1 0 09:19 27.10.2019
5499 Clouds 2 1036 93 10000 1 0 09:19 27.10.2019
5500 Fog 2 1037 93 4000 1.5 50 08:57 27.10.2019
5501 Fog 2 1037 93 4000 1.5 50 08:37 27.10.2019
5502 Fog 2 1037 93 4000 1.5 50 08:18 27.10.2019
5503 Fog 3 1037 93 4000 1 0 07:45 27.10.2019
5504 Fog 3 1037 93 4000 1 0 07:25 27.10.2019
5505 Fog 3 1037 93 4000 1 0 07:25 27.10.2019
5506 Fog 4 1038 93 4000 2.1 70 06:52 27.10.2019
5507 Fog 4 1038 93 4000 2.1 70 06:29 27.10.2019
5508 Clouds 3 1038 86 10000 2.6 90 05:45 27.10.2019
5509 Clouds 3 1038 86 10000 2.6 90 05:45 27.10.2019
5510 Clouds 5 1038 75 10000 3.1 80 04:56 27.10.2019
5511 Clouds 4 1038 80 10000 3.6 60 03:34 27.10.2019
5512 Clouds 8 1038 69 10000 2.1 30 02:21 27.10.2019
5513 -273 0 0 0 0 0 01:54 27.10.2019
5514 Clouds 9 1037 71 10000 3.1 80 01:23 27.10.2019
5515 Clouds 13 1036 71 10000 3.1 360 00:51 27.10.2019
5516 Clouds 13 1036 71 10000 3.1 360 00:28 27.10.2019
5517 Clouds 13 1036 50 10000 5.1 350 23:57 26.10.2019
5518 Clouds 13 1036 50 10000 5.1 350 23:38 26.10.2019
5519 Clouds 13 1036 50 10000 5.1 350 23:20 26.10.2019
5520 Clouds 11 1036 53 10000 7.2 270 22:56 26.10.2019
5521 Clouds 11 1036 53 10000 7.2 270 22:37 26.10.2019
5522 Clouds 11 1036 53 10000 7.2 270 22:18 26.10.2019
5523 Thunderstorm 8 1037 81 8000 11.8 240 21:43 26.10.2019
5524 Clouds 16 1036 36 10000 2.6 70 21:21 26.10.2019
5525 Clouds 17 1037 33 10000 4.6 100 20:55 26.10.2019
5526 Clouds 17 1037 33 10000 4.6 100 20:36 26.10.2019
5527 Clouds 17 1037 33 10000 4.6 100 20:18 26.10.2019
5528 Clouds 15 1038 41 10000 3.1 110 19:41 26.10.2019
5529 Clouds 15 1038 41 10000 3.1 110 19:20 26.10.2019
5530 Clouds 16 1039 41 10000 3.1 120 18:56 26.10.2019
5531 Clouds 16 1039 41 10000 3.1 120 18:38 26.10.2019
5532 Clouds 16 1039 41 10000 3.1 120 18:18 26.10.2019
5533 Clouds 14 1040 50 10000 1 0 17:56 26.10.2019
5534 Clouds 14 1040 50 10000 1 0 17:36 26.10.2019
5535 Clouds 14 1040 50 10000 1 0 17:18 26.10.2019
5536 Clouds 13 1040 50 10000 1 0 16:43 26.10.2019
5537 Clouds 13 1040 50 10000 1 0 16:24 26.10.2019
5538 -273 0 0 0 0 0 16:24 26.10.2019
5539 Clouds 11 1040 62 10000 1 0 15:43 26.10.2019
5540 Clouds 11 1040 62 10000 1 0 15:21 26.10.2019
5541 Clouds 10 1040 66 10000 1 0 14:54 26.10.2019
5542 Clouds 10 1040 66 10000 1 0 14:36 26.10.2019
5543 Clouds 10 1040 66 10000 1 0 14:18 26.10.2019
5544 Clouds 7 1039 81 10000 1 0 13:41 26.10.2019
5545 Clouds 7 1039 81 10000 1 0 13:21 26.10.2019
5546 Clouds 7 1020 47 0 0.67 94 12:49 26.10.2019
5547 Clouds 5 1038 86 10000 1 0 12:25 26.10.2019
5548 Clouds 5 1038 86 10000 1 0 11:50 26.10.2019
5549 Clouds 5 1038 86 10000 1 0 11:29 26.10.2019
5550 Fog 5 1038 93 4000 2.6 100 10:57 26.10.2019
5551 Fog 5 1038 93 4000 2.6 100 10:39 26.10.2019
5552 Fog 5 1038 93 4000 2.6 100 10:21 26.10.2019
5553 Fog 5 1038 93 4000 2.6 100 09:44 26.10.2019
5554 Fog 5 1038 93 4000 2.6 100 09:26 26.10.2019
5555 Fog 4 1038 93 4000 2.1 70 08:44 26.10.2019
5556 Fog 4 1038 93 4000 2.1 70 08:25 26.10.2019
5557 Fog 6 1038 87 4000 1 0 07:54 26.10.2019
5558 Fog 6 1038 87 4000 1 0 07:28 26.10.2019
5559 Clouds 6 1039 70 10000 2.1 10 06:45 26.10.2019
5560 Clouds 6 1039 70 10000 2.1 10 06:26 26.10.2019
5561 Clouds 7 1039 81 10000 2.1 120 05:21 26.10.2019
5562 Clouds 7 1040 81 10000 4.1 100 04:24 26.10.2019
5563 Clouds 8 1037 65 10000 4.1 110 02:47 26.10.2019
5564 Clouds 7 1037 81 10000 3.1 40 01:55 26.10.2019
5565 Clouds 6 1037 81 10000 6.2 30 01:22 26.10.2019
5566 Thunderstorm 5 1039 93 6000 4.6 160 00:24 26.10.2019
5567 Clouds 11 1037 51 6000 4.43 37 23:43 25.10.2019
5568 Clouds 11 1037 51 6000 4.43 37 23:20 25.10.2019
5569 Thunderstorm 17 1036 51 10000 4.1 40 22:40 25.10.2019
5570 Thunderstorm 17 1036 51 10000 4.1 40 22:22 25.10.2019
5571 Clouds 15 1036 30 10000 5.7 60 21:58 25.10.2019
5572 Clouds 15 1036 30 10000 5.7 60 21:58 25.10.2019
5573 Clouds 15 1036 30 10000 5.7 60 21:39 25.10.2019
5574 Clouds 15 1036 30 10000 5.7 60 21:19 25.10.2019
5575 Clouds 15 1036 30 10000 5.7 60 21:19 25.10.2019
5576 Clouds 15 1038 33 10000 7.7 20 20:55 25.10.2019
5577 Clouds 15 1038 33 10000 7.7 20 20:37 25.10.2019
5578 Clouds 15 1038 33 10000 7.7 20 20:18 25.10.2019
5579 Clouds 18 1038 27 10000 4.6 40 19:43 25.10.2019
5580 Clouds 18 1038 27 10000 4.6 40 19:23 25.10.2019
5581 Clouds 16 1039 36 10000 4.6 130 18:44 25.10.2019
5582 Clouds 16 1039 36 10000 4.6 130 18:22 25.10.2019
5583 Clouds 14 1040 44 10000 5.1 160 17:41 25.10.2019
5584 Clouds 14 1040 44 10000 5.1 160 17:41 25.10.2019
5585 Clouds 14 1040 44 10000 5.1 160 17:21 25.10.2019
5586 Clouds 12 1040 50 10000 3.6 160 16:54 25.10.2019
5587 Clouds 12 1040 50 10000 3.6 160 16:36 25.10.2019
5588 Clouds 12 1040 50 10000 3.6 160 16:18 25.10.2019
5589 Clouds 11 1040 57 10000 2.1 130 15:40 25.10.2019
5590 Clouds 11 1040 57 10000 2.1 130 15:22 25.10.2019
5591 Clouds 8 1040 75 6000 3.1 100 14:58 25.10.2019
5592 Clouds 8 1040 75 6000 3.1 100 14:58 25.10.2019
5593 Clouds 8 1040 75 6000 3.1 100 14:39 25.10.2019
5594 Clouds 8 1040 75 6000 3.1 100 14:20 25.10.2019
5595 Fog 4 1039 93 4000 2.6 70 13:41 25.10.2019
5596 Fog 4 1039 93 4000 2.6 70 13:23 25.10.2019
5597 Fog 3 1038 93 4000 2.1 80 12:55 25.10.2019
5598 Fog 3 1038 93 4000 2.1 80 12:37 25.10.2019
5599 Fog 3 1038 93 4000 2.1 80 12:19 25.10.2019
5600 Fog 0 1037 61 4000 2.1 100 11:40 25.10.2019
5601 Fog 0 1037 61 4000 2.1 100 11:22 25.10.2019
5602 Fog 1 1037 61 4000 2.1 60 10:57 25.10.2019
5603 Fog 1 1037 61 4000 2.1 60 10:36 25.10.2019
5604 Fog 1 1037 61 4000 2.1 60 10:18 25.10.2019
5605 Fog 4 1037 93 4000 3.6 100 09:41 25.10.2019
5606 Fog 4 1037 93 4000 3.6 100 09:21 25.10.2019
5607 Fog 4 1037 93 4000 4.6 80 08:56 25.10.2019
5608 Fog 4 1037 93 4000 4.6 80 08:38 25.10.2019
5609 Fog 4 1037 93 4000 4.6 80 08:19 25.10.2019
5610 Clouds 3 1037 66 10000 4.1 90 07:44 25.10.2019
5611 Clouds 3 1037 66 10000 4.1 90 07:26 25.10.2019
5612 Clouds 4 1038 86 10000 2.6 60 06:37 25.10.2019
5613 Clouds 3 1038 86 10000 3.1 80 05:48 25.10.2019
5614 Clouds 3 1038 86 10000 3.1 80 05:28 25.10.2019
5615 Clear 4 1038 69 10000 1 0 04:19 25.10.2019
5616 Clouds 5 1036 52 10000 2.6 80 02:34 25.10.2019
5617 Clouds 10 1035 37 10000 3.1 90 01:52 25.10.2019
5618 Clouds 12 1035 32 10000 5.1 330 00:30 25.10.2019
5619 Clouds 11 1035 40 10000 5.7 350 23:42 24.10.2019
5620 Clouds 11 1035 40 10000 5.7 350 23:24 24.10.2019
5621 Thunderstorm 12 1035 40 10000 4.6 50 22:57 24.10.2019
5622 Thunderstorm 12 1035 40 10000 4.6 50 22:38 24.10.2019
5623 Thunderstorm 12 1035 40 10000 4.6 50 22:19 24.10.2019
5624 Thunderstorm 14 1035 30 10000 6.2 60 21:57 24.10.2019
5625 Thunderstorm 14 1035 30 10000 6.2 60 21:38 24.10.2019
5626 Thunderstorm 14 1035 30 10000 6.2 60 21:38 24.10.2019
5627 Thunderstorm 14 1035 30 10000 6.2 60 21:19 24.10.2019
5628 Thunderstorm 14 1035 30 10000 6.2 60 21:19 24.10.2019
5629 Clouds 17 1036 29 10000 6.2 120 20:57 24.10.2019
5630 Clouds 17 1036 29 10000 6.2 120 20:38 24.10.2019
5631 Clouds 17 1036 29 10000 6.2 120 20:20 24.10.2019
5632 Clouds 17 1037 25 10000 4.6 140 19:54 24.10.2019
5633 Clouds 17 1037 25 10000 4.6 140 19:36 24.10.2019
5634 Clouds 17 1037 25 10000 4.6 140 19:18 24.10.2019
5635 Clouds 16 1038 26 10000 3.1 130 18:40 24.10.2019
5636 Clouds 16 1038 26 10000 3.1 130 18:22 24.10.2019
5637 Clouds 15 1039 28 10000 3.6 100 17:59 24.10.2019
5638 Clouds 15 1039 28 10000 3.6 100 17:39 24.10.2019
5639 Clouds 15 1039 28 10000 3.6 100 17:20 24.10.2019
5640 Clouds 15 1039 28 10000 3.6 100 17:20 24.10.2019
5641 Clouds 15 1039 38 10000 3.6 130 16:55 24.10.2019
5642 Clouds 15 1039 38 10000 3.6 130 16:37 24.10.2019
5643 Clouds 15 1039 38 10000 3.6 130 16:18 24.10.2019
5644 Clouds 12 1039 50 10000 2.6 90 15:55 24.10.2019
5645 Clouds 12 1039 50 10000 2.6 90 15:37 24.10.2019
5646 Clouds 12 1039 50 10000 2.6 90 15:18 24.10.2019
5647 Clouds 10 1038 61 10000 3.6 120 14:44 24.10.2019
5648 Clouds 10 1038 61 10000 3.6 120 14:26 24.10.2019
5649 Clouds 6 1037 75 10000 4.1 90 13:59 24.10.2019
5650 Clouds 6 1037 75 10000 4.1 90 13:37 24.10.2019
5651 Clouds 6 1037 75 10000 4.1 90 13:18 24.10.2019
5652 Fog 3 1036 93 4000 5.7 80 12:56 24.10.2019
5653 Fog 3 1036 93 4000 5.7 80 12:37 24.10.2019
5654 Fog 3 1036 93 4000 5.7 80 12:18 24.10.2019
5655 Fog 3 1036 93 4000 4.6 90 11:55 24.10.2019
5656 Fog 3 1036 93 4000 4.6 90 11:36 24.10.2019
5657 Fog 3 1036 93 4000 4.6 90 11:18 24.10.2019
5658 Fog 3 1035 93 4000 5.1 80 10:42 24.10.2019
5659 Fog 3 1035 93 4000 5.1 80 10:23 24.10.2019
5660 Fog 3 1036 93 4000 2.6 70 09:40 24.10.2019
5661 Fog 3 1036 93 4000 2.6 70 09:40 24.10.2019
5662 Fog 3 1036 93 4000 2.6 70 09:19 24.10.2019
5663 Clouds 1 1036 72 10000 1 0 08:58 24.10.2019
5664 Clouds 1 1036 72 10000 1 0 08:38 24.10.2019
5665 Clouds 1 1036 72 10000 1 0 08:19 24.10.2019
5666 Clouds 1 1036 72 10000 3.1 60 07:47 24.10.2019
5667 Clouds 1 1036 72 10000 3.1 60 07:23 24.10.2019
5668 Clouds 1 1036 72 10000 3.1 60 07:23 24.10.2019
5669 Clouds 3 1037 72 10000 1.5 70 06:51 24.10.2019
5670 Clouds 3 1037 72 10000 1.5 70 06:32 24.10.2019
5671 Clouds 5 1037 75 10000 1 0 05:53 24.10.2019
5672 Clouds 5 1037 75 10000 1 0 05:30 24.10.2019
5673 Clouds 6 1036 60 10000 2.6 80 03:51 24.10.2019
5674 Clouds 6 1036 60 10000 2.6 80 03:26 24.10.2019
5675 Rain 9 1035 42 10000 3.1 70 02:29 24.10.2019
5676 Rain 6 1014 84 0 5.04 39 01:57 24.10.2019
5677 Rain 6 1014 84 0 5.04 39 01:30 24.10.2019
5678 Clouds 15 1033 13 10000 5.7 110 00:47 24.10.2019
5679 Clouds 15 1033 13 10000 5.7 110 00:23 24.10.2019
5680 Clouds 18 1033 10 10000 5.1 140 23:44 23.10.2019
5681 Clouds 18 1033 10 10000 5.1 140 23:24 23.10.2019
5682 Clouds 19 1033 9 10000 5.1 90 22:57 23.10.2019
5683 Clouds 19 1033 9 10000 5.1 90 22:38 23.10.2019
5684 Clouds 19 1033 9 10000 5.1 90 22:19 23.10.2019
5685 Clouds 20 1034 8 10000 3.6 130 21:58 23.10.2019
5686 Clouds 20 1034 8 10000 3.6 130 21:39 23.10.2019
5687 Clouds 20 1034 8 10000 3.6 130 21:20 23.10.2019
5688 Clouds 20 1035 10 10000 5.1 150 20:58 23.10.2019
5689 Clouds 20 1035 10 10000 5.1 150 20:39 23.10.2019
5690 Clouds 20 1035 10 10000 5.1 150 20:39 23.10.2019
5691 Clouds 20 1035 10 10000 5.1 150 20:20 23.10.2019
5692 Clouds 19 1036 12 10000 5.1 140 19:57 23.10.2019
5693 Clouds 19 1036 12 10000 5.1 140 19:57 23.10.2019
5694 Clouds 19 1036 12 10000 5.1 140 19:38 23.10.2019
5695 Clouds 19 1036 12 10000 5.1 140 19:18 23.10.2019
5696 Clouds 18 1037 12 10000 4.6 110 18:55 23.10.2019
5697 Clouds 18 1037 12 10000 4.6 110 18:55 23.10.2019
5698 Clouds 18 1037 12 10000 4.6 110 18:36 23.10.2019
5699 Clouds 18 1037 12 10000 4.6 110 18:36 23.10.2019
5700 Clouds 18 1037 12 10000 4.6 110 18:18 23.10.2019
5701 Clouds 18 1038 13 10000 3.1 120 17:43 23.10.2019
5702 Clouds 18 1038 13 10000 3.1 120 17:20 23.10.2019
5703 Rain 17 1038 16 10000 3.1 140 16:56 23.10.2019
5704 Rain 17 1038 16 10000 3.1 140 16:37 23.10.2019
5705 Rain 17 1038 16 10000 3.1 140 16:19 23.10.2019
5706 Rain 14 1038 19 10000 3.6 130 15:41 23.10.2019
5707 Clear 14 1038 19 10000 3.6 130 15:22 23.10.2019
5708 Clear 12 1038 40 10000 1 0 14:58 23.10.2019
5709 Clear 12 1038 40 10000 1 0 14:58 23.10.2019
5710 Clear 12 1038 40 10000 1 0 14:38 23.10.2019
5711 Clear 12 1038 40 10000 1 0 14:19 23.10.2019
5712 Clouds 6 1037 81 10000 1.16 186 13:57 23.10.2019
5713 Clouds 6 1037 81 10000 1.16 186 13:38 23.10.2019
5714 Clouds 6 1037 81 10000 1.16 186 13:20 23.10.2019
5715 Clouds -2 1036 86 10000 1 0 12:41 23.10.2019
5716 Clouds -2 1036 86 10000 1 0 12:20 23.10.2019
5717 Clouds -2 1035 92 10000 2.1 100 11:58 23.10.2019
5718 Clouds -2 1035 92 10000 2.1 100 11:58 23.10.2019
5719 Clouds -2 1035 92 10000 2.1 100 11:40 23.10.2019
5720 Clouds -2 1035 92 10000 2.1 100 11:22 23.10.2019
5721 Clouds -1 1035 92 10000 2.1 80 10:59 23.10.2019
5722 Clouds -1 1035 92 10000 2.1 80 10:41 23.10.2019
5723 Clouds -1 1035 92 10000 2.1 80 10:22 23.10.2019
5724 Clouds 2 1035 93 10000 1 0 09:41 23.10.2019
5725 Clouds 2 1035 93 10000 1 0 09:41 23.10.2019
5726 Clouds 2 1035 93 10000 1 0 09:23 23.10.2019
5727 Clouds 2 1035 100 10000 3.1 60 08:57 23.10.2019
5728 Clouds 2 1035 100 10000 3.1 60 08:39 23.10.2019
5729 Clouds 2 1035 100 10000 3.1 60 08:18 23.10.2019
5730 Fog 3 1036 93 4000 3.1 70 07:45 23.10.2019
5731 Fog 3 1036 93 4000 3.1 70 07:21 23.10.2019
5732 Fog 3 1037 93 4000 2.6 80 06:45 23.10.2019
5733 Fog 3 1037 93 4000 2.6 80 06:19 23.10.2019
5734 Clouds 4 1037 80 10000 1 0 05:20 23.10.2019
5735 Clouds 8 1036 17 10000 1 0 04:33 23.10.2019
5736 Clouds 9 1034 57 10000 3.1 90 02:44 23.10.2019
5737 Clouds 12 1033 34 10000 3.1 110 01:56 23.10.2019
5738 Clouds 12 1033 34 10000 3.1 110 01:19 23.10.2019
5739 Clouds 16 1032 23 10000 4.6 100 00:35 23.10.2019
5740 Clouds 17 1032 21 10000 4.1 130 23:57 22.10.2019
5741 Clouds 17 1032 21 10000 4.1 130 23:37 22.10.2019
5742 Clouds 17 1032 21 10000 4.1 130 23:18 22.10.2019
5743 Clouds 16 1032 19 10000 3.6 220 22:41 22.10.2019
5744 Clouds 16 1032 19 10000 3.6 220 22:23 22.10.2019
5745 Clouds 17 1034 17 10000 4.6 240 21:57 22.10.2019
5746 Clouds 17 1034 17 10000 4.6 240 21:39 22.10.2019
5747 Clouds 17 1034 17 10000 4.6 240 21:19 22.10.2019
5748 Clouds 17 1035 21 10000 3.6 220 20:59 22.10.2019
5749 Clouds 17 1035 21 10000 3.6 220 20:41 22.10.2019
5750 Clouds 17 1035 21 10000 3.6 220 20:41 22.10.2019
5751 Clouds 17 1035 21 10000 3.6 220 20:23 22.10.2019
5752 Clouds 16 1036 26 10000 3.1 150 19:59 22.10.2019
5753 Clouds 16 1036 26 10000 3.1 150 19:41 22.10.2019
5754 Clouds 16 1036 26 10000 3.1 150 19:23 22.10.2019
5755 Clouds 15 1037 30 10000 2.6 200 18:56 22.10.2019
5756 Clouds 15 1037 30 10000 2.6 200 18:38 22.10.2019
5757 Clouds 15 1037 30 10000 2.6 200 18:20 22.10.2019
5758 Clouds 13 1038 32 10000 3.1 220 17:55 22.10.2019
5759 Clouds 13 1038 32 10000 3.1 220 17:36 22.10.2019
5760 Clouds 13 1038 32 10000 3.1 220 17:18 22.10.2019
5761 Clouds 12 1039 41 10000 3.1 250 16:39 22.10.2019
5762 Clouds 12 1039 41 10000 3.1 250 16:20 22.10.2019
5763 Clouds 12 1039 41 10000 3.1 250 16:20 22.10.2019
5764 Clouds 9 1039 61 10000 1 0 15:59 22.10.2019
5765 Clouds 9 1039 61 10000 1 0 15:41 22.10.2019
5766 Clouds 9 1039 61 10000 1 0 15:19 22.10.2019
5767 Clouds 8 1038 75 10000 1 0 14:47 22.10.2019
5768 Clouds 8 1038 75 10000 1 0 14:22 22.10.2019
5769 Fog 4 1037 93 4000 2.1 100 13:56 22.10.2019
5770 Fog 4 1037 93 4000 2.1 100 13:37 22.10.2019
5771 Fog 4 1037 93 4000 2.1 100 13:18 22.10.2019
5772 Fog 2 1037 93 4000 2.1 90 12:54 22.10.2019
5773 Fog 2 1037 93 4000 2.1 90 12:36 22.10.2019
5774 Fog 2 1037 93 4000 2.1 90 12:18 22.10.2019
5775 Fog 4 1036 93 4000 2.6 100 11:40 22.10.2019
5776 Fog 4 1036 93 4000 2.6 100 11:22 22.10.2019
5777 Fog 3 1036 93 4000 3.1 100 10:58 22.10.2019
5778 Fog 3 1036 93 4000 3.1 100 10:37 22.10.2019
5779 Fog 3 1036 93 4000 3.1 100 10:19 22.10.2019
5780 Fog 1 1035 84 4000 1.5 80 09:56 22.10.2019
5781 Fog 1 1035 84 4000 1.5 80 09:37 22.10.2019
5782 Fog 1 1035 84 4000 1.5 80 09:37 22.10.2019
5783 Fog 1 1035 80 4000 1.5 80 09:19 22.10.2019
5784 Fog 3 1036 100 4000 4.1 70 08:43 22.10.2019
5785 Fog 3 1036 100 4000 4.1 70 08:22 22.10.2019
5786 Fog 3 1036 93 4000 2.1 60 07:49 22.10.2019
5787 Fog 3 1036 93 4000 2.1 60 07:29 22.10.2019
5788 Clouds 4 1037 93 10000 2.6 70 06:52 22.10.2019
5789 Clouds 4 1037 93 10000 2.6 70 06:31 22.10.2019
5790 Clouds 4 1037 80 10000 2.6 90 05:58 22.10.2019
5791 Clouds 4 1037 80 10000 2.6 90 05:24 22.10.2019
5792 Clouds 9 1035 34 10000 1 0 02:48 22.10.2019
5793 Clouds 9 1035 34 10000 1 0 02:28 22.10.2019
5794 Clouds 12 1034 30 10000 5.1 110 01:28 22.10.2019
5795 Clouds 15 1034 15 10000 5.1 300 00:57 22.10.2019
5796 Clouds 15 1034 15 10000 5.1 300 00:57 22.10.2019
5797 Clouds 15 1034 15 10000 5.1 300 00:39 22.10.2019
5798 Clouds 15 1034 15 10000 5.1 300 00:20 22.10.2019
5799 Clouds 14 1034 17 10000 5.1 180 23:55 21.10.2019
5800 Clouds 14 1034 17 10000 5.1 180 23:37 21.10.2019
5801 Clouds 14 1034 17 10000 5.1 180 23:18 21.10.2019
5802 Clouds 14 1034 17 10000 5.1 180 23:18 21.10.2019
5803 Clouds 14 1034 19 10000 5.1 180 22:56 21.10.2019
5804 Clouds 14 1034 19 10000 5.1 180 22:37 21.10.2019
5805 Clouds 14 1034 19 10000 5.1 180 22:19 21.10.2019
5806 Clouds 17 1034 18 10000 2.6 100 21:41 21.10.2019
5807 Clouds 17 1034 18 10000 2.6 100 21:23 21.10.2019
5808 Clouds 15 1035 19 10000 3.6 140 20:58 21.10.2019
5809 Clouds 15 1035 19 10000 3.6 140 20:40 21.10.2019
5810 Clouds 15 1035 19 10000 3.6 140 20:21 21.10.2019
5811 Clouds 15 1036 22 10000 4.1 160 19:58 21.10.2019
5812 Clouds 15 1036 22 10000 4.1 160 19:40 21.10.2019
5813 Clouds 15 1036 22 10000 4.1 160 19:40 21.10.2019
5814 Clouds 15 1036 22 10000 4.1 160 19:21 21.10.2019
5815 Clouds 15 1038 19 10000 4.6 150 18:56 21.10.2019
5816 Clouds 15 1038 19 10000 4.6 150 18:37 21.10.2019
5817 Clouds 15 1038 19 10000 4.6 150 18:18 21.10.2019
5818 Clouds 13 1038 20 10000 6.2 120 17:55 21.10.2019
5819 Clouds 13 1038 20 10000 6.2 120 17:37 21.10.2019
5820 Clouds 13 1038 20 10000 6.2 120 17:18 21.10.2019
5821 Clouds 12 1038 34 10000 3.6 120 16:55 21.10.2019
5822 Clouds 12 1038 34 10000 3.6 120 16:37 21.10.2019
5823 Clouds 12 1038 34 10000 3.6 120 16:19 21.10.2019
5824 Clear 11 1038 37 10000 2.6 130 15:42 21.10.2019
5825 Clear 11 1038 37 10000 2.6 130 15:42 21.10.2019
5826 Clouds 11 1038 37 10000 2.6 130 15:23 21.10.2019
5827 Clouds 9 1038 34 10000 1 0 14:56 21.10.2019
5828 Clouds 9 1038 34 10000 1 0 14:37 21.10.2019
5829 Clouds 9 1038 34 10000 1 0 14:18 21.10.2019
5830 Clouds 4 1037 48 10000 1 0 13:55 21.10.2019
5831 Clouds 4 1037 48 10000 1 0 13:37 21.10.2019
5832 Clouds 4 1037 48 10000 1 0 13:18 21.10.2019
5833 Clouds -3 1037 79 10000 1 0 12:41 21.10.2019
5834 Clouds -3 1037 79 10000 1 0 12:21 21.10.2019
5835 Clouds 1 1036 64 10000 1 0 11:55 21.10.2019
5836 Clouds 1 1036 64 10000 1 0 11:55 21.10.2019
5837 Clouds 1 1036 64 10000 1 0 11:37 21.10.2019
5838 Clouds 1 1036 64 10000 1 0 11:18 21.10.2019
5839 Clouds 1 1036 64 10000 1.5 10 10:55 21.10.2019
5840 Clouds 1 1036 64 10000 1.5 10 10:36 21.10.2019
5841 Clouds 1 1036 64 10000 1.5 10 10:18 21.10.2019
5842 Clouds 3 1036 59 10000 2.1 20 09:41 21.10.2019
5843 Clouds 3 1036 59 10000 2.1 20 09:22 21.10.2019
5844 Clouds 5 1037 52 10000 1.5 350 08:43 21.10.2019
5845 Clouds 5 1037 52 10000 1.5 350 08:23 21.10.2019
5846 Clouds 5 1037 56 10000 2.1 340 07:56 21.10.2019
5847 Clouds 5 1037 56 10000 2.1 340 07:37 21.10.2019
5848 Clouds 5 1037 56 10000 2.1 340 07:18 21.10.2019
5849 Clouds 6 1037 31 10000 1.5 340 06:44 21.10.2019
5850 Clouds 6 1037 31 10000 1.5 340 06:25 21.10.2019
5851 Clouds 7 1038 70 10000 2.1 310 05:43 21.10.2019
5852 Clouds 8 1037 65 10000 1.5 310 03:42 21.10.2019
5853 Clouds 8 1036 65 10000 3.6 90 02:41 21.10.2019
5854 Clouds 8 1036 65 10000 3.6 90 02:20 21.10.2019
5855 Clouds 10 1035 53 10000 4.1 110 01:48 21.10.2019
5856 Clouds 10 1035 53 10000 4.1 110 01:20 21.10.2019
5857 Clouds 13 1034 43 10000 5.7 120 00:40 21.10.2019
5858 Clouds 13 1034 43 10000 5.7 120 00:22 21.10.2019
5859 Clouds 16 1034 31 10000 3.6 140 23:40 20.10.2019
5860 Clouds 16 1034 31 10000 3.6 140 23:21 20.10.2019
5861 Clouds 15 1035 21 10000 4.1 60 22:54 20.10.2019
5862 Clouds 15 1035 21 10000 4.1 60 22:36 20.10.2019
5863 Clouds 15 1035 21 10000 4.1 60 22:18 20.10.2019
5864 Clouds 14 1035 21 8000 4.6 240 21:40 20.10.2019
5865 Clouds 14 1035 21 8000 4.6 240 21:40 20.10.2019
5866 Clouds 14 1035 35 10000 4.1 350 21:22 20.10.2019
5867 Clouds 15 1036 22 10000 2.6 230 20:57 20.10.2019
5868 Clouds 15 1036 22 10000 2.6 230 20:38 20.10.2019
5869 Clouds 15 1036 22 10000 2.6 230 20:18 20.10.2019
5870 Clouds 15 1036 22 10000 2.6 230 20:18 20.10.2019
5871 Clouds 15 1037 28 0 4.1 260 19:55 20.10.2019
5872 Clouds 15 1037 28 0 4.1 260 19:55 20.10.2019
5873 Clouds 15 1037 28 0 4.1 260 19:37 20.10.2019
5874 Clouds 15 1037 28 0 4.1 260 19:19 20.10.2019
5875 Clouds 14 1038 28 10000 2.1 280 18:40 20.10.2019
5876 Clouds 14 1038 28 10000 2.1 280 18:22 20.10.2019
5877 Clouds 13 1039 35 10000 2.6 240 17:57 20.10.2019
5878 Clouds 13 1039 35 10000 2.6 240 17:39 20.10.2019
5879 Clouds 13 1039 35 10000 2.6 240 17:20 20.10.2019
5880 Clouds 12 1039 46 10000 1 0 16:55 20.10.2019
5881 Clouds 12 1039 46 10000 1 0 16:36 20.10.2019
5882 Clouds 12 1039 46 10000 1 0 16:18 20.10.2019
5883 Clouds 10 1039 53 10000 1 0 15:40 20.10.2019
5884 Clouds 10 1039 53 10000 1 0 15:40 20.10.2019
5885 Clouds 10 1039 53 10000 1 0 15:21 20.10.2019
5886 Clouds 8 1038 62 10000 1 0 14:58 20.10.2019
5887 Clouds 8 1038 62 10000 1 0 14:38 20.10.2019
5888 Clouds 8 1038 62 10000 1 0 14:19 20.10.2019
5889 Clouds 5 1038 80 10000 1 0 13:56 20.10.2019
5890 Clouds 5 1038 80 10000 1 0 13:37 20.10.2019
5891 Clouds 5 1038 80 10000 1 0 13:18 20.10.2019
5892 Clouds 2 1037 93 10000 1.5 40 12:57 20.10.2019
5893 Clouds 2 1037 93 10000 1.5 40 12:39 20.10.2019
5894 Clouds 2 1037 93 10000 1.5 40 12:21 20.10.2019
5895 Clouds 3 1037 93 10000 1 0 11:57 20.10.2019
5896 Clouds 3 1037 93 10000 1 0 11:38 20.10.2019
5897 Clouds 3 1037 93 10000 1 0 11:20 20.10.2019
5898 Clouds 4 1038 93 10000 1 0 10:41 20.10.2019
5899 Clouds 4 1038 93 10000 1 0 10:41 20.10.2019
5900 Clouds 4 1038 93 10000 1 0 10:22 20.10.2019
5901 Clouds 4 1038 86 10000 1 0 09:59 20.10.2019
5902 Clouds 4 1038 86 10000 1 0 09:41 20.10.2019
5903 Clouds 4 1038 86 10000 1 0 09:21 20.10.2019
5904 Clouds 4 1038 86 10000 3.1 240 08:49 20.10.2019
5905 Clouds 4 1038 86 10000 3.1 240 08:24 20.10.2019
5906 Clouds 4 1038 86 10000 2.6 40 07:51 20.10.2019
5907 Clouds 4 1038 86 10000 2.6 40 07:31 20.10.2019
5908 Clouds 4 1039 86 10000 5.7 10 06:57 20.10.2019
5909 Clouds 4 1039 86 10000 5.7 10 06:20 20.10.2019
5910 Rain 6 1040 87 4000 2.1 100 04:28 20.10.2019
5911 Fog 5 1039 93 4000 4.1 60 03:46 20.10.2019
5912 Fog 5 1039 93 4000 4.1 60 03:20 20.10.2019
5913 Rain 5 1038 93 4000 4.1 90 02:41 20.10.2019
5914 Rain 6 1037 87 10000 4.6 80 01:58 20.10.2019
5915 Rain 6 1037 87 10000 4.6 80 01:23 20.10.2019
5916 Clouds 8 1036 65 10000 6.2 180 00:56 20.10.2019
5917 Clouds 8 1036 65 10000 6.2 180 00:56 20.10.2019
5918 Clouds 8 1036 65 10000 6.2 180 00:38 20.10.2019
5919 Clouds 8 1036 65 10000 6.2 180 00:19 20.10.2019
5920 Clouds 12 1034 54 10000 5.7 90 23:42 19.10.2019
5921 Clouds 12 1034 54 10000 5.7 90 23:22 19.10.2019
5922 Clouds 11 1035 57 10000 5.7 100 22:56 19.10.2019
5923 Clouds 11 1035 57 10000 5.7 100 22:37 19.10.2019
5924 Clouds 11 1035 57 10000 5.7 100 22:18 19.10.2019
5925 Clouds 13 1035 54 10000 6.2 100 21:45 19.10.2019
5926 Clouds 13 1035 54 10000 6.2 100 21:45 19.10.2019
5927 Clouds 13 1035 54 10000 6.2 100 21:22 19.10.2019
5928 Clouds 14 1036 47 10000 3.1 110 20:45 19.10.2019
5929 Clouds 14 1036 47 10000 3.1 110 20:45 19.10.2019
5930 Clouds 14 1036 47 10000 3.1 110 20:22 19.10.2019
5931 Clouds 14 1038 41 10000 5.1 270 19:57 19.10.2019
5932 Clouds 14 1038 41 10000 5.1 270 19:39 19.10.2019
5933 Clouds 14 1038 41 10000 5.1 270 19:20 19.10.2019
5934 Clouds 13 1038 47 10000 4.6 250 18:41 19.10.2019
5935 Clouds 13 1038 47 10000 4.6 250 18:41 19.10.2019
5936 Clouds 13 1038 47 10000 4.6 250 18:23 19.10.2019
5937 Clouds 12 1039 46 10000 3.6 290 17:55 19.10.2019
5938 Clouds 12 1039 46 10000 3.6 290 17:55 19.10.2019
5939 Clouds 12 1039 46 10000 3.6 290 17:36 19.10.2019
5940 Clouds 12 1039 46 10000 3.6 290 17:18 19.10.2019
5941 Clouds 10 1039 57 10000 1 0 16:38 19.10.2019
5942 Clouds 10 1039 57 10000 1 0 16:20 19.10.2019
5943 Clouds 8 1039 70 10000 2.1 240 15:44 19.10.2019
5944 Clouds 8 1039 70 10000 2.1 240 15:26 19.10.2019
5945 Clouds 8 1039 65 10000 1 0 14:40 19.10.2019
5946 Clouds 8 1039 65 10000 1 0 14:21 19.10.2019
5947 Clouds 7 1038 75 10000 1 0 13:59 19.10.2019
5948 Clouds 7 1038 75 10000 1 0 13:41 19.10.2019
5949 Clouds 7 1038 75 10000 1 0 13:23 19.10.2019
5950 Clouds 4 1038 93 10000 1 0 12:59 19.10.2019
5951 Clouds 4 1038 93 10000 1 0 12:39 19.10.2019
5952 Clouds 4 1038 93 10000 1 0 12:21 19.10.2019
5953 Clouds 4 1037 93 10000 1 0 11:42 19.10.2019
5954 Clouds 4 1037 93 10000 1 0 11:23 19.10.2019
5955 Clouds 4 1037 93 10000 1 0 10:58 19.10.2019
5956 Clouds 4 1037 93 10000 1 0 10:40 19.10.2019
5957 Clouds 4 1037 93 10000 1 0 10:22 19.10.2019
5958 Clouds 4 1037 93 10000 1 0 10:22 19.10.2019
5959 Clouds 5 1037 86 10000 2.6 270 09:56 19.10.2019
5960 Clouds 5 1037 86 10000 2.6 270 09:37 19.10.2019
5961 Clouds 5 1037 86 10000 2.6 270 09:19 19.10.2019
5962 Fog 5 1037 93 4000 3.6 280 08:41 19.10.2019
5963 Fog 5 1037 93 4000 3.6 280 08:21 19.10.2019
5964 Fog 6 1038 87 4000 3.1 220 07:46 19.10.2019
5965 Fog 6 1038 87 4000 3.1 220 07:26 19.10.2019
5966 Fog 6 1038 87 4000 3.1 220 07:26 19.10.2019
5967 Fog 6 1038 87 4000 3.1 220 07:26 19.10.2019
5968 Fog 6 1038 93 4000 3.1 70 06:48 19.10.2019
5969 Fog 6 1038 93 4000 3.1 70 06:30 19.10.2019
5970 Clouds 6 1038 87 10000 3.1 70 05:35 19.10.2019
5971 Clouds 7 1037 75 10000 3.1 80 04:26 19.10.2019
5972 Clouds 8 1036 65 10000 4.6 80 02:50 19.10.2019
5973 Clouds 9 1035 61 10000 5.7 90 01:55 19.10.2019
5974 Clouds 9 1035 61 10000 5.7 90 01:36 19.10.2019
5975 Clouds 10 1034 53 10000 4.6 60 00:49 19.10.2019
5976 Clouds 10 1034 53 10000 4.6 60 00:28 19.10.2019
5977 Clouds 12 1033 46 10000 5.1 80 23:56 18.10.2019
5978 Clouds 12 1033 46 10000 5.1 80 23:56 18.10.2019
5979 Clouds 12 1033 46 10000 5.1 80 23:37 18.10.2019
5980 Clouds 12 1033 46 10000 5.1 80 23:19 18.10.2019
5981 Clouds 12 1034 50 10000 6.7 60 22:43 18.10.2019
5982 Clouds 12 1034 50 10000 6.7 60 22:21 18.10.2019
5983 Clouds 15 1035 33 10000 4.1 30 21:59 18.10.2019
5984 Clouds 15 1035 33 10000 4.1 30 21:39 18.10.2019
5985 Clouds 15 1035 33 10000 4.1 30 21:20 18.10.2019
5986 Clouds 13 1036 43 10000 4.1 30 20:59 18.10.2019
5987 Clouds 13 1036 43 10000 4.1 30 20:41 18.10.2019
5988 Clouds 13 1036 43 10000 4.1 30 20:21 18.10.2019
5989 Clouds 13 1037 50 10000 7.2 90 19:57 18.10.2019
5990 Clouds 13 1037 50 10000 7.2 90 19:39 18.10.2019
5991 Clouds 13 1037 50 10000 7.2 90 19:20 18.10.2019
5992 Clouds 11 1038 57 10000 4.6 60 18:57 18.10.2019
5993 Clouds 11 1038 57 10000 4.6 60 18:38 18.10.2019
5994 Clouds 11 1038 57 10000 4.6 60 18:20 18.10.2019
5995 Clouds 9 1039 61 10000 3.6 40 17:39 18.10.2019
5996 Clouds 9 1039 61 10000 3.6 40 17:20 18.10.2019
5997 Rain 8 1039 65 8000 4.6 50 16:58 18.10.2019
5998 Rain 8 1039 65 8000 4.6 50 16:37 18.10.2019
5999 Rain 8 1039 65 8000 4.6 50 16:19 18.10.2019
6000 Rain 5 1039 80 6000 5.1 30 15:41 18.10.2019
6001 Rain 5 1039 80 6000 5.1 30 15:21 18.10.2019
6002 Rain 6 1038 87 4000 2.1 80 14:59 18.10.2019
6003 Rain 6 1038 87 4000 2.1 80 14:40 18.10.2019
6004 Rain 6 1038 87 4000 2.1 80 14:22 18.10.2019
6005 Fog 5 1037 93 4000 2.6 80 13:59 18.10.2019
6006 Fog 5 1037 93 4000 2.6 80 13:41 18.10.2019
6007 Fog 5 1037 93 4000 2.6 80 13:23 18.10.2019
6008 Fog 5 1037 93 4000 2.1 60 12:56 18.10.2019
6009 Fog 5 1037 93 4000 2.1 60 12:38 18.10.2019
6010 Fog 5 1037 93 4000 2.1 60 12:38 18.10.2019
6011 Fog 5 1037 93 4000 2.1 60 12:38 18.10.2019
6012 Fog 5 1037 93 4000 2.1 60 12:20 18.10.2019
6013 Fog 5 1037 93 4000 2.1 60 12:20 18.10.2019
6014 Fog 6 1036 93 4000 3.6 80 11:55 18.10.2019
6015 Fog 6 1036 93 4000 3.6 80 11:37 18.10.2019
6016 Fog 6 1036 93 4000 3.6 80 11:18 18.10.2019
6017 Fog 5 1036 100 4000 2.6 80 10:42 18.10.2019
6018 Fog 5 1036 100 4000 2.6 80 10:22 18.10.2019
6019 Fog 6 1036 93 4000 3.1 80 09:58 18.10.2019
6020 Fog 6 1036 93 4000 3.1 80 09:40 18.10.2019
6021 Fog 6 1036 93 4000 3.1 80 09:20 18.10.2019
6022 Fog 6 1036 93 4000 2.6 80 08:57 18.10.2019
6023 Fog 6 1036 93 4000 2.6 80 08:38 18.10.2019
6024 Fog 6 1036 93 4000 2.6 80 08:20 18.10.2019
6025 Clouds 7 1037 93 10000 1 0 07:41 18.10.2019
6026 Clouds 7 1037 93 10000 1 0 07:19 18.10.2019
6027 Fog 7 1038 93 4000 2.6 70 06:38 18.10.2019
6028 Fog 7 1038 93 4000 2.6 70 06:19 18.10.2019
6029 Fog 7 1038 93 4000 2.1 110 05:54 18.10.2019
6030 Fog 7 1038 93 4000 2.1 110 05:20 18.10.2019
6031 Fog 7 1036 93 4000 3.6 70 03:42 18.10.2019
6032 Fog 7 1036 93 4000 3.6 70 03:19 18.10.2019
6033 Clouds 7 1035 87 10000 3.1 90 02:32 18.10.2019
6034 Clouds 7 1035 81 10000 4.6 90 01:42 18.10.2019
6035 Clouds 7 1035 81 10000 4.6 90 01:23 18.10.2019
6036 Clouds 9 1035 76 10000 5.1 100 00:43 18.10.2019
6037 Clouds 9 1035 76 10000 5.1 100 00:20 18.10.2019
6038 Clouds 9 1035 76 10000 5.1 100 00:20 18.10.2019
6039 Clouds 10 1035 71 10000 6.7 60 23:41 17.10.2019
6040 Clouds 10 1035 71 10000 6.7 60 23:21 17.10.2019
6041 Clouds 10 1035 71 10000 4.6 50 22:58 17.10.2019
6042 Clouds 10 1035 71 10000 4.6 50 22:58 17.10.2019
6043 Clouds 10 1035 71 10000 4.6 50 22:39 17.10.2019
6044 Clouds 10 1035 71 10000 4.6 50 22:19 17.10.2019
6045 Rain 7 1036 93 10000 6.2 60 21:58 17.10.2019
6046 Rain 7 1036 93 10000 6.2 60 21:39 17.10.2019
6047 Rain 7 1036 93 10000 6.2 60 21:20 17.10.2019
6048 Clouds 11 1037 71 10000 3.6 80 20:58 17.10.2019
6049 Clouds 11 1037 71 10000 3.6 80 20:39 17.10.2019
6050 Clouds 11 1037 71 10000 3.6 80 20:19 17.10.2019
6051 Clouds 8 1038 81 10000 1 10 19:59 17.10.2019
6052 Clouds 8 1038 81 10000 1 10 19:39 17.10.2019
6053 Clouds 8 1038 81 10000 1 10 19:19 17.10.2019
6054 Clouds 10 1039 66 10000 2.6 150 18:43 17.10.2019
6055 Clouds 10 1039 66 10000 2.6 150 18:22 17.10.2019
6056 Clouds 7 1039 87 10000 5.1 120 18:00 17.10.2019
6057 Clouds 7 1039 87 10000 5.1 120 17:41 17.10.2019
6058 Clouds 7 1039 87 10000 5.1 120 17:23 17.10.2019
6059 Rain 6 1039 93 4000 4.6 60 16:56 17.10.2019
6060 Rain 6 1039 93 4000 4.6 60 16:37 17.10.2019
6061 Rain 6 1039 93 4000 4.6 60 16:37 17.10.2019
6062 Rain 6 1039 93 4000 4.6 60 16:37 17.10.2019
6063 Rain 6 1039 93 4000 4.6 60 16:18 17.10.2019
6064 -273 0 0 0 0 0 15:55 17.10.2019
6065 Fog 7 1038 93 6000 3.6 90 15:37 17.10.2019
6066 Fog 7 1038 93 6000 3.6 90 15:18 17.10.2019
6067 Fog 8 1038 87 2000 2.6 70 14:42 17.10.2019
6068 Fog 8 1038 87 2000 2.6 70 14:23 17.10.2019
6069 Fog 8 1038 87 2000 2.6 70 14:23 17.10.2019
6070 Fog 7 1037 87 4000 2.1 110 13:55 17.10.2019
6071 Fog 7 1037 87 4000 2.1 110 13:36 17.10.2019
6072 Fog 7 1037 87 4000 2.1 110 13:18 17.10.2019
6073 Fog 6 1037 93 4000 1 0 12:41 17.10.2019
6074 Fog 6 1037 93 4000 1 0 12:20 17.10.2019
6075 Fog 5 1036 93 4000 1 0 11:58 17.10.2019
6076 Fog 5 1036 93 4000 1 0 11:40 17.10.2019
6077 Fog 5 1036 93 4000 1 0 11:19 17.10.2019
6078 Clouds 5 1036 93 10000 3.1 250 10:54 17.10.2019
6079 Clouds 5 1036 93 10000 3.1 250 10:54 17.10.2019
6080 Clouds 5 1036 93 10000 3.1 250 10:54 17.10.2019
6081 Clouds 4 1017 86 0 0.894 195 10:36 17.10.2019
6082 Clouds 5 1036 93 10000 2.1 240 10:18 17.10.2019
6083 Clouds 5 1036 93 10000 2.1 240 10:18 17.10.2019
6084 Clouds 5 1036 93 10000 2.1 240 09:41 17.10.2019
6085 Clouds 5 1036 93 10000 2.1 240 09:21 17.10.2019
6086 Clouds 6 1037 87 10000 2.6 10 08:58 17.10.2019
6087 Clouds 6 1037 87 10000 2.6 10 08:58 17.10.2019
6088 Clouds 6 1037 87 10000 2.6 10 08:39 17.10.2019
6089 Clouds 6 1037 87 10000 2.6 10 08:20 17.10.2019
6090 Clouds 5 1038 93 10000 1 50 07:53 17.10.2019
6091 Clouds 5 1038 93 10000 1 50 07:21 17.10.2019
6092 Fog 7 1038 87 4000 4.1 100 06:59 17.10.2019
6093 Fog 7 1038 87 4000 4.1 100 06:39 17.10.2019
6094 Fog 7 1038 87 4000 4.1 100 06:20 17.10.2019
6095 Fog 7 1039 87 4000 6.2 110 05:46 17.10.2019
6096 Fog 7 1039 87 4000 6.2 110 05:28 17.10.2019
6097 Fog 8 1038 87 4000 4.6 90 04:50 17.10.2019
6098 Clouds 9 1037 70 10000 3.6 90 03:52 17.10.2019
6099 Clouds 9 1036 66 10000 3.1 90 02:35 17.10.2019
6100 Clouds 11 1034 53 10000 5.1 120 00:44 17.10.2019
6101 Clouds 11 1034 53 10000 5.1 120 00:22 17.10.2019
6102 Clouds 13 1034 64 10000 4.1 100 23:59 16.10.2019
6103 -273 0 0 0 0 0 23:41 16.10.2019
6104 Clouds 13 1034 64 10000 4.1 100 23:20 16.10.2019
6105 Clouds 13 1035 64 10000 6.2 40 22:55 16.10.2019
6106 Clouds 13 1035 64 10000 6.2 40 22:55 16.10.2019
6107 Clouds 13 1035 64 10000 6.2 40 22:36 16.10.2019
6108 Clouds 13 1035 64 10000 6.2 40 22:18 16.10.2019
6109 Clouds 14 1035 41 10000 6.7 40 21:55 16.10.2019
6110 Clouds 14 1035 41 10000 6.7 40 21:37 16.10.2019
6111 Clouds 14 1035 41 10000 6.7 40 21:18 16.10.2019
6112 Clouds 16 1036 41 10000 6.2 100 20:56 16.10.2019
6113 Clouds 16 1036 41 10000 6.2 100 20:38 16.10.2019
6114 Clouds 16 1036 41 10000 6.2 100 20:19 16.10.2019
6115 Clouds 16 1037 38 10000 5.1 140 19:41 16.10.2019
6116 Clouds 16 1037 38 10000 5.1 140 19:21 16.10.2019
6117 Clouds 14 1038 47 10000 4.6 130 18:58 16.10.2019
6118 Clouds 14 1038 47 10000 4.6 130 18:38 16.10.2019
6119 Clouds 14 1038 47 10000 4.6 130 18:19 16.10.2019
6120 Clouds 14 1038 47 10000 4.6 130 18:19 16.10.2019
6121 Clouds 12 1039 54 10000 4.6 160 17:56 16.10.2019
6122 Clouds 12 1039 54 10000 4.6 160 17:37 16.10.2019
6123 Clouds 12 1039 54 10000 4.6 160 17:19 16.10.2019
6124 Clouds 11 1039 57 10000 3.6 100 16:56 16.10.2019
6125 Clouds 11 1039 57 10000 3.6 100 16:38 16.10.2019
6126 Clouds 11 1039 57 10000 3.6 100 16:19 16.10.2019
6127 Clouds 10 1039 61 10000 2.6 120 15:41 16.10.2019
6128 Clouds 10 1039 61 10000 2.6 120 15:41 16.10.2019
6129 Clouds 10 1039 61 10000 2.6 120 15:41 16.10.2019
6130 Clouds 8 1039 70 6000 2.6 100 15:20 16.10.2019
6131 -273 0 0 0 0 0 14:59 16.10.2019
6132 Clouds 8 1039 70 6000 2.6 100 14:41 16.10.2019
6133 Clouds 8 1039 70 6000 2.6 100 14:23 16.10.2019
6134 Clouds 8 1039 70 6000 2.6 100 13:59 16.10.2019
6135 Fog 5 1038 93 4000 1.5 80 13:41 16.10.2019
6136 Fog 5 1038 93 4000 1.5 80 13:22 16.10.2019
6137 Fog 5 1037 86 4000 1 0 12:44 16.10.2019
6138 Fog 5 1037 86 4000 1 0 12:20 16.10.2019
6139 Fog 5 1037 93 2500 2.6 90 11:55 16.10.2019
6140 Fog 5 1037 93 2500 2.6 90 11:37 16.10.2019
6141 Fog 5 1037 93 2500 2.6 90 11:18 16.10.2019
6142 Fog 5 1037 93 2500 2.6 90 11:18 16.10.2019
6143 Fog 5 1037 93 4000 3.1 90 10:37 16.10.2019
6144 Fog 5 1037 93 4000 3.1 90 10:18 16.10.2019
6145 Fog 4 1037 93 4000 3.1 90 09:41 16.10.2019
6146 Fog 4 1037 93 4000 3.1 90 09:22 16.10.2019
6147 Fog 2 1037 93 4000 2.6 60 08:57 16.10.2019
6148 Fog 2 1037 93 4000 2.6 60 08:39 16.10.2019
6149 Fog 2 1037 93 4000 2.6 60 08:39 16.10.2019
6150 Fog 2 1037 93 4000 2.6 60 08:20 16.10.2019
6151 Clouds 6 1038 75 10000 2.6 30 07:43 16.10.2019
6152 Clouds 6 1038 75 10000 2.6 30 07:24 16.10.2019
6153 Clouds 6 1039 75 10000 1.5 360 06:51 16.10.2019
6154 Clouds 6 1039 75 10000 1.5 360 06:30 16.10.2019
6155 Clouds 7 1039 70 10000 2.6 150 04:48 16.10.2019
6156 Clouds 8 1036 65 10000 3.6 50 02:51 16.10.2019
6157 Clouds 8 1036 52 10000 6.2 100 01:21 16.10.2019
6158 Thunderstorm 10 1036 78 10000 6.7 150 00:59 16.10.2019
6159 Thunderstorm 10 1036 78 10000 6.7 150 00:40 16.10.2019
6160 Thunderstorm 10 1036 74 10000 6.7 150 23:59 15.10.2019
6161 Thunderstorm 12 1036 46 10000 5.7 170 23:38 15.10.2019
6162 Clouds 13 1036 43 10000 3.6 230 23:20 15.10.2019
6163 Thunderstorm 14 1035 41 10000 3.1 80 22:55 15.10.2019
6164 Thunderstorm 14 1035 41 10000 3.1 80 22:37 15.10.2019
6165 Thunderstorm 14 1035 41 10000 3.1 80 22:18 15.10.2019
6166 Thunderstorm 15 1036 38 10000 5.1 50 21:54 15.10.2019
6167 Thunderstorm 15 1036 38 10000 5.1 50 21:36 15.10.2019
6168 Thunderstorm 15 1036 38 10000 5.1 50 21:18 15.10.2019
6169 Thunderstorm 13 1037 37 10000 6.7 20 20:54 15.10.2019
6170 Thunderstorm 13 1037 37 10000 6.7 20 20:54 15.10.2019
6171 Thunderstorm 13 1037 37 10000 6.7 20 20:54 15.10.2019
6172 Thunderstorm 13 1037 37 10000 6.7 20 20:36 15.10.2019
6173 Thunderstorm 13 1037 37 10000 6.7 20 20:18 15.10.2019
6174 Clouds 14 1037 47 10000 5.1 110 19:41 15.10.2019
6175 Clouds 14 1037 47 10000 5.1 110 19:20 15.10.2019
6176 Thunderstorm 14 1038 47 10000 5.1 130 18:57 15.10.2019
6177 Thunderstorm 14 1038 47 10000 5.1 130 18:39 15.10.2019
6178 Clouds 12 1039 54 10000 5.1 170 18:20 15.10.2019
6179 Clouds 13 1039 47 10000 5.1 90 17:42 15.10.2019
6180 Clouds 13 1039 47 10000 5.1 90 17:41 15.10.2019
6181 Clouds 13 1039 47 10000 5.1 90 17:41 15.10.2019
6182 Clouds 13 1039 47 10000 5.1 90 17:21 15.10.2019
6183 Clouds 13 1039 47 10000 5.1 90 16:58 15.10.2019
6184 Clouds 10 1039 61 10000 4.1 110 16:39 15.10.2019
6185 Clouds 10 1039 61 10000 4.1 110 16:20 15.10.2019
6186 Clouds 8 1039 70 6000 3.1 130 15:55 15.10.2019
6187 Clouds 8 1039 70 6000 3.1 130 15:55 15.10.2019
6188 Clouds 8 1039 70 6000 3.1 130 15:36 15.10.2019
6189 Clouds 8 1039 70 6000 3.1 130 15:18 15.10.2019
6190 Fog 6 1038 87 4000 3.1 120 14:38 15.10.2019
6191 Fog 6 1038 87 4000 3.1 120 14:20 15.10.2019
6192 Fog 4 1038 93 4000 2.6 100 13:58 15.10.2019
6193 Fog 4 1038 93 4000 2.6 100 13:40 15.10.2019
6194 Fog 4 1038 93 4000 2.6 100 13:19 15.10.2019
6195 Fog 2 1037 93 4000 2.6 70 12:43 15.10.2019
6196 Fog 2 1037 93 4000 2.6 70 12:21 15.10.2019
6197 Fog 1 1037 100 4000 2.6 70 11:57 15.10.2019
6198 Fog 1 1037 100 4000 2.6 70 11:37 15.10.2019
6199 Fog 1 1037 100 4000 2.6 70 11:19 15.10.2019
6200 Fog 1 1037 100 4000 2.6 70 11:19 15.10.2019
6201 Fog 4 1037 86 4000 2.1 90 10:44 15.10.2019
6202 Fog 4 1037 86 4000 2.1 90 10:44 15.10.2019
6203 Fog 4 1037 86 4000 2.1 90 10:21 15.10.2019
6204 Fog 5 1037 86 4000 2.6 90 09:58 15.10.2019
6205 Fog 5 1037 86 4000 2.6 90 09:38 15.10.2019
6206 Fog 5 1037 86 4000 2.6 90 09:19 15.10.2019
6207 Fog 5 1037 93 4000 2.6 110 08:43 15.10.2019
6208 Fog 4 1038 93 4000 2.1 90 08:22 15.10.2019
6209 Fog 4 1038 93 4000 2.1 90 07:59 15.10.2019
6210 Fog 4 1038 93 4000 2.1 90 07:41 15.10.2019
6211 Fog 4 1038 93 4000 2.1 90 07:20 15.10.2019
6212 Fog 2 1038 100 4000 3.1 70 06:45 15.10.2019
6213 Fog 2 1038 100 4000 3.1 70 06:26 15.10.2019
6214 Clouds 3 1039 86 10000 2.1 90 05:41 15.10.2019
6215 Clouds 3 1039 86 10000 2.1 90 05:23 15.10.2019
6216 Clouds 6 1038 81 10000 3.1 120 04:32 15.10.2019
6217 Clouds 7 1037 70 10000 3.1 110 03:37 15.10.2019
6218 Clouds 7 1037 70 10000 3.1 110 03:37 15.10.2019
6219 Clouds 8 1035 65 10000 5.1 80 02:29 15.10.2019
6220 Clouds 9 1035 61 10000 5.1 90 01:48 15.10.2019
6221 Clouds 9 1035 61 10000 5.1 90 01:19 15.10.2019
6222 Clouds 10 1034 57 10000 4.1 70 00:49 15.10.2019
6223 Clouds 10 1034 57 10000 4.1 70 00:21 15.10.2019
6224 Clouds 10 1034 57 10000 4.1 70 00:21 15.10.2019
6225 Rain 9 1035 61 10000 4.1 300 23:44 14.10.2019
6226 Rain 9 1035 61 10000 4.1 300 23:20 14.10.2019
6227 Thunderstorm 12 1035 54 10000 4.6 80 22:55 14.10.2019
6228 Thunderstorm 12 1035 54 10000 4.6 80 22:37 14.10.2019
6229 Thunderstorm 12 1035 54 10000 4.6 80 22:18 14.10.2019
6230 Clouds 13 1035 54 10000 5.7 90 21:41 14.10.2019
6231 Clouds 13 1035 54 10000 5.7 90 21:22 14.10.2019
6232 Rain 12 1036 50 8000 5.1 80 20:59 14.10.2019
6233 Rain 12 1036 50 8000 5.1 80 20:40 14.10.2019
6234 Rain 12 1036 50 8000 5.1 80 20:22 14.10.2019
6235 Clouds 12 1037 50 10000 2.6 140 19:59 14.10.2019
6236 Clouds 12 1037 50 10000 2.6 140 19:40 14.10.2019
6237 Clouds 12 1037 50 10000 2.6 140 19:22 14.10.2019
6238 Rain 11 1038 57 10000 4.1 220 18:58 14.10.2019
6239 Rain 11 1038 57 10000 4.1 220 18:58 14.10.2019
6240 Rain 11 1038 57 10000 4.1 220 18:58 14.10.2019
6241 Rain 11 1038 57 10000 4.1 220 18:38 14.10.2019
6242 Rain 11 1038 57 10000 4.1 220 18:19 14.10.2019
6243 Clouds 11 1038 53 10000 3.1 120 17:44 14.10.2019
6244 Clouds 11 1038 53 10000 3.1 120 17:26 14.10.2019
6245 Clouds 11 1038 41 10000 2.1 260 16:59 14.10.2019
6246 Clouds 11 1038 41 10000 2.1 260 16:40 14.10.2019
6247 Clouds 11 1038 41 10000 2.1 260 16:20 14.10.2019
6248 Clouds 11 1038 41 10000 2.1 260 16:20 14.10.2019
6249 Clouds 10 1038 53 10000 3.1 270 15:42 14.10.2019
6250 Clouds 10 1038 53 10000 3.1 270 15:22 14.10.2019
6251 Clouds 10 1037 71 10000 2.1 100 14:46 14.10.2019
6252 Clouds 10 1037 71 10000 2.1 100 14:26 14.10.2019
6253 Clouds 10 1037 71 10000 2.1 100 14:26 14.10.2019
6254 Fog 6 1037 87 4000 2.6 80 13:59 14.10.2019
6255 Fog 6 1037 87 4000 2.6 80 13:59 14.10.2019
6256 Fog 6 1037 87 4000 2.6 80 13:41 14.10.2019
6257 Fog 6 1037 87 4000 2.6 80 13:21 14.10.2019
6258 -273 0 0 0 0 0 12:43 14.10.2019
6259 Fog 5 1036 93 4000 2.6 90 12:21 14.10.2019
6260 Fog 6 1035 87 4000 4.1 80 12:00 14.10.2019
6261 Fog 6 1035 87 4000 4.1 80 11:41 14.10.2019
6262 Fog 6 1035 87 4000 4.1 80 11:22 14.10.2019
6263 Fog 6 1035 87 4000 3.1 80 10:44 14.10.2019
6264 Fog 6 1035 87 4000 3.1 80 10:23 14.10.2019
6265 Fog 7 1035 87 4000 1 0 09:59 14.10.2019
6266 Fog 7 1035 87 4000 1 0 09:40 14.10.2019
6267 -273 0 0 0 0 0 09:20 14.10.2019
6268 Clouds 7 1036 75 10000 1 0 08:48 14.10.2019
6269 Clouds 7 1036 75 10000 1 0 08:23 14.10.2019
6270 Clouds 8 1036 61 10000 3.6 320 07:45 14.10.2019
6271 Clouds 8 1036 61 10000 3.6 320 07:23 14.10.2019
6272 Clouds 7 1037 70 10000 4.1 310 06:56 14.10.2019
6273 Clouds 7 1037 70 10000 4.1 310 06:56 14.10.2019
6274 Clouds 7 1037 70 10000 4.1 310 06:28 14.10.2019
6275 Clouds 9 1037 66 10000 2.1 320 05:53 14.10.2019
6276 Clouds 9 1037 57 10000 1 0 04:53 14.10.2019
6277 Clouds 9 1036 57 10000 1 0 03:49 14.10.2019
6278 Clouds 9 1036 57 10000 1 0 03:22 14.10.2019
6279 Clouds 10 1033 59 10000 3.1 70 01:52 14.10.2019
6280 Clouds 10 1033 56 10000 3.1 70 01:18 14.10.2019
6281 Clouds 13 1033 56 10000 5.7 60 00:36 14.10.2019
6282 Clouds 13 1033 36 10000 5.7 60 00:18 14.10.2019
6283 Clouds 14 1032 36 10000 5.7 60 23:40 13.10.2019
6284 Clouds 14 1032 36 10000 5.7 60 23:19 13.10.2019
6285 Clouds 14 1032 36 10000 4.6 50 22:41 13.10.2019
6286 Clouds 14 1032 36 10000 4.6 50 22:22 13.10.2019
6287 Clouds 14 1032 36 10000 4.6 50 22:22 13.10.2019
6288 Clouds 15 1033 33 10000 5.1 60 21:59 13.10.2019
6289 Clouds 15 1033 33 10000 5.1 60 21:39 13.10.2019
6290 Clouds 15 1033 33 10000 5.1 60 21:19 13.10.2019
6291 Clouds 17 1034 33 10000 4.6 100 20:58 13.10.2019
6292 Clouds 17 1034 33 10000 4.6 100 20:40 13.10.2019
6293 Clouds 17 1034 33 10000 4.6 100 20:21 13.10.2019
6294 Clouds 16 1035 29 10000 3.6 100 20:00 13.10.2019
6295 Clouds 16 1035 29 10000 3.6 100 19:39 13.10.2019
6296 Clouds 16 1035 29 10000 3.6 100 19:39 13.10.2019
6297 Clouds 16 1035 29 10000 3.6 100 19:39 13.10.2019
6298 Clouds 16 1035 29 10000 3.6 100 19:21 13.10.2019
6299 -273 0 0 0 0 0 18:59 13.10.2019
6300 Clouds 14 1036 29 10000 2.6 100 18:59 13.10.2019
6301 Clouds 14 1036 29 10000 2.6 100 18:58 13.10.2019
6302 -273 0 0 0 0 0 18:58 13.10.2019
6303 Clouds 14 1036 29 10000 2.6 100 18:58 13.10.2019
6304 Clouds 14 1036 29 10000 2.6 100 18:37 13.10.2019
6305 Clouds 14 1036 35 10000 2.6 100 18:19 13.10.2019
6306 Clouds 14 1036 35 10000 2.6 100 18:19 13.10.2019
6307 Clouds 14 1036 41 10000 2.1 160 17:57 13.10.2019
6308 Clouds 14 1036 41 10000 2.1 160 17:39 13.10.2019
6309 Clouds 14 1036 41 10000 2.1 160 17:21 13.10.2019
6310 Clouds 12 1037 40 10000 1 0 16:43 13.10.2019
6311 -273 0 0 0 0 0 16:19 13.10.2019
6312 Clouds 10 1037 35 10000 2.6 240 15:57 13.10.2019
6313 -273 0 0 0 0 0 15:57 13.10.2019
6314 Clouds 10 1037 35 10000 2.6 240 15:57 13.10.2019
6315 Clouds 10 1037 35 10000 2.6 240 15:57 13.10.2019
6316 Clouds 10 1037 35 10000 2.6 240 15:38 13.10.2019
6317 Clouds 10 1037 67 10000 2.6 240 15:19 13.10.2019
6318 Clouds 7 1037 56 10000 1 0 14:57 13.10.2019
6319 Clouds 7 1037 56 10000 1 0 14:38 13.10.2019
6320 Clouds 7 1037 56 10000 1 0 14:19 13.10.2019
6321 Clouds 2 1036 67 10000 2.6 70 13:41 13.10.2019
6322 Clouds 2 1036 68 10000 2.6 70 13:23 13.10.2019
6323 Clouds -1 1035 86 10000 2.6 80 12:59 13.10.2019
6324 Clouds -1 1035 86 10000 2.6 80 12:39 13.10.2019
6325 Clouds -1 1035 86 10000 2.6 80 12:20 13.10.2019
6326 Clouds -1 1034 86 10000 1 0 11:58 13.10.2019
6327 Clouds -1 1034 86 10000 1 0 11:39 13.10.2019
6328 Clouds -1 1034 86 10000 1 0 11:20 13.10.2019
6329 Clouds 0 1034 88 10000 2.1 50 10:56 13.10.2019
6330 Clouds 0 1034 88 10000 2.1 50 10:38 13.10.2019
6331 Clouds 0 1034 88 10000 2.1 50 10:19 13.10.2019
6332 Fog 3 1034 86 4000 1 0 09:39 13.10.2019
6333 Fog 3 1034 86 4000 1 0 09:20 13.10.2019
6334 Fog 0 1034 78 4000 2.1 70 08:43 13.10.2019
6335 Fog 0 1034 78 4000 2.1 70 08:25 13.10.2019
6336 Fog 0 1034 78 4000 2.1 70 07:51 13.10.2019
6337 Fog 0 1034 78 4000 2.1 70 07:33 13.10.2019
6338 Clouds 1 1035 86 10000 2.6 70 06:51 13.10.2019
6339 Clouds 1 1035 86 10000 2.6 70 06:23 13.10.2019
6340 Clouds 1 1035 86 10000 2.6 70 06:23 13.10.2019
6341 Clear 0 1035 71 10000 3.6 70 05:19 13.10.2019
6342 Clear 1 1035 55 10000 3.1 80 04:34 13.10.2019
6343 Clouds 6 1034 52 10000 1.5 90 02:53 13.10.2019
6344 Clouds 6 1034 52 10000 1.5 90 02:27 13.10.2019
6345 Clouds 9 1033 42 10000 2.6 80 01:36 13.10.2019
6346 Clouds 13 1033 32 10000 5.1 80 00:55 13.10.2019
6347 Clouds 13 1033 32 10000 5.1 80 00:37 13.10.2019
6348 Clouds 13 1033 32 10000 5.1 80 00:18 13.10.2019
6349 Clouds 15 1033 26 10000 2.6 80 23:41 12.10.2019
6350 Clouds 15 1033 26 10000 2.6 80 23:22 12.10.2019
6351 Clouds 14 1033 24 10000 2.6 330 22:58 12.10.2019
6352 Clouds 14 1033 24 10000 2.6 330 22:40 12.10.2019
6353 Clouds 14 1033 24 10000 2.6 330 22:21 12.10.2019
6354 Clouds 10 1034 46 10000 7.2 330 21:57 12.10.2019
6355 Clouds 10 1034 46 10000 7.2 330 21:38 12.10.2019
6356 Clouds 10 1034 46 10000 7.2 330 21:19 12.10.2019
6357 Thunderstorm 13 1034 37 10000 4.6 60 20:44 12.10.2019
6358 Clouds 15 1035 33 10000 4.6 100 20:26 12.10.2019
6359 Clouds 14 1036 28 10000 2.6 200 19:42 12.10.2019
6360 Clouds 14 1036 28 10000 2.6 200 19:23 12.10.2019
6361 Clouds 14 1037 26 10000 3.1 340 18:59 12.10.2019
6362 Clouds 14 1037 26 10000 3.1 340 18:59 12.10.2019
6363 Clouds 14 1037 26 10000 3.1 340 18:41 12.10.2019
6364 Clouds 14 1037 26 10000 3.1 340 18:23 12.10.2019
6365 Clouds 13 1038 24 10000 3.1 290 17:45 12.10.2019
6366 Clouds 13 1038 24 10000 3.1 290 17:20 12.10.2019
6367 Clouds 11 1038 37 10000 1 0 16:55 12.10.2019
6368 Clouds 11 1038 37 10000 1 0 16:37 12.10.2019
6369 Clouds 11 1038 37 10000 1 0 16:18 12.10.2019
6370 Clouds 9 1038 57 10000 1 0 15:44 12.10.2019
6371 Clouds 9 1038 57 10000 1 0 15:25 12.10.2019
6372 -273 0 0 0 0 0 15:25 12.10.2019
6373 Clouds 6 1037 75 10000 1 0 14:55 12.10.2019
6374 Clouds 6 1037 75 10000 1 0 14:55 12.10.2019
6375 Clouds 6 1037 75 10000 1 0 14:37 12.10.2019
6376 Fog 2 1036 93 4000 1 0 14:18 12.10.2019
6377 Fog 2 1036 93 4000 1 0 13:43 12.10.2019
6378 Fog 2 1036 93 4000 1 0 13:25 12.10.2019
6379 Fog -1 1036 92 4000 2.1 70 12:40 12.10.2019
6380 Fog -1 1036 92 4000 2.1 70 12:22 12.10.2019
6381 Fog -1 1035 92 4000 2.6 50 11:59 12.10.2019
6382 Fog -1 1035 92 4000 2.6 50 11:39 12.10.2019
6383 Fog -1 1035 92 4000 2.6 50 11:20 12.10.2019
6384 Fog 0 1035 79 4000 3.1 80 10:44 12.10.2019
6385 Fog 0 1035 79 4000 2.6 60 10:24 12.10.2019
6386 Fog 0 1035 79 4000 2.6 60 09:58 12.10.2019
6387 Fog 0 1035 79 4000 2.6 60 09:58 12.10.2019
6388 Fog 0 1035 79 4000 2.6 60 09:39 12.10.2019
6389 Fog 0 1035 70 4000 2.6 60 09:21 12.10.2019
6390 Clear -2 1035 79 10000 3.1 80 08:57 12.10.2019
6391 Clear -2 1035 79 10000 3.1 80 08:38 12.10.2019
6392 Clear -2 1035 79 10000 3.1 80 08:19 12.10.2019
6393 Clear -1 1036 68 10000 2.6 60 07:34 12.10.2019
6394 Clear 1 1036 55 10000 1 0 06:56 12.10.2019
6395 Clear 4 1037 48 10000 1.5 10 05:47 12.10.2019
6396 Clear 4 1037 48 10000 1.5 10 05:23 12.10.2019
6397 Clear 6 1037 48 10000 1 0 04:24 12.10.2019
6398 Clear 6 1036 56 10000 1 0 03:30 12.10.2019
6399 Clouds 9 1035 39 10000 4.6 90 01:38 12.10.2019
6400 Clouds 9 1035 39 10000 4.6 90 01:19 12.10.2019
6401 Clouds 13 1034 26 10000 4.6 80 00:40 12.10.2019
6402 Clouds 16 1034 25 10000 6.7 100 23:59 11.10.2019
6403 Clouds 16 1034 25 10000 6.7 100 23:40 11.10.2019
6404 Clouds 16 1034 25 10000 6.7 100 23:20 11.10.2019
6405 Clouds 16 1034 23 10000 6.2 100 22:40 11.10.2019
6406 Clouds 16 1034 23 10000 6.2 100 22:40 11.10.2019
6407 Clouds 16 1034 23 10000 6.2 100 22:21 11.10.2019
6408 Clouds 17 1035 25 10000 5.7 120 21:56 11.10.2019
6409 Clouds 17 1035 25 10000 5.7 120 21:38 11.10.2019
6410 Clouds 17 1035 25 10000 5.7 120 21:20 11.10.2019
6411 Clouds 15 1036 33 10000 4.1 90 20:44 11.10.2019
6412 Clouds 15 1036 33 10000 4.1 90 20:26 11.10.2019
6413 Clouds 15 1037 30 10000 4.1 150 19:57 11.10.2019
6414 Clouds 15 1037 30 10000 4.1 150 19:38 11.10.2019
6415 Clouds 15 1037 30 10000 4.1 150 19:18 11.10.2019
6416 Clouds 14 1038 30 10000 3.6 150 18:58 11.10.2019
6417 Clouds 14 1038 30 10000 3.6 150 18:58 11.10.2019
6418 Clouds 14 1038 30 10000 3.6 150 18:38 11.10.2019
6419 Clouds 14 1038 30 10000 3.6 150 18:19 11.10.2019
6420 Clouds 12 1038 34 10000 3.6 150 17:58 11.10.2019
6421 Clouds 12 1038 34 10000 3.6 150 17:37 11.10.2019
6422 Clouds 12 1038 34 10000 3.6 150 17:18 11.10.2019
6423 Clouds 11 1038 25 10000 2.1 140 16:54 11.10.2019
6424 Clouds 11 1038 25 10000 2.1 140 16:54 11.10.2019
6425 Clouds 11 1038 25 10000 2.1 140 16:36 11.10.2019
6426 Clouds 11 1038 25 10000 2.1 140 16:18 11.10.2019
6427 Clouds 9 1038 34 10000 1 0 15:39 11.10.2019
6428 Clouds 9 1038 34 10000 1 0 15:19 11.10.2019
6429 Clouds 7 1038 48 10000 1 0 14:49 11.10.2019
6430 Clouds 7 1038 48 10000 1 0 14:30 11.10.2019
6431 Clouds 4 1037 56 6000 1.5 10 13:57 11.10.2019
6432 Clouds 4 1037 56 6000 1.5 10 13:39 11.10.2019
6433 Clouds 4 1037 59 6000 1.5 10 13:21 11.10.2019
6434 Clouds 4 1037 59 6000 1.5 10 13:21 11.10.2019
6435 Fog 0 1037 59 4000 1.5 10 12:56 11.10.2019
6436 Fog 0 1037 59 4000 1.5 10 12:38 11.10.2019
6437 Fog 0 1037 80 4000 1.5 10 12:19 11.10.2019
6438 Fog 2 1036 80 4000 1 0 11:41 11.10.2019
6439 Fog 2 1036 80 4000 1 0 11:22 11.10.2019
6440 Fog 2 1036 80 4000 1 0 11:22 11.10.2019
6441 Fog 2 1036 80 4000 1 0 10:58 11.10.2019
6442 Fog 2 1036 80 4000 1 0 10:58 11.10.2019
6443 Fog 2 1036 80 4000 1 0 10:58 11.10.2019
6444 Fog 2 1036 80 4000 1 0 10:40 11.10.2019
6445 Fog 2 1036 80 4000 1 0 10:22 11.10.2019
6446 Fog -1 1035 92 4000 1 0 09:56 11.10.2019
6447 Fog -1 1035 92 4000 1 0 09:37 11.10.2019
6448 Fog -1 1035 92 4000 1 0 09:19 11.10.2019
6449 Clear -1 1035 74 10000 1 0 08:55 11.10.2019
6450 Clear -1 1035 74 10000 1 0 08:36 11.10.2019
6451 Clear -1 1035 74 10000 1 0 08:18 11.10.2019
6452 Clear 1 1036 47 10000 3.1 80 07:41 11.10.2019
6453 Clear 1 1036 47 10000 3.1 80 07:22 11.10.2019
6454 Clear 3 1037 23 10000 2.6 80 06:47 11.10.2019
6455 Clear 3 1037 23 10000 2.6 80 06:22 11.10.2019
6456 Clear 7 1037 16 10000 5.1 60 05:39 11.10.2019
6457 Clear 7 1037 16 10000 4.6 60 04:59 11.10.2019
6458 Clear 7 1037 16 10000 4.6 60 04:24 11.10.2019
6459 Clear 9 1036 21 10000 4.6 50 02:19 11.10.2019
6460 Clouds 14 1035 15 10000 4.1 100 00:47 11.10.2019
6461 Clouds 14 1035 15 10000 4.1 100 00:27 11.10.2019
6462 Clouds 15 1035 14 10000 3.6 80 23:43 10.10.2019
6463 Clouds 15 1035 14 10000 3.6 80 23:21 10.10.2019
6464 Clouds 16 1035 11 10000 5.1 80 22:57 10.10.2019
6465 Clouds 16 1035 11 10000 5.1 80 22:38 10.10.2019
6466 Clouds 16 1035 11 10000 5.1 80 22:20 10.10.2019
6467 Clouds 17 1035 10 10000 4.6 60 21:56 10.10.2019
6468 Clouds 17 1035 10 10000 4.6 60 21:56 10.10.2019
6469 Clouds 17 1035 10 10000 4.6 60 21:56 10.10.2019
6470 Clouds 17 1035 10 10000 4.6 60 21:38 10.10.2019
6471 Clouds 17 1035 10 10000 4.6 60 21:20 10.10.2019
6472 Clouds 17 1036 11 10000 4.6 80 20:42 10.10.2019
6473 Clouds 17 1036 11 10000 4.6 80 20:21 10.10.2019
6474 Clouds 17 1037 13 10000 6.2 120 19:58 10.10.2019
6475 Clouds 17 1037 13 10000 6.2 120 19:40 10.10.2019
6476 Clouds 17 1037 13 10000 6.2 120 19:20 10.10.2019
6477 Clouds 15 1038 18 10000 4.6 110 18:56 10.10.2019
6478 Clouds 15 1038 18 10000 4.6 110 18:38 10.10.2019
6479 Clouds 15 1038 18 10000 4.6 110 18:19 10.10.2019
6480 Clouds 13 1039 37 10000 3.6 140 17:41 10.10.2019
6481 Clouds 13 1039 37 10000 3.6 140 17:20 10.10.2019
6482 Clouds 11 1039 50 10000 2.1 130 16:58 10.10.2019
6483 Clouds 11 1039 50 10000 2.1 130 16:39 10.10.2019
6484 Clouds 11 1039 50 10000 2.1 130 16:21 10.10.2019
6485 Clouds 9 1039 42 10000 1 0 15:43 10.10.2019
6486 Clouds 9 1039 42 10000 1 0 15:24 10.10.2019
6487 Clouds 6 1039 70 10000 1.5 80 14:59 10.10.2019
6488 Clouds 6 1039 70 10000 1.5 80 14:37 10.10.2019
6489 Clouds 6 1039 70 10000 1.5 80 14:37 10.10.2019
6490 Clouds 6 1039 70 10000 1.5 80 14:19 10.10.2019
6491 Clouds 2 1038 93 6000 1.5 20 13:58 10.10.2019
6492 Clouds 2 1038 93 6000 1.5 20 13:39 10.10.2019
6493 Clouds 2 1038 93 6000 1.5 20 13:18 10.10.2019
6494 Fog -2 1037 92 4000 2.6 70 12:43 10.10.2019
6495 Fog -2 1037 92 4000 2.6 70 12:21 10.10.2019
6496 Fog -1 1036 92 4000 3.1 90 11:58 10.10.2019
6497 Fog -1 1036 92 4000 3.1 90 11:40 10.10.2019
6498 Fog -1 1036 92 4000 3.1 90 11:20 10.10.2019
6499 Fog -1 1036 100 4000 1 0 10:57 10.10.2019
6500 Fog -1 1036 100 4000 1 0 10:39 10.10.2019
6501 Fog -1 1036 100 4000 1 0 10:20 10.10.2019
6502 Fog -1 1036 100 4000 1.5 100 09:41 10.10.2019
6503 Fog -1 1036 100 4000 1.5 100 09:23 10.10.2019
6504 Fog 1 1037 71 4000 2.1 110 08:59 10.10.2019
6505 Fog 1 1037 71 4000 2.1 110 08:40 10.10.2019
6506 Fog 1 1037 71 4000 2.1 110 08:21 10.10.2019
6507 Clear 2 1037 71 10000 3.1 90 07:48 10.10.2019
6508 Clear 2 1037 71 10000 3.1 90 07:26 10.10.2019
6509 Clear 3 1038 71 10000 2.1 120 06:56 10.10.2019
6510 Clear 3 1038 71 10000 2.1 120 06:38 10.10.2019
6511 Clear 3 1038 59 10000 3.6 70 05:50 10.10.2019
6512 Clear 3 1038 59 10000 3.6 70 05:19 10.10.2019
6513 Clear 5 1038 65 10000 4.1 80 04:35 10.10.2019
6514 Clouds 8 1037 39 10000 4.6 60 02:42 10.10.2019
6515 Clouds 9 1036 39 10000 6.2 50 01:37 10.10.2019
6516 Clouds 9 1036 39 10000 6.2 50 01:18 10.10.2019
6517 Clouds 12 1036 30 10000 3.1 80 00:33 10.10.2019
6518 Clouds 14 1036 24 10000 4.1 50 23:42 09.10.2019
6519 Clouds 14 1036 24 10000 4.1 50 23:24 09.10.2019
6520 Clouds 14 1036 24 10000 4.1 50 23:24 09.10.2019
6521 Clouds 15 1036 21 10000 4.1 110 22:59 09.10.2019
6522 Clouds 15 1036 21 10000 4.1 110 22:41 09.10.2019
6523 Clouds 15 1036 21 10000 4.1 110 22:22 09.10.2019
6524 Clouds 15 1037 19 10000 5.7 80 21:56 09.10.2019
6525 Clouds 15 1037 19 10000 5.7 80 21:38 09.10.2019
6526 Clouds 15 1037 19 10000 5.7 80 21:38 09.10.2019
6527 Clouds 15 1037 19 10000 5.7 80 21:18 09.10.2019
6528 Clouds 15 1038 19 10000 5.7 80 20:54 09.10.2019
6529 Clouds 15 1038 19 10000 5.7 80 20:36 09.10.2019
6530 Clouds 15 1038 19 10000 5.7 80 20:18 09.10.2019
6531 Clouds 14 1039 26 10000 5.7 140 19:43 09.10.2019
6532 Clouds 14 1039 26 10000 5.7 140 19:22 09.10.2019
6533 Clouds 13 1040 32 10000 5.1 130 18:39 09.10.2019
6534 Clouds 13 1040 32 10000 5.1 130 18:20 09.10.2019
6535 Clouds 12 1040 37 10000 4.1 110 17:58 09.10.2019
6536 Clouds 12 1040 37 10000 4.1 110 17:39 09.10.2019
6537 Clouds 12 1040 37 10000 4.1 110 17:21 09.10.2019
6538 Clouds 10 1040 26 10000 3.6 140 16:56 09.10.2019
6539 Clouds 10 1040 26 10000 3.6 140 16:37 09.10.2019
6540 Clouds 10 1040 26 10000 3.6 140 16:19 09.10.2019
6541 Clouds 7 1040 70 10000 3.6 100 15:55 09.10.2019
6542 Clouds 7 1040 70 10000 3.6 100 15:55 09.10.2019
6543 Clouds 7 1040 70 10000 3.6 100 15:37 09.10.2019
6544 Clouds 7 1040 70 10000 3.6 100 15:18 09.10.2019
6545 Clouds 6 1040 70 10000 4.1 80 14:44 09.10.2019
6546 Clouds 6 1040 70 10000 4.1 80 14:44 09.10.2019
6547 Clouds 6 1040 70 10000 4.1 80 14:19 09.10.2019
6548 Clouds 3 1039 86 6000 4.6 90 13:59 09.10.2019
6549 Clouds 3 1039 86 6000 4.6 90 13:37 09.10.2019
6550 Clouds 3 1039 86 6000 4.6 90 13:18 09.10.2019
6551 Fog 2 1038 93 4000 2.6 100 12:43 09.10.2019
6552 Fog 2 1038 93 4000 2.6 100 12:22 09.10.2019
6553 Mist -2 1037 92 3000 2.6 70 11:58 09.10.2019
6554 Mist -2 1037 92 3000 2.6 70 11:39 09.10.2019
6555 Mist -2 1037 92 3000 2.6 70 11:20 09.10.2019
6556 Fog -2 1037 86 4000 1.5 70 10:57 09.10.2019
6557 Fog -2 1037 86 4000 1.5 70 10:57 09.10.2019
6558 Fog -2 1037 86 4000 1.5 70 10:39 09.10.2019
6559 Fog -2 1037 86 4000 1.5 70 10:18 09.10.2019
6560 Clouds -1 1037 80 10000 2.48 124.1 09:42 09.10.2019
6561 Clouds -1 1037 80 10000 2.78 151.33 09:20 09.10.2019
6562 Clear 0 1037 71 10000 1 0 08:56 09.10.2019
6563 Clear 0 1037 70 10000 1 0 08:37 09.10.2019
6564 Clear 0 1037 70 10000 1 0 08:18 09.10.2019
6565 Clear 0 1037 70 10000 1 0 08:18 09.10.2019
6566 Clear 0 1038 70 10000 1 0 07:43 09.10.2019
6567 Clear 0 1038 70 10000 1 0 07:23 09.10.2019
6568 Clear 3 1038 32 10000 2.1 70 06:52 09.10.2019
6569 Clear 3 1038 32 10000 2.1 70 06:20 09.10.2019
6570 Clear 4 1038 25 10000 3.6 80 05:46 09.10.2019
6571 Clear 6 1038 18 10000 5.1 80 04:27 09.10.2019
6572 Clear 8 1037 22 10000 7.2 40 02:54 09.10.2019
6573 Clouds 8 1036 36 10000 6.7 50 01:44 09.10.2019
6574 Clouds 8 1036 36 10000 6.7 50 01:21 09.10.2019
6575 Clouds 8 1036 36 10000 6.7 50 01:21 09.10.2019
6576 Clouds 8 1036 36 10000 6.7 50 01:21 09.10.2019
6577 Clouds 11 1036 25 10000 6.7 40 00:57 09.10.2019
6578 Clouds 11 1036 25 10000 6.7 40 00:39 09.10.2019
6579 Clouds 11 1036 25 10000 6.7 40 00:20 09.10.2019
6580 Clouds 13 1035 30 10000 7.7 50 23:39 08.10.2019
6581 Clouds 13 1035 30 10000 7.7 50 23:19 08.10.2019
6582 Clouds 15 1035 22 10000 4.6 80 22:57 08.10.2019
6583 Clouds 15 1035 22 10000 4.6 80 22:38 08.10.2019
6584 Clouds 15 1035 22 10000 4.6 80 22:19 08.10.2019
6585 Clouds 16 1036 17 10000 4.1 110 21:57 08.10.2019
6586 Clouds 16 1036 17 10000 4.1 110 21:39 08.10.2019
6587 Clouds 16 1036 17 10000 4.1 110 21:19 08.10.2019
6588 Clouds 14 1037 5 10000 5.1 160 20:56 08.10.2019
6589 Clouds 14 1037 5 10000 5.1 160 20:37 08.10.2019
6590 Clouds 14 1037 5 10000 5.1 160 20:19 08.10.2019
6591 Clouds 14 1038 16 10000 4.1 110 19:57 08.10.2019
6592 Clouds 14 1038 16 10000 4.1 110 19:38 08.10.2019
6593 Clouds 14 1038 16 10000 4.1 110 19:19 08.10.2019
6594 Clouds 13 1039 16 10000 3.1 160 18:46 08.10.2019
6595 Clouds 13 1039 16 10000 3.1 160 18:27 08.10.2019
6596 Clouds 11 1040 15 10000 3.1 130 17:59 08.10.2019
6597 Clouds 11 1040 15 10000 3.1 130 17:40 08.10.2019
6598 Clouds 11 1040 15 10000 3.1 130 17:40 08.10.2019
6599 Clouds 11 1040 15 10000 3.1 130 17:20 08.10.2019
6600 Clear 10 1040 23 10000 2.1 130 16:56 08.10.2019
6601 Clear 10 1040 23 10000 2.1 130 16:56 08.10.2019
6602 Clear 10 1040 23 10000 2.1 130 16:37 08.10.2019
6603 Clear 10 1040 23 10000 2.1 130 16:19 08.10.2019
6604 Clear 8 1040 42 10000 1 0 15:40 08.10.2019
6605 Clear 8 1040 42 10000 1 0 15:20 08.10.2019
6606 Clear 8 1040 42 10000 1 0 15:20 08.10.2019
6607 Clouds 5 1039 65 10000 1 0 14:57 08.10.2019
6608 Clouds 5 1039 65 10000 1 0 14:38 08.10.2019
6609 Clouds 5 1039 65 10000 1 0 14:19 08.10.2019
6610 Clear 1 1038 54 10000 1.5 70 13:55 08.10.2019
6611 Clear 1 1038 54 10000 1.5 70 13:37 08.10.2019
6612 Clear 1 1038 54 10000 1.5 70 13:37 08.10.2019
6613 Clear 1 1038 54 10000 1.5 70 13:37 08.10.2019
6614 Clear 1 1038 54 10000 1.5 70 13:18 08.10.2019
6615 Clear -2 1037 100 10000 1.5 60 12:41 08.10.2019
6616 Clear -2 1037 100 10000 1.5 60 12:20 08.10.2019
6617 Clear -2 1037 100 10000 1.5 60 12:20 08.10.2019
6618 Fog -2 1036 100 4000 3.1 70 11:58 08.10.2019
6619 Fog -2 1036 100 4000 3.1 70 11:39 08.10.2019
6620 Fog -2 1036 100 4000 3.1 70 11:21 08.10.2019
6621 Fog -2 1036 100 4000 3.1 70 11:21 08.10.2019
6622 Fog -2 1036 92 4000 3.1 70 10:42 08.10.2019
6623 Fog -2 1036 92 4000 3.1 70 10:23 08.10.2019
6624 Fog -2 1036 100 4000 2.6 90 09:59 08.10.2019
6625 Fog -2 1036 100 4000 2.6 90 09:40 08.10.2019
6626 Clouds -3 1036 92 10000 2.1 90 09:22 08.10.2019
6627 Clear 0 1036 75 10000 3.1 90 08:45 08.10.2019
6628 Clear 0 1036 76 10000 3.1 90 08:25 08.10.2019
6629 Clear 2 1037 93 10000 2.6 100 07:48 08.10.2019
6630 Clear 2 1037 93 10000 2.6 100 07:24 08.10.2019
6631 Clear 3 1037 86 10000 3.6 110 06:59 08.10.2019
6632 Clear 3 1037 86 10000 3.6 110 06:39 08.10.2019
6633 Clear 3 1037 86 10000 3.6 110 06:21 08.10.2019
6634 Clear 1 1037 86 10000 3.6 80 05:43 08.10.2019
6635 Clear 3 1036 74 10000 3.6 60 04:56 08.10.2019
6636 Clear 6 1036 60 10000 4.6 110 03:31 08.10.2019
6637 Clear 6 1034 52 10000 3.1 90 02:41 08.10.2019
6638 Clouds 9 1033 34 10000 3.1 120 01:56 08.10.2019
6639 Clouds 9 1033 34 10000 3.1 120 01:38 08.10.2019
6640 Clouds 12 1033 11 10000 2.6 340 00:55 08.10.2019
6641 Clouds 12 1033 11 10000 2.6 340 00:23 08.10.2019
6642 Clouds 13 1032 11 10000 2.6 330 23:44 07.10.2019
6643 Clouds 13 1032 11 10000 2.6 330 23:21 07.10.2019
6644 Clouds 14 1033 14 10000 3.1 280 22:59 07.10.2019
6645 Clouds 14 1033 14 10000 3.1 280 22:40 07.10.2019
6646 Clouds 14 1033 14 10000 3.1 280 22:21 07.10.2019
6647 Clouds 14 1033 14 10000 3.1 280 22:21 07.10.2019
6648 Clouds 13 1034 16 10000 3.6 330 21:58 07.10.2019
6649 Clouds 13 1034 16 10000 3.6 330 21:40 07.10.2019
6650 Clouds 13 1034 16 10000 3.6 330 21:20 07.10.2019
6651 Clouds 13 1035 15 10000 5.1 280 20:58 07.10.2019
6652 Clouds 13 1035 15 10000 5.1 280 20:39 07.10.2019
6653 Clouds 13 1035 15 10000 5.1 280 20:20 07.10.2019
6654 Clouds 12 1036 14 10000 3.6 250 19:58 07.10.2019
6655 Clouds 12 1036 14 10000 3.6 250 19:40 07.10.2019
6656 Clouds 12 1036 14 10000 3.6 250 19:19 07.10.2019
6657 Clouds 11 1037 17 10000 3.6 240 18:57 07.10.2019
6658 Clouds 11 1037 17 10000 3.6 240 18:38 07.10.2019
6659 Clouds 11 1037 17 10000 3.6 240 18:18 07.10.2019
6660 Clouds 11 1037 17 10000 3.6 240 18:18 07.10.2019
6661 Clouds 9 1037 18 10000 3.1 250 17:43 07.10.2019
6662 Clouds 9 1037 18 10000 3.1 250 17:20 07.10.2019
6663 Clouds 7 1037 19 10000 2.6 200 16:56 07.10.2019
6664 Clouds 7 1037 19 10000 2.6 200 16:38 07.10.2019
6665 Clouds 7 1037 19 10000 2.6 200 16:19 07.10.2019
6666 Clouds 6 1037 28 10000 2.6 190 15:44 07.10.2019
6667 Clouds 6 1037 28 10000 2.6 190 15:25 07.10.2019
6668 Clouds 4 1037 80 10000 1 0 14:55 07.10.2019
6669 Clouds 4 1037 80 10000 1 0 14:37 07.10.2019
6670 Clouds 4 1037 80 10000 1 0 14:18 07.10.2019
6671 Fog 0 1035 49 4000 1.5 70 13:41 07.10.2019
6672 Fog 0 1035 41 4000 1.5 70 13:19 07.10.2019
6673 Fog 0 1035 41 4000 1.5 70 12:55 07.10.2019
6674 Fog 0 1035 41 4000 1.5 70 12:55 07.10.2019
6675 Clouds 6 1020 41 0 1.05 139.731 12:36 07.10.2019
6676 Clouds 4 1019 63 0 0.73 118.206 12:18 07.10.2019
6677 Fog 3 1034 93 4000 1.5 60 11:56 07.10.2019
6678 Fog 3 1034 93 4000 1.5 60 11:37 07.10.2019
6679 Fog 3 1034 93 4000 1.5 60 11:18 07.10.2019
6680 Fog 3 1034 93 4000 2.1 60 10:40 07.10.2019
6681 Fog 3 1034 93 4000 2.1 60 10:20 07.10.2019
6682 Fog 3 1035 93 4000 1 0 09:42 07.10.2019
6683 Fog 3 1035 93 4000 1 0 09:23 07.10.2019
6684 Fog 3 1036 93 4000 2.1 80 08:56 07.10.2019
6685 Fog 3 1036 93 4000 2.1 80 08:37 07.10.2019
6686 Fog 3 1036 93 4000 2.1 80 08:18 07.10.2019
6687 Fog 3 1036 86 4000 2.1 70 07:40 07.10.2019
6688 Fog 3 1036 86 4000 2.1 70 07:20 07.10.2019
6689 Fog 4 1037 86 4000 3.6 100 06:44 07.10.2019
6690 Fog 4 1037 86 4000 3.6 100 06:23 07.10.2019
6691 Fog 4 1036 93 4000 4.1 120 05:30 07.10.2019
6692 Fog 4 1036 93 4000 3.1 70 04:58 07.10.2019
6693 Fog 4 1036 93 4000 3.1 70 04:20 07.10.2019
6694 Fog 5 1035 86 4000 3.1 100 03:44 07.10.2019
6695 Fog 5 1035 86 4000 3.1 100 03:44 07.10.2019
6696 Fog 5 1035 86 4000 3.1 100 03:19 07.10.2019
6697 Clouds 6 1033 81 10000 5.1 110 02:20 07.10.2019
6698 Clouds 7 1032 75 10000 4.6 110 01:47 07.10.2019
6699 Clouds 7 1032 75 10000 4.6 110 01:19 07.10.2019
6700 Clouds 9 1031 61 10000 5.7 110 00:38 07.10.2019
6701 Clouds 9 1031 61 10000 5.7 110 00:19 07.10.2019
6702 Clouds 12 1031 18 10000 4.1 300 23:42 06.10.2019
6703 Clouds 12 1031 18 10000 4.1 300 23:21 06.10.2019
6704 Clouds 12 1031 16 10000 5.7 290 22:58 06.10.2019
6705 Clouds 12 1031 16 10000 5.7 290 22:40 06.10.2019
6706 Clouds 12 1031 16 10000 5.7 290 22:21 06.10.2019
6707 Clouds 13 1032 19 10000 6.7 300 21:57 06.10.2019
6708 Clouds 13 1032 19 10000 6.7 300 21:37 06.10.2019
6709 Clouds 13 1032 19 10000 6.7 300 21:37 06.10.2019
6710 Clouds 13 1032 19 10000 6.7 300 21:19 06.10.2019
6711 Clouds 12 1033 18 10000 7.2 300 20:57 06.10.2019
6712 Clouds 12 1033 18 10000 7.2 300 20:38 06.10.2019
6713 Clouds 12 1033 18 10000 7.2 300 20:20 06.10.2019
6714 Clouds 13 1034 26 10000 7.2 280 19:57 06.10.2019
6715 Clouds 13 1034 26 10000 7.2 280 19:37 06.10.2019
6716 Clouds 13 1034 26 10000 7.2 280 19:19 06.10.2019
6717 Clouds 11 1035 29 10000 7.2 300 18:56 06.10.2019
6718 Clouds 11 1035 29 10000 7.2 300 18:56 06.10.2019
6719 Clouds 11 1035 29 10000 7.2 300 18:37 06.10.2019
6720 Clouds 11 1035 29 10000 7.2 300 18:18 06.10.2019
6721 Clouds 10 1036 43 10000 5.1 300 17:43 06.10.2019
6722 Clouds 10 1036 43 10000 5.1 300 17:20 06.10.2019
6723 Clouds 8 1036 52 10000 6.2 280 16:56 06.10.2019
6724 Clouds 8 1036 52 10000 6.2 280 16:38 06.10.2019
6725 Clouds 8 1036 52 10000 6.2 280 16:19 06.10.2019
6726 Clouds 6 1036 75 9000 2.6 250 15:43 06.10.2019
6727 Clouds 6 1036 75